<?xml version="1.0" encoding="UTF-8" standalone="no" ?>
<gpx xmlns="http://www.topografix.com/GPX/1/1" xmlns:xsi="http://www.w3.org/2001/XMLSchema-instance" xsi:schemaLocation="http://www.topografix.com/GPX/1/1 http://www.topografix.com/GPX/1/1/gpx.xsd" version="1.1" creator="VisuGPX - https://www.visugpx.com">
  <metadata>
    <name>Des Mouettes aux Cigales 2021</name>
  </metadata>
  <trk>
    <name><![CDATA[Étape 5 : Orléans - Cosne-sur-Loire]]></name>
    <extensions>
      <line xmlns="http://www.topografix.com/GPX/gpx_style/0/2">
        <color>FF00FF</color>
        <width>4</width>
      </line>
    </extensions>
    <trkseg>
      <trkpt lat="47.89902" lon="1.92051">
        <ele>104.592015</ele>
        <time>2021-09-09T05:52:47.000Z</time>
      </trkpt>
      <trkpt lat="47.89911" lon="1.92045">
        <ele>104.592015</ele>
        <time>2021-09-09T05:52:51.000Z</time>
      </trkpt>
      <trkpt lat="47.89914" lon="1.92044">
        <ele>104.592015</ele>
        <time>2021-09-09T05:52:53.000Z</time>
      </trkpt>
      <trkpt lat="47.89919" lon="1.92041">
        <ele>104.592015</ele>
        <time>2021-09-09T05:52:55.000Z</time>
      </trkpt>
      <trkpt lat="47.89933" lon="1.92036">
        <ele>104.592015</ele>
        <time>2021-09-09T05:53:00.000Z</time>
      </trkpt>
      <trkpt lat="47.89939" lon="1.92035">
        <ele>104.592015</ele>
        <time>2021-09-09T05:53:02.000Z</time>
      </trkpt>
      <trkpt lat="47.89941" lon="1.92034">
        <ele>104.592015</ele>
        <time>2021-09-09T05:53:03.000Z</time>
      </trkpt>
      <trkpt lat="47.89948" lon="1.92033">
        <ele>104.592015</ele>
        <time>2021-09-09T05:53:06.000Z</time>
      </trkpt>
      <trkpt lat="47.89949" lon="1.92035">
        <ele>104.592015</ele>
        <time>2021-09-09T05:53:07.000Z</time>
      </trkpt>
      <trkpt lat="47.89949" lon="1.92038">
        <ele>104.592015</ele>
        <time>2021-09-09T05:53:08.000Z</time>
      </trkpt>
      <trkpt lat="47.89947" lon="1.92044">
        <ele>104.592015</ele>
        <time>2021-09-09T05:53:10.000Z</time>
      </trkpt>
      <trkpt lat="47.89945" lon="1.92046">
        <ele>104.592015</ele>
        <time>2021-09-09T05:53:11.000Z</time>
      </trkpt>
      <trkpt lat="47.89929" lon="1.92052">
        <ele>104.592015</ele>
        <time>2021-09-09T05:53:18.000Z</time>
      </trkpt>
      <trkpt lat="47.89915" lon="1.92039">
        <ele>104.593469</ele>
        <time>2021-09-09T05:53:25.000Z</time>
      </trkpt>
      <trkpt lat="47.89908" lon="1.92032">
        <ele>104.598567</ele>
        <time>2021-09-09T05:53:29.000Z</time>
      </trkpt>
      <trkpt lat="47.89906" lon="1.92033">
        <ele>104.599684</ele>
        <time>2021-09-09T05:53:30.000Z</time>
      </trkpt>
      <trkpt lat="47.89896" lon="1.92036">
        <ele>104.606139</ele>
        <time>2021-09-09T05:53:36.000Z</time>
      </trkpt>
      <trkpt lat="47.89881" lon="1.92041">
        <ele>104.61592</ele>
        <time>2021-09-09T05:53:43.000Z</time>
      </trkpt>
      <trkpt lat="47.8986" lon="1.92047">
        <ele>104.629609</ele>
        <time>2021-09-09T05:53:52.000Z</time>
      </trkpt>
      <trkpt lat="47.89839" lon="1.92054">
        <ele>104.643104</ele>
        <time>2021-09-09T05:53:58.000Z</time>
      </trkpt>
      <trkpt lat="47.89808" lon="1.92064">
        <ele>104.663106</ele>
        <time>2021-09-09T05:54:06.000Z</time>
      </trkpt>
      <trkpt lat="47.89781" lon="1.92072">
        <ele>104.680633</ele>
        <time>2021-09-09T05:54:12.000Z</time>
      </trkpt>
      <trkpt lat="47.89729" lon="1.92088">
        <ele>104.753176</ele>
        <time>2021-09-09T05:54:22.000Z</time>
      </trkpt>
      <trkpt lat="47.89692" lon="1.921">
        <ele>104.887179</ele>
        <time>2021-09-09T05:54:29.000Z</time>
      </trkpt>
      <trkpt lat="47.89651" lon="1.92112">
        <ele>105.032939</ele>
        <time>2021-09-09T05:54:37.000Z</time>
      </trkpt>
      <trkpt lat="47.89615" lon="1.92124">
        <ele>105.162868</ele>
        <time>2021-09-09T05:54:45.000Z</time>
      </trkpt>
      <trkpt lat="47.89581" lon="1.92134">
        <ele>105.284534</ele>
        <time>2021-09-09T05:54:52.000Z</time>
      </trkpt>
      <trkpt lat="47.89544" lon="1.92146">
        <ele>105.31366</ele>
        <time>2021-09-09T05:55:00.000Z</time>
      </trkpt>
      <trkpt lat="47.89501" lon="1.9216">
        <ele>105.264362</ele>
        <time>2021-09-09T05:55:09.000Z</time>
      </trkpt>
      <trkpt lat="47.89459" lon="1.92172">
        <ele>105.217194</ele>
        <time>2021-09-09T05:55:17.000Z</time>
      </trkpt>
      <trkpt lat="47.8943" lon="1.92181">
        <ele>105.184525</ele>
        <time>2021-09-09T05:55:22.000Z</time>
      </trkpt>
      <trkpt lat="47.89393" lon="1.92193">
        <ele>105.141544</ele>
        <time>2021-09-09T05:55:29.000Z</time>
      </trkpt>
      <trkpt lat="47.89366" lon="1.92203">
        <ele>104.640297</ele>
        <time>2021-09-09T05:55:35.000Z</time>
      </trkpt>
      <trkpt lat="47.89352" lon="1.92212">
        <ele>104.322349</ele>
        <time>2021-09-09T05:55:39.000Z</time>
      </trkpt>
      <trkpt lat="47.89347" lon="1.92216">
        <ele>104.220501</ele>
        <time>2021-09-09T05:55:40.000Z</time>
      </trkpt>
      <trkpt lat="47.89342" lon="1.92225">
        <ele>104.048808</ele>
        <time>2021-09-09T05:55:42.000Z</time>
      </trkpt>
      <trkpt lat="47.89341" lon="1.92237">
        <ele>103.891358</ele>
        <time>2021-09-09T05:55:45.000Z</time>
      </trkpt>
      <trkpt lat="47.89342" lon="1.92239">
        <ele>103.863562</ele>
        <time>2021-09-09T05:55:46.000Z</time>
      </trkpt>
      <trkpt lat="47.89342" lon="1.92242">
        <ele>103.826736</ele>
        <time>2021-09-09T05:55:48.000Z</time>
      </trkpt>
      <trkpt lat="47.89341" lon="1.92243">
        <ele>103.798231</ele>
        <time>2021-09-09T05:55:49.000Z</time>
      </trkpt>
      <trkpt lat="47.89339" lon="1.92243">
        <ele>103.771687</ele>
        <time>2021-09-09T05:55:50.000Z</time>
      </trkpt>
      <trkpt lat="47.89339" lon="1.9224">
        <ele>103.732194</ele>
        <time>2021-09-09T05:55:52.000Z</time>
      </trkpt>
      <trkpt lat="47.89348" lon="1.92235">
        <ele>103.542804</ele>
        <time>2021-09-09T05:55:56.000Z</time>
      </trkpt>
      <trkpt lat="47.89368" lon="1.92225">
        <ele>103.120278</ele>
        <time>2021-09-09T05:56:01.000Z</time>
      </trkpt>
      <trkpt lat="47.89377" lon="1.9222">
        <ele>102.930888</ele>
        <time>2021-09-09T05:56:03.000Z</time>
      </trkpt>
      <trkpt lat="47.8939" lon="1.92214">
        <ele>102.657628</ele>
        <time>2021-09-09T05:56:06.000Z</time>
      </trkpt>
      <trkpt lat="47.89394" lon="1.92213">
        <ele>102.567617</ele>
        <time>2021-09-09T05:56:07.000Z</time>
      </trkpt>
      <trkpt lat="47.89422" lon="1.92204">
        <ele>101.984998</ele>
        <time>2021-09-09T05:56:13.000Z</time>
      </trkpt>
      <trkpt lat="47.89446" lon="1.92193">
        <ele>101.468487</ele>
        <time>2021-09-09T05:56:18.000Z</time>
      </trkpt>
      <trkpt lat="47.89465" lon="1.92188">
        <ele>101.101196</ele>
        <time>2021-09-09T05:56:22.000Z</time>
      </trkpt>
      <trkpt lat="47.89475" lon="1.92186">
        <ele>100.913489</ele>
        <time>2021-09-09T05:56:24.000Z</time>
      </trkpt>
      <trkpt lat="47.89484" lon="1.92182">
        <ele>100.74528</ele>
        <time>2021-09-09T05:56:26.000Z</time>
      </trkpt>
      <trkpt lat="47.89489" lon="1.92174">
        <ele>100.603357</ele>
        <time>2021-09-09T05:56:28.000Z</time>
      </trkpt>
      <trkpt lat="47.89494" lon="1.92168">
        <ele>100.485351</ele>
        <time>2021-09-09T05:56:31.000Z</time>
      </trkpt>
      <trkpt lat="47.89496" lon="1.92168">
        <ele>100.448809</ele>
        <time>2021-09-09T05:56:32.000Z</time>
      </trkpt>
      <trkpt lat="47.89506" lon="1.92184">
        <ele>100.175643</ele>
        <time>2021-09-09T05:56:37.000Z</time>
      </trkpt>
      <trkpt lat="47.89512" lon="1.92193">
        <ele>100.00462</ele>
        <time>2021-09-09T05:56:41.000Z</time>
      </trkpt>
      <trkpt lat="47.89518" lon="1.92216">
        <ele>99.693223</ele>
        <time>2021-09-09T05:56:45.000Z</time>
      </trkpt>
      <trkpt lat="47.8952" lon="1.92242">
        <ele>99.365461</ele>
        <time>2021-09-09T05:56:49.000Z</time>
      </trkpt>
      <trkpt lat="47.89521" lon="1.9226">
        <ele>99.135747</ele>
        <time>2021-09-09T05:56:53.000Z</time>
      </trkpt>
      <trkpt lat="47.89525" lon="1.923">
        <ele>98.613899</ele>
        <time>2021-09-09T05:57:00.000Z</time>
      </trkpt>
      <trkpt lat="47.89527" lon="1.9234">
        <ele>98.11055</ele>
        <time>2021-09-09T05:57:06.000Z</time>
      </trkpt>
      <trkpt lat="47.89528" lon="1.92392">
        <ele>97.945586</ele>
        <time>2021-09-09T05:57:13.000Z</time>
      </trkpt>
      <trkpt lat="47.89526" lon="1.92424">
        <ele>97.859027</ele>
        <time>2021-09-09T05:57:18.000Z</time>
      </trkpt>
      <trkpt lat="47.89524" lon="1.92434">
        <ele>97.831323</ele>
        <time>2021-09-09T05:57:22.000Z</time>
      </trkpt>
      <trkpt lat="47.89522" lon="1.9244">
        <ele>97.813394</ele>
        <time>2021-09-09T05:57:27.000Z</time>
      </trkpt>
      <trkpt lat="47.8952" lon="1.92445">
        <ele>97.796672</ele>
        <time>2021-09-09T05:57:30.000Z</time>
      </trkpt>
      <trkpt lat="47.89516" lon="1.92462">
        <ele>97.749902</ele>
        <time>2021-09-09T05:57:38.000Z</time>
      </trkpt>
      <trkpt lat="47.89511" lon="1.92472">
        <ele>97.71613</ele>
        <time>2021-09-09T05:57:44.000Z</time>
      </trkpt>
      <trkpt lat="47.89511" lon="1.92473">
        <ele>97.710888</ele>
        <time>2021-09-09T05:57:45.000Z</time>
      </trkpt>
      <trkpt lat="47.8951" lon="1.92481">
        <ele>97.689501</ele>
        <time>2021-09-09T05:57:48.000Z</time>
      </trkpt>
      <trkpt lat="47.89505" lon="1.92506">
        <ele>97.620095</ele>
        <time>2021-09-09T05:57:54.000Z</time>
      </trkpt>
      <trkpt lat="47.89502" lon="1.92538">
        <ele>97.533175</ele>
        <time>2021-09-09T05:58:01.000Z</time>
      </trkpt>
      <trkpt lat="47.89499" lon="1.92566">
        <ele>97.457553</ele>
        <time>2021-09-09T05:58:06.000Z</time>
      </trkpt>
      <trkpt lat="47.89496" lon="1.92589">
        <ele>97.393836</ele>
        <time>2021-09-09T05:58:10.000Z</time>
      </trkpt>
      <trkpt lat="47.89495" lon="1.92595">
        <ele>97.377839</ele>
        <time>2021-09-09T05:58:11.000Z</time>
      </trkpt>
      <trkpt lat="47.89495" lon="1.92601">
        <ele>97.361653</ele>
        <time>2021-09-09T05:58:12.000Z</time>
      </trkpt>
      <trkpt lat="47.89492" lon="1.92624">
        <ele>97.429311</ele>
        <time>2021-09-09T05:58:16.000Z</time>
      </trkpt>
      <trkpt lat="47.89487" lon="1.92667">
        <ele>97.573969</ele>
        <time>2021-09-09T05:58:23.000Z</time>
      </trkpt>
      <trkpt lat="47.89484" lon="1.92692">
        <ele>97.65971</ele>
        <time>2021-09-09T05:58:27.000Z</time>
      </trkpt>
      <trkpt lat="47.89484" lon="1.92705">
        <ele>97.700963</ele>
        <time>2021-09-09T05:58:29.000Z</time>
      </trkpt>
      <trkpt lat="47.89478" lon="1.9275">
        <ele>97.85281</ele>
        <time>2021-09-09T05:58:36.000Z</time>
      </trkpt>
      <trkpt lat="47.89473" lon="1.92788">
        <ele>97.981078</ele>
        <time>2021-09-09T05:58:43.000Z</time>
      </trkpt>
      <trkpt lat="47.89471" lon="1.92808">
        <ele>98.049312</ele>
        <time>2021-09-09T05:58:49.000Z</time>
      </trkpt>
      <trkpt lat="47.89469" lon="1.92823">
        <ele>98.10091</ele>
        <time>2021-09-09T05:58:54.000Z</time>
      </trkpt>
      <trkpt lat="47.89465" lon="1.92848">
        <ele>98.185108</ele>
        <time>2021-09-09T05:59:01.000Z</time>
      </trkpt>
      <trkpt lat="47.89464" lon="1.9287">
        <ele>98.266235</ele>
        <time>2021-09-09T05:59:08.000Z</time>
      </trkpt>
      <trkpt lat="47.89462" lon="1.9289">
        <ele>98.370076</ele>
        <time>2021-09-09T05:59:14.000Z</time>
      </trkpt>
      <trkpt lat="47.8946" lon="1.92909">
        <ele>98.472982</ele>
        <time>2021-09-09T05:59:20.000Z</time>
      </trkpt>
      <trkpt lat="47.89458" lon="1.92928">
        <ele>98.575367</ele>
        <time>2021-09-09T05:59:24.000Z</time>
      </trkpt>
      <trkpt lat="47.89453" lon="1.92975">
        <ele>98.826016</ele>
        <time>2021-09-09T05:59:31.000Z</time>
      </trkpt>
      <trkpt lat="47.89452" lon="1.92982">
        <ele>98.862721</ele>
        <time>2021-09-09T05:59:32.000Z</time>
      </trkpt>
      <trkpt lat="47.89448" lon="1.93026">
        <ele>99.096203</ele>
        <time>2021-09-09T05:59:38.000Z</time>
      </trkpt>
      <trkpt lat="47.89442" lon="1.93076">
        <ele>99.366899</ele>
        <time>2021-09-09T05:59:44.000Z</time>
      </trkpt>
      <trkpt lat="47.89433" lon="1.93157">
        <ele>99.733932</ele>
        <time>2021-09-09T05:59:53.000Z</time>
      </trkpt>
      <trkpt lat="47.89425" lon="1.93238">
        <ele>99.956282</ele>
        <time>2021-09-09T06:00:02.000Z</time>
      </trkpt>
      <trkpt lat="47.89425" lon="1.93247">
        <ele>99.98125</ele>
        <time>2021-09-09T06:00:03.000Z</time>
      </trkpt>
      <trkpt lat="47.89421" lon="1.93292">
        <ele>100.103383</ele>
        <time>2021-09-09T06:00:08.000Z</time>
      </trkpt>
      <trkpt lat="47.8942" lon="1.93317">
        <ele>100.172581</ele>
        <time>2021-09-09T06:00:11.000Z</time>
      </trkpt>
      <trkpt lat="47.89416" lon="1.93352">
        <ele>100.267756</ele>
        <time>2021-09-09T06:00:15.000Z</time>
      </trkpt>
      <trkpt lat="47.89414" lon="1.93369">
        <ele>100.317094</ele>
        <time>2021-09-09T06:00:17.000Z</time>
      </trkpt>
      <trkpt lat="47.8941" lon="1.93433">
        <ele>100.382358</ele>
        <time>2021-09-09T06:00:24.000Z</time>
      </trkpt>
      <trkpt lat="47.89408" lon="1.93476">
        <ele>100.368897</ele>
        <time>2021-09-09T06:00:29.000Z</time>
      </trkpt>
      <trkpt lat="47.89403" lon="1.93546">
        <ele>100.346767</ele>
        <time>2021-09-09T06:00:37.000Z</time>
      </trkpt>
      <trkpt lat="47.89402" lon="1.93581">
        <ele>100.335615</ele>
        <time>2021-09-09T06:00:41.000Z</time>
      </trkpt>
      <trkpt lat="47.89403" lon="1.936">
        <ele>100.329514</ele>
        <time>2021-09-09T06:00:43.000Z</time>
      </trkpt>
      <trkpt lat="47.89404" lon="1.9361">
        <ele>100.326523</ele>
        <time>2021-09-09T06:00:44.000Z</time>
      </trkpt>
      <trkpt lat="47.8941" lon="1.93634">
        <ele>100.318464</ele>
        <time>2021-09-09T06:00:47.000Z</time>
      </trkpt>
      <trkpt lat="47.89415" lon="1.93657">
        <ele>100.310687</ele>
        <time>2021-09-09T06:00:50.000Z</time>
      </trkpt>
      <trkpt lat="47.8942" lon="1.93691">
        <ele>100.279577</ele>
        <time>2021-09-09T06:00:54.000Z</time>
      </trkpt>
      <trkpt lat="47.89428" lon="1.93741">
        <ele>100.227086</ele>
        <time>2021-09-09T06:01:00.000Z</time>
      </trkpt>
      <trkpt lat="47.89432" lon="1.93758">
        <ele>100.209243</ele>
        <time>2021-09-09T06:01:02.000Z</time>
      </trkpt>
      <trkpt lat="47.89441" lon="1.9379">
        <ele>100.175141</ele>
        <time>2021-09-09T06:01:06.000Z</time>
      </trkpt>
      <trkpt lat="47.89447" lon="1.9381">
        <ele>100.152333</ele>
        <time>2021-09-09T06:01:09.000Z</time>
      </trkpt>
      <trkpt lat="47.89448" lon="1.93817">
        <ele>100.145233</ele>
        <time>2021-09-09T06:01:10.000Z</time>
      </trkpt>
      <trkpt lat="47.89448" lon="1.93824">
        <ele>100.138588</ele>
        <time>2021-09-09T06:01:11.000Z</time>
      </trkpt>
      <trkpt lat="47.89447" lon="1.93836">
        <ele>100.125709</ele>
        <time>2021-09-09T06:01:13.000Z</time>
      </trkpt>
      <trkpt lat="47.89446" lon="1.93842">
        <ele>100.119271</ele>
        <time>2021-09-09T06:01:14.000Z</time>
      </trkpt>
      <trkpt lat="47.89441" lon="1.93871">
        <ele>100.089971</ele>
        <time>2021-09-09T06:01:19.000Z</time>
      </trkpt>
      <trkpt lat="47.89438" lon="1.93881">
        <ele>100.07837</ele>
        <time>2021-09-09T06:01:21.000Z</time>
      </trkpt>
      <trkpt lat="47.89435" lon="1.93901">
        <ele>100.057724</ele>
        <time>2021-09-09T06:01:24.000Z</time>
      </trkpt>
      <trkpt lat="47.89434" lon="1.93925">
        <ele>100.039805</ele>
        <time>2021-09-09T06:01:27.000Z</time>
      </trkpt>
      <trkpt lat="47.89436" lon="1.93949">
        <ele>100.04179</ele>
        <time>2021-09-09T06:01:30.000Z</time>
      </trkpt>
      <trkpt lat="47.8944" lon="1.94012">
        <ele>100.046809</ele>
        <time>2021-09-09T06:01:37.000Z</time>
      </trkpt>
      <trkpt lat="47.89447" lon="1.94077">
        <ele>100.052105</ele>
        <time>2021-09-09T06:01:45.000Z</time>
      </trkpt>
      <trkpt lat="47.8945" lon="1.94092">
        <ele>100.053325</ele>
        <time>2021-09-09T06:01:47.000Z</time>
      </trkpt>
      <trkpt lat="47.89458" lon="1.94109">
        <ele>100.055004</ele>
        <time>2021-09-09T06:01:50.000Z</time>
      </trkpt>
      <trkpt lat="47.89474" lon="1.94135">
        <ele>100.057804</ele>
        <time>2021-09-09T06:01:55.000Z</time>
      </trkpt>
      <trkpt lat="47.89478" lon="1.94149">
        <ele>100.05902</ele>
        <time>2021-09-09T06:01:57.000Z</time>
      </trkpt>
      <trkpt lat="47.89481" lon="1.94163">
        <ele>100.060232</ele>
        <time>2021-09-09T06:01:59.000Z</time>
      </trkpt>
      <trkpt lat="47.89482" lon="1.94172">
        <ele>100.063428</ele>
        <time>2021-09-09T06:02:00.000Z</time>
      </trkpt>
      <trkpt lat="47.89482" lon="1.94179">
        <ele>100.085312</ele>
        <time>2021-09-09T06:02:01.000Z</time>
      </trkpt>
      <trkpt lat="47.89481" lon="1.94214">
        <ele>100.182117</ele>
        <time>2021-09-09T06:02:06.000Z</time>
      </trkpt>
      <trkpt lat="47.8948" lon="1.94272">
        <ele>100.346832</ele>
        <time>2021-09-09T06:02:14.000Z</time>
      </trkpt>
      <trkpt lat="47.89483" lon="1.94313">
        <ele>100.463315</ele>
        <time>2021-09-09T06:02:19.000Z</time>
      </trkpt>
      <trkpt lat="47.89491" lon="1.94368">
        <ele>100.623585</ele>
        <time>2021-09-09T06:02:25.000Z</time>
      </trkpt>
      <trkpt lat="47.89501" lon="1.94439">
        <ele>100.816745</ele>
        <time>2021-09-09T06:02:33.000Z</time>
      </trkpt>
      <trkpt lat="47.89508" lon="1.94493">
        <ele>100.755772</ele>
        <time>2021-09-09T06:02:39.000Z</time>
      </trkpt>
      <trkpt lat="47.89519" lon="1.94561">
        <ele>100.679384</ele>
        <time>2021-09-09T06:02:46.000Z</time>
      </trkpt>
      <trkpt lat="47.89534" lon="1.94645">
        <ele>100.584323</ele>
        <time>2021-09-09T06:02:54.000Z</time>
      </trkpt>
      <trkpt lat="47.89536" lon="1.94656">
        <ele>100.571965</ele>
        <time>2021-09-09T06:02:55.000Z</time>
      </trkpt>
      <trkpt lat="47.89551" lon="1.94731">
        <ele>100.523185</ele>
        <time>2021-09-09T06:03:02.000Z</time>
      </trkpt>
      <trkpt lat="47.89566" lon="1.94815">
        <ele>100.51578</ele>
        <time>2021-09-09T06:03:10.000Z</time>
      </trkpt>
      <trkpt lat="47.89568" lon="1.94826">
        <ele>100.514857</ele>
        <time>2021-09-09T06:03:11.000Z</time>
      </trkpt>
      <trkpt lat="47.89579" lon="1.94888">
        <ele>100.509298</ele>
        <time>2021-09-09T06:03:17.000Z</time>
      </trkpt>
      <trkpt lat="47.89585" lon="1.9494">
        <ele>100.504823</ele>
        <time>2021-09-09T06:03:22.000Z</time>
      </trkpt>
      <trkpt lat="47.89591" lon="1.95013">
        <ele>100.455453</ele>
        <time>2021-09-09T06:03:29.000Z</time>
      </trkpt>
      <trkpt lat="47.89597" lon="1.9509">
        <ele>100.391139</ele>
        <time>2021-09-09T06:03:36.000Z</time>
      </trkpt>
      <trkpt lat="47.89601" lon="1.95153">
        <ele>100.338415</ele>
        <time>2021-09-09T06:03:42.000Z</time>
      </trkpt>
      <trkpt lat="47.89601" lon="1.95239">
        <ele>100.293329</ele>
        <time>2021-09-09T06:03:50.000Z</time>
      </trkpt>
      <trkpt lat="47.89601" lon="1.9525">
        <ele>100.302997</ele>
        <time>2021-09-09T06:03:51.000Z</time>
      </trkpt>
      <trkpt lat="47.89597" lon="1.95319">
        <ele>100.366242</ele>
        <time>2021-09-09T06:03:58.000Z</time>
      </trkpt>
      <trkpt lat="47.89592" lon="1.95378">
        <ele>100.419769</ele>
        <time>2021-09-09T06:04:04.000Z</time>
      </trkpt>
      <trkpt lat="47.89589" lon="1.95445">
        <ele>100.480036</ele>
        <time>2021-09-09T06:04:11.000Z</time>
      </trkpt>
      <trkpt lat="47.89588" lon="1.95503">
        <ele>100.522871</ele>
        <time>2021-09-09T06:04:17.000Z</time>
      </trkpt>
      <trkpt lat="47.89587" lon="1.95575">
        <ele>100.53172</ele>
        <time>2021-09-09T06:04:25.000Z</time>
      </trkpt>
      <trkpt lat="47.89586" lon="1.95639">
        <ele>100.539598</ele>
        <time>2021-09-09T06:04:32.000Z</time>
      </trkpt>
      <trkpt lat="47.89585" lon="1.95721">
        <ele>100.549654</ele>
        <time>2021-09-09T06:04:40.000Z</time>
      </trkpt>
      <trkpt lat="47.89584" lon="1.95731">
        <ele>100.55092</ele>
        <time>2021-09-09T06:04:41.000Z</time>
      </trkpt>
      <trkpt lat="47.89582" lon="1.95771">
        <ele>100.547907</ele>
        <time>2021-09-09T06:04:45.000Z</time>
      </trkpt>
      <trkpt lat="47.89581" lon="1.95781">
        <ele>100.542868</ele>
        <time>2021-09-09T06:04:46.000Z</time>
      </trkpt>
      <trkpt lat="47.8957" lon="1.95852">
        <ele>100.505424</ele>
        <time>2021-09-09T06:04:53.000Z</time>
      </trkpt>
      <trkpt lat="47.89566" lon="1.95913">
        <ele>100.473984</ele>
        <time>2021-09-09T06:04:59.000Z</time>
      </trkpt>
      <trkpt lat="47.89567" lon="1.95971">
        <ele>100.444178</ele>
        <time>2021-09-09T06:05:05.000Z</time>
      </trkpt>
      <trkpt lat="47.89569" lon="1.96032">
        <ele>100.404924</ele>
        <time>2021-09-09T06:05:11.000Z</time>
      </trkpt>
      <trkpt lat="47.89572" lon="1.96095">
        <ele>100.303118</ele>
        <time>2021-09-09T06:05:17.000Z</time>
      </trkpt>
      <trkpt lat="47.89579" lon="1.96175">
        <ele>100.172385</ele>
        <time>2021-09-09T06:05:25.000Z</time>
      </trkpt>
      <trkpt lat="47.8958" lon="1.96185">
        <ele>100.155735</ele>
        <time>2021-09-09T06:05:26.000Z</time>
      </trkpt>
      <trkpt lat="47.89585" lon="1.96252">
        <ele>100.04757</ele>
        <time>2021-09-09T06:05:33.000Z</time>
      </trkpt>
      <trkpt lat="47.89581" lon="1.96305">
        <ele>99.935257</ele>
        <time>2021-09-09T06:05:39.000Z</time>
      </trkpt>
      <trkpt lat="47.89579" lon="1.96321">
        <ele>99.873012</ele>
        <time>2021-09-09T06:05:41.000Z</time>
      </trkpt>
      <trkpt lat="47.89575" lon="1.96345">
        <ele>99.785682</ele>
        <time>2021-09-09T06:05:44.000Z</time>
      </trkpt>
      <trkpt lat="47.89566" lon="1.96403">
        <ele>99.566477</ele>
        <time>2021-09-09T06:05:51.000Z</time>
      </trkpt>
      <trkpt lat="47.89556" lon="1.96458">
        <ele>99.36024</ele>
        <time>2021-09-09T06:05:57.000Z</time>
      </trkpt>
      <trkpt lat="47.89546" lon="1.96501">
        <ele>99.195894</ele>
        <time>2021-09-09T06:06:02.000Z</time>
      </trkpt>
      <trkpt lat="47.8954" lon="1.96517">
        <ele>99.130563</ele>
        <time>2021-09-09T06:06:04.000Z</time>
      </trkpt>
      <trkpt lat="47.89517" lon="1.96569">
        <ele>98.951246</ele>
        <time>2021-09-09T06:06:11.000Z</time>
      </trkpt>
      <trkpt lat="47.8949" lon="1.9663">
        <ele>98.810891</ele>
        <time>2021-09-09T06:06:19.000Z</time>
      </trkpt>
      <trkpt lat="47.89465" lon="1.96682">
        <ele>98.685954</ele>
        <time>2021-09-09T06:06:26.000Z</time>
      </trkpt>
      <trkpt lat="47.89443" lon="1.96731">
        <ele>98.57125</ele>
        <time>2021-09-09T06:06:33.000Z</time>
      </trkpt>
      <trkpt lat="47.89413" lon="1.96798">
        <ele>98.484195</ele>
        <time>2021-09-09T06:06:42.000Z</time>
      </trkpt>
      <trkpt lat="47.89392" lon="1.96843">
        <ele>98.479876</ele>
        <time>2021-09-09T06:06:48.000Z</time>
      </trkpt>
      <trkpt lat="47.8939" lon="1.96851">
        <ele>98.479224</ele>
        <time>2021-09-09T06:06:49.000Z</time>
      </trkpt>
      <trkpt lat="47.89392" lon="1.96867">
        <ele>98.477937</ele>
        <time>2021-09-09T06:06:51.000Z</time>
      </trkpt>
      <trkpt lat="47.89402" lon="1.96889">
        <ele>98.475787</ele>
        <time>2021-09-09T06:06:54.000Z</time>
      </trkpt>
      <trkpt lat="47.89408" lon="1.96906">
        <ele>98.474247</ele>
        <time>2021-09-09T06:06:56.000Z</time>
      </trkpt>
      <trkpt lat="47.89416" lon="1.96934">
        <ele>98.471821</ele>
        <time>2021-09-09T06:06:59.000Z</time>
      </trkpt>
      <trkpt lat="47.89437" lon="1.9701">
        <ele>98.470202</ele>
        <time>2021-09-09T06:07:07.000Z</time>
      </trkpt>
      <trkpt lat="47.89459" lon="1.97081">
        <ele>98.519177</ele>
        <time>2021-09-09T06:07:15.000Z</time>
      </trkpt>
      <trkpt lat="47.89464" lon="1.97099">
        <ele>98.532112</ele>
        <time>2021-09-09T06:07:17.000Z</time>
      </trkpt>
      <trkpt lat="47.89467" lon="1.97121">
        <ele>98.545963</ele>
        <time>2021-09-09T06:07:19.000Z</time>
      </trkpt>
      <trkpt lat="47.89465" lon="1.97143">
        <ele>98.559655</ele>
        <time>2021-09-09T06:07:21.000Z</time>
      </trkpt>
      <trkpt lat="47.89463" lon="1.97153">
        <ele>98.566408</ele>
        <time>2021-09-09T06:07:22.000Z</time>
      </trkpt>
      <trkpt lat="47.89459" lon="1.97162">
        <ele>98.573088</ele>
        <time>2021-09-09T06:07:23.000Z</time>
      </trkpt>
      <trkpt lat="47.89444" lon="1.97197">
        <ele>98.599497</ele>
        <time>2021-09-09T06:07:27.000Z</time>
      </trkpt>
      <trkpt lat="47.89415" lon="1.97268">
        <ele>98.654644</ele>
        <time>2021-09-09T06:07:35.000Z</time>
      </trkpt>
      <trkpt lat="47.89408" lon="1.97285">
        <ele>98.669891</ele>
        <time>2021-09-09T06:07:37.000Z</time>
      </trkpt>
      <trkpt lat="47.89377" lon="1.97352">
        <ele>98.729957</ele>
        <time>2021-09-09T06:07:45.000Z</time>
      </trkpt>
      <trkpt lat="47.89367" lon="1.97362">
        <ele>98.744091</ele>
        <time>2021-09-09T06:07:47.000Z</time>
      </trkpt>
      <trkpt lat="47.89354" lon="1.97371">
        <ele>98.759211</ele>
        <time>2021-09-09T06:07:49.000Z</time>
      </trkpt>
      <trkpt lat="47.89312" lon="1.97409">
        <ele>98.814042</ele>
        <time>2021-09-09T06:07:56.000Z</time>
      </trkpt>
      <trkpt lat="47.89274" lon="1.97457">
        <ele>98.923008</ele>
        <time>2021-09-09T06:08:03.000Z</time>
      </trkpt>
      <trkpt lat="47.89236" lon="1.97517">
        <ele>99.082987</ele>
        <time>2021-09-09T06:08:11.000Z</time>
      </trkpt>
      <trkpt lat="47.89197" lon="1.97561">
        <ele>99.220784</ele>
        <time>2021-09-09T06:08:18.000Z</time>
      </trkpt>
      <trkpt lat="47.89153" lon="1.97607">
        <ele>99.371432</ele>
        <time>2021-09-09T06:08:26.000Z</time>
      </trkpt>
      <trkpt lat="47.89148" lon="1.97613">
        <ele>99.387663</ele>
        <time>2021-09-09T06:08:27.000Z</time>
      </trkpt>
      <trkpt lat="47.89111" lon="1.9767">
        <ele>99.517718</ele>
        <time>2021-09-09T06:08:35.000Z</time>
      </trkpt>
      <trkpt lat="47.89076" lon="1.97731">
        <ele>99.648021</ele>
        <time>2021-09-09T06:08:43.000Z</time>
      </trkpt>
      <trkpt lat="47.89041" lon="1.97794">
        <ele>99.781385</ele>
        <time>2021-09-09T06:08:51.000Z</time>
      </trkpt>
      <trkpt lat="47.89033" lon="1.97809">
        <ele>99.807208</ele>
        <time>2021-09-09T06:08:53.000Z</time>
      </trkpt>
      <trkpt lat="47.88994" lon="1.97878">
        <ele>99.917779</ele>
        <time>2021-09-09T06:09:02.000Z</time>
      </trkpt>
      <trkpt lat="47.8899" lon="1.97886">
        <ele>99.929819</ele>
        <time>2021-09-09T06:09:03.000Z</time>
      </trkpt>
      <trkpt lat="47.88954" lon="1.97947">
        <ele>100.028906</ele>
        <time>2021-09-09T06:09:11.000Z</time>
      </trkpt>
      <trkpt lat="47.88949" lon="1.97954">
        <ele>100.041262</ele>
        <time>2021-09-09T06:09:12.000Z</time>
      </trkpt>
      <trkpt lat="47.88914" lon="1.98014">
        <ele>100.101375</ele>
        <time>2021-09-09T06:09:20.000Z</time>
      </trkpt>
      <trkpt lat="47.88877" lon="1.98085">
        <ele>100.035464</ele>
        <time>2021-09-09T06:09:29.000Z</time>
      </trkpt>
      <trkpt lat="47.88873" lon="1.98093">
        <ele>100.02836</ele>
        <time>2021-09-09T06:09:30.000Z</time>
      </trkpt>
      <trkpt lat="47.88852" lon="1.98157">
        <ele>99.976504</ele>
        <time>2021-09-09T06:09:37.000Z</time>
      </trkpt>
      <trkpt lat="47.88834" lon="1.98229">
        <ele>99.92001</ele>
        <time>2021-09-09T06:09:45.000Z</time>
      </trkpt>
      <trkpt lat="47.88826" lon="1.98295">
        <ele>99.779759</ele>
        <time>2021-09-09T06:09:52.000Z</time>
      </trkpt>
      <trkpt lat="47.88825" lon="1.98369">
        <ele>99.622887</ele>
        <time>2021-09-09T06:10:00.000Z</time>
      </trkpt>
      <trkpt lat="47.88831" lon="1.98427">
        <ele>99.499184</ele>
        <time>2021-09-09T06:10:06.000Z</time>
      </trkpt>
      <trkpt lat="47.88841" lon="1.98495">
        <ele>99.353426</ele>
        <time>2021-09-09T06:10:13.000Z</time>
      </trkpt>
      <trkpt lat="47.88857" lon="1.98562">
        <ele>99.365155</ele>
        <time>2021-09-09T06:10:20.000Z</time>
      </trkpt>
      <trkpt lat="47.88882" lon="1.98625">
        <ele>99.377253</ele>
        <time>2021-09-09T06:10:27.000Z</time>
      </trkpt>
      <trkpt lat="47.88897" lon="1.98662">
        <ele>99.384402</ele>
        <time>2021-09-09T06:10:31.000Z</time>
      </trkpt>
      <trkpt lat="47.88903" lon="1.98683">
        <ele>99.388076</ele>
        <time>2021-09-09T06:10:33.000Z</time>
      </trkpt>
      <trkpt lat="47.88905" lon="1.98694">
        <ele>99.38994</ele>
        <time>2021-09-09T06:10:34.000Z</time>
      </trkpt>
      <trkpt lat="47.88906" lon="1.98716">
        <ele>99.39363</ele>
        <time>2021-09-09T06:10:36.000Z</time>
      </trkpt>
      <trkpt lat="47.88905" lon="1.98727">
        <ele>99.395438</ele>
        <time>2021-09-09T06:10:37.000Z</time>
      </trkpt>
      <trkpt lat="47.88893" lon="1.98803">
        <ele>99.353252</ele>
        <time>2021-09-09T06:10:44.000Z</time>
      </trkpt>
      <trkpt lat="47.88892" lon="1.98814">
        <ele>99.345661</ele>
        <time>2021-09-09T06:10:45.000Z</time>
      </trkpt>
      <trkpt lat="47.88894" lon="1.98846">
        <ele>99.32286</ele>
        <time>2021-09-09T06:10:48.000Z</time>
      </trkpt>
      <trkpt lat="47.88909" lon="1.98919">
        <ele>99.27044</ele>
        <time>2021-09-09T06:10:55.000Z</time>
      </trkpt>
      <trkpt lat="47.88929" lon="1.98977">
        <ele>99.22533</ele>
        <time>2021-09-09T06:11:01.000Z</time>
      </trkpt>
      <trkpt lat="47.88959" lon="1.99041">
        <ele>99.204436</ele>
        <time>2021-09-09T06:11:08.000Z</time>
      </trkpt>
      <trkpt lat="47.8899" lon="1.99088">
        <ele>99.195701</ele>
        <time>2021-09-09T06:11:14.000Z</time>
      </trkpt>
      <trkpt lat="47.89029" lon="1.9915">
        <ele>99.184363</ele>
        <time>2021-09-09T06:11:22.000Z</time>
      </trkpt>
      <trkpt lat="47.89039" lon="1.99179">
        <ele>99.180106</ele>
        <time>2021-09-09T06:11:25.000Z</time>
      </trkpt>
      <trkpt lat="47.89043" lon="1.99199">
        <ele>99.177245</ele>
        <time>2021-09-09T06:11:27.000Z</time>
      </trkpt>
      <trkpt lat="47.89049" lon="1.99263">
        <ele>99.117542</ele>
        <time>2021-09-09T06:11:33.000Z</time>
      </trkpt>
      <trkpt lat="47.89053" lon="1.99334">
        <ele>99.046333</ele>
        <time>2021-09-09T06:11:40.000Z</time>
      </trkpt>
      <trkpt lat="47.89056" lon="1.99387">
        <ele>98.993779</ele>
        <time>2021-09-09T06:11:45.000Z</time>
      </trkpt>
      <trkpt lat="47.89051" lon="1.99407">
        <ele>98.973103</ele>
        <time>2021-09-09T06:11:47.000Z</time>
      </trkpt>
      <trkpt lat="47.89047" lon="1.99415">
        <ele>98.962949</ele>
        <time>2021-09-09T06:11:48.000Z</time>
      </trkpt>
      <trkpt lat="47.89016" lon="1.99455">
        <ele>98.901741</ele>
        <time>2021-09-09T06:11:54.000Z</time>
      </trkpt>
      <trkpt lat="47.88974" lon="1.99506">
        <ele>98.812454</ele>
        <time>2021-09-09T06:12:02.000Z</time>
      </trkpt>
      <trkpt lat="47.88927" lon="1.99561">
        <ele>98.71252</ele>
        <time>2021-09-09T06:12:11.000Z</time>
      </trkpt>
      <trkpt lat="47.88922" lon="1.99567">
        <ele>98.70177</ele>
        <time>2021-09-09T06:12:12.000Z</time>
      </trkpt>
      <trkpt lat="47.88875" lon="1.99626">
        <ele>98.622352</ele>
        <time>2021-09-09T06:12:21.000Z</time>
      </trkpt>
      <trkpt lat="47.8883" lon="1.99683">
        <ele>98.695381</ele>
        <time>2021-09-09T06:12:30.000Z</time>
      </trkpt>
      <trkpt lat="47.88784" lon="1.99737">
        <ele>98.766935</ele>
        <time>2021-09-09T06:12:39.000Z</time>
      </trkpt>
      <trkpt lat="47.88779" lon="1.99743">
        <ele>98.775007</ele>
        <time>2021-09-09T06:12:40.000Z</time>
      </trkpt>
      <trkpt lat="47.88735" lon="1.99802">
        <ele>98.856742</ele>
        <time>2021-09-09T06:12:49.000Z</time>
      </trkpt>
      <trkpt lat="47.88725" lon="1.99815">
        <ele>98.88424</ele>
        <time>2021-09-09T06:12:51.000Z</time>
      </trkpt>
      <trkpt lat="47.88692" lon="1.99875">
        <ele>98.994594</ele>
        <time>2021-09-09T06:12:59.000Z</time>
      </trkpt>
      <trkpt lat="47.88658" lon="1.99946">
        <ele>99.117247</ele>
        <time>2021-09-09T06:13:08.000Z</time>
      </trkpt>
      <trkpt lat="47.88626" lon="2.00019">
        <ele>99.23766</ele>
        <time>2021-09-09T06:13:17.000Z</time>
      </trkpt>
      <trkpt lat="47.88616" lon="2.00044">
        <ele>99.276145</ele>
        <time>2021-09-09T06:13:20.000Z</time>
      </trkpt>
      <trkpt lat="47.88586" lon="2.00119">
        <ele>99.3919</ele>
        <time>2021-09-09T06:13:29.000Z</time>
      </trkpt>
      <trkpt lat="47.88558" lon="2.00197">
        <ele>99.507487</ele>
        <time>2021-09-09T06:13:38.000Z</time>
      </trkpt>
      <trkpt lat="47.88556" lon="2.00206">
        <ele>99.520494</ele>
        <time>2021-09-09T06:13:39.000Z</time>
      </trkpt>
      <trkpt lat="47.88532" lon="2.00286">
        <ele>99.572348</ele>
        <time>2021-09-09T06:13:48.000Z</time>
      </trkpt>
      <trkpt lat="47.88526" lon="2.00305">
        <ele>99.57493</ele>
        <time>2021-09-09T06:13:50.000Z</time>
      </trkpt>
      <trkpt lat="47.88506" lon="2.00386">
        <ele>99.586147</ele>
        <time>2021-09-09T06:13:59.000Z</time>
      </trkpt>
      <trkpt lat="47.88487" lon="2.0047">
        <ele>99.597578</ele>
        <time>2021-09-09T06:14:08.000Z</time>
      </trkpt>
      <trkpt lat="47.88483" lon="2.00488">
        <ele>99.599742</ele>
        <time>2021-09-09T06:14:10.000Z</time>
      </trkpt>
      <trkpt lat="47.88464" lon="2.00569">
        <ele>99.555362</ele>
        <time>2021-09-09T06:14:19.000Z</time>
      </trkpt>
      <trkpt lat="47.88462" lon="2.00578">
        <ele>99.550474</ele>
        <time>2021-09-09T06:14:20.000Z</time>
      </trkpt>
      <trkpt lat="47.88446" lon="2.0065">
        <ele>99.510759</ele>
        <time>2021-09-09T06:14:28.000Z</time>
      </trkpt>
      <trkpt lat="47.88428" lon="2.00734">
        <ele>99.465455</ele>
        <time>2021-09-09T06:14:37.000Z</time>
      </trkpt>
      <trkpt lat="47.88426" lon="2.00743">
        <ele>99.461113</ele>
        <time>2021-09-09T06:14:38.000Z</time>
      </trkpt>
      <trkpt lat="47.88414" lon="2.00808">
        <ele>99.464691</ele>
        <time>2021-09-09T06:14:45.000Z</time>
      </trkpt>
      <trkpt lat="47.88403" lon="2.00874">
        <ele>99.468308</ele>
        <time>2021-09-09T06:14:52.000Z</time>
      </trkpt>
      <trkpt lat="47.88393" lon="2.0095">
        <ele>99.472444</ele>
        <time>2021-09-09T06:15:00.000Z</time>
      </trkpt>
      <trkpt lat="47.88376" lon="2.01013">
        <ele>99.496834</ele>
        <time>2021-09-09T06:15:07.000Z</time>
      </trkpt>
      <trkpt lat="47.88358" lon="2.01075">
        <ele>99.603215</ele>
        <time>2021-09-09T06:15:14.000Z</time>
      </trkpt>
      <trkpt lat="47.88355" lon="2.01084">
        <ele>99.618372</ele>
        <time>2021-09-09T06:15:15.000Z</time>
      </trkpt>
      <trkpt lat="47.88332" lon="2.01139">
        <ele>99.721057</ele>
        <time>2021-09-09T06:15:22.000Z</time>
      </trkpt>
      <trkpt lat="47.88309" lon="2.01196">
        <ele>99.826604</ele>
        <time>2021-09-09T06:15:29.000Z</time>
      </trkpt>
      <trkpt lat="47.88284" lon="2.01277">
        <ele>99.951268</ele>
        <time>2021-09-09T06:15:38.000Z</time>
      </trkpt>
      <trkpt lat="47.88281" lon="2.01287">
        <ele>99.963383</ele>
        <time>2021-09-09T06:15:39.000Z</time>
      </trkpt>
      <trkpt lat="47.88257" lon="2.01367">
        <ele>100.070678</ele>
        <time>2021-09-09T06:15:48.000Z</time>
      </trkpt>
      <trkpt lat="47.88251" lon="2.01385">
        <ele>100.094961</ele>
        <time>2021-09-09T06:15:50.000Z</time>
      </trkpt>
      <trkpt lat="47.8822" lon="2.01462">
        <ele>100.204455</ele>
        <time>2021-09-09T06:15:59.000Z</time>
      </trkpt>
      <trkpt lat="47.88187" lon="2.01537">
        <ele>100.272465</ele>
        <time>2021-09-09T06:16:08.000Z</time>
      </trkpt>
      <trkpt lat="47.88183" lon="2.01545">
        <ele>100.278781</ele>
        <time>2021-09-09T06:16:09.000Z</time>
      </trkpt>
      <trkpt lat="47.88149" lon="2.01618">
        <ele>100.337179</ele>
        <time>2021-09-09T06:16:18.000Z</time>
      </trkpt>
      <trkpt lat="47.88113" lon="2.01685">
        <ele>100.393961</ele>
        <time>2021-09-09T06:16:27.000Z</time>
      </trkpt>
      <trkpt lat="47.88081" lon="2.01745">
        <ele>100.437645</ele>
        <time>2021-09-09T06:16:35.000Z</time>
      </trkpt>
      <trkpt lat="47.88041" lon="2.0181">
        <ele>100.487858</ele>
        <time>2021-09-09T06:16:44.000Z</time>
      </trkpt>
      <trkpt lat="47.88" lon="2.01872">
        <ele>100.537105</ele>
        <time>2021-09-09T06:16:53.000Z</time>
      </trkpt>
      <trkpt lat="47.87995" lon="2.01879">
        <ele>100.542551</ele>
        <time>2021-09-09T06:16:54.000Z</time>
      </trkpt>
      <trkpt lat="47.87957" lon="2.01945">
        <ele>100.564428</ele>
        <time>2021-09-09T06:17:03.000Z</time>
      </trkpt>
      <trkpt lat="47.87932" lon="2.02014">
        <ele>100.578584</ele>
        <time>2021-09-09T06:17:11.000Z</time>
      </trkpt>
      <trkpt lat="47.87906" lon="2.02073">
        <ele>100.591035</ele>
        <time>2021-09-09T06:17:18.000Z</time>
      </trkpt>
      <trkpt lat="47.8787" lon="2.02142">
        <ele>100.563204</ele>
        <time>2021-09-09T06:17:27.000Z</time>
      </trkpt>
      <trkpt lat="47.87861" lon="2.02157">
        <ele>100.545691</ele>
        <time>2021-09-09T06:17:29.000Z</time>
      </trkpt>
      <trkpt lat="47.87831" lon="2.02206">
        <ele>100.48467</ele>
        <time>2021-09-09T06:17:36.000Z</time>
      </trkpt>
      <trkpt lat="47.87789" lon="2.02257">
        <ele>100.41134</ele>
        <time>2021-09-09T06:17:44.000Z</time>
      </trkpt>
      <trkpt lat="47.87743" lon="2.02312">
        <ele>100.359636</ele>
        <time>2021-09-09T06:17:53.000Z</time>
      </trkpt>
      <trkpt lat="47.87727" lon="2.0233">
        <ele>100.364605</ele>
        <time>2021-09-09T06:17:56.000Z</time>
      </trkpt>
      <trkpt lat="47.87691" lon="2.02355">
        <ele>100.374328</ele>
        <time>2021-09-09T06:18:02.000Z</time>
      </trkpt>
      <trkpt lat="47.87646" lon="2.02366">
        <ele>100.385506</ele>
        <time>2021-09-09T06:18:09.000Z</time>
      </trkpt>
      <trkpt lat="47.8759" lon="2.02385">
        <ele>100.401574</ele>
        <time>2021-09-09T06:18:18.000Z</time>
      </trkpt>
      <trkpt lat="47.87584" lon="2.02387">
        <ele>100.419064</ele>
        <time>2021-09-09T06:18:19.000Z</time>
      </trkpt>
      <trkpt lat="47.8753" lon="2.02409">
        <ele>100.57687</ele>
        <time>2021-09-09T06:18:28.000Z</time>
      </trkpt>
      <trkpt lat="47.87472" lon="2.02432">
        <ele>100.746474</ele>
        <time>2021-09-09T06:18:37.000Z</time>
      </trkpt>
      <trkpt lat="47.8746" lon="2.02437">
        <ele>100.783531</ele>
        <time>2021-09-09T06:18:39.000Z</time>
      </trkpt>
      <trkpt lat="47.87402" lon="2.02459">
        <ele>100.93531</ele>
        <time>2021-09-09T06:18:48.000Z</time>
      </trkpt>
      <trkpt lat="47.87396" lon="2.02462">
        <ele>100.947292</ele>
        <time>2021-09-09T06:18:49.000Z</time>
      </trkpt>
      <trkpt lat="47.87345" lon="2.02482">
        <ele>101.0405</ele>
        <time>2021-09-09T06:18:57.000Z</time>
      </trkpt>
      <trkpt lat="47.87288" lon="2.02504">
        <ele>101.145771</ele>
        <time>2021-09-09T06:19:06.000Z</time>
      </trkpt>
      <trkpt lat="47.8723" lon="2.02526">
        <ele>101.263583</ele>
        <time>2021-09-09T06:19:15.000Z</time>
      </trkpt>
      <trkpt lat="47.87224" lon="2.02529">
        <ele>101.28153</ele>
        <time>2021-09-09T06:19:16.000Z</time>
      </trkpt>
      <trkpt lat="47.87166" lon="2.02551">
        <ele>101.442923</ele>
        <time>2021-09-09T06:19:25.000Z</time>
      </trkpt>
      <trkpt lat="47.87108" lon="2.02572">
        <ele>101.605407</ele>
        <time>2021-09-09T06:19:34.000Z</time>
      </trkpt>
      <trkpt lat="47.87095" lon="2.02577">
        <ele>101.641597</ele>
        <time>2021-09-09T06:19:36.000Z</time>
      </trkpt>
      <trkpt lat="47.87043" lon="2.02597">
        <ele>101.744075</ele>
        <time>2021-09-09T06:19:44.000Z</time>
      </trkpt>
      <trkpt lat="47.86984" lon="2.02618">
        <ele>101.811285</ele>
        <time>2021-09-09T06:19:53.000Z</time>
      </trkpt>
      <trkpt lat="47.86971" lon="2.02623">
        <ele>101.825915</ele>
        <time>2021-09-09T06:19:55.000Z</time>
      </trkpt>
      <trkpt lat="47.86914" lon="2.02642">
        <ele>101.891246</ele>
        <time>2021-09-09T06:20:04.000Z</time>
      </trkpt>
      <trkpt lat="47.86908" lon="2.02644">
        <ele>101.898202</ele>
        <time>2021-09-09T06:20:05.000Z</time>
      </trkpt>
      <trkpt lat="47.86853" lon="2.02664">
        <ele>101.892216</ele>
        <time>2021-09-09T06:20:14.000Z</time>
      </trkpt>
      <trkpt lat="47.86797" lon="2.02688">
        <ele>101.860983</ele>
        <time>2021-09-09T06:20:23.000Z</time>
      </trkpt>
      <trkpt lat="47.86785" lon="2.02693">
        <ele>101.854147</ele>
        <time>2021-09-09T06:20:25.000Z</time>
      </trkpt>
      <trkpt lat="47.86736" lon="2.02714">
        <ele>101.82653</ele>
        <time>2021-09-09T06:20:33.000Z</time>
      </trkpt>
      <trkpt lat="47.86682" lon="2.02738">
        <ele>101.852151</ele>
        <time>2021-09-09T06:20:42.000Z</time>
      </trkpt>
      <trkpt lat="47.8667" lon="2.02744">
        <ele>101.863004</ele>
        <time>2021-09-09T06:20:44.000Z</time>
      </trkpt>
      <trkpt lat="47.86652" lon="2.02753">
        <ele>101.879379</ele>
        <time>2021-09-09T06:20:47.000Z</time>
      </trkpt>
      <trkpt lat="47.86634" lon="2.02758">
        <ele>101.895355</ele>
        <time>2021-09-09T06:20:50.000Z</time>
      </trkpt>
      <trkpt lat="47.86588" lon="2.02777">
        <ele>101.936989</ele>
        <time>2021-09-09T06:20:58.000Z</time>
      </trkpt>
      <trkpt lat="47.86535" lon="2.02799">
        <ele>101.979534</ele>
        <time>2021-09-09T06:21:07.000Z</time>
      </trkpt>
      <trkpt lat="47.86482" lon="2.02823">
        <ele>102.007128</ele>
        <time>2021-09-09T06:21:16.000Z</time>
      </trkpt>
      <trkpt lat="47.86476" lon="2.02825">
        <ele>102.010162</ele>
        <time>2021-09-09T06:21:17.000Z</time>
      </trkpt>
      <trkpt lat="47.86421" lon="2.0284">
        <ele>102.037766</ele>
        <time>2021-09-09T06:21:26.000Z</time>
      </trkpt>
      <trkpt lat="47.86366" lon="2.02853">
        <ele>102.061997</ele>
        <time>2021-09-09T06:21:35.000Z</time>
      </trkpt>
      <trkpt lat="47.86312" lon="2.02876">
        <ele>102.060651</ele>
        <time>2021-09-09T06:21:44.000Z</time>
      </trkpt>
      <trkpt lat="47.863" lon="2.02881">
        <ele>102.060349</ele>
        <time>2021-09-09T06:21:46.000Z</time>
      </trkpt>
      <trkpt lat="47.86247" lon="2.0291">
        <ele>102.058986</ele>
        <time>2021-09-09T06:21:55.000Z</time>
      </trkpt>
      <trkpt lat="47.86241" lon="2.02914">
        <ele>102.058833</ele>
        <time>2021-09-09T06:21:56.000Z</time>
      </trkpt>
      <trkpt lat="47.86195" lon="2.02937">
        <ele>102.065018</ele>
        <time>2021-09-09T06:22:04.000Z</time>
      </trkpt>
      <trkpt lat="47.86142" lon="2.02956">
        <ele>102.129521</ele>
        <time>2021-09-09T06:22:13.000Z</time>
      </trkpt>
      <trkpt lat="47.86088" lon="2.02976">
        <ele>102.194655</ele>
        <time>2021-09-09T06:22:22.000Z</time>
      </trkpt>
      <trkpt lat="47.86082" lon="2.02978">
        <ele>102.201753</ele>
        <time>2021-09-09T06:22:23.000Z</time>
      </trkpt>
      <trkpt lat="47.86028" lon="2.02998">
        <ele>102.267341</ele>
        <time>2021-09-09T06:22:32.000Z</time>
      </trkpt>
      <trkpt lat="47.85973" lon="2.03018">
        <ele>102.366467</ele>
        <time>2021-09-09T06:22:41.000Z</time>
      </trkpt>
      <trkpt lat="47.85962" lon="2.03022">
        <ele>102.387841</ele>
        <time>2021-09-09T06:22:43.000Z</time>
      </trkpt>
      <trkpt lat="47.85909" lon="2.03039">
        <ele>102.484635</ele>
        <time>2021-09-09T06:22:52.000Z</time>
      </trkpt>
      <trkpt lat="47.85897" lon="2.03043">
        <ele>102.506811</ele>
        <time>2021-09-09T06:22:54.000Z</time>
      </trkpt>
      <trkpt lat="47.85842" lon="2.03062">
        <ele>102.590805</ele>
        <time>2021-09-09T06:23:03.000Z</time>
      </trkpt>
      <trkpt lat="47.85836" lon="2.03065">
        <ele>102.591145</ele>
        <time>2021-09-09T06:23:04.000Z</time>
      </trkpt>
      <trkpt lat="47.85785" lon="2.03099">
        <ele>102.594176</ele>
        <time>2021-09-09T06:23:13.000Z</time>
      </trkpt>
      <trkpt lat="47.8574" lon="2.03137">
        <ele>102.596922</ele>
        <time>2021-09-09T06:23:21.000Z</time>
      </trkpt>
      <trkpt lat="47.85693" lon="2.03181">
        <ele>102.599944</ele>
        <time>2021-09-09T06:23:30.000Z</time>
      </trkpt>
      <trkpt lat="47.85648" lon="2.03214">
        <ele>102.599997</ele>
        <time>2021-09-09T06:23:38.000Z</time>
      </trkpt>
      <trkpt lat="47.85598" lon="2.03253">
        <ele>102.599997</ele>
        <time>2021-09-09T06:23:47.000Z</time>
      </trkpt>
      <trkpt lat="47.85555" lon="2.03289">
        <ele>102.599997</ele>
        <time>2021-09-09T06:23:55.000Z</time>
      </trkpt>
      <trkpt lat="47.85509" lon="2.03336">
        <ele>102.618064</ele>
        <time>2021-09-09T06:24:04.000Z</time>
      </trkpt>
      <trkpt lat="47.85504" lon="2.03342">
        <ele>102.621713</ele>
        <time>2021-09-09T06:24:05.000Z</time>
      </trkpt>
      <trkpt lat="47.85465" lon="2.03405">
        <ele>102.655721</ele>
        <time>2021-09-09T06:24:14.000Z</time>
      </trkpt>
      <trkpt lat="47.85435" lon="2.03466">
        <ele>102.685756</ele>
        <time>2021-09-09T06:24:22.000Z</time>
      </trkpt>
      <trkpt lat="47.85401" lon="2.03537">
        <ele>102.718349</ele>
        <time>2021-09-09T06:24:31.000Z</time>
      </trkpt>
      <trkpt lat="47.85383" lon="2.03587">
        <ele>102.738425</ele>
        <time>2021-09-09T06:24:37.000Z</time>
      </trkpt>
      <trkpt lat="47.85364" lon="2.03651">
        <ele>102.763185</ele>
        <time>2021-09-09T06:24:44.000Z</time>
      </trkpt>
      <trkpt lat="47.85338" lon="2.03731">
        <ele>102.794201</ele>
        <time>2021-09-09T06:24:53.000Z</time>
      </trkpt>
      <trkpt lat="47.85335" lon="2.0374">
        <ele>102.797528</ele>
        <time>2021-09-09T06:24:54.000Z</time>
      </trkpt>
      <trkpt lat="47.8531" lon="2.03819">
        <ele>102.758554</ele>
        <time>2021-09-09T06:25:03.000Z</time>
      </trkpt>
      <trkpt lat="47.85305" lon="2.03836">
        <ele>102.748493</ele>
        <time>2021-09-09T06:25:05.000Z</time>
      </trkpt>
      <trkpt lat="47.85283" lon="2.03918">
        <ele>102.702999</ele>
        <time>2021-09-09T06:25:14.000Z</time>
      </trkpt>
      <trkpt lat="47.85279" lon="2.03975">
        <ele>102.673228</ele>
        <time>2021-09-09T06:25:20.000Z</time>
      </trkpt>
      <trkpt lat="47.85277" lon="2.04062">
        <ele>102.611403</ele>
        <time>2021-09-09T06:25:29.000Z</time>
      </trkpt>
      <trkpt lat="47.85277" lon="2.04071">
        <ele>102.603992</ele>
        <time>2021-09-09T06:25:30.000Z</time>
      </trkpt>
      <trkpt lat="47.85276" lon="2.0416">
        <ele>102.535385</ele>
        <time>2021-09-09T06:25:39.000Z</time>
      </trkpt>
      <trkpt lat="47.85276" lon="2.04245">
        <ele>102.46874</ele>
        <time>2021-09-09T06:25:48.000Z</time>
      </trkpt>
      <trkpt lat="47.85276" lon="2.04264">
        <ele>102.454177</ele>
        <time>2021-09-09T06:25:50.000Z</time>
      </trkpt>
      <trkpt lat="47.85283" lon="2.04341">
        <ele>102.438054</ele>
        <time>2021-09-09T06:25:58.000Z</time>
      </trkpt>
      <trkpt lat="47.85294" lon="2.0442">
        <ele>102.422856</ele>
        <time>2021-09-09T06:26:06.000Z</time>
      </trkpt>
      <trkpt lat="47.85301" lon="2.04469">
        <ele>102.413356</ele>
        <time>2021-09-09T06:26:11.000Z</time>
      </trkpt>
      <trkpt lat="47.85314" lon="2.04556">
        <ele>102.420435</ele>
        <time>2021-09-09T06:26:20.000Z</time>
      </trkpt>
      <trkpt lat="47.85326" lon="2.04642">
        <ele>102.479668</ele>
        <time>2021-09-09T06:26:29.000Z</time>
      </trkpt>
      <trkpt lat="47.85336" lon="2.04719">
        <ele>102.532634</ele>
        <time>2021-09-09T06:26:37.000Z</time>
      </trkpt>
      <trkpt lat="47.85344" lon="2.04806">
        <ele>102.590946</ele>
        <time>2021-09-09T06:26:46.000Z</time>
      </trkpt>
      <trkpt lat="47.85345" lon="2.04816">
        <ele>102.596833</ele>
        <time>2021-09-09T06:26:47.000Z</time>
      </trkpt>
      <trkpt lat="47.85354" lon="2.04895">
        <ele>102.644293</ele>
        <time>2021-09-09T06:26:55.000Z</time>
      </trkpt>
      <trkpt lat="47.85368" lon="2.04962">
        <ele>102.68504</ele>
        <time>2021-09-09T06:27:02.000Z</time>
      </trkpt>
      <trkpt lat="47.85384" lon="2.05038">
        <ele>102.732253</ele>
        <time>2021-09-09T06:27:10.000Z</time>
      </trkpt>
      <trkpt lat="47.85388" lon="2.05057">
        <ele>102.741958</ele>
        <time>2021-09-09T06:27:12.000Z</time>
      </trkpt>
      <trkpt lat="47.85402" lon="2.05115">
        <ele>102.755646</ele>
        <time>2021-09-09T06:27:18.000Z</time>
      </trkpt>
      <trkpt lat="47.85427" lon="2.05189">
        <ele>102.773987</ele>
        <time>2021-09-09T06:27:26.000Z</time>
      </trkpt>
      <trkpt lat="47.85442" lon="2.05249">
        <ele>102.787993</ele>
        <time>2021-09-09T06:27:32.000Z</time>
      </trkpt>
      <trkpt lat="47.85446" lon="2.05311">
        <ele>102.798992</ele>
        <time>2021-09-09T06:27:38.000Z</time>
      </trkpt>
      <trkpt lat="47.8545" lon="2.05395">
        <ele>102.789002</ele>
        <time>2021-09-09T06:27:46.000Z</time>
      </trkpt>
      <trkpt lat="47.85451" lon="2.05426">
        <ele>102.785301</ele>
        <time>2021-09-09T06:27:49.000Z</time>
      </trkpt>
      <trkpt lat="47.85455" lon="2.05508">
        <ele>102.775579</ele>
        <time>2021-09-09T06:27:57.000Z</time>
      </trkpt>
      <trkpt lat="47.85458" lon="2.05538">
        <ele>102.771974</ele>
        <time>2021-09-09T06:28:00.000Z</time>
      </trkpt>
      <trkpt lat="47.85461" lon="2.0562">
        <ele>102.771491</ele>
        <time>2021-09-09T06:28:08.000Z</time>
      </trkpt>
      <trkpt lat="47.85465" lon="2.05702">
        <ele>102.776905</ele>
        <time>2021-09-09T06:28:16.000Z</time>
      </trkpt>
      <trkpt lat="47.85467" lon="2.05743">
        <ele>102.779606</ele>
        <time>2021-09-09T06:28:20.000Z</time>
      </trkpt>
      <trkpt lat="47.85472" lon="2.05824">
        <ele>102.784975</ele>
        <time>2021-09-09T06:28:28.000Z</time>
      </trkpt>
      <trkpt lat="47.85472" lon="2.05835">
        <ele>102.785649</ele>
        <time>2021-09-09T06:28:29.000Z</time>
      </trkpt>
      <trkpt lat="47.85477" lon="2.05915">
        <ele>102.810404</ele>
        <time>2021-09-09T06:28:37.000Z</time>
      </trkpt>
      <trkpt lat="47.85478" lon="2.05925">
        <ele>102.813459</ele>
        <time>2021-09-09T06:28:38.000Z</time>
      </trkpt>
      <trkpt lat="47.85489" lon="2.05991">
        <ele>102.83503</ele>
        <time>2021-09-09T06:28:45.000Z</time>
      </trkpt>
      <trkpt lat="47.85506" lon="2.06045">
        <ele>102.85392</ele>
        <time>2021-09-09T06:28:51.000Z</time>
      </trkpt>
      <trkpt lat="47.85535" lon="2.06114">
        <ele>102.888088</ele>
        <time>2021-09-09T06:28:59.000Z</time>
      </trkpt>
      <trkpt lat="47.85543" lon="2.06131">
        <ele>102.900418</ele>
        <time>2021-09-09T06:29:01.000Z</time>
      </trkpt>
      <trkpt lat="47.85575" lon="2.06198">
        <ele>102.949403</ele>
        <time>2021-09-09T06:29:09.000Z</time>
      </trkpt>
      <trkpt lat="47.85582" lon="2.06215">
        <ele>102.961636</ele>
        <time>2021-09-09T06:29:11.000Z</time>
      </trkpt>
      <trkpt lat="47.85602" lon="2.06268">
        <ele>102.998138</ele>
        <time>2021-09-09T06:29:17.000Z</time>
      </trkpt>
      <trkpt lat="47.85625" lon="2.06344">
        <ele>103.049051</ele>
        <time>2021-09-09T06:29:25.000Z</time>
      </trkpt>
      <trkpt lat="47.85631" lon="2.06363">
        <ele>103.062466</ele>
        <time>2021-09-09T06:29:27.000Z</time>
      </trkpt>
      <trkpt lat="47.85656" lon="2.0644">
        <ele>103.115971</ele>
        <time>2021-09-09T06:29:35.000Z</time>
      </trkpt>
      <trkpt lat="47.85662" lon="2.06459">
        <ele>103.129256</ele>
        <time>2021-09-09T06:29:37.000Z</time>
      </trkpt>
      <trkpt lat="47.85685" lon="2.06536">
        <ele>103.182387</ele>
        <time>2021-09-09T06:29:45.000Z</time>
      </trkpt>
      <trkpt lat="47.85688" lon="2.06546">
        <ele>103.189179</ele>
        <time>2021-09-09T06:29:46.000Z</time>
      </trkpt>
      <trkpt lat="47.8571" lon="2.06613">
        <ele>103.200114</ele>
        <time>2021-09-09T06:29:53.000Z</time>
      </trkpt>
      <trkpt lat="47.85739" lon="2.06685">
        <ele>103.200284</ele>
        <time>2021-09-09T06:30:01.000Z</time>
      </trkpt>
      <trkpt lat="47.85769" lon="2.06754">
        <ele>103.200451</ele>
        <time>2021-09-09T06:30:09.000Z</time>
      </trkpt>
      <trkpt lat="47.85798" lon="2.06823">
        <ele>103.235137</ele>
        <time>2021-09-09T06:30:17.000Z</time>
      </trkpt>
      <trkpt lat="47.85802" lon="2.06831">
        <ele>103.244757</ele>
        <time>2021-09-09T06:30:18.000Z</time>
      </trkpt>
      <trkpt lat="47.85833" lon="2.06901">
        <ele>103.323111</ele>
        <time>2021-09-09T06:30:26.000Z</time>
      </trkpt>
      <trkpt lat="47.85837" lon="2.06909">
        <ele>103.332751</ele>
        <time>2021-09-09T06:30:27.000Z</time>
      </trkpt>
      <trkpt lat="47.85867" lon="2.06952">
        <ele>103.390897</ele>
        <time>2021-09-09T06:30:33.000Z</time>
      </trkpt>
      <trkpt lat="47.8591" lon="2.07003">
        <ele>103.461766</ele>
        <time>2021-09-09T06:30:41.000Z</time>
      </trkpt>
      <trkpt lat="47.85914" lon="2.0701">
        <ele>103.467284</ele>
        <time>2021-09-09T06:30:42.000Z</time>
      </trkpt>
      <trkpt lat="47.85946" lon="2.07062">
        <ele>103.505627</ele>
        <time>2021-09-09T06:30:49.000Z</time>
      </trkpt>
      <trkpt lat="47.85963" lon="2.07108">
        <ele>103.534374</ele>
        <time>2021-09-09T06:30:54.000Z</time>
      </trkpt>
      <trkpt lat="47.85986" lon="2.07184">
        <ele>103.580402</ele>
        <time>2021-09-09T06:31:02.000Z</time>
      </trkpt>
      <trkpt lat="47.85989" lon="2.07193">
        <ele>103.58601</ele>
        <time>2021-09-09T06:31:03.000Z</time>
      </trkpt>
      <trkpt lat="47.8601" lon="2.07268">
        <ele>103.583082</ele>
        <time>2021-09-09T06:31:11.000Z</time>
      </trkpt>
      <trkpt lat="47.86017" lon="2.07297">
        <ele>103.573691</ele>
        <time>2021-09-09T06:31:14.000Z</time>
      </trkpt>
      <trkpt lat="47.86038" lon="2.07374">
        <ele>103.548322</ele>
        <time>2021-09-09T06:31:22.000Z</time>
      </trkpt>
      <trkpt lat="47.86046" lon="2.07403">
        <ele>103.538778</ele>
        <time>2021-09-09T06:31:25.000Z</time>
      </trkpt>
      <trkpt lat="47.86068" lon="2.07475">
        <ele>103.477936</ele>
        <time>2021-09-09T06:31:33.000Z</time>
      </trkpt>
      <trkpt lat="47.86078" lon="2.07506">
        <ele>103.353293</ele>
        <time>2021-09-09T06:31:37.000Z</time>
      </trkpt>
      <trkpt lat="47.86079" lon="2.07513">
        <ele>103.32549</ele>
        <time>2021-09-09T06:31:38.000Z</time>
      </trkpt>
      <trkpt lat="47.86088" lon="2.07548">
        <ele>103.193066</ele>
        <time>2021-09-09T06:31:42.000Z</time>
      </trkpt>
      <trkpt lat="47.86108" lon="2.076">
        <ele>102.976685</ele>
        <time>2021-09-09T06:31:47.000Z</time>
      </trkpt>
      <trkpt lat="47.86126" lon="2.07667">
        <ele>102.717942</ele>
        <time>2021-09-09T06:31:53.000Z</time>
      </trkpt>
      <trkpt lat="47.86143" lon="2.07724">
        <ele>102.502595</ele>
        <time>2021-09-09T06:31:59.000Z</time>
      </trkpt>
      <trkpt lat="47.86148" lon="2.07742">
        <ele>102.444305</ele>
        <time>2021-09-09T06:32:01.000Z</time>
      </trkpt>
      <trkpt lat="47.86147" lon="2.07751">
        <ele>102.417726</ele>
        <time>2021-09-09T06:32:02.000Z</time>
      </trkpt>
      <trkpt lat="47.86145" lon="2.07759">
        <ele>102.391546</ele>
        <time>2021-09-09T06:32:03.000Z</time>
      </trkpt>
      <trkpt lat="47.86141" lon="2.07765">
        <ele>102.367789</ele>
        <time>2021-09-09T06:32:04.000Z</time>
      </trkpt>
      <trkpt lat="47.86137" lon="2.07768">
        <ele>102.348145</ele>
        <time>2021-09-09T06:32:05.000Z</time>
      </trkpt>
      <trkpt lat="47.86126" lon="2.07778">
        <ele>102.292623</ele>
        <time>2021-09-09T06:32:08.000Z</time>
      </trkpt>
      <trkpt lat="47.86126" lon="2.07791">
        <ele>102.253783</ele>
        <time>2021-09-09T06:32:10.000Z</time>
      </trkpt>
      <trkpt lat="47.86128" lon="2.07798">
        <ele>102.230954</ele>
        <time>2021-09-09T06:32:11.000Z</time>
      </trkpt>
      <trkpt lat="47.8615" lon="2.07839">
        <ele>102.075739</ele>
        <time>2021-09-09T06:32:17.000Z</time>
      </trkpt>
      <trkpt lat="47.86174" lon="2.07882">
        <ele>101.90816</ele>
        <time>2021-09-09T06:32:23.000Z</time>
      </trkpt>
      <trkpt lat="47.86198" lon="2.07929">
        <ele>101.753363</ele>
        <time>2021-09-09T06:32:29.000Z</time>
      </trkpt>
      <trkpt lat="47.86203" lon="2.07936">
        <ele>101.752611</ele>
        <time>2021-09-09T06:32:30.000Z</time>
      </trkpt>
      <trkpt lat="47.8621" lon="2.07949">
        <ele>101.751186</ele>
        <time>2021-09-09T06:32:32.000Z</time>
      </trkpt>
      <trkpt lat="47.86218" lon="2.07963">
        <ele>101.749794</ele>
        <time>2021-09-09T06:32:34.000Z</time>
      </trkpt>
      <trkpt lat="47.86247" lon="2.08008">
        <ele>101.744759</ele>
        <time>2021-09-09T06:32:41.000Z</time>
      </trkpt>
      <trkpt lat="47.86255" lon="2.08023">
        <ele>101.743283</ele>
        <time>2021-09-09T06:32:43.000Z</time>
      </trkpt>
      <trkpt lat="47.8626" lon="2.0804">
        <ele>101.741792</ele>
        <time>2021-09-09T06:32:45.000Z</time>
      </trkpt>
      <trkpt lat="47.86262" lon="2.08048">
        <ele>101.741103</ele>
        <time>2021-09-09T06:32:46.000Z</time>
      </trkpt>
      <trkpt lat="47.86262" lon="2.08057">
        <ele>101.740402</ele>
        <time>2021-09-09T06:32:47.000Z</time>
      </trkpt>
      <trkpt lat="47.86262" lon="2.08094">
        <ele>101.737447</ele>
        <time>2021-09-09T06:32:51.000Z</time>
      </trkpt>
      <trkpt lat="47.86263" lon="2.08179">
        <ele>101.696301</ele>
        <time>2021-09-09T06:33:00.000Z</time>
      </trkpt>
      <trkpt lat="47.86267" lon="2.08237">
        <ele>101.607137</ele>
        <time>2021-09-09T06:33:07.000Z</time>
      </trkpt>
      <trkpt lat="47.8627" lon="2.08289">
        <ele>101.528471</ele>
        <time>2021-09-09T06:33:14.000Z</time>
      </trkpt>
      <trkpt lat="47.8627" lon="2.0831">
        <ele>101.495177</ele>
        <time>2021-09-09T06:33:17.000Z</time>
      </trkpt>
      <trkpt lat="47.86272" lon="2.08325">
        <ele>101.473006</ele>
        <time>2021-09-09T06:33:19.000Z</time>
      </trkpt>
      <trkpt lat="47.86279" lon="2.08335">
        <ele>101.450929</ele>
        <time>2021-09-09T06:33:21.000Z</time>
      </trkpt>
      <trkpt lat="47.86283" lon="2.08338">
        <ele>101.439427</ele>
        <time>2021-09-09T06:33:22.000Z</time>
      </trkpt>
      <trkpt lat="47.86288" lon="2.08341">
        <ele>101.428384</ele>
        <time>2021-09-09T06:33:23.000Z</time>
      </trkpt>
      <trkpt lat="47.86302" lon="2.08343">
        <ele>101.397558</ele>
        <time>2021-09-09T06:33:26.000Z</time>
      </trkpt>
      <trkpt lat="47.8631" lon="2.08345">
        <ele>101.37792</ele>
        <time>2021-09-09T06:33:28.000Z</time>
      </trkpt>
      <trkpt lat="47.86318" lon="2.08349">
        <ele>101.358273</ele>
        <time>2021-09-09T06:33:30.000Z</time>
      </trkpt>
      <trkpt lat="47.86322" lon="2.08352">
        <ele>101.348599</ele>
        <time>2021-09-09T06:33:31.000Z</time>
      </trkpt>
      <trkpt lat="47.86332" lon="2.0837">
        <ele>101.325838</ele>
        <time>2021-09-09T06:33:35.000Z</time>
      </trkpt>
      <trkpt lat="47.86338" lon="2.08401">
        <ele>101.329253</ele>
        <time>2021-09-09T06:33:41.000Z</time>
      </trkpt>
      <trkpt lat="47.86347" lon="2.08406">
        <ele>101.330692</ele>
        <time>2021-09-09T06:33:44.000Z</time>
      </trkpt>
      <trkpt lat="47.86359" lon="2.08406">
        <ele>101.332609</ele>
        <time>2021-09-09T06:33:49.000Z</time>
      </trkpt>
      <trkpt lat="47.86375" lon="2.08406">
        <ele>101.33508</ele>
        <time>2021-09-09T06:33:56.000Z</time>
      </trkpt>
      <trkpt lat="47.86392" lon="2.08407">
        <ele>101.337598</ele>
        <time>2021-09-09T06:34:04.000Z</time>
      </trkpt>
      <trkpt lat="47.86395" lon="2.08407">
        <ele>101.338123</ele>
        <time>2021-09-09T06:34:06.000Z</time>
      </trkpt>
      <trkpt lat="47.864" lon="2.08407">
        <ele>101.338929</ele>
        <time>2021-09-09T06:34:09.000Z</time>
      </trkpt>
      <trkpt lat="47.8641" lon="2.08407">
        <ele>101.340427</ele>
        <time>2021-09-09T06:34:15.000Z</time>
      </trkpt>
      <trkpt lat="47.86411" lon="2.08407">
        <ele>101.34066</ele>
        <time>2021-09-09T06:34:16.000Z</time>
      </trkpt>
      <trkpt lat="47.86422" lon="2.08405">
        <ele>101.34235</ele>
        <time>2021-09-09T06:34:21.000Z</time>
      </trkpt>
      <trkpt lat="47.86429" lon="2.08405">
        <ele>101.343386</ele>
        <time>2021-09-09T06:34:24.000Z</time>
      </trkpt>
      <trkpt lat="47.86434" lon="2.08404">
        <ele>101.344113</ele>
        <time>2021-09-09T06:34:26.000Z</time>
      </trkpt>
      <trkpt lat="47.86448" lon="2.08399">
        <ele>101.346389</ele>
        <time>2021-09-09T06:34:32.000Z</time>
      </trkpt>
      <trkpt lat="47.86462" lon="2.08394">
        <ele>101.348559</ele>
        <time>2021-09-09T06:34:38.000Z</time>
      </trkpt>
      <trkpt lat="47.86472" lon="2.08388">
        <ele>101.350321</ele>
        <time>2021-09-09T06:34:43.000Z</time>
      </trkpt>
      <trkpt lat="47.86481" lon="2.08387">
        <ele>101.351723</ele>
        <time>2021-09-09T06:34:48.000Z</time>
      </trkpt>
      <trkpt lat="47.86482" lon="2.08386">
        <ele>101.351811</ele>
        <time>2021-09-09T06:34:50.000Z</time>
      </trkpt>
      <trkpt lat="47.86487" lon="2.08385">
        <ele>101.352612</ele>
        <time>2021-09-09T06:35:44.000Z</time>
      </trkpt>
      <trkpt lat="47.86489" lon="2.08385">
        <ele>101.359063</ele>
        <time>2021-09-09T06:35:45.000Z</time>
      </trkpt>
      <trkpt lat="47.86502" lon="2.08394">
        <ele>101.444029</ele>
        <time>2021-09-09T06:35:50.000Z</time>
      </trkpt>
      <trkpt lat="47.86511" lon="2.08417">
        <ele>101.553279</ele>
        <time>2021-09-09T06:35:56.000Z</time>
      </trkpt>
      <trkpt lat="47.86516" lon="2.08426">
        <ele>101.600042</ele>
        <time>2021-09-09T06:35:59.000Z</time>
      </trkpt>
      <trkpt lat="47.8652" lon="2.0843">
        <ele>101.627508</ele>
        <time>2021-09-09T06:36:01.000Z</time>
      </trkpt>
      <trkpt lat="47.86527" lon="2.08447">
        <ele>101.713193</ele>
        <time>2021-09-09T06:36:06.000Z</time>
      </trkpt>
      <trkpt lat="47.8654" lon="2.08483">
        <ele>101.878428</ele>
        <time>2021-09-09T06:36:12.000Z</time>
      </trkpt>
      <trkpt lat="47.86547" lon="2.08501">
        <ele>101.964245</ele>
        <time>2021-09-09T06:36:15.000Z</time>
      </trkpt>
      <trkpt lat="47.86555" lon="2.08521">
        <ele>102.054903</ele>
        <time>2021-09-09T06:36:18.000Z</time>
      </trkpt>
      <trkpt lat="47.8658" lon="2.08577">
        <ele>102.331937</ele>
        <time>2021-09-09T06:36:26.000Z</time>
      </trkpt>
      <trkpt lat="47.86605" lon="2.08634">
        <ele>102.500972</ele>
        <time>2021-09-09T06:36:34.000Z</time>
      </trkpt>
      <trkpt lat="47.86613" lon="2.08649">
        <ele>102.525325</ele>
        <time>2021-09-09T06:36:36.000Z</time>
      </trkpt>
      <trkpt lat="47.86624" lon="2.08673">
        <ele>102.564684</ele>
        <time>2021-09-09T06:36:39.000Z</time>
      </trkpt>
      <trkpt lat="47.86656" lon="2.08742">
        <ele>102.676615</ele>
        <time>2021-09-09T06:36:47.000Z</time>
      </trkpt>
      <trkpt lat="47.86687" lon="2.08813">
        <ele>102.789436</ele>
        <time>2021-09-09T06:36:55.000Z</time>
      </trkpt>
      <trkpt lat="47.86715" lon="2.08884">
        <ele>102.864101</ele>
        <time>2021-09-09T06:37:03.000Z</time>
      </trkpt>
      <trkpt lat="47.86719" lon="2.08893">
        <ele>102.872636</ele>
        <time>2021-09-09T06:37:04.000Z</time>
      </trkpt>
      <trkpt lat="47.86747" lon="2.08971">
        <ele>102.946266</ele>
        <time>2021-09-09T06:37:13.000Z</time>
      </trkpt>
      <trkpt lat="47.86767" lon="2.0903">
        <ele>103.001226</ele>
        <time>2021-09-09T06:37:20.000Z</time>
      </trkpt>
      <trkpt lat="47.8679" lon="2.09108">
        <ele>103.087669</ele>
        <time>2021-09-09T06:37:28.000Z</time>
      </trkpt>
      <trkpt lat="47.86808" lon="2.09176">
        <ele>103.171236</ele>
        <time>2021-09-09T06:37:35.000Z</time>
      </trkpt>
      <trkpt lat="47.86816" lon="2.09217">
        <ele>103.219407</ele>
        <time>2021-09-09T06:37:39.000Z</time>
      </trkpt>
      <trkpt lat="47.86819" lon="2.09238">
        <ele>103.243117</ele>
        <time>2021-09-09T06:37:41.000Z</time>
      </trkpt>
      <trkpt lat="47.86831" lon="2.0932">
        <ele>103.337448</ele>
        <time>2021-09-09T06:37:49.000Z</time>
      </trkpt>
      <trkpt lat="47.86834" lon="2.0934">
        <ele>103.356856</ele>
        <time>2021-09-09T06:37:51.000Z</time>
      </trkpt>
      <trkpt lat="47.86848" lon="2.09411">
        <ele>103.425543</ele>
        <time>2021-09-09T06:37:58.000Z</time>
      </trkpt>
      <trkpt lat="47.86863" lon="2.09491">
        <ele>103.502856</ele>
        <time>2021-09-09T06:38:06.000Z</time>
      </trkpt>
      <trkpt lat="47.86878" lon="2.0957">
        <ele>103.579177</ele>
        <time>2021-09-09T06:38:14.000Z</time>
      </trkpt>
      <trkpt lat="47.8688" lon="2.09581">
        <ele>103.576111</ele>
        <time>2021-09-09T06:38:15.000Z</time>
      </trkpt>
      <trkpt lat="47.8689" lon="2.09661">
        <ele>103.539322</ele>
        <time>2021-09-09T06:38:23.000Z</time>
      </trkpt>
      <trkpt lat="47.86898" lon="2.09743">
        <ele>103.502205</ele>
        <time>2021-09-09T06:38:31.000Z</time>
      </trkpt>
      <trkpt lat="47.86899" lon="2.09754">
        <ele>103.497544</ele>
        <time>2021-09-09T06:38:32.000Z</time>
      </trkpt>
      <trkpt lat="47.86907" lon="2.09837">
        <ele>103.460412</ele>
        <time>2021-09-09T06:38:40.000Z</time>
      </trkpt>
      <trkpt lat="47.86909" lon="2.09858">
        <ele>103.471837</ele>
        <time>2021-09-09T06:38:42.000Z</time>
      </trkpt>
      <trkpt lat="47.86918" lon="2.0994">
        <ele>103.516479</ele>
        <time>2021-09-09T06:38:50.000Z</time>
      </trkpt>
      <trkpt lat="47.86919" lon="2.09949">
        <ele>103.521774</ele>
        <time>2021-09-09T06:38:51.000Z</time>
      </trkpt>
      <trkpt lat="47.86928" lon="2.10031">
        <ele>103.566213</ele>
        <time>2021-09-09T06:38:59.000Z</time>
      </trkpt>
      <trkpt lat="47.86929" lon="2.10042">
        <ele>103.572092</ele>
        <time>2021-09-09T06:39:00.000Z</time>
      </trkpt>
      <trkpt lat="47.86931" lon="2.10119">
        <ele>103.610134</ele>
        <time>2021-09-09T06:39:07.000Z</time>
      </trkpt>
      <trkpt lat="47.86923" lon="2.10203">
        <ele>103.637447</ele>
        <time>2021-09-09T06:39:15.000Z</time>
      </trkpt>
      <trkpt lat="47.86912" lon="2.10284">
        <ele>103.663853</ele>
        <time>2021-09-09T06:39:23.000Z</time>
      </trkpt>
      <trkpt lat="47.869" lon="2.10363">
        <ele>103.689947</ele>
        <time>2021-09-09T06:39:31.000Z</time>
      </trkpt>
      <trkpt lat="47.86898" lon="2.10373">
        <ele>103.687821</ele>
        <time>2021-09-09T06:39:32.000Z</time>
      </trkpt>
      <trkpt lat="47.86887" lon="2.10452">
        <ele>103.660657</ele>
        <time>2021-09-09T06:39:40.000Z</time>
      </trkpt>
      <trkpt lat="47.86881" lon="2.10491">
        <ele>103.646968</ele>
        <time>2021-09-09T06:39:44.000Z</time>
      </trkpt>
      <trkpt lat="47.86872" lon="2.10569">
        <ele>103.620151</ele>
        <time>2021-09-09T06:39:52.000Z</time>
      </trkpt>
      <trkpt lat="47.86862" lon="2.10649">
        <ele>103.601238</ele>
        <time>2021-09-09T06:40:00.000Z</time>
      </trkpt>
      <trkpt lat="47.86861" lon="2.10669">
        <ele>103.602423</ele>
        <time>2021-09-09T06:40:02.000Z</time>
      </trkpt>
      <trkpt lat="47.86857" lon="2.10752">
        <ele>103.607214</ele>
        <time>2021-09-09T06:40:10.000Z</time>
      </trkpt>
      <trkpt lat="47.86857" lon="2.10772">
        <ele>103.608378</ele>
        <time>2021-09-09T06:40:12.000Z</time>
      </trkpt>
      <trkpt lat="47.86854" lon="2.10854">
        <ele>103.613158</ele>
        <time>2021-09-09T06:40:20.000Z</time>
      </trkpt>
      <trkpt lat="47.86853" lon="2.10875">
        <ele>103.614363</ele>
        <time>2021-09-09T06:40:22.000Z</time>
      </trkpt>
      <trkpt lat="47.86851" lon="2.10956">
        <ele>103.657911</ele>
        <time>2021-09-09T06:40:30.000Z</time>
      </trkpt>
      <trkpt lat="47.8685" lon="2.10976">
        <ele>103.672025</ele>
        <time>2021-09-09T06:40:32.000Z</time>
      </trkpt>
      <trkpt lat="47.86846" lon="2.11045">
        <ele>103.720972</ele>
        <time>2021-09-09T06:40:39.000Z</time>
      </trkpt>
      <trkpt lat="47.86842" lon="2.11133">
        <ele>103.783408</ele>
        <time>2021-09-09T06:40:48.000Z</time>
      </trkpt>
      <trkpt lat="47.86841" lon="2.11143">
        <ele>103.790557</ele>
        <time>2021-09-09T06:40:49.000Z</time>
      </trkpt>
      <trkpt lat="47.86838" lon="2.11213">
        <ele>103.85053</ele>
        <time>2021-09-09T06:40:56.000Z</time>
      </trkpt>
      <trkpt lat="47.86835" lon="2.11268">
        <ele>103.902025</ele>
        <time>2021-09-09T06:41:02.000Z</time>
      </trkpt>
      <trkpt lat="47.86832" lon="2.11322">
        <ele>103.951695</ele>
        <time>2021-09-09T06:41:08.000Z</time>
      </trkpt>
      <trkpt lat="47.86828" lon="2.11389">
        <ele>104.014046</ele>
        <time>2021-09-09T06:41:15.000Z</time>
      </trkpt>
      <trkpt lat="47.86826" lon="2.11458">
        <ele>104.093189</ele>
        <time>2021-09-09T06:41:22.000Z</time>
      </trkpt>
      <trkpt lat="47.86827" lon="2.11468">
        <ele>104.107237</ele>
        <time>2021-09-09T06:41:23.000Z</time>
      </trkpt>
      <trkpt lat="47.86832" lon="2.11527">
        <ele>104.19271</ele>
        <time>2021-09-09T06:41:29.000Z</time>
      </trkpt>
      <trkpt lat="47.86838" lon="2.11596">
        <ele>104.294244</ele>
        <time>2021-09-09T06:41:36.000Z</time>
      </trkpt>
      <trkpt lat="47.86837" lon="2.11643">
        <ele>104.362307</ele>
        <time>2021-09-09T06:41:42.000Z</time>
      </trkpt>
      <trkpt lat="47.86839" lon="2.11652">
        <ele>104.375724</ele>
        <time>2021-09-09T06:41:44.000Z</time>
      </trkpt>
      <trkpt lat="47.86844" lon="2.11645">
        <ele>104.389644</ele>
        <time>2021-09-09T06:41:47.000Z</time>
      </trkpt>
      <trkpt lat="47.86846" lon="2.11634">
        <ele>104.407175</ele>
        <time>2021-09-09T06:41:49.000Z</time>
      </trkpt>
      <trkpt lat="47.86849" lon="2.11627">
        <ele>104.41881</ele>
        <time>2021-09-09T06:41:50.000Z</time>
      </trkpt>
      <trkpt lat="47.86873" lon="2.11591">
        <ele>104.337597</ele>
        <time>2021-09-09T06:41:56.000Z</time>
      </trkpt>
      <trkpt lat="47.86881" lon="2.11587">
        <ele>104.303988</ele>
        <time>2021-09-09T06:41:58.000Z</time>
      </trkpt>
      <trkpt lat="47.86885" lon="2.1159">
        <ele>104.285173</ele>
        <time>2021-09-09T06:41:59.000Z</time>
      </trkpt>
      <trkpt lat="47.86886" lon="2.11604">
        <ele>104.244897</ele>
        <time>2021-09-09T06:42:01.000Z</time>
      </trkpt>
      <trkpt lat="47.86885" lon="2.11612">
        <ele>104.221838</ele>
        <time>2021-09-09T06:42:02.000Z</time>
      </trkpt>
      <trkpt lat="47.86878" lon="2.11647">
        <ele>104.117657</ele>
        <time>2021-09-09T06:42:06.000Z</time>
      </trkpt>
      <trkpt lat="47.86873" lon="2.11675">
        <ele>104.03553</ele>
        <time>2021-09-09T06:42:09.000Z</time>
      </trkpt>
      <trkpt lat="47.86871" lon="2.11694">
        <ele>103.981101</ele>
        <time>2021-09-09T06:42:11.000Z</time>
      </trkpt>
      <trkpt lat="47.86861" lon="2.1175">
        <ele>103.814149</ele>
        <time>2021-09-09T06:42:17.000Z</time>
      </trkpt>
      <trkpt lat="47.86846" lon="2.11826">
        <ele>103.570134</ele>
        <time>2021-09-09T06:42:25.000Z</time>
      </trkpt>
      <trkpt lat="47.86844" lon="2.11836">
        <ele>103.536888</ele>
        <time>2021-09-09T06:42:26.000Z</time>
      </trkpt>
      <trkpt lat="47.86838" lon="2.11872">
        <ele>103.41001</ele>
        <time>2021-09-09T06:42:30.000Z</time>
      </trkpt>
      <trkpt lat="47.86828" lon="2.11935">
        <ele>103.185071</ele>
        <time>2021-09-09T06:42:37.000Z</time>
      </trkpt>
      <trkpt lat="47.86817" lon="2.12002">
        <ele>102.952323</ele>
        <time>2021-09-09T06:42:45.000Z</time>
      </trkpt>
      <trkpt lat="47.86814" lon="2.12035">
        <ele>102.837821</ele>
        <time>2021-09-09T06:42:49.000Z</time>
      </trkpt>
      <trkpt lat="47.86816" lon="2.12052">
        <ele>102.778633</ele>
        <time>2021-09-09T06:42:51.000Z</time>
      </trkpt>
      <trkpt lat="47.86817" lon="2.12061">
        <ele>102.7551</ele>
        <time>2021-09-09T06:42:52.000Z</time>
      </trkpt>
      <trkpt lat="47.86817" lon="2.12079">
        <ele>102.757125</ele>
        <time>2021-09-09T06:42:54.000Z</time>
      </trkpt>
      <trkpt lat="47.86816" lon="2.12089">
        <ele>102.758152</ele>
        <time>2021-09-09T06:42:55.000Z</time>
      </trkpt>
      <trkpt lat="47.86808" lon="2.12144">
        <ele>102.764275</ele>
        <time>2021-09-09T06:43:01.000Z</time>
      </trkpt>
      <trkpt lat="47.86795" lon="2.12207">
        <ele>102.771401</ele>
        <time>2021-09-09T06:43:08.000Z</time>
      </trkpt>
      <trkpt lat="47.86788" lon="2.1224">
        <ele>102.775166</ele>
        <time>2021-09-09T06:43:13.000Z</time>
      </trkpt>
      <trkpt lat="47.86784" lon="2.12269">
        <ele>102.778309</ele>
        <time>2021-09-09T06:43:17.000Z</time>
      </trkpt>
      <trkpt lat="47.86781" lon="2.12286">
        <ele>102.780258</ele>
        <time>2021-09-09T06:43:19.000Z</time>
      </trkpt>
      <trkpt lat="47.86778" lon="2.12312">
        <ele>102.783106</ele>
        <time>2021-09-09T06:43:22.000Z</time>
      </trkpt>
      <trkpt lat="47.86774" lon="2.12352">
        <ele>102.742271</ele>
        <time>2021-09-09T06:43:27.000Z</time>
      </trkpt>
      <trkpt lat="47.86773" lon="2.12358">
        <ele>102.733938</ele>
        <time>2021-09-09T06:43:28.000Z</time>
      </trkpt>
      <trkpt lat="47.86768" lon="2.1238">
        <ele>102.703654</ele>
        <time>2021-09-09T06:43:32.000Z</time>
      </trkpt>
      <trkpt lat="47.86768" lon="2.12386">
        <ele>102.695889</ele>
        <time>2021-09-09T06:43:33.000Z</time>
      </trkpt>
      <trkpt lat="47.86766" lon="2.12415">
        <ele>102.65944</ele>
        <time>2021-09-09T06:43:37.000Z</time>
      </trkpt>
      <trkpt lat="47.86767" lon="2.12428">
        <ele>102.64228</ele>
        <time>2021-09-09T06:43:40.000Z</time>
      </trkpt>
      <trkpt lat="47.86767" lon="2.12432">
        <ele>102.638017</ele>
        <time>2021-09-09T06:43:42.000Z</time>
      </trkpt>
      <trkpt lat="47.86766" lon="2.12436">
        <ele>102.631855</ele>
        <time>2021-09-09T06:43:44.000Z</time>
      </trkpt>
      <trkpt lat="47.86763" lon="2.12455">
        <ele>102.607076</ele>
        <time>2021-09-09T06:43:47.000Z</time>
      </trkpt>
      <trkpt lat="47.86754" lon="2.12513">
        <ele>102.531255</ele>
        <time>2021-09-09T06:43:54.000Z</time>
      </trkpt>
      <trkpt lat="47.86742" lon="2.12582">
        <ele>102.446933</ele>
        <time>2021-09-09T06:44:03.000Z</time>
      </trkpt>
      <trkpt lat="47.86739" lon="2.12598">
        <ele>102.579788</ele>
        <time>2021-09-09T06:44:07.000Z</time>
      </trkpt>
      <trkpt lat="47.86733" lon="2.12599">
        <ele>102.652473</ele>
        <time>2021-09-09T06:44:10.000Z</time>
      </trkpt>
      <trkpt lat="47.86725" lon="2.12594">
        <ele>102.755744</ele>
        <time>2021-09-09T06:44:15.000Z</time>
      </trkpt>
      <trkpt lat="47.86712" lon="2.12589">
        <ele>102.922768</ele>
        <time>2021-09-09T06:44:24.000Z</time>
      </trkpt>
      <trkpt lat="47.86709" lon="2.12589">
        <ele>102.959201</ele>
        <time>2021-09-09T06:44:27.000Z</time>
      </trkpt>
      <trkpt lat="47.86708" lon="2.12594">
        <ele>102.995152</ele>
        <time>2021-09-09T06:44:29.000Z</time>
      </trkpt>
      <trkpt lat="47.86707" lon="2.12613">
        <ele>103.154744</ele>
        <time>2021-09-09T06:44:34.000Z</time>
      </trkpt>
      <trkpt lat="47.86703" lon="2.12637">
        <ele>103.353898</ele>
        <time>2021-09-09T06:44:38.000Z</time>
      </trkpt>
      <trkpt lat="47.867" lon="2.12657">
        <ele>103.515111</ele>
        <time>2021-09-09T06:44:41.000Z</time>
      </trkpt>
      <trkpt lat="47.86695" lon="2.12697">
        <ele>103.847619</ele>
        <time>2021-09-09T06:44:48.000Z</time>
      </trkpt>
      <trkpt lat="47.8669" lon="2.12706">
        <ele>103.941249</ele>
        <time>2021-09-09T06:44:52.000Z</time>
      </trkpt>
      <trkpt lat="47.86678" lon="2.12731">
        <ele>104.186765</ele>
        <time>2021-09-09T06:44:57.000Z</time>
      </trkpt>
      <trkpt lat="47.86658" lon="2.12778">
        <ele>104.624234</ele>
        <time>2021-09-09T06:45:04.000Z</time>
      </trkpt>
      <trkpt lat="47.86628" lon="2.12832">
        <ele>104.858211</ele>
        <time>2021-09-09T06:45:12.000Z</time>
      </trkpt>
      <trkpt lat="47.86588" lon="2.12892">
        <ele>105.144598</ele>
        <time>2021-09-09T06:45:21.000Z</time>
      </trkpt>
      <trkpt lat="47.86583" lon="2.12899">
        <ele>105.17792</ele>
        <time>2021-09-09T06:45:22.000Z</time>
      </trkpt>
      <trkpt lat="47.86553" lon="2.12932">
        <ele>105.365567</ele>
        <time>2021-09-09T06:45:28.000Z</time>
      </trkpt>
      <trkpt lat="47.86508" lon="2.12985">
        <ele>105.57842</ele>
        <time>2021-09-09T06:45:37.000Z</time>
      </trkpt>
      <trkpt lat="47.86468" lon="2.13047">
        <ele>105.713164</ele>
        <time>2021-09-09T06:45:46.000Z</time>
      </trkpt>
      <trkpt lat="47.86428" lon="2.13112">
        <ele>105.850234</ele>
        <time>2021-09-09T06:45:55.000Z</time>
      </trkpt>
      <trkpt lat="47.8642" lon="2.13126">
        <ele>105.880062</ele>
        <time>2021-09-09T06:45:57.000Z</time>
      </trkpt>
      <trkpt lat="47.86408" lon="2.13148">
        <ele>105.925163</ele>
        <time>2021-09-09T06:46:00.000Z</time>
      </trkpt>
      <trkpt lat="47.86402" lon="2.13165">
        <ele>105.961088</ele>
        <time>2021-09-09T06:46:02.000Z</time>
      </trkpt>
      <trkpt lat="47.86396" lon="2.13182">
        <ele>105.999154</ele>
        <time>2021-09-09T06:46:04.000Z</time>
      </trkpt>
      <trkpt lat="47.86384" lon="2.13207">
        <ele>106.058834</ele>
        <time>2021-09-09T06:46:07.000Z</time>
      </trkpt>
      <trkpt lat="47.86359" lon="2.13255">
        <ele>106.179374</ele>
        <time>2021-09-09T06:46:13.000Z</time>
      </trkpt>
      <trkpt lat="47.86316" lon="2.13315">
        <ele>106.354637</ele>
        <time>2021-09-09T06:46:22.000Z</time>
      </trkpt>
      <trkpt lat="47.86271" lon="2.13367">
        <ele>106.499276</ele>
        <time>2021-09-09T06:46:31.000Z</time>
      </trkpt>
      <trkpt lat="47.86235" lon="2.13405">
        <ele>106.57945</ele>
        <time>2021-09-09T06:46:38.000Z</time>
      </trkpt>
      <trkpt lat="47.86188" lon="2.13456">
        <ele>106.685274</ele>
        <time>2021-09-09T06:46:47.000Z</time>
      </trkpt>
      <trkpt lat="47.86142" lon="2.13511">
        <ele>106.790553</ele>
        <time>2021-09-09T06:46:56.000Z</time>
      </trkpt>
      <trkpt lat="47.86097" lon="2.13564">
        <ele>106.824</ele>
        <time>2021-09-09T06:47:05.000Z</time>
      </trkpt>
      <trkpt lat="47.86087" lon="2.13576">
        <ele>106.831691</ele>
        <time>2021-09-09T06:47:07.000Z</time>
      </trkpt>
      <trkpt lat="47.86046" lon="2.13625">
        <ele>106.862053</ele>
        <time>2021-09-09T06:47:15.000Z</time>
      </trkpt>
      <trkpt lat="47.86001" lon="2.1368">
        <ele>106.897273</ele>
        <time>2021-09-09T06:47:24.000Z</time>
      </trkpt>
      <trkpt lat="47.85996" lon="2.13686">
        <ele>106.908073</ele>
        <time>2021-09-09T06:47:25.000Z</time>
      </trkpt>
      <trkpt lat="47.85953" lon="2.1374">
        <ele>107.00321</ele>
        <time>2021-09-09T06:47:34.000Z</time>
      </trkpt>
      <trkpt lat="47.85928" lon="2.1377">
        <ele>107.056124</ele>
        <time>2021-09-09T06:47:39.000Z</time>
      </trkpt>
      <trkpt lat="47.85918" lon="2.13782">
        <ele>107.077587</ele>
        <time>2021-09-09T06:47:41.000Z</time>
      </trkpt>
      <trkpt lat="47.85874" lon="2.13835">
        <ele>107.172155</ele>
        <time>2021-09-09T06:47:50.000Z</time>
      </trkpt>
      <trkpt lat="47.8583" lon="2.13889">
        <ele>107.233364</ele>
        <time>2021-09-09T06:47:59.000Z</time>
      </trkpt>
      <trkpt lat="47.85825" lon="2.13894">
        <ele>107.238697</ele>
        <time>2021-09-09T06:48:00.000Z</time>
      </trkpt>
      <trkpt lat="47.85792" lon="2.13936">
        <ele>107.276529</ele>
        <time>2021-09-09T06:48:07.000Z</time>
      </trkpt>
      <trkpt lat="47.85754" lon="2.1398">
        <ele>107.318629</ele>
        <time>2021-09-09T06:48:15.000Z</time>
      </trkpt>
      <trkpt lat="47.85725" lon="2.14017">
        <ele>107.351722</ele>
        <time>2021-09-09T06:48:22.000Z</time>
      </trkpt>
      <trkpt lat="47.85715" lon="2.14029">
        <ele>107.294217</ele>
        <time>2021-09-09T06:48:25.000Z</time>
      </trkpt>
      <trkpt lat="47.85711" lon="2.1403">
        <ele>107.274407</ele>
        <time>2021-09-09T06:48:26.000Z</time>
      </trkpt>
      <trkpt lat="47.85708" lon="2.14027">
        <ele>107.255068</ele>
        <time>2021-09-09T06:48:27.000Z</time>
      </trkpt>
      <trkpt lat="47.85703" lon="2.14016">
        <ele>107.209428</ele>
        <time>2021-09-09T06:48:29.000Z</time>
      </trkpt>
      <trkpt lat="47.85691" lon="2.13973">
        <ele>107.054515</ele>
        <time>2021-09-09T06:48:34.000Z</time>
      </trkpt>
      <trkpt lat="47.85674" lon="2.13915">
        <ele>106.841234</ele>
        <time>2021-09-09T06:48:40.000Z</time>
      </trkpt>
      <trkpt lat="47.85658" lon="2.13849">
        <ele>106.603757</ele>
        <time>2021-09-09T06:48:47.000Z</time>
      </trkpt>
      <trkpt lat="47.8565" lon="2.13814">
        <ele>106.478535</ele>
        <time>2021-09-09T06:48:51.000Z</time>
      </trkpt>
      <trkpt lat="47.85641" lon="2.13804">
        <ele>106.432768</ele>
        <time>2021-09-09T06:48:53.000Z</time>
      </trkpt>
      <trkpt lat="47.85631" lon="2.13809">
        <ele>106.395275</ele>
        <time>2021-09-09T06:48:55.000Z</time>
      </trkpt>
      <trkpt lat="47.856" lon="2.13847">
        <ele>106.259691</ele>
        <time>2021-09-09T06:49:01.000Z</time>
      </trkpt>
      <trkpt lat="47.85563" lon="2.13891">
        <ele>106.101821</ele>
        <time>2021-09-09T06:49:08.000Z</time>
      </trkpt>
      <trkpt lat="47.85519" lon="2.13945">
        <ele>105.906377</ele>
        <time>2021-09-09T06:49:17.000Z</time>
      </trkpt>
      <trkpt lat="47.85514" lon="2.13952">
        <ele>105.885247</ele>
        <time>2021-09-09T06:49:18.000Z</time>
      </trkpt>
      <trkpt lat="47.85486" lon="2.13999">
        <ele>105.772394</ele>
        <time>2021-09-09T06:49:25.000Z</time>
      </trkpt>
      <trkpt lat="47.85478" lon="2.14013">
        <ele>105.744332</ele>
        <time>2021-09-09T06:49:27.000Z</time>
      </trkpt>
      <trkpt lat="47.85462" lon="2.14038">
        <ele>105.68946</ele>
        <time>2021-09-09T06:49:31.000Z</time>
      </trkpt>
      <trkpt lat="47.85429" lon="2.14095">
        <ele>105.569646</ele>
        <time>2021-09-09T06:49:40.000Z</time>
      </trkpt>
      <trkpt lat="47.85401" lon="2.14143">
        <ele>105.469391</ele>
        <time>2021-09-09T06:49:47.000Z</time>
      </trkpt>
      <trkpt lat="47.85363" lon="2.14199">
        <ele>105.408108</ele>
        <time>2021-09-09T06:49:55.000Z</time>
      </trkpt>
      <trkpt lat="47.85324" lon="2.14255">
        <ele>105.389578</ele>
        <time>2021-09-09T06:50:03.000Z</time>
      </trkpt>
      <trkpt lat="47.85314" lon="2.14268">
        <ele>105.385134</ele>
        <time>2021-09-09T06:50:05.000Z</time>
      </trkpt>
      <trkpt lat="47.85271" lon="2.14325">
        <ele>105.365307</ele>
        <time>2021-09-09T06:50:14.000Z</time>
      </trkpt>
      <trkpt lat="47.85229" lon="2.14373">
        <ele>105.36295</ele>
        <time>2021-09-09T06:50:22.000Z</time>
      </trkpt>
      <trkpt lat="47.85191" lon="2.14418">
        <ele>105.371583</ele>
        <time>2021-09-09T06:50:30.000Z</time>
      </trkpt>
      <trkpt lat="47.85161" lon="2.14458">
        <ele>105.37877</ele>
        <time>2021-09-09T06:50:37.000Z</time>
      </trkpt>
      <trkpt lat="47.85123" lon="2.14512">
        <ele>105.388328</ele>
        <time>2021-09-09T06:50:45.000Z</time>
      </trkpt>
      <trkpt lat="47.85079" lon="2.14573">
        <ele>105.337644</ele>
        <time>2021-09-09T06:50:54.000Z</time>
      </trkpt>
      <trkpt lat="47.85075" lon="2.1458">
        <ele>105.331023</ele>
        <time>2021-09-09T06:50:55.000Z</time>
      </trkpt>
      <trkpt lat="47.85035" lon="2.14641">
        <ele>105.272419</ele>
        <time>2021-09-09T06:51:04.000Z</time>
      </trkpt>
      <trkpt lat="47.85006" lon="2.14689">
        <ele>105.228197</ele>
        <time>2021-09-09T06:51:11.000Z</time>
      </trkpt>
      <trkpt lat="47.85002" lon="2.14697">
        <ele>105.221753</ele>
        <time>2021-09-09T06:51:12.000Z</time>
      </trkpt>
      <trkpt lat="47.84993" lon="2.14721">
        <ele>105.199581</ele>
        <time>2021-09-09T06:51:15.000Z</time>
      </trkpt>
      <trkpt lat="47.8499" lon="2.14729">
        <ele>105.187277</ele>
        <time>2021-09-09T06:51:16.000Z</time>
      </trkpt>
      <trkpt lat="47.84975" lon="2.14801">
        <ele>105.086455</ele>
        <time>2021-09-09T06:51:24.000Z</time>
      </trkpt>
      <trkpt lat="47.84972" lon="2.14869">
        <ele>104.996928</ele>
        <time>2021-09-09T06:51:31.000Z</time>
      </trkpt>
      <trkpt lat="47.84974" lon="2.14946">
        <ele>104.893516</ele>
        <time>2021-09-09T06:51:39.000Z</time>
      </trkpt>
      <trkpt lat="47.84975" lon="2.15012">
        <ele>104.805241</ele>
        <time>2021-09-09T06:51:46.000Z</time>
      </trkpt>
      <trkpt lat="47.84971" lon="2.15099">
        <ele>104.688198</ele>
        <time>2021-09-09T06:51:55.000Z</time>
      </trkpt>
      <trkpt lat="47.84961" lon="2.15182">
        <ele>104.573876</ele>
        <time>2021-09-09T06:52:04.000Z</time>
      </trkpt>
      <trkpt lat="47.84962" lon="2.15201">
        <ele>104.548502</ele>
        <time>2021-09-09T06:52:06.000Z</time>
      </trkpt>
      <trkpt lat="47.84964" lon="2.1522">
        <ele>104.522968</ele>
        <time>2021-09-09T06:52:08.000Z</time>
      </trkpt>
      <trkpt lat="47.84966" lon="2.15228">
        <ele>104.51069</ele>
        <time>2021-09-09T06:52:09.000Z</time>
      </trkpt>
      <trkpt lat="47.84975" lon="2.15262">
        <ele>104.522858</ele>
        <time>2021-09-09T06:52:13.000Z</time>
      </trkpt>
      <trkpt lat="47.84985" lon="2.15317">
        <ele>104.622563</ele>
        <time>2021-09-09T06:52:19.000Z</time>
      </trkpt>
      <trkpt lat="47.85002" lon="2.15399">
        <ele>104.774025</ele>
        <time>2021-09-09T06:52:28.000Z</time>
      </trkpt>
      <trkpt lat="47.85004" lon="2.15408">
        <ele>104.790603</ele>
        <time>2021-09-09T06:52:29.000Z</time>
      </trkpt>
      <trkpt lat="47.8501" lon="2.15464">
        <ele>104.889936</ele>
        <time>2021-09-09T06:52:35.000Z</time>
      </trkpt>
      <trkpt lat="47.85013" lon="2.15497">
        <ele>104.949593</ele>
        <time>2021-09-09T06:52:40.000Z</time>
      </trkpt>
      <trkpt lat="47.8502" lon="2.15542">
        <ele>105.077349</ele>
        <time>2021-09-09T06:52:46.000Z</time>
      </trkpt>
      <trkpt lat="47.85028" lon="2.15618">
        <ele>105.306918</ele>
        <time>2021-09-09T06:52:55.000Z</time>
      </trkpt>
      <trkpt lat="47.85028" lon="2.15665">
        <ele>105.446338</ele>
        <time>2021-09-09T06:53:00.000Z</time>
      </trkpt>
      <trkpt lat="47.85021" lon="2.15751">
        <ele>105.705531</ele>
        <time>2021-09-09T06:53:09.000Z</time>
      </trkpt>
      <trkpt lat="47.85016" lon="2.15818">
        <ele>105.875192</ele>
        <time>2021-09-09T06:53:16.000Z</time>
      </trkpt>
      <trkpt lat="47.85007" lon="2.15897">
        <ele>106.065981</ele>
        <time>2021-09-09T06:53:24.000Z</time>
      </trkpt>
      <trkpt lat="47.84988" lon="2.15974">
        <ele>106.259856</ele>
        <time>2021-09-09T06:53:32.000Z</time>
      </trkpt>
      <trkpt lat="47.84986" lon="2.15983">
        <ele>106.28388</ele>
        <time>2021-09-09T06:53:33.000Z</time>
      </trkpt>
      <trkpt lat="47.84966" lon="2.16068">
        <ele>106.457916</ele>
        <time>2021-09-09T06:53:42.000Z</time>
      </trkpt>
      <trkpt lat="47.84962" lon="2.16086">
        <ele>106.486493</ele>
        <time>2021-09-09T06:53:44.000Z</time>
      </trkpt>
      <trkpt lat="47.84942" lon="2.16167">
        <ele>106.612014</ele>
        <time>2021-09-09T06:53:53.000Z</time>
      </trkpt>
      <trkpt lat="47.84939" lon="2.16176">
        <ele>106.626727</ele>
        <time>2021-09-09T06:53:54.000Z</time>
      </trkpt>
      <trkpt lat="47.84919" lon="2.1626">
        <ele>106.75763</ele>
        <time>2021-09-09T06:54:03.000Z</time>
      </trkpt>
      <trkpt lat="47.84916" lon="2.1627">
        <ele>106.772695</ele>
        <time>2021-09-09T06:54:04.000Z</time>
      </trkpt>
      <trkpt lat="47.84898" lon="2.16347">
        <ele>106.847238</ele>
        <time>2021-09-09T06:54:12.000Z</time>
      </trkpt>
      <trkpt lat="47.84885" lon="2.16415">
        <ele>106.906573</ele>
        <time>2021-09-09T06:54:19.000Z</time>
      </trkpt>
      <trkpt lat="47.84871" lon="2.16493">
        <ele>106.974234</ele>
        <time>2021-09-09T06:54:27.000Z</time>
      </trkpt>
      <trkpt lat="47.84866" lon="2.16523">
        <ele>106.999571</ele>
        <time>2021-09-09T06:54:30.000Z</time>
      </trkpt>
      <trkpt lat="47.84851" lon="2.16609">
        <ele>107.072678</ele>
        <time>2021-09-09T06:54:39.000Z</time>
      </trkpt>
      <trkpt lat="47.8485" lon="2.16619">
        <ele>107.080882</ele>
        <time>2021-09-09T06:54:40.000Z</time>
      </trkpt>
      <trkpt lat="47.84837" lon="2.16695">
        <ele>107.144946</ele>
        <time>2021-09-09T06:54:48.000Z</time>
      </trkpt>
      <trkpt lat="47.84826" lon="2.16762">
        <ele>107.201294</ele>
        <time>2021-09-09T06:54:55.000Z</time>
      </trkpt>
      <trkpt lat="47.84816" lon="2.1684">
        <ele>107.255453</ele>
        <time>2021-09-09T06:55:03.000Z</time>
      </trkpt>
      <trkpt lat="47.84809" lon="2.16926">
        <ele>107.305371</ele>
        <time>2021-09-09T06:55:12.000Z</time>
      </trkpt>
      <trkpt lat="47.84809" lon="2.16935">
        <ele>107.310608</ele>
        <time>2021-09-09T06:55:13.000Z</time>
      </trkpt>
      <trkpt lat="47.84808" lon="2.1697">
        <ele>107.330408</ele>
        <time>2021-09-09T06:55:17.000Z</time>
      </trkpt>
      <trkpt lat="47.84804" lon="2.17032">
        <ele>107.366432</ele>
        <time>2021-09-09T06:55:24.000Z</time>
      </trkpt>
      <trkpt lat="47.84802" lon="2.17109">
        <ele>107.386857</ele>
        <time>2021-09-09T06:55:32.000Z</time>
      </trkpt>
      <trkpt lat="47.84806" lon="2.17199">
        <ele>107.392198</ele>
        <time>2021-09-09T06:55:41.000Z</time>
      </trkpt>
      <trkpt lat="47.84812" lon="2.17288">
        <ele>107.397548</ele>
        <time>2021-09-09T06:55:50.000Z</time>
      </trkpt>
      <trkpt lat="47.84817" lon="2.17359">
        <ele>107.414066</ele>
        <time>2021-09-09T06:55:57.000Z</time>
      </trkpt>
      <trkpt lat="47.84822" lon="2.1744">
        <ele>107.452288</ele>
        <time>2021-09-09T06:56:05.000Z</time>
      </trkpt>
      <trkpt lat="47.84823" lon="2.1746">
        <ele>107.461945</ele>
        <time>2021-09-09T06:56:07.000Z</time>
      </trkpt>
      <trkpt lat="47.84819" lon="2.17542">
        <ele>107.50062</ele>
        <time>2021-09-09T06:56:15.000Z</time>
      </trkpt>
      <trkpt lat="47.84815" lon="2.17626">
        <ele>107.525872</ele>
        <time>2021-09-09T06:56:23.000Z</time>
      </trkpt>
      <trkpt lat="47.84809" lon="2.17709">
        <ele>107.523692</ele>
        <time>2021-09-09T06:56:31.000Z</time>
      </trkpt>
      <trkpt lat="47.84799" lon="2.1779">
        <ele>107.52155</ele>
        <time>2021-09-09T06:56:39.000Z</time>
      </trkpt>
      <trkpt lat="47.84797" lon="2.178">
        <ele>107.521281</ele>
        <time>2021-09-09T06:56:40.000Z</time>
      </trkpt>
      <trkpt lat="47.84785" lon="2.17847">
        <ele>107.519967</ele>
        <time>2021-09-09T06:56:45.000Z</time>
      </trkpt>
      <trkpt lat="47.8476" lon="2.17894">
        <ele>107.545432</ele>
        <time>2021-09-09T06:56:51.000Z</time>
      </trkpt>
      <trkpt lat="47.84746" lon="2.17913">
        <ele>107.561332</ele>
        <time>2021-09-09T06:56:54.000Z</time>
      </trkpt>
      <trkpt lat="47.84734" lon="2.17919">
        <ele>107.571761</ele>
        <time>2021-09-09T06:56:56.000Z</time>
      </trkpt>
      <trkpt lat="47.84721" lon="2.17916">
        <ele>107.582732</ele>
        <time>2021-09-09T06:56:58.000Z</time>
      </trkpt>
      <trkpt lat="47.84715" lon="2.17914">
        <ele>107.587903</ele>
        <time>2021-09-09T06:56:59.000Z</time>
      </trkpt>
      <trkpt lat="47.84702" lon="2.17909">
        <ele>107.598139</ele>
        <time>2021-09-09T06:57:01.000Z</time>
      </trkpt>
      <trkpt lat="47.84684" lon="2.17907">
        <ele>107.61358</ele>
        <time>2021-09-09T06:57:04.000Z</time>
      </trkpt>
      <trkpt lat="47.84671" lon="2.17909">
        <ele>107.624023</ele>
        <time>2021-09-09T06:57:06.000Z</time>
      </trkpt>
      <trkpt lat="47.84659" lon="2.17914">
        <ele>107.634488</ele>
        <time>2021-09-09T06:57:08.000Z</time>
      </trkpt>
      <trkpt lat="47.84653" lon="2.17917">
        <ele>107.639736</ele>
        <time>2021-09-09T06:57:09.000Z</time>
      </trkpt>
      <trkpt lat="47.84626" lon="2.17941">
        <ele>107.665496</ele>
        <time>2021-09-09T06:57:14.000Z</time>
      </trkpt>
      <trkpt lat="47.84621" lon="2.17948">
        <ele>107.67073</ele>
        <time>2021-09-09T06:57:15.000Z</time>
      </trkpt>
      <trkpt lat="47.84606" lon="2.17977">
        <ele>107.690895</ele>
        <time>2021-09-09T06:57:19.000Z</time>
      </trkpt>
      <trkpt lat="47.84596" lon="2.18019">
        <ele>107.715288</ele>
        <time>2021-09-09T06:57:24.000Z</time>
      </trkpt>
      <trkpt lat="47.84596" lon="2.18067">
        <ele>107.741282</ele>
        <time>2021-09-09T06:57:29.000Z</time>
      </trkpt>
      <trkpt lat="47.84605" lon="2.18134">
        <ele>107.778864</ele>
        <time>2021-09-09T06:57:36.000Z</time>
      </trkpt>
      <trkpt lat="47.84617" lon="2.18222">
        <ele>107.83021</ele>
        <time>2021-09-09T06:57:45.000Z</time>
      </trkpt>
      <trkpt lat="47.84618" lon="2.18232">
        <ele>107.836496</ele>
        <time>2021-09-09T06:57:46.000Z</time>
      </trkpt>
      <trkpt lat="47.84618" lon="2.18242">
        <ele>107.842961</ele>
        <time>2021-09-09T06:57:47.000Z</time>
      </trkpt>
      <trkpt lat="47.84616" lon="2.18272">
        <ele>107.862276</ele>
        <time>2021-09-09T06:57:50.000Z</time>
      </trkpt>
      <trkpt lat="47.84604" lon="2.1836">
        <ele>107.91869</ele>
        <time>2021-09-09T06:57:59.000Z</time>
      </trkpt>
      <trkpt lat="47.84603" lon="2.1837">
        <ele>107.925102</ele>
        <time>2021-09-09T06:58:00.000Z</time>
      </trkpt>
      <trkpt lat="47.84593" lon="2.18451">
        <ele>107.977104</ele>
        <time>2021-09-09T06:58:08.000Z</time>
      </trkpt>
      <trkpt lat="47.84586" lon="2.18531">
        <ele>107.980937</ele>
        <time>2021-09-09T06:58:16.000Z</time>
      </trkpt>
      <trkpt lat="47.84585" lon="2.18541">
        <ele>107.980599</ele>
        <time>2021-09-09T06:58:17.000Z</time>
      </trkpt>
      <trkpt lat="47.84585" lon="2.18623">
        <ele>107.977927</ele>
        <time>2021-09-09T06:58:25.000Z</time>
      </trkpt>
      <trkpt lat="47.84585" lon="2.18643">
        <ele>107.977269</ele>
        <time>2021-09-09T06:58:27.000Z</time>
      </trkpt>
      <trkpt lat="47.84581" lon="2.18725">
        <ele>107.974594</ele>
        <time>2021-09-09T06:58:35.000Z</time>
      </trkpt>
      <trkpt lat="47.8458" lon="2.18734">
        <ele>107.970739</ele>
        <time>2021-09-09T06:58:36.000Z</time>
      </trkpt>
      <trkpt lat="47.84575" lon="2.18815">
        <ele>107.927973</ele>
        <time>2021-09-09T06:58:44.000Z</time>
      </trkpt>
      <trkpt lat="47.84574" lon="2.18896">
        <ele>107.885581</ele>
        <time>2021-09-09T06:58:52.000Z</time>
      </trkpt>
      <trkpt lat="47.84575" lon="2.18916">
        <ele>107.875165</ele>
        <time>2021-09-09T06:58:54.000Z</time>
      </trkpt>
      <trkpt lat="47.8458" lon="2.19005">
        <ele>107.832508</ele>
        <time>2021-09-09T06:59:03.000Z</time>
      </trkpt>
      <trkpt lat="47.84585" lon="2.19086">
        <ele>107.823357</ele>
        <time>2021-09-09T06:59:11.000Z</time>
      </trkpt>
      <trkpt lat="47.84586" lon="2.19096">
        <ele>107.822196</ele>
        <time>2021-09-09T06:59:12.000Z</time>
      </trkpt>
      <trkpt lat="47.84591" lon="2.19166">
        <ele>107.814151</ele>
        <time>2021-09-09T06:59:19.000Z</time>
      </trkpt>
      <trkpt lat="47.84598" lon="2.19247">
        <ele>107.804915</ele>
        <time>2021-09-09T06:59:27.000Z</time>
      </trkpt>
      <trkpt lat="47.846" lon="2.19278">
        <ele>107.814708</ele>
        <time>2021-09-09T06:59:30.000Z</time>
      </trkpt>
      <trkpt lat="47.84609" lon="2.19357">
        <ele>107.869986</ele>
        <time>2021-09-09T06:59:38.000Z</time>
      </trkpt>
      <trkpt lat="47.84611" lon="2.19367">
        <ele>107.876826</ele>
        <time>2021-09-09T06:59:39.000Z</time>
      </trkpt>
      <trkpt lat="47.84626" lon="2.19443">
        <ele>107.931363</ele>
        <time>2021-09-09T06:59:47.000Z</time>
      </trkpt>
      <trkpt lat="47.84645" lon="2.19528">
        <ele>107.991599</ele>
        <time>2021-09-09T06:59:56.000Z</time>
      </trkpt>
      <trkpt lat="47.84648" lon="2.19547">
        <ele>108.003574</ele>
        <time>2021-09-09T06:59:58.000Z</time>
      </trkpt>
      <trkpt lat="47.84667" lon="2.19632">
        <ele>108.056991</ele>
        <time>2021-09-09T07:00:07.000Z</time>
      </trkpt>
      <trkpt lat="47.84684" lon="2.19716">
        <ele>108.109713</ele>
        <time>2021-09-09T07:00:16.000Z</time>
      </trkpt>
      <trkpt lat="47.84686" lon="2.19725">
        <ele>108.115467</ele>
        <time>2021-09-09T07:00:17.000Z</time>
      </trkpt>
      <trkpt lat="47.84704" lon="2.19809">
        <ele>108.194305</ele>
        <time>2021-09-09T07:00:26.000Z</time>
      </trkpt>
      <trkpt lat="47.84721" lon="2.19895">
        <ele>108.314708</ele>
        <time>2021-09-09T07:00:35.000Z</time>
      </trkpt>
      <trkpt lat="47.84723" lon="2.19904">
        <ele>108.328172</ele>
        <time>2021-09-09T07:00:36.000Z</time>
      </trkpt>
      <trkpt lat="47.84743" lon="2.19988">
        <ele>108.44712</ele>
        <time>2021-09-09T07:00:45.000Z</time>
      </trkpt>
      <trkpt lat="47.84754" lon="2.20055">
        <ele>108.516124</ele>
        <time>2021-09-09T07:00:52.000Z</time>
      </trkpt>
      <trkpt lat="47.84755" lon="2.20114">
        <ele>108.536515</ele>
        <time>2021-09-09T07:00:58.000Z</time>
      </trkpt>
      <trkpt lat="47.8475" lon="2.20182">
        <ele>108.559959</ele>
        <time>2021-09-09T07:01:05.000Z</time>
      </trkpt>
      <trkpt lat="47.84744" lon="2.20269">
        <ele>108.590079</ele>
        <time>2021-09-09T07:01:14.000Z</time>
      </trkpt>
      <trkpt lat="47.84735" lon="2.20336">
        <ele>108.608039</ele>
        <time>2021-09-09T07:01:21.000Z</time>
      </trkpt>
      <trkpt lat="47.84722" lon="2.204">
        <ele>108.621639</ele>
        <time>2021-09-09T07:01:28.000Z</time>
      </trkpt>
      <trkpt lat="47.84711" lon="2.20445">
        <ele>108.631476</ele>
        <time>2021-09-09T07:01:33.000Z</time>
      </trkpt>
      <trkpt lat="47.84709" lon="2.20454">
        <ele>108.633479</ele>
        <time>2021-09-09T07:01:34.000Z</time>
      </trkpt>
      <trkpt lat="47.8469" lon="2.20527">
        <ele>108.649411</ele>
        <time>2021-09-09T07:01:42.000Z</time>
      </trkpt>
      <trkpt lat="47.84682" lon="2.20595">
        <ele>108.536288</ele>
        <time>2021-09-09T07:01:49.000Z</time>
      </trkpt>
      <trkpt lat="47.84673" lon="2.2066">
        <ele>108.350671</ele>
        <time>2021-09-09T07:01:56.000Z</time>
      </trkpt>
      <trkpt lat="47.84659" lon="2.20712">
        <ele>108.196622</ele>
        <time>2021-09-09T07:02:02.000Z</time>
      </trkpt>
      <trkpt lat="47.84649" lon="2.20734">
        <ele>108.123642</ele>
        <time>2021-09-09T07:02:05.000Z</time>
      </trkpt>
      <trkpt lat="47.8465" lon="2.20747">
        <ele>108.087532</ele>
        <time>2021-09-09T07:02:07.000Z</time>
      </trkpt>
      <trkpt lat="47.8466" lon="2.20753">
        <ele>108.043232</ele>
        <time>2021-09-09T07:02:09.000Z</time>
      </trkpt>
      <trkpt lat="47.84666" lon="2.20756">
        <ele>108.01669</ele>
        <time>2021-09-09T07:02:10.000Z</time>
      </trkpt>
      <trkpt lat="47.84702" lon="2.20773">
        <ele>107.852102</ele>
        <time>2021-09-09T07:02:15.000Z</time>
      </trkpt>
      <trkpt lat="47.84758" lon="2.20797">
        <ele>107.576526</ele>
        <time>2021-09-09T07:02:22.000Z</time>
      </trkpt>
      <trkpt lat="47.84781" lon="2.20807">
        <ele>107.46178</ele>
        <time>2021-09-09T07:02:25.000Z</time>
      </trkpt>
      <trkpt lat="47.84831" lon="2.20828">
        <ele>107.21511</ele>
        <time>2021-09-09T07:02:32.000Z</time>
      </trkpt>
      <trkpt lat="47.84886" lon="2.20855">
        <ele>107.013207</ele>
        <time>2021-09-09T07:02:40.000Z</time>
      </trkpt>
      <trkpt lat="47.84892" lon="2.20859">
        <ele>107.000742</ele>
        <time>2021-09-09T07:02:41.000Z</time>
      </trkpt>
      <trkpt lat="47.84899" lon="2.20865">
        <ele>106.988011</ele>
        <time>2021-09-09T07:02:42.000Z</time>
      </trkpt>
      <trkpt lat="47.84917" lon="2.20885">
        <ele>106.949319</ele>
        <time>2021-09-09T07:02:45.000Z</time>
      </trkpt>
      <trkpt lat="47.84961" lon="2.20948">
        <ele>106.844557</ele>
        <time>2021-09-09T07:02:53.000Z</time>
      </trkpt>
      <trkpt lat="47.84974" lon="2.20965">
        <ele>106.815008</ele>
        <time>2021-09-09T07:02:55.000Z</time>
      </trkpt>
      <trkpt lat="47.84988" lon="2.20983">
        <ele>106.784117</ele>
        <time>2021-09-09T07:02:57.000Z</time>
      </trkpt>
      <trkpt lat="47.85016" lon="2.21024">
        <ele>106.732006</ele>
        <time>2021-09-09T07:03:02.000Z</time>
      </trkpt>
      <trkpt lat="47.85052" lon="2.21085">
        <ele>106.689025</ele>
        <time>2021-09-09T07:03:10.000Z</time>
      </trkpt>
      <trkpt lat="47.85089" lon="2.21147">
        <ele>106.644564</ele>
        <time>2021-09-09T07:03:18.000Z</time>
      </trkpt>
      <trkpt lat="47.85094" lon="2.21155">
        <ele>106.638813</ele>
        <time>2021-09-09T07:03:19.000Z</time>
      </trkpt>
      <trkpt lat="47.85128" lon="2.2122">
        <ele>106.600183</ele>
        <time>2021-09-09T07:03:27.000Z</time>
      </trkpt>
      <trkpt lat="47.85137" lon="2.21236">
        <ele>106.596545</ele>
        <time>2021-09-09T07:03:29.000Z</time>
      </trkpt>
      <trkpt lat="47.85169" lon="2.21302">
        <ele>106.581758</ele>
        <time>2021-09-09T07:03:37.000Z</time>
      </trkpt>
      <trkpt lat="47.85195" lon="2.21361">
        <ele>106.569137</ele>
        <time>2021-09-09T07:03:44.000Z</time>
      </trkpt>
      <trkpt lat="47.85227" lon="2.21437">
        <ele>106.549082</ele>
        <time>2021-09-09T07:03:53.000Z</time>
      </trkpt>
      <trkpt lat="47.85255" lon="2.21513">
        <ele>106.499342</ele>
        <time>2021-09-09T07:04:01.000Z</time>
      </trkpt>
      <trkpt lat="47.85262" lon="2.21532">
        <ele>106.486895</ele>
        <time>2021-09-09T07:04:03.000Z</time>
      </trkpt>
      <trkpt lat="47.85285" lon="2.21607">
        <ele>106.439313</ele>
        <time>2021-09-09T07:04:11.000Z</time>
      </trkpt>
      <trkpt lat="47.85288" lon="2.21616">
        <ele>106.433589</ele>
        <time>2021-09-09T07:04:12.000Z</time>
      </trkpt>
      <trkpt lat="47.85315" lon="2.21682">
        <ele>106.413101</ele>
        <time>2021-09-09T07:04:20.000Z</time>
      </trkpt>
      <trkpt lat="47.85347" lon="2.21749">
        <ele>106.467117</ele>
        <time>2021-09-09T07:04:28.000Z</time>
      </trkpt>
      <trkpt lat="47.85368" lon="2.21788">
        <ele>106.500073</ele>
        <time>2021-09-09T07:04:33.000Z</time>
      </trkpt>
      <trkpt lat="47.8538" lon="2.21809">
        <ele>106.517938</ele>
        <time>2021-09-09T07:04:36.000Z</time>
      </trkpt>
      <trkpt lat="47.85384" lon="2.21816">
        <ele>106.523848</ele>
        <time>2021-09-09T07:04:37.000Z</time>
      </trkpt>
      <trkpt lat="47.85388" lon="2.21823">
        <ele>106.529865</ele>
        <time>2021-09-09T07:04:38.000Z</time>
      </trkpt>
      <trkpt lat="47.85406" lon="2.2185">
        <ele>106.555224</ele>
        <time>2021-09-09T07:04:42.000Z</time>
      </trkpt>
      <trkpt lat="47.85443" lon="2.21915">
        <ele>106.581107</ele>
        <time>2021-09-09T07:04:51.000Z</time>
      </trkpt>
      <trkpt lat="47.8547" lon="2.21974">
        <ele>106.587381</ele>
        <time>2021-09-09T07:04:58.000Z</time>
      </trkpt>
      <trkpt lat="47.85481" lon="2.21999">
        <ele>106.590055</ele>
        <time>2021-09-09T07:05:01.000Z</time>
      </trkpt>
      <trkpt lat="47.85488" lon="2.22017">
        <ele>106.591846</ele>
        <time>2021-09-09T07:05:03.000Z</time>
      </trkpt>
      <trkpt lat="47.85513" lon="2.22076">
        <ele>106.598001</ele>
        <time>2021-09-09T07:05:10.000Z</time>
      </trkpt>
      <trkpt lat="47.85535" lon="2.22124">
        <ele>106.624418</ele>
        <time>2021-09-09T07:05:16.000Z</time>
      </trkpt>
      <trkpt lat="47.85566" lon="2.22183">
        <ele>106.676426</ele>
        <time>2021-09-09T07:05:24.000Z</time>
      </trkpt>
      <trkpt lat="47.85596" lon="2.22246">
        <ele>106.729926</ele>
        <time>2021-09-09T07:05:32.000Z</time>
      </trkpt>
      <trkpt lat="47.8561" lon="2.22298">
        <ele>106.769326</ele>
        <time>2021-09-09T07:05:38.000Z</time>
      </trkpt>
      <trkpt lat="47.85617" lon="2.22344">
        <ele>106.906336</ele>
        <time>2021-09-09T07:05:44.000Z</time>
      </trkpt>
      <trkpt lat="47.8562" lon="2.2236">
        <ele>106.990171</ele>
        <time>2021-09-09T07:05:48.000Z</time>
      </trkpt>
      <trkpt lat="47.85627" lon="2.22364">
        <ele>107.049344</ele>
        <time>2021-09-09T07:05:50.000Z</time>
      </trkpt>
      <trkpt lat="47.85631" lon="2.22364">
        <ele>107.084538</ele>
        <time>2021-09-09T07:05:51.000Z</time>
      </trkpt>
      <trkpt lat="47.85659" lon="2.22361">
        <ele>107.304808</ele>
        <time>2021-09-09T07:05:57.000Z</time>
      </trkpt>
      <trkpt lat="47.85669" lon="2.22359">
        <ele>107.382738</ele>
        <time>2021-09-09T07:05:59.000Z</time>
      </trkpt>
      <trkpt lat="47.8569" lon="2.22358">
        <ele>107.545586</ele>
        <time>2021-09-09T07:06:03.000Z</time>
      </trkpt>
      <trkpt lat="47.85733" lon="2.22354">
        <ele>107.880974</ele>
        <time>2021-09-09T07:06:11.000Z</time>
      </trkpt>
      <trkpt lat="47.85763" lon="2.2235">
        <ele>108.116334</ele>
        <time>2021-09-09T07:06:17.000Z</time>
      </trkpt>
      <trkpt lat="47.85807" lon="2.22346">
        <ele>108.501651</ele>
        <time>2021-09-09T07:06:25.000Z</time>
      </trkpt>
      <trkpt lat="47.85859" lon="2.2234">
        <ele>108.96861</ele>
        <time>2021-09-09T07:06:34.000Z</time>
      </trkpt>
      <trkpt lat="47.8591" lon="2.22335">
        <ele>109.423524</ele>
        <time>2021-09-09T07:06:42.000Z</time>
      </trkpt>
      <trkpt lat="47.85955" lon="2.2233">
        <ele>109.819414</ele>
        <time>2021-09-09T07:06:49.000Z</time>
      </trkpt>
      <trkpt lat="47.85987" lon="2.22326">
        <ele>109.972086</ele>
        <time>2021-09-09T07:06:54.000Z</time>
      </trkpt>
      <trkpt lat="47.85993" lon="2.22328">
        <ele>110.00063</ele>
        <time>2021-09-09T07:06:55.000Z</time>
      </trkpt>
      <trkpt lat="47.85997" lon="2.22335">
        <ele>110.028887</ele>
        <time>2021-09-09T07:06:56.000Z</time>
      </trkpt>
      <trkpt lat="47.85999" lon="2.22343">
        <ele>110.056429</ele>
        <time>2021-09-09T07:06:57.000Z</time>
      </trkpt>
      <trkpt lat="47.85998" lon="2.22352">
        <ele>110.085694</ele>
        <time>2021-09-09T07:06:58.000Z</time>
      </trkpt>
      <trkpt lat="47.85994" lon="2.22372">
        <ele>110.149062</ele>
        <time>2021-09-09T07:07:00.000Z</time>
      </trkpt>
      <trkpt lat="47.85994" lon="2.22382">
        <ele>110.182317</ele>
        <time>2021-09-09T07:07:01.000Z</time>
      </trkpt>
      <trkpt lat="47.85994" lon="2.22433">
        <ele>110.345534</ele>
        <time>2021-09-09T07:07:06.000Z</time>
      </trkpt>
      <trkpt lat="47.85996" lon="2.22505">
        <ele>110.574151</ele>
        <time>2021-09-09T07:07:13.000Z</time>
      </trkpt>
      <trkpt lat="47.85996" lon="2.22549">
        <ele>110.529081</ele>
        <time>2021-09-09T07:07:18.000Z</time>
      </trkpt>
      <trkpt lat="47.85996" lon="2.22555">
        <ele>110.491707</ele>
        <time>2021-09-09T07:07:19.000Z</time>
      </trkpt>
      <trkpt lat="47.85997" lon="2.22569">
        <ele>110.397004</ele>
        <time>2021-09-09T07:07:23.000Z</time>
      </trkpt>
      <trkpt lat="47.85996" lon="2.2259">
        <ele>110.248139</ele>
        <time>2021-09-09T07:07:30.000Z</time>
      </trkpt>
      <trkpt lat="47.85995" lon="2.22609">
        <ele>110.1196</ele>
        <time>2021-09-09T07:07:37.000Z</time>
      </trkpt>
      <trkpt lat="47.85994" lon="2.22626">
        <ele>110.00055</ele>
        <time>2021-09-09T07:07:43.000Z</time>
      </trkpt>
      <trkpt lat="47.85992" lon="2.22641">
        <ele>109.900396</ele>
        <time>2021-09-09T07:07:49.000Z</time>
      </trkpt>
      <trkpt lat="47.8599" lon="2.22654">
        <ele>109.804683</ele>
        <time>2021-09-09T07:07:55.000Z</time>
      </trkpt>
      <trkpt lat="47.85988" lon="2.22668">
        <ele>109.70944</ele>
        <time>2021-09-09T07:07:58.000Z</time>
      </trkpt>
      <trkpt lat="47.85986" lon="2.22696">
        <ele>109.517171</ele>
        <time>2021-09-09T07:08:02.000Z</time>
      </trkpt>
      <trkpt lat="47.85986" lon="2.22715">
        <ele>109.382543</ele>
        <time>2021-09-09T07:08:05.000Z</time>
      </trkpt>
      <trkpt lat="47.85985" lon="2.22723">
        <ele>109.326549</ele>
        <time>2021-09-09T07:08:06.000Z</time>
      </trkpt>
      <trkpt lat="47.85984" lon="2.22732">
        <ele>109.266761</ele>
        <time>2021-09-09T07:08:07.000Z</time>
      </trkpt>
      <trkpt lat="47.85983" lon="2.22751">
        <ele>109.13806</ele>
        <time>2021-09-09T07:08:09.000Z</time>
      </trkpt>
      <trkpt lat="47.85981" lon="2.22779">
        <ele>108.941698</ele>
        <time>2021-09-09T07:08:12.000Z</time>
      </trkpt>
      <trkpt lat="47.85981" lon="2.22788">
        <ele>108.881344</ele>
        <time>2021-09-09T07:08:13.000Z</time>
      </trkpt>
      <trkpt lat="47.85976" lon="2.22839">
        <ele>107.856582</ele>
        <time>2021-09-09T07:08:19.000Z</time>
      </trkpt>
      <trkpt lat="47.85974" lon="2.22851">
        <ele>107.583312</ele>
        <time>2021-09-09T07:08:21.000Z</time>
      </trkpt>
      <trkpt lat="47.85974" lon="2.22868">
        <ele>107.191012</ele>
        <time>2021-09-09T07:08:23.000Z</time>
      </trkpt>
      <trkpt lat="47.85974" lon="2.22877">
        <ele>106.983239</ele>
        <time>2021-09-09T07:08:24.000Z</time>
      </trkpt>
      <trkpt lat="47.85971" lon="2.22896">
        <ele>106.55288</ele>
        <time>2021-09-09T07:08:26.000Z</time>
      </trkpt>
      <trkpt lat="47.8597" lon="2.22905">
        <ele>106.337748</ele>
        <time>2021-09-09T07:08:27.000Z</time>
      </trkpt>
      <trkpt lat="47.85968" lon="2.22913">
        <ele>106.138827</ele>
        <time>2021-09-09T07:08:28.000Z</time>
      </trkpt>
      <trkpt lat="47.85965" lon="2.22931">
        <ele>105.713869</ele>
        <time>2021-09-09T07:08:30.000Z</time>
      </trkpt>
      <trkpt lat="47.85963" lon="2.2294">
        <ele>105.503182</ele>
        <time>2021-09-09T07:08:31.000Z</time>
      </trkpt>
      <trkpt lat="47.8596" lon="2.22957">
        <ele>105.101438</ele>
        <time>2021-09-09T07:08:33.000Z</time>
      </trkpt>
      <trkpt lat="47.85954" lon="2.22992">
        <ele>104.269759</ele>
        <time>2021-09-09T07:08:37.000Z</time>
      </trkpt>
      <trkpt lat="47.8595" lon="2.23006">
        <ele>103.926911</ele>
        <time>2021-09-09T07:08:39.000Z</time>
      </trkpt>
      <trkpt lat="47.85948" lon="2.23022">
        <ele>103.549268</ele>
        <time>2021-09-09T07:08:41.000Z</time>
      </trkpt>
      <trkpt lat="47.85946" lon="2.23041">
        <ele>103.109881</ele>
        <time>2021-09-09T07:08:43.000Z</time>
      </trkpt>
      <trkpt lat="47.85943" lon="2.23056">
        <ele>102.766713</ele>
        <time>2021-09-09T07:08:45.000Z</time>
      </trkpt>
      <trkpt lat="47.85932" lon="2.23108">
        <ele>101.255942</ele>
        <time>2021-09-09T07:08:51.000Z</time>
      </trkpt>
      <trkpt lat="47.85925" lon="2.2314">
        <ele>100.339356</ele>
        <time>2021-09-09T07:08:55.000Z</time>
      </trkpt>
      <trkpt lat="47.85923" lon="2.23151">
        <ele>100.022749</ele>
        <time>2021-09-09T07:08:56.000Z</time>
      </trkpt>
      <trkpt lat="47.85917" lon="2.23183">
        <ele>99.081424</ele>
        <time>2021-09-09T07:08:59.000Z</time>
      </trkpt>
      <trkpt lat="47.8591" lon="2.23223">
        <ele>97.932977</ele>
        <time>2021-09-09T07:09:03.000Z</time>
      </trkpt>
      <trkpt lat="47.85904" lon="2.23257">
        <ele>96.962735</ele>
        <time>2021-09-09T07:09:07.000Z</time>
      </trkpt>
      <trkpt lat="47.85894" lon="2.23292">
        <ele>95.89117</ele>
        <time>2021-09-09T07:09:12.000Z</time>
      </trkpt>
      <trkpt lat="47.85889" lon="2.23318">
        <ele>95.179362</ele>
        <time>2021-09-09T07:09:16.000Z</time>
      </trkpt>
      <trkpt lat="47.85884" lon="2.23358">
        <ele>94.358919</ele>
        <time>2021-09-09T07:09:21.000Z</time>
      </trkpt>
      <trkpt lat="47.85877" lon="2.23394">
        <ele>93.614376</ele>
        <time>2021-09-09T07:09:25.000Z</time>
      </trkpt>
      <trkpt lat="47.85869" lon="2.23437">
        <ele>92.716505</ele>
        <time>2021-09-09T07:09:30.000Z</time>
      </trkpt>
      <trkpt lat="47.85861" lon="2.23478">
        <ele>91.856776</ele>
        <time>2021-09-09T07:09:34.000Z</time>
      </trkpt>
      <trkpt lat="47.85856" lon="2.2351">
        <ele>91.193437</ele>
        <time>2021-09-09T07:09:38.000Z</time>
      </trkpt>
      <trkpt lat="47.85849" lon="2.23552">
        <ele>90.33859</ele>
        <time>2021-09-09T07:09:43.000Z</time>
      </trkpt>
      <trkpt lat="47.85843" lon="2.23579">
        <ele>89.944702</ele>
        <time>2021-09-09T07:09:47.000Z</time>
      </trkpt>
      <trkpt lat="47.85839" lon="2.23614">
        <ele>90.357584</ele>
        <time>2021-09-09T07:09:51.000Z</time>
      </trkpt>
      <trkpt lat="47.85829" lon="2.23641">
        <ele>90.711605</ele>
        <time>2021-09-09T07:09:55.000Z</time>
      </trkpt>
      <trkpt lat="47.85826" lon="2.2365">
        <ele>90.819138</ele>
        <time>2021-09-09T07:09:56.000Z</time>
      </trkpt>
      <trkpt lat="47.85823" lon="2.23666">
        <ele>91.018144</ele>
        <time>2021-09-09T07:09:58.000Z</time>
      </trkpt>
      <trkpt lat="47.85812" lon="2.23697">
        <ele>91.40798</ele>
        <time>2021-09-09T07:10:03.000Z</time>
      </trkpt>
      <trkpt lat="47.85801" lon="2.23741">
        <ele>91.950554</ele>
        <time>2021-09-09T07:10:08.000Z</time>
      </trkpt>
      <trkpt lat="47.85788" lon="2.23787">
        <ele>92.525975</ele>
        <time>2021-09-09T07:10:14.000Z</time>
      </trkpt>
      <trkpt lat="47.85783" lon="2.23807">
        <ele>92.771761</ele>
        <time>2021-09-09T07:10:19.000Z</time>
      </trkpt>
      <trkpt lat="47.85778" lon="2.2383">
        <ele>93.069657</ele>
        <time>2021-09-09T07:10:23.000Z</time>
      </trkpt>
      <trkpt lat="47.85777" lon="2.23847">
        <ele>93.305314</ele>
        <time>2021-09-09T07:10:25.000Z</time>
      </trkpt>
      <trkpt lat="47.85774" lon="2.23873">
        <ele>93.678896</ele>
        <time>2021-09-09T07:10:28.000Z</time>
      </trkpt>
      <trkpt lat="47.85776" lon="2.23909">
        <ele>94.1943</ele>
        <time>2021-09-09T07:10:32.000Z</time>
      </trkpt>
      <trkpt lat="47.85777" lon="2.23918">
        <ele>94.319684</ele>
        <time>2021-09-09T07:10:33.000Z</time>
      </trkpt>
      <trkpt lat="47.8578" lon="2.23945">
        <ele>94.701509</ele>
        <time>2021-09-09T07:10:36.000Z</time>
      </trkpt>
      <trkpt lat="47.85781" lon="2.23952">
        <ele>94.814</ele>
        <time>2021-09-09T07:10:37.000Z</time>
      </trkpt>
      <trkpt lat="47.85781" lon="2.23975">
        <ele>95.127569</ele>
        <time>2021-09-09T07:10:40.000Z</time>
      </trkpt>
      <trkpt lat="47.85778" lon="2.23988">
        <ele>95.326331</ele>
        <time>2021-09-09T07:10:42.000Z</time>
      </trkpt>
      <trkpt lat="47.85771" lon="2.24009">
        <ele>95.668137</ele>
        <time>2021-09-09T07:10:45.000Z</time>
      </trkpt>
      <trkpt lat="47.85769" lon="2.24017">
        <ele>95.778672</ele>
        <time>2021-09-09T07:10:46.000Z</time>
      </trkpt>
      <trkpt lat="47.85767" lon="2.24024">
        <ele>95.889073</ele>
        <time>2021-09-09T07:10:47.000Z</time>
      </trkpt>
      <trkpt lat="47.8576" lon="2.24041">
        <ele>96.173183</ele>
        <time>2021-09-09T07:10:50.000Z</time>
      </trkpt>
      <trkpt lat="47.85748" lon="2.24042">
        <ele>96.428149</ele>
        <time>2021-09-09T07:10:53.000Z</time>
      </trkpt>
      <trkpt lat="47.85733" lon="2.24044">
        <ele>96.736889</ele>
        <time>2021-09-09T07:10:57.000Z</time>
      </trkpt>
      <trkpt lat="47.85729" lon="2.24054">
        <ele>96.864384</ele>
        <time>2021-09-09T07:10:59.000Z</time>
      </trkpt>
      <trkpt lat="47.85727" lon="2.24061">
        <ele>96.942547</ele>
        <time>2021-09-09T07:11:00.000Z</time>
      </trkpt>
      <trkpt lat="47.8572" lon="2.24094">
        <ele>97.334598</ele>
        <time>2021-09-09T07:11:04.000Z</time>
      </trkpt>
      <trkpt lat="47.85714" lon="2.24119">
        <ele>97.619187</ele>
        <time>2021-09-09T07:11:07.000Z</time>
      </trkpt>
      <trkpt lat="47.85711" lon="2.24124">
        <ele>97.695851</ele>
        <time>2021-09-09T07:11:08.000Z</time>
      </trkpt>
      <trkpt lat="47.85708" lon="2.24126">
        <ele>97.755385</ele>
        <time>2021-09-09T07:11:09.000Z</time>
      </trkpt>
      <trkpt lat="47.85702" lon="2.24126">
        <ele>97.850956</ele>
        <time>2021-09-09T07:11:11.000Z</time>
      </trkpt>
      <trkpt lat="47.85696" lon="2.24127">
        <ele>97.956784</ele>
        <time>2021-09-09T07:11:13.000Z</time>
      </trkpt>
      <trkpt lat="47.85687" lon="2.24133">
        <ele>98.109799</ele>
        <time>2021-09-09T07:11:15.000Z</time>
      </trkpt>
      <trkpt lat="47.85659" lon="2.24165">
        <ele>98.697775</ele>
        <time>2021-09-09T07:11:21.000Z</time>
      </trkpt>
      <trkpt lat="47.85613" lon="2.24209">
        <ele>99.587731</ele>
        <time>2021-09-09T07:11:29.000Z</time>
      </trkpt>
      <trkpt lat="47.85564" lon="2.24259">
        <ele>100.154251</ele>
        <time>2021-09-09T07:11:38.000Z</time>
      </trkpt>
      <trkpt lat="47.8552" lon="2.243">
        <ele>100.593098</ele>
        <time>2021-09-09T07:11:46.000Z</time>
      </trkpt>
      <trkpt lat="47.85476" lon="2.24338">
        <ele>101.020095</ele>
        <time>2021-09-09T07:11:54.000Z</time>
      </trkpt>
      <trkpt lat="47.85448" lon="2.24357">
        <ele>101.28995</ele>
        <time>2021-09-09T07:11:59.000Z</time>
      </trkpt>
      <trkpt lat="47.85421" lon="2.24376">
        <ele>101.566107</ele>
        <time>2021-09-09T07:12:04.000Z</time>
      </trkpt>
      <trkpt lat="47.85394" lon="2.24394">
        <ele>101.836387</ele>
        <time>2021-09-09T07:12:09.000Z</time>
      </trkpt>
      <trkpt lat="47.85389" lon="2.24398">
        <ele>101.885889</ele>
        <time>2021-09-09T07:12:10.000Z</time>
      </trkpt>
      <trkpt lat="47.85379" lon="2.24406">
        <ele>101.995607</ele>
        <time>2021-09-09T07:12:12.000Z</time>
      </trkpt>
      <trkpt lat="47.85368" lon="2.24413">
        <ele>102.107014</ele>
        <time>2021-09-09T07:12:14.000Z</time>
      </trkpt>
      <trkpt lat="47.85357" lon="2.2442">
        <ele>102.214016</ele>
        <time>2021-09-09T07:12:16.000Z</time>
      </trkpt>
      <trkpt lat="47.85345" lon="2.24428">
        <ele>102.335717</ele>
        <time>2021-09-09T07:12:18.000Z</time>
      </trkpt>
      <trkpt lat="47.85303" lon="2.2446">
        <ele>102.77238</ele>
        <time>2021-09-09T07:12:25.000Z</time>
      </trkpt>
      <trkpt lat="47.85259" lon="2.24484">
        <ele>103.106497</ele>
        <time>2021-09-09T07:12:32.000Z</time>
      </trkpt>
      <trkpt lat="47.85236" lon="2.245">
        <ele>103.273927</ele>
        <time>2021-09-09T07:12:36.000Z</time>
      </trkpt>
      <trkpt lat="47.85218" lon="2.24511">
        <ele>103.398335</ele>
        <time>2021-09-09T07:12:39.000Z</time>
      </trkpt>
      <trkpt lat="47.85176" lon="2.24532">
        <ele>103.681279</ele>
        <time>2021-09-09T07:12:46.000Z</time>
      </trkpt>
      <trkpt lat="47.85154" lon="2.24543">
        <ele>103.826568</ele>
        <time>2021-09-09T07:12:50.000Z</time>
      </trkpt>
      <trkpt lat="47.85143" lon="2.24545">
        <ele>103.902257</ele>
        <time>2021-09-09T07:12:52.000Z</time>
      </trkpt>
      <trkpt lat="47.85106" lon="2.24552">
        <ele>104.094527</ele>
        <time>2021-09-09T07:12:58.000Z</time>
      </trkpt>
      <trkpt lat="47.85082" lon="2.24562">
        <ele>104.177793</ele>
        <time>2021-09-09T07:13:02.000Z</time>
      </trkpt>
      <trkpt lat="47.85077" lon="2.24565">
        <ele>104.19815</ele>
        <time>2021-09-09T07:13:03.000Z</time>
      </trkpt>
      <trkpt lat="47.8506" lon="2.2458">
        <ele>104.263135</ele>
        <time>2021-09-09T07:13:07.000Z</time>
      </trkpt>
      <trkpt lat="47.85045" lon="2.24594">
        <ele>104.323087</ele>
        <time>2021-09-09T07:13:12.000Z</time>
      </trkpt>
      <trkpt lat="47.85038" lon="2.24586">
        <ele>104.352502</ele>
        <time>2021-09-09T07:13:14.000Z</time>
      </trkpt>
      <trkpt lat="47.85035" lon="2.24581">
        <ele>104.369533</ele>
        <time>2021-09-09T07:13:15.000Z</time>
      </trkpt>
      <trkpt lat="47.8503" lon="2.24577">
        <ele>104.387446</ele>
        <time>2021-09-09T07:13:16.000Z</time>
      </trkpt>
      <trkpt lat="47.85014" lon="2.24566">
        <ele>104.447296</ele>
        <time>2021-09-09T07:13:19.000Z</time>
      </trkpt>
      <trkpt lat="47.85002" lon="2.24562">
        <ele>104.489294</ele>
        <time>2021-09-09T07:13:21.000Z</time>
      </trkpt>
      <trkpt lat="47.84983" lon="2.2456">
        <ele>104.555101</ele>
        <time>2021-09-09T07:13:24.000Z</time>
      </trkpt>
      <trkpt lat="47.84963" lon="2.24558">
        <ele>104.620432</ele>
        <time>2021-09-09T07:13:27.000Z</time>
      </trkpt>
      <trkpt lat="47.8495" lon="2.24559">
        <ele>104.635917</ele>
        <time>2021-09-09T07:13:29.000Z</time>
      </trkpt>
      <trkpt lat="47.84931" lon="2.24563">
        <ele>104.540653</ele>
        <time>2021-09-09T07:13:32.000Z</time>
      </trkpt>
      <trkpt lat="47.84918" lon="2.24565">
        <ele>104.475147</ele>
        <time>2021-09-09T07:13:34.000Z</time>
      </trkpt>
      <trkpt lat="47.84863" lon="2.24567">
        <ele>104.205579</ele>
        <time>2021-09-09T07:13:42.000Z</time>
      </trkpt>
      <trkpt lat="47.84828" lon="2.24564">
        <ele>104.036044</ele>
        <time>2021-09-09T07:13:47.000Z</time>
      </trkpt>
      <trkpt lat="47.84795" lon="2.24558">
        <ele>103.870805</ele>
        <time>2021-09-09T07:13:52.000Z</time>
      </trkpt>
      <trkpt lat="47.84757" lon="2.24553">
        <ele>103.781922</ele>
        <time>2021-09-09T07:13:58.000Z</time>
      </trkpt>
      <trkpt lat="47.84727" lon="2.2455">
        <ele>103.804061</ele>
        <time>2021-09-09T07:14:03.000Z</time>
      </trkpt>
      <trkpt lat="47.84716" lon="2.24551">
        <ele>103.812071</ele>
        <time>2021-09-09T07:14:05.000Z</time>
      </trkpt>
      <trkpt lat="47.84705" lon="2.24556">
        <ele>103.82017</ele>
        <time>2021-09-09T07:14:07.000Z</time>
      </trkpt>
      <trkpt lat="47.84701" lon="2.24559">
        <ele>103.82392</ele>
        <time>2021-09-09T07:14:08.000Z</time>
      </trkpt>
      <trkpt lat="47.84691" lon="2.24564">
        <ele>103.831224</ele>
        <time>2021-09-09T07:14:10.000Z</time>
      </trkpt>
      <trkpt lat="47.84681" lon="2.24568">
        <ele>103.839115</ele>
        <time>2021-09-09T07:14:12.000Z</time>
      </trkpt>
      <trkpt lat="47.84665" lon="2.24573">
        <ele>103.851087</ele>
        <time>2021-09-09T07:14:15.000Z</time>
      </trkpt>
      <trkpt lat="47.84659" lon="2.24572">
        <ele>103.855278</ele>
        <time>2021-09-09T07:14:17.000Z</time>
      </trkpt>
      <trkpt lat="47.84629" lon="2.24567">
        <ele>103.877608</ele>
        <time>2021-09-09T07:14:22.000Z</time>
      </trkpt>
      <trkpt lat="47.846" lon="2.24573">
        <ele>103.899257</ele>
        <time>2021-09-09T07:14:27.000Z</time>
      </trkpt>
      <trkpt lat="47.84561" lon="2.2458">
        <ele>104.332132</ele>
        <time>2021-09-09T07:14:33.000Z</time>
      </trkpt>
      <trkpt lat="47.84531" lon="2.24596">
        <ele>104.708563</ele>
        <time>2021-09-09T07:14:38.000Z</time>
      </trkpt>
      <trkpt lat="47.84515" lon="2.2461">
        <ele>104.930746</ele>
        <time>2021-09-09T07:14:41.000Z</time>
      </trkpt>
      <trkpt lat="47.84499" lon="2.24624">
        <ele>105.147854</ele>
        <time>2021-09-09T07:14:44.000Z</time>
      </trkpt>
      <trkpt lat="47.84494" lon="2.24629">
        <ele>105.219734</ele>
        <time>2021-09-09T07:14:45.000Z</time>
      </trkpt>
      <trkpt lat="47.84474" lon="2.24651">
        <ele>105.504282</ele>
        <time>2021-09-09T07:14:49.000Z</time>
      </trkpt>
      <trkpt lat="47.84438" lon="2.24687">
        <ele>106.0192</ele>
        <time>2021-09-09T07:14:56.000Z</time>
      </trkpt>
      <trkpt lat="47.84405" lon="2.24708">
        <ele>106.87338</ele>
        <time>2021-09-09T07:15:02.000Z</time>
      </trkpt>
      <trkpt lat="47.84393" lon="2.24712">
        <ele>107.167065</ele>
        <time>2021-09-09T07:15:04.000Z</time>
      </trkpt>
      <trkpt lat="47.84375" lon="2.24718">
        <ele>107.593001</ele>
        <time>2021-09-09T07:15:07.000Z</time>
      </trkpt>
      <trkpt lat="47.84344" lon="2.24743">
        <ele>108.428018</ele>
        <time>2021-09-09T07:15:13.000Z</time>
      </trkpt>
      <trkpt lat="47.8433" lon="2.24758">
        <ele>108.845799</ele>
        <time>2021-09-09T07:15:16.000Z</time>
      </trkpt>
      <trkpt lat="47.84319" lon="2.2477">
        <ele>109.157215</ele>
        <time>2021-09-09T07:15:18.000Z</time>
      </trkpt>
      <trkpt lat="47.84304" lon="2.24789">
        <ele>109.626579</ele>
        <time>2021-09-09T07:15:21.000Z</time>
      </trkpt>
      <trkpt lat="47.84296" lon="2.24803">
        <ele>109.926887</ele>
        <time>2021-09-09T07:15:23.000Z</time>
      </trkpt>
      <trkpt lat="47.84287" lon="2.24819">
        <ele>110.254543</ele>
        <time>2021-09-09T07:15:25.000Z</time>
      </trkpt>
      <trkpt lat="47.84275" lon="2.24846">
        <ele>110.571294</ele>
        <time>2021-09-09T07:15:28.000Z</time>
      </trkpt>
      <trkpt lat="47.84242" lon="2.24908">
        <ele>111.33346</ele>
        <time>2021-09-09T07:15:36.000Z</time>
      </trkpt>
      <trkpt lat="47.84198" lon="2.24966">
        <ele>112.17429</ele>
        <time>2021-09-09T07:15:45.000Z</time>
      </trkpt>
      <trkpt lat="47.84164" lon="2.25011">
        <ele>112.81074</ele>
        <time>2021-09-09T07:15:52.000Z</time>
      </trkpt>
      <trkpt lat="47.8414" lon="2.25063">
        <ele>113.00703</ele>
        <time>2021-09-09T07:15:59.000Z</time>
      </trkpt>
      <trkpt lat="47.84118" lon="2.25109">
        <ele>113.162262</ele>
        <time>2021-09-09T07:16:05.000Z</time>
      </trkpt>
      <trkpt lat="47.84096" lon="2.25143">
        <ele>113.29524</ele>
        <time>2021-09-09T07:16:10.000Z</time>
      </trkpt>
      <trkpt lat="47.84069" lon="2.25193">
        <ele>113.471378</ele>
        <time>2021-09-09T07:16:17.000Z</time>
      </trkpt>
      <trkpt lat="47.84049" lon="2.25235">
        <ele>113.53878</ele>
        <time>2021-09-09T07:16:23.000Z</time>
      </trkpt>
      <trkpt lat="47.84023" lon="2.25273">
        <ele>113.35902</ele>
        <time>2021-09-09T07:16:29.000Z</time>
      </trkpt>
      <trkpt lat="47.83988" lon="2.25311">
        <ele>113.14144</ele>
        <time>2021-09-09T07:16:36.000Z</time>
      </trkpt>
      <trkpt lat="47.83963" lon="2.25341">
        <ele>112.984185</ele>
        <time>2021-09-09T07:16:41.000Z</time>
      </trkpt>
      <trkpt lat="47.83959" lon="2.25348">
        <ele>112.95258</ele>
        <time>2021-09-09T07:16:42.000Z</time>
      </trkpt>
      <trkpt lat="47.83934" lon="2.25387">
        <ele>112.772441</ele>
        <time>2021-09-09T07:16:48.000Z</time>
      </trkpt>
      <trkpt lat="47.83899" lon="2.25451">
        <ele>112.611035</ele>
        <time>2021-09-09T07:16:57.000Z</time>
      </trkpt>
      <trkpt lat="47.83866" lon="2.25517">
        <ele>112.502804</ele>
        <time>2021-09-09T07:17:06.000Z</time>
      </trkpt>
      <trkpt lat="47.83834" lon="2.25584">
        <ele>112.395093</ele>
        <time>2021-09-09T07:17:15.000Z</time>
      </trkpt>
      <trkpt lat="47.83813" lon="2.25628">
        <ele>112.325681</ele>
        <time>2021-09-09T07:17:21.000Z</time>
      </trkpt>
      <trkpt lat="47.83792" lon="2.25673">
        <ele>112.266945</ele>
        <time>2021-09-09T07:17:27.000Z</time>
      </trkpt>
      <trkpt lat="47.83788" lon="2.2568">
        <ele>112.257196</ele>
        <time>2021-09-09T07:17:28.000Z</time>
      </trkpt>
      <trkpt lat="47.83767" lon="2.25727">
        <ele>112.196605</ele>
        <time>2021-09-09T07:17:34.000Z</time>
      </trkpt>
      <trkpt lat="47.8374" lon="2.25791">
        <ele>112.116041</ele>
        <time>2021-09-09T07:17:42.000Z</time>
      </trkpt>
      <trkpt lat="47.83737" lon="2.25798">
        <ele>112.106165</ele>
        <time>2021-09-09T07:17:43.000Z</time>
      </trkpt>
      <trkpt lat="47.83728" lon="2.25811">
        <ele>112.085952</ele>
        <time>2021-09-09T07:17:45.000Z</time>
      </trkpt>
      <trkpt lat="47.83722" lon="2.25816">
        <ele>112.075446</ele>
        <time>2021-09-09T07:17:46.000Z</time>
      </trkpt>
      <trkpt lat="47.83672" lon="2.25859">
        <ele>111.928968</ele>
        <time>2021-09-09T07:17:55.000Z</time>
      </trkpt>
      <trkpt lat="47.83628" lon="2.25892">
        <ele>111.780606</ele>
        <time>2021-09-09T07:18:03.000Z</time>
      </trkpt>
      <trkpt lat="47.83591" lon="2.2592">
        <ele>111.655118</ele>
        <time>2021-09-09T07:18:10.000Z</time>
      </trkpt>
      <trkpt lat="47.83554" lon="2.2595">
        <ele>111.52876</ele>
        <time>2021-09-09T07:18:17.000Z</time>
      </trkpt>
      <trkpt lat="47.8351" lon="2.25995">
        <ele>111.493565</ele>
        <time>2021-09-09T07:18:26.000Z</time>
      </trkpt>
      <trkpt lat="47.83501" lon="2.26006">
        <ele>111.490524</ele>
        <time>2021-09-09T07:18:28.000Z</time>
      </trkpt>
      <trkpt lat="47.83491" lon="2.26027">
        <ele>111.486074</ele>
        <time>2021-09-09T07:18:31.000Z</time>
      </trkpt>
      <trkpt lat="47.8348" lon="2.26057">
        <ele>111.480005</ele>
        <time>2021-09-09T07:18:35.000Z</time>
      </trkpt>
      <trkpt lat="47.8347" lon="2.26087">
        <ele>111.474285</ele>
        <time>2021-09-09T07:18:38.000Z</time>
      </trkpt>
      <trkpt lat="47.83465" lon="2.26095">
        <ele>111.472448</ele>
        <time>2021-09-09T07:18:39.000Z</time>
      </trkpt>
      <trkpt lat="47.8346" lon="2.26101">
        <ele>111.470624</ele>
        <time>2021-09-09T07:18:40.000Z</time>
      </trkpt>
      <trkpt lat="47.83442" lon="2.26117">
        <ele>111.46521</ele>
        <time>2021-09-09T07:18:43.000Z</time>
      </trkpt>
      <trkpt lat="47.83412" lon="2.26135">
        <ele>111.460201</ele>
        <time>2021-09-09T07:18:48.000Z</time>
      </trkpt>
      <trkpt lat="47.83372" lon="2.26157">
        <ele>111.468878</ele>
        <time>2021-09-09T07:18:55.000Z</time>
      </trkpt>
      <trkpt lat="47.83326" lon="2.26188">
        <ele>111.479185</ele>
        <time>2021-09-09T07:19:03.000Z</time>
      </trkpt>
      <trkpt lat="47.83278" lon="2.2623">
        <ele>111.490632</ele>
        <time>2021-09-09T07:19:12.000Z</time>
      </trkpt>
      <trkpt lat="47.83235" lon="2.26264">
        <ele>111.452141</ele>
        <time>2021-09-09T07:19:20.000Z</time>
      </trkpt>
      <trkpt lat="47.83189" lon="2.26291">
        <ele>111.364888</ele>
        <time>2021-09-09T07:19:28.000Z</time>
      </trkpt>
      <trkpt lat="47.83144" lon="2.2632">
        <ele>111.277596</ele>
        <time>2021-09-09T07:19:36.000Z</time>
      </trkpt>
      <trkpt lat="47.83105" lon="2.2635">
        <ele>111.198521</ele>
        <time>2021-09-09T07:19:43.000Z</time>
      </trkpt>
      <trkpt lat="47.83077" lon="2.26358">
        <ele>111.198853</ele>
        <time>2021-09-09T07:19:48.000Z</time>
      </trkpt>
      <trkpt lat="47.83067" lon="2.26368">
        <ele>111.215664</ele>
        <time>2021-09-09T07:19:51.000Z</time>
      </trkpt>
      <trkpt lat="47.83066" lon="2.26372">
        <ele>111.22057</ele>
        <time>2021-09-09T07:19:52.000Z</time>
      </trkpt>
      <trkpt lat="47.83065" lon="2.26394">
        <ele>111.24202</ele>
        <time>2021-09-09T07:19:56.000Z</time>
      </trkpt>
      <trkpt lat="47.8307" lon="2.2644">
        <ele>111.286757</ele>
        <time>2021-09-09T07:20:03.000Z</time>
      </trkpt>
      <trkpt lat="47.83073" lon="2.26471">
        <ele>111.316545</ele>
        <time>2021-09-09T07:20:07.000Z</time>
      </trkpt>
      <trkpt lat="47.83075" lon="2.26486">
        <ele>111.332024</ele>
        <time>2021-09-09T07:20:09.000Z</time>
      </trkpt>
      <trkpt lat="47.83085" lon="2.26544">
        <ele>111.389446</ele>
        <time>2021-09-09T07:20:16.000Z</time>
      </trkpt>
      <trkpt lat="47.83095" lon="2.26605">
        <ele>111.45453</ele>
        <time>2021-09-09T07:20:23.000Z</time>
      </trkpt>
      <trkpt lat="47.83095" lon="2.26614">
        <ele>111.466216</ele>
        <time>2021-09-09T07:20:24.000Z</time>
      </trkpt>
      <trkpt lat="47.83093" lon="2.26669">
        <ele>111.537493</ele>
        <time>2021-09-09T07:20:30.000Z</time>
      </trkpt>
      <trkpt lat="47.83091" lon="2.26725">
        <ele>111.608556</ele>
        <time>2021-09-09T07:20:36.000Z</time>
      </trkpt>
      <trkpt lat="47.83088" lon="2.26789">
        <ele>111.691213</ele>
        <time>2021-09-09T07:20:43.000Z</time>
      </trkpt>
      <trkpt lat="47.83081" lon="2.26852">
        <ele>111.773844</ele>
        <time>2021-09-09T07:20:50.000Z</time>
      </trkpt>
      <trkpt lat="47.83074" lon="2.26916">
        <ele>111.860289</ele>
        <time>2021-09-09T07:20:57.000Z</time>
      </trkpt>
      <trkpt lat="47.83073" lon="2.26925">
        <ele>111.872948</ele>
        <time>2021-09-09T07:20:58.000Z</time>
      </trkpt>
      <trkpt lat="47.83069" lon="2.26963">
        <ele>111.924548</ele>
        <time>2021-09-09T07:21:02.000Z</time>
      </trkpt>
      <trkpt lat="47.83069" lon="2.26982">
        <ele>111.950337</ele>
        <time>2021-09-09T07:21:04.000Z</time>
      </trkpt>
      <trkpt lat="47.83071" lon="2.27011">
        <ele>111.989207</ele>
        <time>2021-09-09T07:21:07.000Z</time>
      </trkpt>
      <trkpt lat="47.83075" lon="2.27029">
        <ele>112.015626</ele>
        <time>2021-09-09T07:21:09.000Z</time>
      </trkpt>
      <trkpt lat="47.83077" lon="2.27039">
        <ele>112.028641</ele>
        <time>2021-09-09T07:21:10.000Z</time>
      </trkpt>
      <trkpt lat="47.83088" lon="2.27084">
        <ele>112.094357</ele>
        <time>2021-09-09T07:21:15.000Z</time>
      </trkpt>
      <trkpt lat="47.83103" lon="2.27148">
        <ele>112.106398</ele>
        <time>2021-09-09T07:21:22.000Z</time>
      </trkpt>
      <trkpt lat="47.83107" lon="2.27205">
        <ele>112.04915</ele>
        <time>2021-09-09T07:21:28.000Z</time>
      </trkpt>
      <trkpt lat="47.83107" lon="2.27214">
        <ele>112.039776</ele>
        <time>2021-09-09T07:21:29.000Z</time>
      </trkpt>
      <trkpt lat="47.83101" lon="2.2725">
        <ele>112.002558</ele>
        <time>2021-09-09T07:21:33.000Z</time>
      </trkpt>
      <trkpt lat="47.83092" lon="2.27323">
        <ele>111.928137</ele>
        <time>2021-09-09T07:21:41.000Z</time>
      </trkpt>
      <trkpt lat="47.83092" lon="2.27361">
        <ele>111.890845</ele>
        <time>2021-09-09T07:21:45.000Z</time>
      </trkpt>
      <trkpt lat="47.83093" lon="2.27398">
        <ele>111.861015</ele>
        <time>2021-09-09T07:21:49.000Z</time>
      </trkpt>
      <trkpt lat="47.83093" lon="2.27407">
        <ele>111.855595</ele>
        <time>2021-09-09T07:21:50.000Z</time>
      </trkpt>
      <trkpt lat="47.83092" lon="2.27454">
        <ele>111.827629</ele>
        <time>2021-09-09T07:21:55.000Z</time>
      </trkpt>
      <trkpt lat="47.83091" lon="2.27492">
        <ele>111.804885</ele>
        <time>2021-09-09T07:21:59.000Z</time>
      </trkpt>
      <trkpt lat="47.8309" lon="2.27502">
        <ele>111.799209</ele>
        <time>2021-09-09T07:22:00.000Z</time>
      </trkpt>
      <trkpt lat="47.83081" lon="2.27566">
        <ele>111.759678</ele>
        <time>2021-09-09T07:22:07.000Z</time>
      </trkpt>
      <trkpt lat="47.83073" lon="2.27623">
        <ele>111.725268</ele>
        <time>2021-09-09T07:22:13.000Z</time>
      </trkpt>
      <trkpt lat="47.83073" lon="2.27633">
        <ele>111.719616</ele>
        <time>2021-09-09T07:22:14.000Z</time>
      </trkpt>
      <trkpt lat="47.83074" lon="2.27642">
        <ele>111.713921</ele>
        <time>2021-09-09T07:22:15.000Z</time>
      </trkpt>
      <trkpt lat="47.83079" lon="2.2768">
        <ele>111.71765</ele>
        <time>2021-09-09T07:22:19.000Z</time>
      </trkpt>
      <trkpt lat="47.83091" lon="2.27743">
        <ele>111.726781</ele>
        <time>2021-09-09T07:22:26.000Z</time>
      </trkpt>
      <trkpt lat="47.83105" lon="2.27816">
        <ele>111.737298</ele>
        <time>2021-09-09T07:22:34.000Z</time>
      </trkpt>
      <trkpt lat="47.83112" lon="2.27862">
        <ele>111.743847</ele>
        <time>2021-09-09T07:22:39.000Z</time>
      </trkpt>
      <trkpt lat="47.83116" lon="2.27879">
        <ele>111.746446</ele>
        <time>2021-09-09T07:22:41.000Z</time>
      </trkpt>
      <trkpt lat="47.83123" lon="2.27906">
        <ele>111.748966</ele>
        <time>2021-09-09T07:22:44.000Z</time>
      </trkpt>
      <trkpt lat="47.83125" lon="2.27926">
        <ele>111.745082</ele>
        <time>2021-09-09T07:22:46.000Z</time>
      </trkpt>
      <trkpt lat="47.83132" lon="2.28002">
        <ele>111.729686</ele>
        <time>2021-09-09T07:22:54.000Z</time>
      </trkpt>
      <trkpt lat="47.83138" lon="2.28068">
        <ele>111.716554</ele>
        <time>2021-09-09T07:23:01.000Z</time>
      </trkpt>
      <trkpt lat="47.8314" lon="2.28087">
        <ele>111.712759</ele>
        <time>2021-09-09T07:23:03.000Z</time>
      </trkpt>
      <trkpt lat="47.8314" lon="2.28116">
        <ele>111.707059</ele>
        <time>2021-09-09T07:23:06.000Z</time>
      </trkpt>
      <trkpt lat="47.83137" lon="2.28163">
        <ele>111.697689</ele>
        <time>2021-09-09T07:23:11.000Z</time>
      </trkpt>
      <trkpt lat="47.83133" lon="2.28211">
        <ele>111.524955</ele>
        <time>2021-09-09T07:23:17.000Z</time>
      </trkpt>
      <trkpt lat="47.83133" lon="2.28218">
        <ele>111.497244</ele>
        <time>2021-09-09T07:23:18.000Z</time>
      </trkpt>
      <trkpt lat="47.83135" lon="2.28231">
        <ele>111.445408</ele>
        <time>2021-09-09T07:23:20.000Z</time>
      </trkpt>
      <trkpt lat="47.83138" lon="2.28235">
        <ele>111.422389</ele>
        <time>2021-09-09T07:23:21.000Z</time>
      </trkpt>
      <trkpt lat="47.83141" lon="2.28239">
        <ele>111.397314</ele>
        <time>2021-09-09T07:23:22.000Z</time>
      </trkpt>
      <trkpt lat="47.83146" lon="2.28239">
        <ele>111.371326</ele>
        <time>2021-09-09T07:23:23.000Z</time>
      </trkpt>
      <trkpt lat="47.83155" lon="2.28224">
        <ele>111.288458</ele>
        <time>2021-09-09T07:23:26.000Z</time>
      </trkpt>
      <trkpt lat="47.83158" lon="2.28219">
        <ele>111.261117</ele>
        <time>2021-09-09T07:23:27.000Z</time>
      </trkpt>
      <trkpt lat="47.83163" lon="2.28221">
        <ele>111.231126</ele>
        <time>2021-09-09T07:23:29.000Z</time>
      </trkpt>
      <trkpt lat="47.83158" lon="2.28232">
        <ele>111.180153</ele>
        <time>2021-09-09T07:23:31.000Z</time>
      </trkpt>
      <trkpt lat="47.83154" lon="2.28237">
        <ele>111.148917</ele>
        <time>2021-09-09T07:23:32.000Z</time>
      </trkpt>
      <trkpt lat="47.83152" lon="2.28245">
        <ele>111.115871</ele>
        <time>2021-09-09T07:23:33.000Z</time>
      </trkpt>
      <trkpt lat="47.83143" lon="2.28305">
        <ele>110.874092</ele>
        <time>2021-09-09T07:23:40.000Z</time>
      </trkpt>
      <trkpt lat="47.8314" lon="2.28327">
        <ele>110.785001</ele>
        <time>2021-09-09T07:23:43.000Z</time>
      </trkpt>
      <trkpt lat="47.83138" lon="2.28341">
        <ele>110.728813</ele>
        <time>2021-09-09T07:23:45.000Z</time>
      </trkpt>
      <trkpt lat="47.83129" lon="2.28369">
        <ele>110.621299</ele>
        <time>2021-09-09T07:23:49.000Z</time>
      </trkpt>
      <trkpt lat="47.83124" lon="2.28382">
        <ele>110.594524</ele>
        <time>2021-09-09T07:23:51.000Z</time>
      </trkpt>
      <trkpt lat="47.83118" lon="2.28437">
        <ele>110.493182</ele>
        <time>2021-09-09T07:23:57.000Z</time>
      </trkpt>
      <trkpt lat="47.83108" lon="2.28495">
        <ele>110.384371</ele>
        <time>2021-09-09T07:24:03.000Z</time>
      </trkpt>
      <trkpt lat="47.83103" lon="2.28518">
        <ele>110.340351</ele>
        <time>2021-09-09T07:24:06.000Z</time>
      </trkpt>
      <trkpt lat="47.83104" lon="2.28525">
        <ele>110.32642</ele>
        <time>2021-09-09T07:24:07.000Z</time>
      </trkpt>
      <trkpt lat="47.83105" lon="2.28533">
        <ele>110.311633</ele>
        <time>2021-09-09T07:24:08.000Z</time>
      </trkpt>
      <trkpt lat="47.8311" lon="2.28558">
        <ele>110.264395</ele>
        <time>2021-09-09T07:24:11.000Z</time>
      </trkpt>
      <trkpt lat="47.8311" lon="2.28576">
        <ele>110.231193</ele>
        <time>2021-09-09T07:24:13.000Z</time>
      </trkpt>
      <trkpt lat="47.83108" lon="2.28594">
        <ele>110.19755</ele>
        <time>2021-09-09T07:24:15.000Z</time>
      </trkpt>
      <trkpt lat="47.83094" lon="2.28659">
        <ele>110.144257</ele>
        <time>2021-09-09T07:24:22.000Z</time>
      </trkpt>
      <trkpt lat="47.83077" lon="2.2871">
        <ele>110.139796</ele>
        <time>2021-09-09T07:24:28.000Z</time>
      </trkpt>
      <trkpt lat="47.83077" lon="2.28728">
        <ele>110.138358</ele>
        <time>2021-09-09T07:24:30.000Z</time>
      </trkpt>
      <trkpt lat="47.83078" lon="2.28737">
        <ele>110.137631</ele>
        <time>2021-09-09T07:24:31.000Z</time>
      </trkpt>
      <trkpt lat="47.83086" lon="2.28761">
        <ele>110.135547</ele>
        <time>2021-09-09T07:24:34.000Z</time>
      </trkpt>
      <trkpt lat="47.83092" lon="2.28776">
        <ele>110.134119</ele>
        <time>2021-09-09T07:24:36.000Z</time>
      </trkpt>
      <trkpt lat="47.83096" lon="2.28783">
        <ele>110.133375</ele>
        <time>2021-09-09T07:24:37.000Z</time>
      </trkpt>
      <trkpt lat="47.83105" lon="2.28798">
        <ele>110.131836</ele>
        <time>2021-09-09T07:24:39.000Z</time>
      </trkpt>
      <trkpt lat="47.83109" lon="2.28806">
        <ele>110.131056</ele>
        <time>2021-09-09T07:24:40.000Z</time>
      </trkpt>
      <trkpt lat="47.83111" lon="2.28815">
        <ele>110.130301</ele>
        <time>2021-09-09T07:24:41.000Z</time>
      </trkpt>
      <trkpt lat="47.83112" lon="2.28835">
        <ele>110.128745</ele>
        <time>2021-09-09T07:24:43.000Z</time>
      </trkpt>
      <trkpt lat="47.83105" lon="2.28883">
        <ele>110.1249</ele>
        <time>2021-09-09T07:24:48.000Z</time>
      </trkpt>
      <trkpt lat="47.8309" lon="2.28945">
        <ele>110.119756</ele>
        <time>2021-09-09T07:24:55.000Z</time>
      </trkpt>
      <trkpt lat="47.83069" lon="2.29016">
        <ele>110.113776</ele>
        <time>2021-09-09T07:25:03.000Z</time>
      </trkpt>
      <trkpt lat="47.83046" lon="2.29076">
        <ele>110.108405</ele>
        <time>2021-09-09T07:25:10.000Z</time>
      </trkpt>
      <trkpt lat="47.83021" lon="2.29133">
        <ele>110.160617</ele>
        <time>2021-09-09T07:25:17.000Z</time>
      </trkpt>
      <trkpt lat="47.82997" lon="2.2919">
        <ele>110.275631</ele>
        <time>2021-09-09T07:25:24.000Z</time>
      </trkpt>
      <trkpt lat="47.8297" lon="2.29244">
        <ele>110.391578</ele>
        <time>2021-09-09T07:25:31.000Z</time>
      </trkpt>
      <trkpt lat="47.82966" lon="2.2925">
        <ele>110.407983</ele>
        <time>2021-09-09T07:25:32.000Z</time>
      </trkpt>
      <trkpt lat="47.82956" lon="2.29262">
        <ele>110.440858</ele>
        <time>2021-09-09T07:25:34.000Z</time>
      </trkpt>
      <trkpt lat="47.82945" lon="2.29274">
        <ele>110.474242</ele>
        <time>2021-09-09T07:25:36.000Z</time>
      </trkpt>
      <trkpt lat="47.82921" lon="2.29318">
        <ele>110.573278</ele>
        <time>2021-09-09T07:25:42.000Z</time>
      </trkpt>
      <trkpt lat="47.82897" lon="2.29363">
        <ele>110.682871</ele>
        <time>2021-09-09T07:25:48.000Z</time>
      </trkpt>
      <trkpt lat="47.82858" lon="2.29422">
        <ele>110.841107</ele>
        <time>2021-09-09T07:25:57.000Z</time>
      </trkpt>
      <trkpt lat="47.82823" lon="2.29472">
        <ele>110.979171</ele>
        <time>2021-09-09T07:26:05.000Z</time>
      </trkpt>
      <trkpt lat="47.82794" lon="2.29517">
        <ele>111.083176</ele>
        <time>2021-09-09T07:26:12.000Z</time>
      </trkpt>
      <trkpt lat="47.82761" lon="2.29572">
        <ele>111.107281</ele>
        <time>2021-09-09T07:26:20.000Z</time>
      </trkpt>
      <trkpt lat="47.82732" lon="2.29622">
        <ele>111.129101</ele>
        <time>2021-09-09T07:26:27.000Z</time>
      </trkpt>
      <trkpt lat="47.82706" lon="2.29663">
        <ele>111.147655</ele>
        <time>2021-09-09T07:26:33.000Z</time>
      </trkpt>
      <trkpt lat="47.82665" lon="2.29711">
        <ele>111.138729</ele>
        <time>2021-09-09T07:26:41.000Z</time>
      </trkpt>
      <trkpt lat="47.82626" lon="2.29744">
        <ele>111.00951</ele>
        <time>2021-09-09T07:26:48.000Z</time>
      </trkpt>
      <trkpt lat="47.82572" lon="2.29775">
        <ele>110.845701</ele>
        <time>2021-09-09T07:26:57.000Z</time>
      </trkpt>
      <trkpt lat="47.82522" lon="2.29798">
        <ele>110.699244</ele>
        <time>2021-09-09T07:27:05.000Z</time>
      </trkpt>
      <trkpt lat="47.82478" lon="2.29808">
        <ele>110.597931</ele>
        <time>2021-09-09T07:27:12.000Z</time>
      </trkpt>
      <trkpt lat="47.82434" lon="2.29808">
        <ele>110.510273</ele>
        <time>2021-09-09T07:27:19.000Z</time>
      </trkpt>
      <trkpt lat="47.82384" lon="2.29797">
        <ele>110.411048</ele>
        <time>2021-09-09T07:27:27.000Z</time>
      </trkpt>
      <trkpt lat="47.82359" lon="2.29796">
        <ele>110.36154</ele>
        <time>2021-09-09T07:27:31.000Z</time>
      </trkpt>
      <trkpt lat="47.82347" lon="2.298">
        <ele>110.336818</ele>
        <time>2021-09-09T07:27:33.000Z</time>
      </trkpt>
      <trkpt lat="47.82306" lon="2.2982">
        <ele>110.273122</ele>
        <time>2021-09-09T07:27:40.000Z</time>
      </trkpt>
      <trkpt lat="47.8227" lon="2.29827">
        <ele>110.234462</ele>
        <time>2021-09-09T07:27:46.000Z</time>
      </trkpt>
      <trkpt lat="47.82252" lon="2.29829">
        <ele>110.21528</ele>
        <time>2021-09-09T07:27:49.000Z</time>
      </trkpt>
      <trkpt lat="47.8224" lon="2.29833">
        <ele>110.201991</ele>
        <time>2021-09-09T07:27:51.000Z</time>
      </trkpt>
      <trkpt lat="47.82193" lon="2.29853">
        <ele>110.148921</ele>
        <time>2021-09-09T07:27:59.000Z</time>
      </trkpt>
      <trkpt lat="47.82153" lon="2.29871">
        <ele>110.105793</ele>
        <time>2021-09-09T07:28:06.000Z</time>
      </trkpt>
      <trkpt lat="47.82143" lon="2.2988">
        <ele>110.102855</ele>
        <time>2021-09-09T07:28:08.000Z</time>
      </trkpt>
      <trkpt lat="47.82132" lon="2.29884">
        <ele>110.099916</ele>
        <time>2021-09-09T07:28:10.000Z</time>
      </trkpt>
      <trkpt lat="47.82097" lon="2.299">
        <ele>110.090745</ele>
        <time>2021-09-09T07:28:16.000Z</time>
      </trkpt>
      <trkpt lat="47.82045" lon="2.29926">
        <ele>110.076909</ele>
        <time>2021-09-09T07:28:25.000Z</time>
      </trkpt>
      <trkpt lat="47.81992" lon="2.29951">
        <ele>110.063025</ele>
        <time>2021-09-09T07:28:34.000Z</time>
      </trkpt>
      <trkpt lat="47.81947" lon="2.29973">
        <ele>110.017908</ele>
        <time>2021-09-09T07:28:42.000Z</time>
      </trkpt>
      <trkpt lat="47.81902" lon="2.29997">
        <ele>109.966897</ele>
        <time>2021-09-09T07:28:50.000Z</time>
      </trkpt>
      <trkpt lat="47.81851" lon="2.30026">
        <ele>109.907949</ele>
        <time>2021-09-09T07:28:59.000Z</time>
      </trkpt>
      <trkpt lat="47.81845" lon="2.30029">
        <ele>109.901416</ele>
        <time>2021-09-09T07:29:00.000Z</time>
      </trkpt>
      <trkpt lat="47.81804" lon="2.30043">
        <ele>109.88456</ele>
        <time>2021-09-09T07:29:07.000Z</time>
      </trkpt>
      <trkpt lat="47.81786" lon="2.30046">
        <ele>109.914809</ele>
        <time>2021-09-09T07:29:10.000Z</time>
      </trkpt>
      <trkpt lat="47.81767" lon="2.30047">
        <ele>109.944448</ele>
        <time>2021-09-09T07:29:13.000Z</time>
      </trkpt>
      <trkpt lat="47.81755" lon="2.30047">
        <ele>109.964735</ele>
        <time>2021-09-09T07:29:15.000Z</time>
      </trkpt>
      <trkpt lat="47.81743" lon="2.30043">
        <ele>109.984028</ele>
        <time>2021-09-09T07:29:17.000Z</time>
      </trkpt>
      <trkpt lat="47.81714" lon="2.30042">
        <ele>110.030719</ele>
        <time>2021-09-09T07:29:22.000Z</time>
      </trkpt>
      <trkpt lat="47.81672" lon="2.30039">
        <ele>110.098685</ele>
        <time>2021-09-09T07:29:29.000Z</time>
      </trkpt>
      <trkpt lat="47.81629" lon="2.30034">
        <ele>110.196521</ele>
        <time>2021-09-09T07:29:36.000Z</time>
      </trkpt>
      <trkpt lat="47.81613" lon="2.30034">
        <ele>110.288145</ele>
        <time>2021-09-09T07:29:39.000Z</time>
      </trkpt>
      <trkpt lat="47.81604" lon="2.3003">
        <ele>110.343209</ele>
        <time>2021-09-09T07:29:41.000Z</time>
      </trkpt>
      <trkpt lat="47.81601" lon="2.30014">
        <ele>110.407308</ele>
        <time>2021-09-09T07:29:44.000Z</time>
      </trkpt>
      <trkpt lat="47.81599" lon="2.30006">
        <ele>110.442576</ele>
        <time>2021-09-09T07:29:46.000Z</time>
      </trkpt>
      <trkpt lat="47.81593" lon="2.30001">
        <ele>110.481246</ele>
        <time>2021-09-09T07:29:48.000Z</time>
      </trkpt>
      <trkpt lat="47.81564" lon="2.29984">
        <ele>110.660754</ele>
        <time>2021-09-09T07:29:55.000Z</time>
      </trkpt>
      <trkpt lat="47.81549" lon="2.29973">
        <ele>110.757203</ele>
        <time>2021-09-09T07:29:59.000Z</time>
      </trkpt>
      <trkpt lat="47.81542" lon="2.29964">
        <ele>110.81102</ele>
        <time>2021-09-09T07:30:01.000Z</time>
      </trkpt>
      <trkpt lat="47.81533" lon="2.29959">
        <ele>110.86667</ele>
        <time>2021-09-09T07:30:03.000Z</time>
      </trkpt>
      <trkpt lat="47.81523" lon="2.29954">
        <ele>110.92825</ele>
        <time>2021-09-09T07:30:05.000Z</time>
      </trkpt>
      <trkpt lat="47.81487" lon="2.29934">
        <ele>111.155423</ele>
        <time>2021-09-09T07:30:12.000Z</time>
      </trkpt>
      <trkpt lat="47.81443" lon="2.29904">
        <ele>111.329485</ele>
        <time>2021-09-09T07:30:20.000Z</time>
      </trkpt>
      <trkpt lat="47.81403" lon="2.2988">
        <ele>111.465901</ele>
        <time>2021-09-09T07:30:27.000Z</time>
      </trkpt>
      <trkpt lat="47.81368" lon="2.29866">
        <ele>111.581169</ele>
        <time>2021-09-09T07:30:33.000Z</time>
      </trkpt>
      <trkpt lat="47.81321" lon="2.29849">
        <ele>111.736237</ele>
        <time>2021-09-09T07:30:41.000Z</time>
      </trkpt>
      <trkpt lat="47.81274" lon="2.29835">
        <ele>111.873686</ele>
        <time>2021-09-09T07:30:49.000Z</time>
      </trkpt>
      <trkpt lat="47.81227" lon="2.29818">
        <ele>112.009789</ele>
        <time>2021-09-09T07:30:57.000Z</time>
      </trkpt>
      <trkpt lat="47.81186" lon="2.29803">
        <ele>112.126723</ele>
        <time>2021-09-09T07:31:04.000Z</time>
      </trkpt>
      <trkpt lat="47.81139" lon="2.29786">
        <ele>112.26327</ele>
        <time>2021-09-09T07:31:12.000Z</time>
      </trkpt>
      <trkpt lat="47.81085" lon="2.29762">
        <ele>112.369071</ele>
        <time>2021-09-09T07:31:21.000Z</time>
      </trkpt>
      <trkpt lat="47.81044" lon="2.2975">
        <ele>112.445631</ele>
        <time>2021-09-09T07:31:28.000Z</time>
      </trkpt>
      <trkpt lat="47.81026" lon="2.29746">
        <ele>112.478147</ele>
        <time>2021-09-09T07:31:31.000Z</time>
      </trkpt>
      <trkpt lat="47.81015" lon="2.29738">
        <ele>112.499892</ele>
        <time>2021-09-09T07:31:33.000Z</time>
      </trkpt>
      <trkpt lat="47.81" lon="2.29715">
        <ele>112.538724</ele>
        <time>2021-09-09T07:31:36.000Z</time>
      </trkpt>
      <trkpt lat="47.8098" lon="2.29686">
        <ele>112.590365</ele>
        <time>2021-09-09T07:31:40.000Z</time>
      </trkpt>
      <trkpt lat="47.80935" lon="2.29639">
        <ele>112.636705</ele>
        <time>2021-09-09T07:31:48.000Z</time>
      </trkpt>
      <trkpt lat="47.8093" lon="2.29633">
        <ele>112.641519</ele>
        <time>2021-09-09T07:31:49.000Z</time>
      </trkpt>
      <trkpt lat="47.80918" lon="2.29625">
        <ele>112.65087</ele>
        <time>2021-09-09T07:31:51.000Z</time>
      </trkpt>
      <trkpt lat="47.80905" lon="2.29621">
        <ele>112.659868</ele>
        <time>2021-09-09T07:31:53.000Z</time>
      </trkpt>
      <trkpt lat="47.80874" lon="2.29617">
        <ele>112.682565</ele>
        <time>2021-09-09T07:31:58.000Z</time>
      </trkpt>
      <trkpt lat="47.80832" lon="2.29608">
        <ele>112.713039</ele>
        <time>2021-09-09T07:32:05.000Z</time>
      </trkpt>
      <trkpt lat="47.80792" lon="2.29593">
        <ele>112.739381</ele>
        <time>2021-09-09T07:32:12.000Z</time>
      </trkpt>
      <trkpt lat="47.80759" lon="2.29574">
        <ele>112.757318</ele>
        <time>2021-09-09T07:32:18.000Z</time>
      </trkpt>
      <trkpt lat="47.80755" lon="2.2957">
        <ele>112.760071</ele>
        <time>2021-09-09T07:32:19.000Z</time>
      </trkpt>
      <trkpt lat="47.80742" lon="2.29557">
        <ele>112.768099</ele>
        <time>2021-09-09T07:32:22.000Z</time>
      </trkpt>
      <trkpt lat="47.80721" lon="2.29538">
        <ele>112.780781</ele>
        <time>2021-09-09T07:32:27.000Z</time>
      </trkpt>
      <trkpt lat="47.80715" lon="2.2953">
        <ele>112.785047</ele>
        <time>2021-09-09T07:32:31.000Z</time>
      </trkpt>
      <trkpt lat="47.80709" lon="2.29519">
        <ele>112.790203</ele>
        <time>2021-09-09T07:32:37.000Z</time>
      </trkpt>
      <trkpt lat="47.80707" lon="2.29517">
        <ele>112.791352</ele>
        <time>2021-09-09T07:32:38.000Z</time>
      </trkpt>
      <trkpt lat="47.80696" lon="2.29506">
        <ele>112.798437</ele>
        <time>2021-09-09T07:32:43.000Z</time>
      </trkpt>
      <trkpt lat="47.80684" lon="2.29498">
        <ele>112.805331</ele>
        <time>2021-09-09T07:32:48.000Z</time>
      </trkpt>
      <trkpt lat="47.80672" lon="2.29487">
        <ele>112.812508</ele>
        <time>2021-09-09T07:32:53.000Z</time>
      </trkpt>
      <trkpt lat="47.80669" lon="2.29485">
        <ele>112.814094</ele>
        <time>2021-09-09T07:32:54.000Z</time>
      </trkpt>
      <trkpt lat="47.80667" lon="2.29487">
        <ele>112.815159</ele>
        <time>2021-09-09T07:32:56.000Z</time>
      </trkpt>
      <trkpt lat="47.80674" lon="2.29491">
        <ele>112.818686</ele>
        <time>2021-09-09T07:32:59.000Z</time>
      </trkpt>
      <trkpt lat="47.80701" lon="2.29514">
        <ele>112.775435</ele>
        <time>2021-09-09T07:33:07.000Z</time>
      </trkpt>
      <trkpt lat="47.80709" lon="2.29524">
        <ele>112.75024</ele>
        <time>2021-09-09T07:33:10.000Z</time>
      </trkpt>
      <trkpt lat="47.80709" lon="2.29528">
        <ele>112.743571</ele>
        <time>2021-09-09T07:33:11.000Z</time>
      </trkpt>
      <trkpt lat="47.80704" lon="2.2955">
        <ele>112.706097</ele>
        <time>2021-09-09T07:33:15.000Z</time>
      </trkpt>
      <trkpt lat="47.80703" lon="2.29556">
        <ele>112.695193</ele>
        <time>2021-09-09T07:33:16.000Z</time>
      </trkpt>
      <trkpt lat="47.80702" lon="2.29595">
        <ele>112.632798</ele>
        <time>2021-09-09T07:33:22.000Z</time>
      </trkpt>
      <trkpt lat="47.80703" lon="2.296">
        <ele>112.62315</ele>
        <time>2021-09-09T07:33:23.000Z</time>
      </trkpt>
      <trkpt lat="47.80708" lon="2.29612">
        <ele>112.600056</ele>
        <time>2021-09-09T07:33:25.000Z</time>
      </trkpt>
      <trkpt lat="47.80712" lon="2.29618">
        <ele>112.587195</ele>
        <time>2021-09-09T07:33:26.000Z</time>
      </trkpt>
      <trkpt lat="47.80717" lon="2.29622">
        <ele>112.573864</ele>
        <time>2021-09-09T07:33:27.000Z</time>
      </trkpt>
      <trkpt lat="47.80731" lon="2.29634">
        <ele>112.533314</ele>
        <time>2021-09-09T07:33:30.000Z</time>
      </trkpt>
      <trkpt lat="47.80747" lon="2.29649">
        <ele>112.489007</ele>
        <time>2021-09-09T07:33:33.000Z</time>
      </trkpt>
      <trkpt lat="47.80756" lon="2.29656">
        <ele>112.463544</ele>
        <time>2021-09-09T07:33:35.000Z</time>
      </trkpt>
      <trkpt lat="47.80766" lon="2.29663">
        <ele>112.437713</ele>
        <time>2021-09-09T07:33:38.000Z</time>
      </trkpt>
      <trkpt lat="47.80782" lon="2.29677">
        <ele>112.392088</ele>
        <time>2021-09-09T07:33:42.000Z</time>
      </trkpt>
      <trkpt lat="47.80786" lon="2.29682">
        <ele>112.379751</ele>
        <time>2021-09-09T07:33:43.000Z</time>
      </trkpt>
      <trkpt lat="47.80787" lon="2.2969">
        <ele>112.36837</ele>
        <time>2021-09-09T07:33:44.000Z</time>
      </trkpt>
      <trkpt lat="47.80782" lon="2.29704">
        <ele>112.345385</ele>
        <time>2021-09-09T07:33:46.000Z</time>
      </trkpt>
      <trkpt lat="47.80778" lon="2.2971">
        <ele>112.333233</ele>
        <time>2021-09-09T07:33:47.000Z</time>
      </trkpt>
      <trkpt lat="47.8075" lon="2.29735">
        <ele>112.264201</ele>
        <time>2021-09-09T07:33:52.000Z</time>
      </trkpt>
      <trkpt lat="47.80707" lon="2.29768">
        <ele>112.159528</ele>
        <time>2021-09-09T07:33:59.000Z</time>
      </trkpt>
      <trkpt lat="47.80656" lon="2.29797">
        <ele>112.043245</ele>
        <time>2021-09-09T07:34:07.000Z</time>
      </trkpt>
      <trkpt lat="47.80601" lon="2.29827">
        <ele>111.989177</ele>
        <time>2021-09-09T07:34:16.000Z</time>
      </trkpt>
      <trkpt lat="47.80548" lon="2.29859">
        <ele>111.969101</ele>
        <time>2021-09-09T07:34:25.000Z</time>
      </trkpt>
      <trkpt lat="47.80516" lon="2.29886">
        <ele>111.956012</ele>
        <time>2021-09-09T07:34:31.000Z</time>
      </trkpt>
      <trkpt lat="47.80491" lon="2.29914">
        <ele>111.945159</ele>
        <time>2021-09-09T07:34:36.000Z</time>
      </trkpt>
      <trkpt lat="47.80464" lon="2.29951">
        <ele>111.902447</ele>
        <time>2021-09-09T07:34:42.000Z</time>
      </trkpt>
      <trkpt lat="47.80438" lon="2.30002">
        <ele>111.828971</ele>
        <time>2021-09-09T07:34:49.000Z</time>
      </trkpt>
      <trkpt lat="47.80419" lon="2.30051">
        <ele>111.764921</ele>
        <time>2021-09-09T07:34:55.000Z</time>
      </trkpt>
      <trkpt lat="47.80393" lon="2.30118">
        <ele>111.676664</ele>
        <time>2021-09-09T07:35:04.000Z</time>
      </trkpt>
      <trkpt lat="47.8038" lon="2.3016">
        <ele>111.641173</ele>
        <time>2021-09-09T07:35:10.000Z</time>
      </trkpt>
      <trkpt lat="47.80374" lon="2.30171">
        <ele>111.649398</ele>
        <time>2021-09-09T07:35:12.000Z</time>
      </trkpt>
      <trkpt lat="47.80371" lon="2.30185">
        <ele>111.658341</ele>
        <time>2021-09-09T07:35:14.000Z</time>
      </trkpt>
      <trkpt lat="47.80367" lon="2.30202">
        <ele>111.668676</ele>
        <time>2021-09-09T07:35:16.000Z</time>
      </trkpt>
      <trkpt lat="47.80359" lon="2.30227">
        <ele>111.68527</ele>
        <time>2021-09-09T07:35:19.000Z</time>
      </trkpt>
      <trkpt lat="47.80329" lon="2.30304">
        <ele>111.737468</ele>
        <time>2021-09-09T07:35:28.000Z</time>
      </trkpt>
      <trkpt lat="47.80307" lon="2.30365">
        <ele>111.778447</ele>
        <time>2021-09-09T07:35:35.000Z</time>
      </trkpt>
      <trkpt lat="47.80278" lon="2.30441">
        <ele>111.795098</ele>
        <time>2021-09-09T07:35:44.000Z</time>
      </trkpt>
      <trkpt lat="47.80245" lon="2.30502">
        <ele>111.796957</ele>
        <time>2021-09-09T07:35:52.000Z</time>
      </trkpt>
      <trkpt lat="47.80209" lon="2.30555">
        <ele>111.798758</ele>
        <time>2021-09-09T07:36:00.000Z</time>
      </trkpt>
      <trkpt lat="47.80181" lon="2.30593">
        <ele>111.800025</ele>
        <time>2021-09-09T07:36:06.000Z</time>
      </trkpt>
      <trkpt lat="47.80139" lon="2.3065">
        <ele>111.800584</ele>
        <time>2021-09-09T07:36:15.000Z</time>
      </trkpt>
      <trkpt lat="47.80134" lon="2.30656">
        <ele>111.800646</ele>
        <time>2021-09-09T07:36:16.000Z</time>
      </trkpt>
      <trkpt lat="47.80095" lon="2.30702">
        <ele>111.801133</ele>
        <time>2021-09-09T07:36:24.000Z</time>
      </trkpt>
      <trkpt lat="47.80058" lon="2.30751">
        <ele>111.801616</ele>
        <time>2021-09-09T07:36:32.000Z</time>
      </trkpt>
      <trkpt lat="47.80018" lon="2.30808">
        <ele>111.843109</ele>
        <time>2021-09-09T07:36:41.000Z</time>
      </trkpt>
      <trkpt lat="47.80004" lon="2.30826">
        <ele>111.861959</ele>
        <time>2021-09-09T07:36:44.000Z</time>
      </trkpt>
      <trkpt lat="47.79989" lon="2.30842">
        <ele>111.880998</ele>
        <time>2021-09-09T07:36:47.000Z</time>
      </trkpt>
      <trkpt lat="47.7995" lon="2.30882">
        <ele>111.929762</ele>
        <time>2021-09-09T07:36:55.000Z</time>
      </trkpt>
      <trkpt lat="47.79918" lon="2.3092">
        <ele>111.97168</ele>
        <time>2021-09-09T07:37:02.000Z</time>
      </trkpt>
      <trkpt lat="47.79883" lon="2.30967">
        <ele>111.967767</ele>
        <time>2021-09-09T07:37:10.000Z</time>
      </trkpt>
      <trkpt lat="47.79858" lon="2.31007">
        <ele>111.948884</ele>
        <time>2021-09-09T07:37:16.000Z</time>
      </trkpt>
      <trkpt lat="47.79828" lon="2.31067">
        <ele>111.922524</ele>
        <time>2021-09-09T07:37:24.000Z</time>
      </trkpt>
      <trkpt lat="47.79799" lon="2.31119">
        <ele>111.899093</ele>
        <time>2021-09-09T07:37:31.000Z</time>
      </trkpt>
      <trkpt lat="47.79789" lon="2.31131">
        <ele>111.892166</ele>
        <time>2021-09-09T07:37:33.000Z</time>
      </trkpt>
      <trkpt lat="47.79782" lon="2.31134">
        <ele>111.884187</ele>
        <time>2021-09-09T07:37:34.000Z</time>
      </trkpt>
      <trkpt lat="47.79776" lon="2.31134">
        <ele>111.875434</ele>
        <time>2021-09-09T07:37:35.000Z</time>
      </trkpt>
      <trkpt lat="47.79756" lon="2.31131">
        <ele>111.849286</ele>
        <time>2021-09-09T07:37:38.000Z</time>
      </trkpt>
      <trkpt lat="47.79706" lon="2.31127">
        <ele>111.782939</ele>
        <time>2021-09-09T07:37:46.000Z</time>
      </trkpt>
      <trkpt lat="47.79657" lon="2.3113">
        <ele>111.71715</ele>
        <time>2021-09-09T07:37:54.000Z</time>
      </trkpt>
      <trkpt lat="47.79645" lon="2.31136">
        <ele>111.700693</ele>
        <time>2021-09-09T07:37:56.000Z</time>
      </trkpt>
      <trkpt lat="47.79634" lon="2.31145">
        <ele>111.684378</ele>
        <time>2021-09-09T07:37:58.000Z</time>
      </trkpt>
      <trkpt lat="47.79591" lon="2.31181">
        <ele>111.632639</ele>
        <time>2021-09-09T07:38:06.000Z</time>
      </trkpt>
      <trkpt lat="47.79575" lon="2.31193">
        <ele>111.618039</ele>
        <time>2021-09-09T07:38:09.000Z</time>
      </trkpt>
      <trkpt lat="47.79559" lon="2.31208">
        <ele>111.603011</ele>
        <time>2021-09-09T07:38:12.000Z</time>
      </trkpt>
      <trkpt lat="47.79527" lon="2.3124">
        <ele>111.572249</ele>
        <time>2021-09-09T07:38:18.000Z</time>
      </trkpt>
      <trkpt lat="47.79484" lon="2.3128">
        <ele>111.530955</ele>
        <time>2021-09-09T07:38:26.000Z</time>
      </trkpt>
      <trkpt lat="47.79438" lon="2.31315">
        <ele>111.549052</ele>
        <time>2021-09-09T07:38:34.000Z</time>
      </trkpt>
      <trkpt lat="47.79403" lon="2.31332">
        <ele>111.611193</ele>
        <time>2021-09-09T07:38:40.000Z</time>
      </trkpt>
      <trkpt lat="47.79361" lon="2.31344">
        <ele>111.683708</ele>
        <time>2021-09-09T07:38:47.000Z</time>
      </trkpt>
      <trkpt lat="47.79355" lon="2.31345">
        <ele>111.693971</ele>
        <time>2021-09-09T07:38:48.000Z</time>
      </trkpt>
      <trkpt lat="47.79331" lon="2.31339">
        <ele>111.734186</ele>
        <time>2021-09-09T07:38:52.000Z</time>
      </trkpt>
      <trkpt lat="47.79301" lon="2.31333">
        <ele>111.785389</ele>
        <time>2021-09-09T07:38:57.000Z</time>
      </trkpt>
      <trkpt lat="47.79289" lon="2.31335">
        <ele>111.806297</ele>
        <time>2021-09-09T07:38:59.000Z</time>
      </trkpt>
      <trkpt lat="47.79247" lon="2.3135">
        <ele>111.886483</ele>
        <time>2021-09-09T07:39:06.000Z</time>
      </trkpt>
      <trkpt lat="47.79237" lon="2.31358">
        <ele>111.909187</ele>
        <time>2021-09-09T07:39:08.000Z</time>
      </trkpt>
      <trkpt lat="47.79223" lon="2.31375">
        <ele>111.943402</ele>
        <time>2021-09-09T07:39:11.000Z</time>
      </trkpt>
      <trkpt lat="47.79219" lon="2.31382">
        <ele>111.954918</ele>
        <time>2021-09-09T07:39:12.000Z</time>
      </trkpt>
      <trkpt lat="47.79208" lon="2.31405">
        <ele>111.991174</ele>
        <time>2021-09-09T07:39:15.000Z</time>
      </trkpt>
      <trkpt lat="47.79186" lon="2.31472">
        <ele>112.086093</ele>
        <time>2021-09-09T07:39:23.000Z</time>
      </trkpt>
      <trkpt lat="47.79175" lon="2.31525">
        <ele>112.155896</ele>
        <time>2021-09-09T07:39:29.000Z</time>
      </trkpt>
      <trkpt lat="47.79164" lon="2.31588">
        <ele>112.21291</ele>
        <time>2021-09-09T07:39:36.000Z</time>
      </trkpt>
      <trkpt lat="47.79157" lon="2.31614">
        <ele>112.23768</ele>
        <time>2021-09-09T07:39:39.000Z</time>
      </trkpt>
      <trkpt lat="47.79154" lon="2.31632">
        <ele>112.254298</ele>
        <time>2021-09-09T07:39:41.000Z</time>
      </trkpt>
      <trkpt lat="47.79144" lon="2.31706">
        <ele>112.320205</ele>
        <time>2021-09-09T07:39:49.000Z</time>
      </trkpt>
      <trkpt lat="47.79141" lon="2.31734">
        <ele>112.345352</ele>
        <time>2021-09-09T07:39:52.000Z</time>
      </trkpt>
      <trkpt lat="47.79138" lon="2.31742">
        <ele>112.352759</ele>
        <time>2021-09-09T07:39:53.000Z</time>
      </trkpt>
      <trkpt lat="47.79122" lon="2.31774">
        <ele>112.388435</ele>
        <time>2021-09-09T07:39:57.000Z</time>
      </trkpt>
      <trkpt lat="47.79097" lon="2.31824">
        <ele>112.793458</ele>
        <time>2021-09-09T07:40:03.000Z</time>
      </trkpt>
      <trkpt lat="47.79086" lon="2.31856">
        <ele>113.02626</ele>
        <time>2021-09-09T07:40:08.000Z</time>
      </trkpt>
      <trkpt lat="47.79081" lon="2.31881">
        <ele>113.198835</ele>
        <time>2021-09-09T07:40:13.000Z</time>
      </trkpt>
      <trkpt lat="47.79082" lon="2.31922">
        <ele>113.467269</ele>
        <time>2021-09-09T07:40:19.000Z</time>
      </trkpt>
      <trkpt lat="47.79083" lon="2.31988">
        <ele>113.897457</ele>
        <time>2021-09-09T07:40:27.000Z</time>
      </trkpt>
      <trkpt lat="47.79085" lon="2.32066">
        <ele>114.262237</ele>
        <time>2021-09-09T07:40:36.000Z</time>
      </trkpt>
      <trkpt lat="47.79085" lon="2.32125">
        <ele>114.439846</ele>
        <time>2021-09-09T07:40:43.000Z</time>
      </trkpt>
      <trkpt lat="47.7908" lon="2.32187">
        <ele>114.631191</ele>
        <time>2021-09-09T07:40:50.000Z</time>
      </trkpt>
      <trkpt lat="47.79076" lon="2.32234">
        <ele>114.773634</ele>
        <time>2021-09-09T07:40:55.000Z</time>
      </trkpt>
      <trkpt lat="47.79076" lon="2.32243">
        <ele>114.801394</ele>
        <time>2021-09-09T07:40:56.000Z</time>
      </trkpt>
      <trkpt lat="47.79069" lon="2.32297">
        <ele>114.958533</ele>
        <time>2021-09-09T07:41:02.000Z</time>
      </trkpt>
      <trkpt lat="47.79059" lon="2.3237">
        <ele>115.085211</ele>
        <time>2021-09-09T07:41:10.000Z</time>
      </trkpt>
      <trkpt lat="47.79045" lon="2.32442">
        <ele>115.210366</ele>
        <time>2021-09-09T07:41:18.000Z</time>
      </trkpt>
      <trkpt lat="47.79028" lon="2.32522">
        <ele>115.353004</ele>
        <time>2021-09-09T07:41:27.000Z</time>
      </trkpt>
      <trkpt lat="47.79016" lon="2.32576">
        <ele>115.445926</ele>
        <time>2021-09-09T07:41:33.000Z</time>
      </trkpt>
      <trkpt lat="47.79002" lon="2.32651">
        <ele>115.57062</ele>
        <time>2021-09-09T07:41:41.000Z</time>
      </trkpt>
      <trkpt lat="47.78996" lon="2.32679">
        <ele>115.618284</ele>
        <time>2021-09-09T07:41:44.000Z</time>
      </trkpt>
      <trkpt lat="47.78989" lon="2.32707">
        <ele>115.666777</ele>
        <time>2021-09-09T07:41:47.000Z</time>
      </trkpt>
      <trkpt lat="47.78962" lon="2.32778">
        <ele>115.798028</ele>
        <time>2021-09-09T07:41:55.000Z</time>
      </trkpt>
      <trkpt lat="47.78933" lon="2.32847">
        <ele>115.913849</ele>
        <time>2021-09-09T07:42:03.000Z</time>
      </trkpt>
      <trkpt lat="47.78926" lon="2.32863">
        <ele>115.940723</ele>
        <time>2021-09-09T07:42:05.000Z</time>
      </trkpt>
      <trkpt lat="47.789" lon="2.32919">
        <ele>116.034382</ele>
        <time>2021-09-09T07:42:12.000Z</time>
      </trkpt>
      <trkpt lat="47.78868" lon="2.3299">
        <ele>116.151486</ele>
        <time>2021-09-09T07:42:21.000Z</time>
      </trkpt>
      <trkpt lat="47.78865" lon="2.32997">
        <ele>116.163954</ele>
        <time>2021-09-09T07:42:22.000Z</time>
      </trkpt>
      <trkpt lat="47.78841" lon="2.33052">
        <ele>116.246778</ele>
        <time>2021-09-09T07:42:29.000Z</time>
      </trkpt>
      <trkpt lat="47.78814" lon="2.33117">
        <ele>116.338779</ele>
        <time>2021-09-09T07:42:37.000Z</time>
      </trkpt>
      <trkpt lat="47.78783" lon="2.33191">
        <ele>116.442541</ele>
        <time>2021-09-09T07:42:46.000Z</time>
      </trkpt>
      <trkpt lat="47.78756" lon="2.33255">
        <ele>116.501074</ele>
        <time>2021-09-09T07:42:54.000Z</time>
      </trkpt>
      <trkpt lat="47.78731" lon="2.33323">
        <ele>116.382739</ele>
        <time>2021-09-09T07:43:02.000Z</time>
      </trkpt>
      <trkpt lat="47.78713" lon="2.33382">
        <ele>116.282504</ele>
        <time>2021-09-09T07:43:09.000Z</time>
      </trkpt>
      <trkpt lat="47.78705" lon="2.33411">
        <ele>116.234743</ele>
        <time>2021-09-09T07:43:13.000Z</time>
      </trkpt>
      <trkpt lat="47.78704" lon="2.33417">
        <ele>116.225737</ele>
        <time>2021-09-09T07:43:14.000Z</time>
      </trkpt>
      <trkpt lat="47.78705" lon="2.33422">
        <ele>116.217598</ele>
        <time>2021-09-09T07:43:15.000Z</time>
      </trkpt>
      <trkpt lat="47.78709" lon="2.3343">
        <ele>116.200322</ele>
        <time>2021-09-09T07:43:17.000Z</time>
      </trkpt>
      <trkpt lat="47.78717" lon="2.33434">
        <ele>116.181841</ele>
        <time>2021-09-09T07:43:19.000Z</time>
      </trkpt>
      <trkpt lat="47.78721" lon="2.33431">
        <ele>116.17199</ele>
        <time>2021-09-09T07:43:20.000Z</time>
      </trkpt>
      <trkpt lat="47.78725" lon="2.33427">
        <ele>116.161663</ele>
        <time>2021-09-09T07:43:21.000Z</time>
      </trkpt>
      <trkpt lat="47.78732" lon="2.33422">
        <ele>116.144366</ele>
        <time>2021-09-09T07:43:23.000Z</time>
      </trkpt>
      <trkpt lat="47.78732" lon="2.33433">
        <ele>116.12797</ele>
        <time>2021-09-09T07:43:25.000Z</time>
      </trkpt>
      <trkpt lat="47.78718" lon="2.33459">
        <ele>116.006801</ele>
        <time>2021-09-09T07:43:29.000Z</time>
      </trkpt>
      <trkpt lat="47.787" lon="2.335">
        <ele>115.762853</ele>
        <time>2021-09-09T07:43:34.000Z</time>
      </trkpt>
      <trkpt lat="47.78667" lon="2.33565">
        <ele>115.364361</ele>
        <time>2021-09-09T07:43:42.000Z</time>
      </trkpt>
      <trkpt lat="47.78636" lon="2.33621">
        <ele>115.007776</ele>
        <time>2021-09-09T07:43:49.000Z</time>
      </trkpt>
      <trkpt lat="47.78599" lon="2.33684">
        <ele>114.728073</ele>
        <time>2021-09-09T07:43:57.000Z</time>
      </trkpt>
      <trkpt lat="47.78572" lon="2.33728">
        <ele>114.633239</ele>
        <time>2021-09-09T07:44:03.000Z</time>
      </trkpt>
      <trkpt lat="47.78541" lon="2.33781">
        <ele>114.520649</ele>
        <time>2021-09-09T07:44:10.000Z</time>
      </trkpt>
      <trkpt lat="47.78517" lon="2.33826">
        <ele>114.427031</ele>
        <time>2021-09-09T07:44:16.000Z</time>
      </trkpt>
      <trkpt lat="47.78512" lon="2.33833">
        <ele>114.411551</ele>
        <time>2021-09-09T07:44:17.000Z</time>
      </trkpt>
      <trkpt lat="47.78503" lon="2.33847">
        <ele>114.381042</ele>
        <time>2021-09-09T07:44:19.000Z</time>
      </trkpt>
      <trkpt lat="47.78483" lon="2.33884">
        <ele>114.341489</ele>
        <time>2021-09-09T07:44:24.000Z</time>
      </trkpt>
      <trkpt lat="47.7848" lon="2.33892">
        <ele>114.335862</ele>
        <time>2021-09-09T07:44:25.000Z</time>
      </trkpt>
      <trkpt lat="47.78469" lon="2.33917">
        <ele>114.318516</ele>
        <time>2021-09-09T07:44:28.000Z</time>
      </trkpt>
      <trkpt lat="47.78461" lon="2.33932">
        <ele>114.306782</ele>
        <time>2021-09-09T07:44:30.000Z</time>
      </trkpt>
      <trkpt lat="47.78431" lon="2.33983">
        <ele>114.266844</ele>
        <time>2021-09-09T07:44:37.000Z</time>
      </trkpt>
      <trkpt lat="47.78393" lon="2.34044">
        <ele>114.217578</ele>
        <time>2021-09-09T07:44:46.000Z</time>
      </trkpt>
      <trkpt lat="47.78363" lon="2.34091">
        <ele>114.193421</ele>
        <time>2021-09-09T07:44:53.000Z</time>
      </trkpt>
      <trkpt lat="47.7833" lon="2.34134">
        <ele>114.176746</ele>
        <time>2021-09-09T07:45:00.000Z</time>
      </trkpt>
      <trkpt lat="47.78325" lon="2.3414">
        <ele>114.174427</ele>
        <time>2021-09-09T07:45:01.000Z</time>
      </trkpt>
      <trkpt lat="47.78284" lon="2.34197">
        <ele>114.152706</ele>
        <time>2021-09-09T07:45:10.000Z</time>
      </trkpt>
      <trkpt lat="47.78279" lon="2.34204">
        <ele>114.150307</ele>
        <time>2021-09-09T07:45:11.000Z</time>
      </trkpt>
      <trkpt lat="47.78242" lon="2.34251">
        <ele>114.11874</ele>
        <time>2021-09-09T07:45:19.000Z</time>
      </trkpt>
      <trkpt lat="47.78197" lon="2.34305">
        <ele>114.033395</ele>
        <time>2021-09-09T07:45:28.000Z</time>
      </trkpt>
      <trkpt lat="47.78155" lon="2.34351">
        <ele>113.957499</ele>
        <time>2021-09-09T07:45:36.000Z</time>
      </trkpt>
      <trkpt lat="47.78117" lon="2.34389">
        <ele>113.889429</ele>
        <time>2021-09-09T07:45:43.000Z</time>
      </trkpt>
      <trkpt lat="47.78075" lon="2.34431">
        <ele>113.856167</ele>
        <time>2021-09-09T07:45:51.000Z</time>
      </trkpt>
      <trkpt lat="47.78044" lon="2.34463">
        <ele>113.842491</ele>
        <time>2021-09-09T07:45:57.000Z</time>
      </trkpt>
      <trkpt lat="47.77996" lon="2.34511">
        <ele>113.8217</ele>
        <time>2021-09-09T07:46:06.000Z</time>
      </trkpt>
      <trkpt lat="47.77991" lon="2.34516">
        <ele>113.81936</ele>
        <time>2021-09-09T07:46:07.000Z</time>
      </trkpt>
      <trkpt lat="47.77944" lon="2.34563">
        <ele>113.824176</ele>
        <time>2021-09-09T07:46:16.000Z</time>
      </trkpt>
      <trkpt lat="47.77939" lon="2.34568">
        <ele>113.832015</ele>
        <time>2021-09-09T07:46:17.000Z</time>
      </trkpt>
      <trkpt lat="47.77898" lon="2.34609">
        <ele>113.894249</ele>
        <time>2021-09-09T07:46:25.000Z</time>
      </trkpt>
      <trkpt lat="47.77863" lon="2.34646">
        <ele>113.947833</ele>
        <time>2021-09-09T07:46:32.000Z</time>
      </trkpt>
      <trkpt lat="47.77832" lon="2.34686">
        <ele>114.000192</ele>
        <time>2021-09-09T07:46:39.000Z</time>
      </trkpt>
      <trkpt lat="47.7779" lon="2.3474">
        <ele>114.083376</ele>
        <time>2021-09-09T07:46:48.000Z</time>
      </trkpt>
      <trkpt lat="47.77753" lon="2.34789">
        <ele>114.168555</ele>
        <time>2021-09-09T07:46:56.000Z</time>
      </trkpt>
      <trkpt lat="47.77715" lon="2.34837">
        <ele>114.253617</ele>
        <time>2021-09-09T07:47:04.000Z</time>
      </trkpt>
      <trkpt lat="47.77674" lon="2.34892">
        <ele>114.34805</ele>
        <time>2021-09-09T07:47:13.000Z</time>
      </trkpt>
      <trkpt lat="47.77637" lon="2.34942">
        <ele>114.419964</ele>
        <time>2021-09-09T07:47:21.000Z</time>
      </trkpt>
      <trkpt lat="47.77604" lon="2.34985">
        <ele>114.482431</ele>
        <time>2021-09-09T07:47:28.000Z</time>
      </trkpt>
      <trkpt lat="47.77574" lon="2.35022">
        <ele>114.538445</ele>
        <time>2021-09-09T07:47:34.000Z</time>
      </trkpt>
      <trkpt lat="47.77533" lon="2.35083">
        <ele>114.611951</ele>
        <time>2021-09-09T07:47:43.000Z</time>
      </trkpt>
      <trkpt lat="47.77498" lon="2.35138">
        <ele>114.651697</ele>
        <time>2021-09-09T07:47:51.000Z</time>
      </trkpt>
      <trkpt lat="47.77463" lon="2.35188">
        <ele>114.689929</ele>
        <time>2021-09-09T07:47:59.000Z</time>
      </trkpt>
      <trkpt lat="47.77426" lon="2.3525">
        <ele>114.733629</ele>
        <time>2021-09-09T07:48:08.000Z</time>
      </trkpt>
      <trkpt lat="47.77415" lon="2.35274">
        <ele>114.721936</ele>
        <time>2021-09-09T07:48:11.000Z</time>
      </trkpt>
      <trkpt lat="47.7741" lon="2.35291">
        <ele>114.700712</ele>
        <time>2021-09-09T07:48:13.000Z</time>
      </trkpt>
      <trkpt lat="47.77395" lon="2.35346">
        <ele>114.634699</ele>
        <time>2021-09-09T07:48:19.000Z</time>
      </trkpt>
      <trkpt lat="47.77374" lon="2.35418">
        <ele>114.547488</ele>
        <time>2021-09-09T07:48:27.000Z</time>
      </trkpt>
      <trkpt lat="47.77352" lon="2.35494">
        <ele>114.454858</ele>
        <time>2021-09-09T07:48:35.000Z</time>
      </trkpt>
      <trkpt lat="47.77328" lon="2.35567">
        <ele>114.374558</ele>
        <time>2021-09-09T07:48:43.000Z</time>
      </trkpt>
      <trkpt lat="47.77325" lon="2.35576">
        <ele>114.364972</ele>
        <time>2021-09-09T07:48:44.000Z</time>
      </trkpt>
      <trkpt lat="47.773" lon="2.35653">
        <ele>114.282124</ele>
        <time>2021-09-09T07:48:53.000Z</time>
      </trkpt>
      <trkpt lat="47.77279" lon="2.35718">
        <ele>114.211742</ele>
        <time>2021-09-09T07:49:01.000Z</time>
      </trkpt>
      <trkpt lat="47.77262" lon="2.35788">
        <ele>114.182007</ele>
        <time>2021-09-09T07:49:09.000Z</time>
      </trkpt>
      <trkpt lat="47.7726" lon="2.35797">
        <ele>114.181939</ele>
        <time>2021-09-09T07:49:10.000Z</time>
      </trkpt>
      <trkpt lat="47.77255" lon="2.35834">
        <ele>114.181672</ele>
        <time>2021-09-09T07:49:14.000Z</time>
      </trkpt>
      <trkpt lat="47.77244" lon="2.35905">
        <ele>114.181153</ele>
        <time>2021-09-09T07:49:22.000Z</time>
      </trkpt>
      <trkpt lat="47.77239" lon="2.35941">
        <ele>114.180898</ele>
        <time>2021-09-09T07:49:26.000Z</time>
      </trkpt>
      <trkpt lat="47.77237" lon="2.35959">
        <ele>114.180767</ele>
        <time>2021-09-09T07:49:28.000Z</time>
      </trkpt>
      <trkpt lat="47.77233" lon="2.35986">
        <ele>114.180568</ele>
        <time>2021-09-09T07:49:31.000Z</time>
      </trkpt>
      <trkpt lat="47.77231" lon="2.36005">
        <ele>114.180436</ele>
        <time>2021-09-09T07:49:33.000Z</time>
      </trkpt>
      <trkpt lat="47.77225" lon="2.36048">
        <ele>114.269441</ele>
        <time>2021-09-09T07:49:38.000Z</time>
      </trkpt>
      <trkpt lat="47.77225" lon="2.36057">
        <ele>114.288952</ele>
        <time>2021-09-09T07:49:39.000Z</time>
      </trkpt>
      <trkpt lat="47.77219" lon="2.36112">
        <ele>114.408866</ele>
        <time>2021-09-09T07:49:45.000Z</time>
      </trkpt>
      <trkpt lat="47.77211" lon="2.36178">
        <ele>114.552486</ele>
        <time>2021-09-09T07:49:52.000Z</time>
      </trkpt>
      <trkpt lat="47.77204" lon="2.36235">
        <ele>114.674927</ele>
        <time>2021-09-09T07:49:58.000Z</time>
      </trkpt>
      <trkpt lat="47.77199" lon="2.36262">
        <ele>114.735278</ele>
        <time>2021-09-09T07:50:02.000Z</time>
      </trkpt>
      <trkpt lat="47.77197" lon="2.36277">
        <ele>114.769119</ele>
        <time>2021-09-09T07:50:06.000Z</time>
      </trkpt>
      <trkpt lat="47.7719" lon="2.36295">
        <ele>114.819631</ele>
        <time>2021-09-09T07:50:10.000Z</time>
      </trkpt>
      <trkpt lat="47.77188" lon="2.363">
        <ele>114.833975</ele>
        <time>2021-09-09T07:50:11.000Z</time>
      </trkpt>
      <trkpt lat="47.77188" lon="2.36319">
        <ele>114.879176</ele>
        <time>2021-09-09T07:50:14.000Z</time>
      </trkpt>
      <trkpt lat="47.77186" lon="2.36356">
        <ele>114.968655</ele>
        <time>2021-09-09T07:50:20.000Z</time>
      </trkpt>
      <trkpt lat="47.7718" lon="2.36376">
        <ele>115.021049</ele>
        <time>2021-09-09T07:50:24.000Z</time>
      </trkpt>
      <trkpt lat="47.77177" lon="2.3638">
        <ele>115.03553</ele>
        <time>2021-09-09T07:50:25.000Z</time>
      </trkpt>
      <trkpt lat="47.77174" lon="2.36384">
        <ele>115.048977</ele>
        <time>2021-09-09T07:50:26.000Z</time>
      </trkpt>
      <trkpt lat="47.77172" lon="2.36395">
        <ele>115.076752</ele>
        <time>2021-09-09T07:50:28.000Z</time>
      </trkpt>
      <trkpt lat="47.77169" lon="2.3642">
        <ele>115.137916</ele>
        <time>2021-09-09T07:50:31.000Z</time>
      </trkpt>
      <trkpt lat="47.77168" lon="2.36429">
        <ele>115.160671</ele>
        <time>2021-09-09T07:50:32.000Z</time>
      </trkpt>
      <trkpt lat="47.77166" lon="2.36449">
        <ele>115.209105</ele>
        <time>2021-09-09T07:50:34.000Z</time>
      </trkpt>
      <trkpt lat="47.77164" lon="2.36468">
        <ele>115.254139</ele>
        <time>2021-09-09T07:50:36.000Z</time>
      </trkpt>
      <trkpt lat="47.7715" lon="2.36516">
        <ele>115.380985</ele>
        <time>2021-09-09T07:50:41.000Z</time>
      </trkpt>
      <trkpt lat="47.77144" lon="2.36534">
        <ele>115.458918</ele>
        <time>2021-09-09T07:50:43.000Z</time>
      </trkpt>
      <trkpt lat="47.77136" lon="2.36549">
        <ele>115.548932</ele>
        <time>2021-09-09T07:50:45.000Z</time>
      </trkpt>
      <trkpt lat="47.77131" lon="2.36556">
        <ele>115.593855</ele>
        <time>2021-09-09T07:50:46.000Z</time>
      </trkpt>
      <trkpt lat="47.77124" lon="2.3657">
        <ele>115.676399</ele>
        <time>2021-09-09T07:50:48.000Z</time>
      </trkpt>
      <trkpt lat="47.77105" lon="2.36619">
        <ele>115.932201</ele>
        <time>2021-09-09T07:50:54.000Z</time>
      </trkpt>
      <trkpt lat="47.77096" lon="2.36642">
        <ele>116.053286</ele>
        <time>2021-09-09T07:50:57.000Z</time>
      </trkpt>
      <trkpt lat="47.77094" lon="2.3665">
        <ele>116.092802</ele>
        <time>2021-09-09T07:50:58.000Z</time>
      </trkpt>
      <trkpt lat="47.77085" lon="2.36672">
        <ele>116.210182</ele>
        <time>2021-09-09T07:51:01.000Z</time>
      </trkpt>
      <trkpt lat="47.77079" lon="2.36685">
        <ele>116.281912</ele>
        <time>2021-09-09T07:51:03.000Z</time>
      </trkpt>
      <trkpt lat="47.77076" lon="2.36699">
        <ele>116.35178</ele>
        <time>2021-09-09T07:51:05.000Z</time>
      </trkpt>
      <trkpt lat="47.77076" lon="2.36706">
        <ele>116.384502</ele>
        <time>2021-09-09T07:51:06.000Z</time>
      </trkpt>
      <trkpt lat="47.77076" lon="2.36722">
        <ele>116.455409</ele>
        <time>2021-09-09T07:51:08.000Z</time>
      </trkpt>
      <trkpt lat="47.77078" lon="2.36739">
        <ele>116.53275</ele>
        <time>2021-09-09T07:51:10.000Z</time>
      </trkpt>
      <trkpt lat="47.77081" lon="2.36754">
        <ele>116.606663</ele>
        <time>2021-09-09T07:51:12.000Z</time>
      </trkpt>
      <trkpt lat="47.77077" lon="2.36764">
        <ele>116.649135</ele>
        <time>2021-09-09T07:51:14.000Z</time>
      </trkpt>
      <trkpt lat="47.77071" lon="2.36766">
        <ele>116.680971</ele>
        <time>2021-09-09T07:51:16.000Z</time>
      </trkpt>
      <trkpt lat="47.77066" lon="2.36772">
        <ele>116.717035</ele>
        <time>2021-09-09T07:51:18.000Z</time>
      </trkpt>
      <trkpt lat="47.77069" lon="2.36789">
        <ele>116.779801</ele>
        <time>2021-09-09T07:51:21.000Z</time>
      </trkpt>
      <trkpt lat="47.77075" lon="2.36819">
        <ele>116.895048</ele>
        <time>2021-09-09T07:51:28.000Z</time>
      </trkpt>
      <trkpt lat="47.77082" lon="2.36838">
        <ele>116.97158</ele>
        <time>2021-09-09T07:51:33.000Z</time>
      </trkpt>
      <trkpt lat="47.77085" lon="2.36839">
        <ele>116.987268</ele>
        <time>2021-09-09T07:51:34.000Z</time>
      </trkpt>
      <trkpt lat="47.77093" lon="2.36839">
        <ele>117.028279</ele>
        <time>2021-09-09T07:51:36.000Z</time>
      </trkpt>
      <trkpt lat="47.77125" lon="2.36836">
        <ele>117.199905</ele>
        <time>2021-09-09T07:51:43.000Z</time>
      </trkpt>
      <trkpt lat="47.77149" lon="2.36831">
        <ele>117.330511</ele>
        <time>2021-09-09T07:51:49.000Z</time>
      </trkpt>
      <trkpt lat="47.77155" lon="2.36835">
        <ele>117.364293</ele>
        <time>2021-09-09T07:51:51.000Z</time>
      </trkpt>
      <trkpt lat="47.77156" lon="2.36839">
        <ele>117.381747</ele>
        <time>2021-09-09T07:51:52.000Z</time>
      </trkpt>
      <trkpt lat="47.7715" lon="2.36847">
        <ele>117.423726</ele>
        <time>2021-09-09T07:51:54.000Z</time>
      </trkpt>
      <trkpt lat="47.77146" lon="2.36849">
        <ele>117.447585</ele>
        <time>2021-09-09T07:51:55.000Z</time>
      </trkpt>
      <trkpt lat="47.77123" lon="2.36855">
        <ele>117.569817</ele>
        <time>2021-09-09T07:52:00.000Z</time>
      </trkpt>
      <trkpt lat="47.77102" lon="2.36863">
        <ele>117.669382</ele>
        <time>2021-09-09T07:52:05.000Z</time>
      </trkpt>
      <trkpt lat="47.77077" lon="2.3687">
        <ele>117.783569</ele>
        <time>2021-09-09T07:52:11.000Z</time>
      </trkpt>
      <trkpt lat="47.77069" lon="2.36873">
        <ele>117.822509</ele>
        <time>2021-09-09T07:52:13.000Z</time>
      </trkpt>
      <trkpt lat="47.77056" lon="2.36878">
        <ele>117.88213</ele>
        <time>2021-09-09T07:52:16.000Z</time>
      </trkpt>
      <trkpt lat="47.7703" lon="2.36887">
        <ele>118.002744</ele>
        <time>2021-09-09T07:52:22.000Z</time>
      </trkpt>
      <trkpt lat="47.77021" lon="2.36891">
        <ele>118.044959</ele>
        <time>2021-09-09T07:52:24.000Z</time>
      </trkpt>
      <trkpt lat="47.77007" lon="2.36897">
        <ele>118.110163</ele>
        <time>2021-09-09T07:52:27.000Z</time>
      </trkpt>
      <trkpt lat="47.76971" lon="2.36908">
        <ele>118.275328</ele>
        <time>2021-09-09T07:52:34.000Z</time>
      </trkpt>
      <trkpt lat="47.76931" lon="2.36922">
        <ele>118.449813</ele>
        <time>2021-09-09T07:52:41.000Z</time>
      </trkpt>
      <trkpt lat="47.76897" lon="2.36933">
        <ele>118.584026</ele>
        <time>2021-09-09T07:52:47.000Z</time>
      </trkpt>
      <trkpt lat="47.76869" lon="2.36942">
        <ele>118.696008</ele>
        <time>2021-09-09T07:52:52.000Z</time>
      </trkpt>
      <trkpt lat="47.76835" lon="2.36954">
        <ele>118.831966</ele>
        <time>2021-09-09T07:52:58.000Z</time>
      </trkpt>
      <trkpt lat="47.76807" lon="2.36964">
        <ele>118.944423</ele>
        <time>2021-09-09T07:53:03.000Z</time>
      </trkpt>
      <trkpt lat="47.76771" lon="2.36977">
        <ele>119.079615</ele>
        <time>2021-09-09T07:53:09.000Z</time>
      </trkpt>
      <trkpt lat="47.76735" lon="2.36991">
        <ele>118.945962</ele>
        <time>2021-09-09T07:53:15.000Z</time>
      </trkpt>
      <trkpt lat="47.76719" lon="2.36996">
        <ele>118.887335</ele>
        <time>2021-09-09T07:53:18.000Z</time>
      </trkpt>
      <trkpt lat="47.76714" lon="2.36999">
        <ele>118.870943</ele>
        <time>2021-09-09T07:53:19.000Z</time>
      </trkpt>
      <trkpt lat="47.76711" lon="2.37003">
        <ele>118.855679</ele>
        <time>2021-09-09T07:53:20.000Z</time>
      </trkpt>
      <trkpt lat="47.76711" lon="2.37009">
        <ele>118.840003</ele>
        <time>2021-09-09T07:53:21.000Z</time>
      </trkpt>
      <trkpt lat="47.76716" lon="2.37032">
        <ele>118.782587</ele>
        <time>2021-09-09T07:53:24.000Z</time>
      </trkpt>
      <trkpt lat="47.76718" lon="2.3704">
        <ele>118.761776</ele>
        <time>2021-09-09T07:53:25.000Z</time>
      </trkpt>
      <trkpt lat="47.76734" lon="2.37094">
        <ele>118.619141</ele>
        <time>2021-09-09T07:53:31.000Z</time>
      </trkpt>
      <trkpt lat="47.76749" lon="2.37167">
        <ele>118.439155</ele>
        <time>2021-09-09T07:53:38.000Z</time>
      </trkpt>
      <trkpt lat="47.76753" lon="2.37185">
        <ele>118.428669</ele>
        <time>2021-09-09T07:53:40.000Z</time>
      </trkpt>
      <trkpt lat="47.76757" lon="2.37201">
        <ele>118.419444</ele>
        <time>2021-09-09T07:53:42.000Z</time>
      </trkpt>
      <trkpt lat="47.76765" lon="2.37238">
        <ele>118.398101</ele>
        <time>2021-09-09T07:53:46.000Z</time>
      </trkpt>
      <trkpt lat="47.76769" lon="2.37255">
        <ele>118.387935</ele>
        <time>2021-09-09T07:53:48.000Z</time>
      </trkpt>
      <trkpt lat="47.76773" lon="2.3728">
        <ele>118.374178</ele>
        <time>2021-09-09T07:53:51.000Z</time>
      </trkpt>
      <trkpt lat="47.76778" lon="2.37295">
        <ele>118.365088</ele>
        <time>2021-09-09T07:53:53.000Z</time>
      </trkpt>
      <trkpt lat="47.76786" lon="2.37334">
        <ele>118.342367</ele>
        <time>2021-09-09T07:53:58.000Z</time>
      </trkpt>
      <trkpt lat="47.76793" lon="2.37366">
        <ele>118.324135</ele>
        <time>2021-09-09T07:54:02.000Z</time>
      </trkpt>
      <trkpt lat="47.76797" lon="2.37382">
        <ele>118.314799</ele>
        <time>2021-09-09T07:54:06.000Z</time>
      </trkpt>
      <trkpt lat="47.76798" lon="2.37383">
        <ele>118.314066</ele>
        <time>2021-09-09T07:54:08.000Z</time>
      </trkpt>
      <trkpt lat="47.76798" lon="2.37386">
        <ele>118.312466</ele>
        <time>2021-09-09T07:54:17.000Z</time>
      </trkpt>
      <trkpt lat="47.768" lon="2.37389">
        <ele>118.310644</ele>
        <time>2021-09-09T07:54:18.000Z</time>
      </trkpt>
      <trkpt lat="47.76809" lon="2.37406">
        <ele>118.298581</ele>
        <time>2021-09-09T07:54:22.000Z</time>
      </trkpt>
      <trkpt lat="47.7682" lon="2.37441">
        <ele>118.430874</ele>
        <time>2021-09-09T07:54:27.000Z</time>
      </trkpt>
      <trkpt lat="47.76836" lon="2.37486">
        <ele>118.671821</ele>
        <time>2021-09-09T07:54:33.000Z</time>
      </trkpt>
      <trkpt lat="47.7686" lon="2.37554">
        <ele>119.034577</ele>
        <time>2021-09-09T07:54:42.000Z</time>
      </trkpt>
      <trkpt lat="47.76878" lon="2.37607">
        <ele>119.314363</ele>
        <time>2021-09-09T07:54:50.000Z</time>
      </trkpt>
      <trkpt lat="47.76886" lon="2.37628">
        <ele>119.425367</ele>
        <time>2021-09-09T07:54:55.000Z</time>
      </trkpt>
      <trkpt lat="47.76889" lon="2.37633">
        <ele>119.461175</ele>
        <time>2021-09-09T07:55:00.000Z</time>
      </trkpt>
      <trkpt lat="47.76893" lon="2.37647">
        <ele>119.532283</ele>
        <time>2021-09-09T07:55:19.000Z</time>
      </trkpt>
      <trkpt lat="47.76895" lon="2.37657">
        <ele>119.573552</ele>
        <time>2021-09-09T07:55:21.000Z</time>
      </trkpt>
      <trkpt lat="47.76906" lon="2.37692">
        <ele>119.722514</ele>
        <time>2021-09-09T07:55:26.000Z</time>
      </trkpt>
      <trkpt lat="47.76921" lon="2.37733">
        <ele>119.901113</ele>
        <time>2021-09-09T07:55:31.000Z</time>
      </trkpt>
      <trkpt lat="47.76924" lon="2.37741">
        <ele>119.937541</ele>
        <time>2021-09-09T07:55:32.000Z</time>
      </trkpt>
      <trkpt lat="47.76941" lon="2.37796">
        <ele>120.166724</ele>
        <time>2021-09-09T07:55:38.000Z</time>
      </trkpt>
      <trkpt lat="47.7696" lon="2.37851">
        <ele>120.40169</ele>
        <time>2021-09-09T07:55:44.000Z</time>
      </trkpt>
      <trkpt lat="47.76976" lon="2.37902">
        <ele>120.570164</ele>
        <time>2021-09-09T07:55:50.000Z</time>
      </trkpt>
      <trkpt lat="47.76979" lon="2.37911">
        <ele>120.565281</ele>
        <time>2021-09-09T07:55:51.000Z</time>
      </trkpt>
      <trkpt lat="47.76993" lon="2.37955">
        <ele>120.540833</ele>
        <time>2021-09-09T07:55:56.000Z</time>
      </trkpt>
      <trkpt lat="47.77" lon="2.37971">
        <ele>120.531392</ele>
        <time>2021-09-09T07:55:58.000Z</time>
      </trkpt>
      <trkpt lat="47.77017" lon="2.38023">
        <ele>120.502614</ele>
        <time>2021-09-09T07:56:04.000Z</time>
      </trkpt>
      <trkpt lat="47.77031" lon="2.38066">
        <ele>120.47851</ele>
        <time>2021-09-09T07:56:09.000Z</time>
      </trkpt>
      <trkpt lat="47.77047" lon="2.38116">
        <ele>120.451078</ele>
        <time>2021-09-09T07:56:15.000Z</time>
      </trkpt>
      <trkpt lat="47.77063" lon="2.38162">
        <ele>120.400172</ele>
        <time>2021-09-09T07:56:21.000Z</time>
      </trkpt>
      <trkpt lat="47.77082" lon="2.38217">
        <ele>120.32239</ele>
        <time>2021-09-09T07:56:28.000Z</time>
      </trkpt>
      <trkpt lat="47.77091" lon="2.38249">
        <ele>120.278533</ele>
        <time>2021-09-09T07:56:32.000Z</time>
      </trkpt>
      <trkpt lat="47.77097" lon="2.38265">
        <ele>120.255807</ele>
        <time>2021-09-09T07:56:34.000Z</time>
      </trkpt>
      <trkpt lat="47.7711" lon="2.383">
        <ele>120.205723</ele>
        <time>2021-09-09T07:56:39.000Z</time>
      </trkpt>
      <trkpt lat="47.77116" lon="2.3831">
        <ele>120.189207</ele>
        <time>2021-09-09T07:56:41.000Z</time>
      </trkpt>
      <trkpt lat="47.77127" lon="2.38325">
        <ele>120.160642</ele>
        <time>2021-09-09T07:56:44.000Z</time>
      </trkpt>
      <trkpt lat="47.77131" lon="2.38331">
        <ele>120.150735</ele>
        <time>2021-09-09T07:56:45.000Z</time>
      </trkpt>
      <trkpt lat="47.77136" lon="2.38346">
        <ele>120.130416</ele>
        <time>2021-09-09T07:56:47.000Z</time>
      </trkpt>
      <trkpt lat="47.77137" lon="2.38354">
        <ele>120.120393</ele>
        <time>2021-09-09T07:56:48.000Z</time>
      </trkpt>
      <trkpt lat="47.77142" lon="2.38394">
        <ele>120.095206</ele>
        <time>2021-09-09T07:56:53.000Z</time>
      </trkpt>
      <trkpt lat="47.77143" lon="2.38403">
        <ele>120.091652</ele>
        <time>2021-09-09T07:56:54.000Z</time>
      </trkpt>
      <trkpt lat="47.77152" lon="2.38474">
        <ele>120.062587</ele>
        <time>2021-09-09T07:57:02.000Z</time>
      </trkpt>
      <trkpt lat="47.77156" lon="2.38529">
        <ele>120.040083</ele>
        <time>2021-09-09T07:57:08.000Z</time>
      </trkpt>
      <trkpt lat="47.77161" lon="2.38612">
        <ele>120.006894</ele>
        <time>2021-09-09T07:57:17.000Z</time>
      </trkpt>
      <trkpt lat="47.77164" lon="2.38685">
        <ele>119.966353</ele>
        <time>2021-09-09T07:57:25.000Z</time>
      </trkpt>
      <trkpt lat="47.7717" lon="2.38772">
        <ele>119.91429</ele>
        <time>2021-09-09T07:57:34.000Z</time>
      </trkpt>
      <trkpt lat="47.77176" lon="2.3886">
        <ele>119.861566</ele>
        <time>2021-09-09T07:57:43.000Z</time>
      </trkpt>
      <trkpt lat="47.77179" lon="2.38949">
        <ele>119.810846</ele>
        <time>2021-09-09T07:57:52.000Z</time>
      </trkpt>
      <trkpt lat="47.77178" lon="2.39025">
        <ele>119.768244</ele>
        <time>2021-09-09T07:58:00.000Z</time>
      </trkpt>
      <trkpt lat="47.77177" lon="2.39112">
        <ele>119.719654</ele>
        <time>2021-09-09T07:58:09.000Z</time>
      </trkpt>
      <trkpt lat="47.77176" lon="2.39122">
        <ele>119.714285</ele>
        <time>2021-09-09T07:58:10.000Z</time>
      </trkpt>
      <trkpt lat="47.77172" lon="2.39181">
        <ele>119.695661</ele>
        <time>2021-09-09T07:58:16.000Z</time>
      </trkpt>
      <trkpt lat="47.77161" lon="2.39248">
        <ele>119.711594</ele>
        <time>2021-09-09T07:58:23.000Z</time>
      </trkpt>
      <trkpt lat="47.77145" lon="2.3931">
        <ele>119.727113</ele>
        <time>2021-09-09T07:58:30.000Z</time>
      </trkpt>
      <trkpt lat="47.77135" lon="2.39346">
        <ele>119.735991</ele>
        <time>2021-09-09T07:58:34.000Z</time>
      </trkpt>
      <trkpt lat="47.7713" lon="2.39363">
        <ele>119.740434</ele>
        <time>2021-09-09T07:58:36.000Z</time>
      </trkpt>
      <trkpt lat="47.77101" lon="2.3944">
        <ele>119.781711</ele>
        <time>2021-09-09T07:58:45.000Z</time>
      </trkpt>
      <trkpt lat="47.77076" lon="2.39506">
        <ele>119.84951</ele>
        <time>2021-09-09T07:58:53.000Z</time>
      </trkpt>
      <trkpt lat="47.77058" lon="2.39578">
        <ele>119.918052</ele>
        <time>2021-09-09T07:59:01.000Z</time>
      </trkpt>
      <trkpt lat="47.7704" lon="2.3965">
        <ele>119.985905</ele>
        <time>2021-09-09T07:59:09.000Z</time>
      </trkpt>
      <trkpt lat="47.77033" lon="2.39674">
        <ele>120.012819</ele>
        <time>2021-09-09T07:59:12.000Z</time>
      </trkpt>
      <trkpt lat="47.77027" lon="2.39689">
        <ele>120.032055</ele>
        <time>2021-09-09T07:59:14.000Z</time>
      </trkpt>
      <trkpt lat="47.77003" lon="2.3975">
        <ele>120.109154</ele>
        <time>2021-09-09T07:59:22.000Z</time>
      </trkpt>
      <trkpt lat="47.77001" lon="2.39757">
        <ele>120.11803</ele>
        <time>2021-09-09T07:59:23.000Z</time>
      </trkpt>
      <trkpt lat="47.76984" lon="2.398">
        <ele>120.170968</ele>
        <time>2021-09-09T07:59:29.000Z</time>
      </trkpt>
      <trkpt lat="47.76969" lon="2.39846">
        <ele>120.226617</ele>
        <time>2021-09-09T07:59:36.000Z</time>
      </trkpt>
      <trkpt lat="47.76962" lon="2.39868">
        <ele>120.253528</ele>
        <time>2021-09-09T07:59:39.000Z</time>
      </trkpt>
      <trkpt lat="47.76957" lon="2.39884">
        <ele>120.27273</ele>
        <time>2021-09-09T07:59:41.000Z</time>
      </trkpt>
      <trkpt lat="47.76935" lon="2.39948">
        <ele>120.373991</ele>
        <time>2021-09-09T07:59:49.000Z</time>
      </trkpt>
      <trkpt lat="47.76925" lon="2.39978">
        <ele>120.423009</ele>
        <time>2021-09-09T07:59:53.000Z</time>
      </trkpt>
      <trkpt lat="47.7692" lon="2.39993">
        <ele>120.449019</ele>
        <time>2021-09-09T07:59:55.000Z</time>
      </trkpt>
      <trkpt lat="47.769" lon="2.40051">
        <ele>120.543364</ele>
        <time>2021-09-09T08:00:02.000Z</time>
      </trkpt>
      <trkpt lat="47.76874" lon="2.40126">
        <ele>120.667568</ele>
        <time>2021-09-09T08:00:11.000Z</time>
      </trkpt>
      <trkpt lat="47.76871" lon="2.40135">
        <ele>120.681557</ele>
        <time>2021-09-09T08:00:12.000Z</time>
      </trkpt>
      <trkpt lat="47.76855" lon="2.40186">
        <ele>120.761774</ele>
        <time>2021-09-09T08:00:18.000Z</time>
      </trkpt>
      <trkpt lat="47.76853" lon="2.40194">
        <ele>120.774636</ele>
        <time>2021-09-09T08:00:19.000Z</time>
      </trkpt>
      <trkpt lat="47.76845" lon="2.40228">
        <ele>120.82521</ele>
        <time>2021-09-09T08:00:23.000Z</time>
      </trkpt>
      <trkpt lat="47.76841" lon="2.40254">
        <ele>120.862503</ele>
        <time>2021-09-09T08:00:26.000Z</time>
      </trkpt>
      <trkpt lat="47.76827" lon="2.40323">
        <ele>120.965228</ele>
        <time>2021-09-09T08:00:34.000Z</time>
      </trkpt>
      <trkpt lat="47.76826" lon="2.40332">
        <ele>120.978491</ele>
        <time>2021-09-09T08:00:35.000Z</time>
      </trkpt>
      <trkpt lat="47.76819" lon="2.40377">
        <ele>121.043759</ele>
        <time>2021-09-09T08:00:40.000Z</time>
      </trkpt>
      <trkpt lat="47.76807" lon="2.40447">
        <ele>121.045788</ele>
        <time>2021-09-09T08:00:48.000Z</time>
      </trkpt>
      <trkpt lat="47.76795" lon="2.40518">
        <ele>121.036476</ele>
        <time>2021-09-09T08:00:56.000Z</time>
      </trkpt>
      <trkpt lat="47.76783" lon="2.40587">
        <ele>121.027347</ele>
        <time>2021-09-09T08:01:04.000Z</time>
      </trkpt>
      <trkpt lat="47.7678" lon="2.40612">
        <ele>121.024017</ele>
        <time>2021-09-09T08:01:07.000Z</time>
      </trkpt>
      <trkpt lat="47.76774" lon="2.40638">
        <ele>121.020568</ele>
        <time>2021-09-09T08:01:10.000Z</time>
      </trkpt>
      <trkpt lat="47.7676" lon="2.40716">
        <ele>120.998417</ele>
        <time>2021-09-09T08:01:19.000Z</time>
      </trkpt>
      <trkpt lat="47.76757" lon="2.40734">
        <ele>120.993065</ele>
        <time>2021-09-09T08:01:21.000Z</time>
      </trkpt>
      <trkpt lat="47.76747" lon="2.40797">
        <ele>120.974733</ele>
        <time>2021-09-09T08:01:28.000Z</time>
      </trkpt>
      <trkpt lat="47.76739" lon="2.4087">
        <ele>120.953944</ele>
        <time>2021-09-09T08:01:36.000Z</time>
      </trkpt>
      <trkpt lat="47.7673" lon="2.40945">
        <ele>120.952561</ele>
        <time>2021-09-09T08:01:44.000Z</time>
      </trkpt>
      <trkpt lat="47.76721" lon="2.41011">
        <ele>120.966538</ele>
        <time>2021-09-09T08:01:51.000Z</time>
      </trkpt>
      <trkpt lat="47.76708" lon="2.41093">
        <ele>120.984233</ele>
        <time>2021-09-09T08:02:00.000Z</time>
      </trkpt>
      <trkpt lat="47.76705" lon="2.41111">
        <ele>120.988082</ele>
        <time>2021-09-09T08:02:02.000Z</time>
      </trkpt>
      <trkpt lat="47.76694" lon="2.41182">
        <ele>120.989213</ele>
        <time>2021-09-09T08:02:10.000Z</time>
      </trkpt>
      <trkpt lat="47.76683" lon="2.41242">
        <ele>120.949122</ele>
        <time>2021-09-09T08:02:17.000Z</time>
      </trkpt>
      <trkpt lat="47.76668" lon="2.41328">
        <ele>120.891717</ele>
        <time>2021-09-09T08:02:27.000Z</time>
      </trkpt>
      <trkpt lat="47.7666" lon="2.41413">
        <ele>120.836232</ele>
        <time>2021-09-09T08:02:36.000Z</time>
      </trkpt>
      <trkpt lat="47.76655" lon="2.41476">
        <ele>120.795576</ele>
        <time>2021-09-09T08:02:43.000Z</time>
      </trkpt>
      <trkpt lat="47.76653" lon="2.415">
        <ele>120.779513</ele>
        <time>2021-09-09T08:02:46.000Z</time>
      </trkpt>
      <trkpt lat="47.76651" lon="2.41518">
        <ele>120.768109</ele>
        <time>2021-09-09T08:02:48.000Z</time>
      </trkpt>
      <trkpt lat="47.76646" lon="2.41601">
        <ele>120.713708</ele>
        <time>2021-09-09T08:02:57.000Z</time>
      </trkpt>
      <trkpt lat="47.76641" lon="2.41683">
        <ele>120.660606</ele>
        <time>2021-09-09T08:03:06.000Z</time>
      </trkpt>
      <trkpt lat="47.7664" lon="2.41692">
        <ele>120.654757</ele>
        <time>2021-09-09T08:03:07.000Z</time>
      </trkpt>
      <trkpt lat="47.76636" lon="2.41756">
        <ele>120.646908</ele>
        <time>2021-09-09T08:03:14.000Z</time>
      </trkpt>
      <trkpt lat="47.76623" lon="2.41816">
        <ele>120.639658</ele>
        <time>2021-09-09T08:03:21.000Z</time>
      </trkpt>
      <trkpt lat="47.76606" lon="2.41884">
        <ele>120.631398</ele>
        <time>2021-09-09T08:03:29.000Z</time>
      </trkpt>
      <trkpt lat="47.76595" lon="2.41957">
        <ele>120.627208</ele>
        <time>2021-09-09T08:03:37.000Z</time>
      </trkpt>
      <trkpt lat="47.76588" lon="2.42039">
        <ele>120.681991</ele>
        <time>2021-09-09T08:03:46.000Z</time>
      </trkpt>
      <trkpt lat="47.76584" lon="2.42066">
        <ele>120.699984</ele>
        <time>2021-09-09T08:03:49.000Z</time>
      </trkpt>
      <trkpt lat="47.76572" lon="2.42138">
        <ele>120.74909</ele>
        <time>2021-09-09T08:03:57.000Z</time>
      </trkpt>
      <trkpt lat="47.76558" lon="2.42219">
        <ele>120.802965</ele>
        <time>2021-09-09T08:04:06.000Z</time>
      </trkpt>
      <trkpt lat="47.76556" lon="2.42228">
        <ele>120.80722</ele>
        <time>2021-09-09T08:04:07.000Z</time>
      </trkpt>
      <trkpt lat="47.76543" lon="2.42299">
        <ele>120.840709</ele>
        <time>2021-09-09T08:04:15.000Z</time>
      </trkpt>
      <trkpt lat="47.76537" lon="2.42335">
        <ele>120.857466</ele>
        <time>2021-09-09T08:04:19.000Z</time>
      </trkpt>
      <trkpt lat="47.76536" lon="2.42363">
        <ele>120.869986</ele>
        <time>2021-09-09T08:04:22.000Z</time>
      </trkpt>
      <trkpt lat="47.76538" lon="2.42381">
        <ele>120.878466</ele>
        <time>2021-09-09T08:04:24.000Z</time>
      </trkpt>
      <trkpt lat="47.76542" lon="2.424">
        <ele>120.887121</ele>
        <time>2021-09-09T08:04:26.000Z</time>
      </trkpt>
      <trkpt lat="47.76544" lon="2.42409">
        <ele>120.891465</ele>
        <time>2021-09-09T08:04:27.000Z</time>
      </trkpt>
      <trkpt lat="47.76561" lon="2.42479">
        <ele>120.926671</ele>
        <time>2021-09-09T08:04:35.000Z</time>
      </trkpt>
      <trkpt lat="47.76578" lon="2.42548">
        <ele>120.971957</ele>
        <time>2021-09-09T08:04:43.000Z</time>
      </trkpt>
      <trkpt lat="47.76586" lon="2.42603">
        <ele>121.006099</ele>
        <time>2021-09-09T08:04:49.000Z</time>
      </trkpt>
      <trkpt lat="47.76585" lon="2.42658">
        <ele>121.039923</ele>
        <time>2021-09-09T08:04:55.000Z</time>
      </trkpt>
      <trkpt lat="47.76582" lon="2.42722">
        <ele>121.079023</ele>
        <time>2021-09-09T08:05:02.000Z</time>
      </trkpt>
      <trkpt lat="47.76578" lon="2.42782">
        <ele>121.14012</ele>
        <time>2021-09-09T08:05:09.000Z</time>
      </trkpt>
      <trkpt lat="47.76573" lon="2.42855">
        <ele>121.21903</ele>
        <time>2021-09-09T08:05:17.000Z</time>
      </trkpt>
      <trkpt lat="47.76571" lon="2.42938">
        <ele>121.308423</ele>
        <time>2021-09-09T08:05:26.000Z</time>
      </trkpt>
      <trkpt lat="47.76576" lon="2.43021">
        <ele>121.356396</ele>
        <time>2021-09-09T08:05:35.000Z</time>
      </trkpt>
      <trkpt lat="47.76579" lon="2.43103">
        <ele>121.292611</ele>
        <time>2021-09-09T08:05:44.000Z</time>
      </trkpt>
      <trkpt lat="47.76579" lon="2.43112">
        <ele>121.285612</ele>
        <time>2021-09-09T08:05:45.000Z</time>
      </trkpt>
      <trkpt lat="47.76578" lon="2.43193">
        <ele>121.222691</ele>
        <time>2021-09-09T08:05:54.000Z</time>
      </trkpt>
      <trkpt lat="47.76577" lon="2.43201">
        <ele>121.216065</ele>
        <time>2021-09-09T08:05:55.000Z</time>
      </trkpt>
      <trkpt lat="47.76575" lon="2.43263">
        <ele>121.167607</ele>
        <time>2021-09-09T08:06:02.000Z</time>
      </trkpt>
      <trkpt lat="47.7657" lon="2.43327">
        <ele>121.183387</ele>
        <time>2021-09-09T08:06:09.000Z</time>
      </trkpt>
      <trkpt lat="47.7656" lon="2.43398">
        <ele>121.203543</ele>
        <time>2021-09-09T08:06:17.000Z</time>
      </trkpt>
      <trkpt lat="47.76549" lon="2.43477">
        <ele>121.225849</ele>
        <time>2021-09-09T08:06:26.000Z</time>
      </trkpt>
      <trkpt lat="47.76546" lon="2.43494">
        <ele>121.230765</ele>
        <time>2021-09-09T08:06:28.000Z</time>
      </trkpt>
      <trkpt lat="47.76536" lon="2.43571">
        <ele>121.286527</ele>
        <time>2021-09-09T08:06:37.000Z</time>
      </trkpt>
      <trkpt lat="47.76528" lon="2.43642">
        <ele>121.361025</ele>
        <time>2021-09-09T08:06:45.000Z</time>
      </trkpt>
      <trkpt lat="47.76518" lon="2.43729">
        <ele>121.453349</ele>
        <time>2021-09-09T08:06:55.000Z</time>
      </trkpt>
      <trkpt lat="47.76517" lon="2.43737">
        <ele>121.462714</ele>
        <time>2021-09-09T08:06:56.000Z</time>
      </trkpt>
      <trkpt lat="47.76507" lon="2.43815">
        <ele>121.557951</ele>
        <time>2021-09-09T08:07:05.000Z</time>
      </trkpt>
      <trkpt lat="47.76497" lon="2.43882">
        <ele>121.666913</ele>
        <time>2021-09-09T08:07:13.000Z</time>
      </trkpt>
      <trkpt lat="47.76484" lon="2.43952">
        <ele>121.780793</ele>
        <time>2021-09-09T08:07:21.000Z</time>
      </trkpt>
      <trkpt lat="47.76469" lon="2.44028">
        <ele>121.905982</ele>
        <time>2021-09-09T08:07:30.000Z</time>
      </trkpt>
      <trkpt lat="47.76457" lon="2.44088">
        <ele>121.998097</ele>
        <time>2021-09-09T08:07:37.000Z</time>
      </trkpt>
      <trkpt lat="47.76438" lon="2.44165">
        <ele>122.111529</ele>
        <time>2021-09-09T08:07:46.000Z</time>
      </trkpt>
      <trkpt lat="47.76421" lon="2.44233">
        <ele>122.211522</ele>
        <time>2021-09-09T08:07:54.000Z</time>
      </trkpt>
      <trkpt lat="47.76402" lon="2.44301">
        <ele>122.314209</ele>
        <time>2021-09-09T08:08:02.000Z</time>
      </trkpt>
      <trkpt lat="47.76382" lon="2.44348">
        <ele>122.379063</ele>
        <time>2021-09-09T08:08:08.000Z</time>
      </trkpt>
      <trkpt lat="47.76367" lon="2.44386">
        <ele>122.430613</ele>
        <time>2021-09-09T08:08:13.000Z</time>
      </trkpt>
      <trkpt lat="47.76345" lon="2.44466">
        <ele>122.533648</ele>
        <time>2021-09-09T08:08:23.000Z</time>
      </trkpt>
      <trkpt lat="47.76325" lon="2.44542">
        <ele>122.628195</ele>
        <time>2021-09-09T08:08:32.000Z</time>
      </trkpt>
      <trkpt lat="47.76323" lon="2.4455">
        <ele>122.64058</ele>
        <time>2021-09-09T08:08:33.000Z</time>
      </trkpt>
      <trkpt lat="47.76303" lon="2.44605">
        <ele>122.730664</ele>
        <time>2021-09-09T08:08:40.000Z</time>
      </trkpt>
      <trkpt lat="47.76279" lon="2.44668">
        <ele>122.832979</ele>
        <time>2021-09-09T08:08:48.000Z</time>
      </trkpt>
      <trkpt lat="47.76253" lon="2.44737">
        <ele>122.946175</ele>
        <time>2021-09-09T08:08:57.000Z</time>
      </trkpt>
      <trkpt lat="47.76234" lon="2.44791">
        <ele>123.019084</ele>
        <time>2021-09-09T08:09:04.000Z</time>
      </trkpt>
      <trkpt lat="47.7621" lon="2.44852">
        <ele>123.05584</ele>
        <time>2021-09-09T08:09:12.000Z</time>
      </trkpt>
      <trkpt lat="47.76184" lon="2.44912">
        <ele>123.092651</ele>
        <time>2021-09-09T08:09:20.000Z</time>
      </trkpt>
      <trkpt lat="47.76163" lon="2.44965">
        <ele>123.124991</ele>
        <time>2021-09-09T08:09:27.000Z</time>
      </trkpt>
      <trkpt lat="47.76138" lon="2.45035">
        <ele>123.117462</ele>
        <time>2021-09-09T08:09:36.000Z</time>
      </trkpt>
      <trkpt lat="47.76115" lon="2.45106">
        <ele>123.034138</ele>
        <time>2021-09-09T08:09:45.000Z</time>
      </trkpt>
      <trkpt lat="47.76094" lon="2.45171">
        <ele>122.958429</ele>
        <time>2021-09-09T08:09:53.000Z</time>
      </trkpt>
      <trkpt lat="47.76063" lon="2.45247">
        <ele>122.867948</ele>
        <time>2021-09-09T08:10:03.000Z</time>
      </trkpt>
      <trkpt lat="47.7604" lon="2.45297">
        <ele>122.839527</ele>
        <time>2021-09-09T08:10:10.000Z</time>
      </trkpt>
      <trkpt lat="47.76014" lon="2.45347">
        <ele>122.81002</ele>
        <time>2021-09-09T08:10:17.000Z</time>
      </trkpt>
      <trkpt lat="47.75994" lon="2.4539">
        <ele>122.785167</ele>
        <time>2021-09-09T08:10:23.000Z</time>
      </trkpt>
      <trkpt lat="47.75977" lon="2.45426">
        <ele>122.764492</ele>
        <time>2021-09-09T08:10:28.000Z</time>
      </trkpt>
      <trkpt lat="47.75948" lon="2.45494">
        <ele>122.72489</ele>
        <time>2021-09-09T08:10:37.000Z</time>
      </trkpt>
      <trkpt lat="47.75933" lon="2.45533">
        <ele>122.701433</ele>
        <time>2021-09-09T08:10:42.000Z</time>
      </trkpt>
      <trkpt lat="47.75928" lon="2.45549">
        <ele>122.691924</ele>
        <time>2021-09-09T08:10:44.000Z</time>
      </trkpt>
      <trkpt lat="47.75908" lon="2.45604">
        <ele>122.659303</ele>
        <time>2021-09-09T08:10:51.000Z</time>
      </trkpt>
      <trkpt lat="47.75883" lon="2.45664">
        <ele>122.622091</ele>
        <time>2021-09-09T08:10:59.000Z</time>
      </trkpt>
      <trkpt lat="47.7586" lon="2.45716">
        <ele>122.632711</ele>
        <time>2021-09-09T08:11:06.000Z</time>
      </trkpt>
      <trkpt lat="47.7583" lon="2.45783">
        <ele>122.716823</ele>
        <time>2021-09-09T08:11:15.000Z</time>
      </trkpt>
      <trkpt lat="47.75805" lon="2.45841">
        <ele>122.790096</ele>
        <time>2021-09-09T08:11:23.000Z</time>
      </trkpt>
      <trkpt lat="47.75782" lon="2.45892">
        <ele>122.854753</ele>
        <time>2021-09-09T08:11:30.000Z</time>
      </trkpt>
      <trkpt lat="47.75756" lon="2.45951">
        <ele>122.907368</ele>
        <time>2021-09-09T08:11:38.000Z</time>
      </trkpt>
      <trkpt lat="47.75737" lon="2.45995">
        <ele>122.934559</ele>
        <time>2021-09-09T08:11:44.000Z</time>
      </trkpt>
      <trkpt lat="47.75709" lon="2.46059">
        <ele>122.974537</ele>
        <time>2021-09-09T08:11:53.000Z</time>
      </trkpt>
      <trkpt lat="47.75688" lon="2.46108">
        <ele>123.005238</ele>
        <time>2021-09-09T08:12:00.000Z</time>
      </trkpt>
      <trkpt lat="47.75668" lon="2.46159">
        <ele>122.998742</ele>
        <time>2021-09-09T08:12:07.000Z</time>
      </trkpt>
      <trkpt lat="47.75663" lon="2.46174">
        <ele>122.97508</ele>
        <time>2021-09-09T08:12:09.000Z</time>
      </trkpt>
      <trkpt lat="47.75652" lon="2.46202">
        <ele>122.928036</ele>
        <time>2021-09-09T08:12:13.000Z</time>
      </trkpt>
      <trkpt lat="47.75623" lon="2.46267">
        <ele>122.815627</ele>
        <time>2021-09-09T08:12:22.000Z</time>
      </trkpt>
      <trkpt lat="47.75593" lon="2.4633">
        <ele>122.704864</ele>
        <time>2021-09-09T08:12:31.000Z</time>
      </trkpt>
      <trkpt lat="47.75574" lon="2.46362">
        <ele>122.644182</ele>
        <time>2021-09-09T08:12:36.000Z</time>
      </trkpt>
      <trkpt lat="47.75552" lon="2.46401">
        <ele>122.674659</ele>
        <time>2021-09-09T08:12:42.000Z</time>
      </trkpt>
      <trkpt lat="47.75528" lon="2.4645">
        <ele>122.71508</ele>
        <time>2021-09-09T08:12:49.000Z</time>
      </trkpt>
      <trkpt lat="47.75505" lon="2.46501">
        <ele>122.755294</ele>
        <time>2021-09-09T08:12:56.000Z</time>
      </trkpt>
      <trkpt lat="47.75483" lon="2.46551">
        <ele>122.795129</ele>
        <time>2021-09-09T08:13:03.000Z</time>
      </trkpt>
      <trkpt lat="47.75461" lon="2.46601">
        <ele>122.861509</ele>
        <time>2021-09-09T08:13:10.000Z</time>
      </trkpt>
      <trkpt lat="47.75435" lon="2.46656">
        <ele>122.984724</ele>
        <time>2021-09-09T08:13:18.000Z</time>
      </trkpt>
      <trkpt lat="47.75414" lon="2.46706">
        <ele>123.092287</ele>
        <time>2021-09-09T08:13:25.000Z</time>
      </trkpt>
      <trkpt lat="47.75388" lon="2.46766">
        <ele>123.224034</ele>
        <time>2021-09-09T08:13:33.000Z</time>
      </trkpt>
      <trkpt lat="47.75361" lon="2.46828">
        <ele>123.344953</ele>
        <time>2021-09-09T08:13:41.000Z</time>
      </trkpt>
      <trkpt lat="47.75333" lon="2.46895">
        <ele>123.451934</ele>
        <time>2021-09-09T08:13:50.000Z</time>
      </trkpt>
      <trkpt lat="47.75304" lon="2.46963">
        <ele>123.559763</ele>
        <time>2021-09-09T08:13:59.000Z</time>
      </trkpt>
      <trkpt lat="47.75292" lon="2.46983">
        <ele>123.595024</ele>
        <time>2021-09-09T08:14:02.000Z</time>
      </trkpt>
      <trkpt lat="47.75284" lon="2.46994">
        <ele>123.61708</ele>
        <time>2021-09-09T08:14:04.000Z</time>
      </trkpt>
      <trkpt lat="47.75273" lon="2.47003">
        <ele>123.641024</ele>
        <time>2021-09-09T08:14:06.000Z</time>
      </trkpt>
      <trkpt lat="47.75261" lon="2.4701">
        <ele>123.667425</ele>
        <time>2021-09-09T08:14:08.000Z</time>
      </trkpt>
      <trkpt lat="47.75227" lon="2.47021">
        <ele>123.680976</ele>
        <time>2021-09-09T08:14:14.000Z</time>
      </trkpt>
      <trkpt lat="47.7519" lon="2.47041">
        <ele>123.696108</ele>
        <time>2021-09-09T08:14:21.000Z</time>
      </trkpt>
      <trkpt lat="47.75159" lon="2.47065">
        <ele>123.709809</ele>
        <time>2021-09-09T08:14:27.000Z</time>
      </trkpt>
      <trkpt lat="47.75122" lon="2.47091">
        <ele>123.725787</ele>
        <time>2021-09-09T08:14:34.000Z</time>
      </trkpt>
      <trkpt lat="47.75077" lon="2.47129">
        <ele>123.652209</ele>
        <time>2021-09-09T08:14:43.000Z</time>
      </trkpt>
      <trkpt lat="47.75042" lon="2.47166">
        <ele>123.48024</ele>
        <time>2021-09-09T08:14:51.000Z</time>
      </trkpt>
      <trkpt lat="47.75016" lon="2.47192">
        <ele>123.35409</ele>
        <time>2021-09-09T08:14:58.000Z</time>
      </trkpt>
      <trkpt lat="47.74989" lon="2.47217">
        <ele>123.228436</ele>
        <time>2021-09-09T08:15:05.000Z</time>
      </trkpt>
      <trkpt lat="47.7498" lon="2.47223">
        <ele>123.18817</ele>
        <time>2021-09-09T08:15:07.000Z</time>
      </trkpt>
      <trkpt lat="47.7497" lon="2.47221">
        <ele>123.149295</ele>
        <time>2021-09-09T08:15:09.000Z</time>
      </trkpt>
      <trkpt lat="47.74959" lon="2.47213">
        <ele>123.098548</ele>
        <time>2021-09-09T08:15:11.000Z</time>
      </trkpt>
      <trkpt lat="47.74952" lon="2.4721">
        <ele>123.068338</ele>
        <time>2021-09-09T08:15:12.000Z</time>
      </trkpt>
      <trkpt lat="47.74944" lon="2.4721">
        <ele>123.036024</ele>
        <time>2021-09-09T08:15:13.000Z</time>
      </trkpt>
      <trkpt lat="47.74928" lon="2.47215">
        <ele>122.957857</ele>
        <time>2021-09-09T08:15:15.000Z</time>
      </trkpt>
      <trkpt lat="47.74885" lon="2.47229">
        <ele>122.735496</ele>
        <time>2021-09-09T08:15:21.000Z</time>
      </trkpt>
      <trkpt lat="47.74841" lon="2.47243">
        <ele>122.506328</ele>
        <time>2021-09-09T08:15:28.000Z</time>
      </trkpt>
      <trkpt lat="47.74798" lon="2.47257">
        <ele>122.286793</ele>
        <time>2021-09-09T08:15:35.000Z</time>
      </trkpt>
      <trkpt lat="47.74793" lon="2.4726">
        <ele>122.257016</ele>
        <time>2021-09-09T08:15:36.000Z</time>
      </trkpt>
      <trkpt lat="47.74777" lon="2.47271">
        <ele>122.170153</ele>
        <time>2021-09-09T08:15:39.000Z</time>
      </trkpt>
      <trkpt lat="47.74736" lon="2.47302">
        <ele>121.911365</ele>
        <time>2021-09-09T08:15:47.000Z</time>
      </trkpt>
      <trkpt lat="47.747" lon="2.47328">
        <ele>121.674404</ele>
        <time>2021-09-09T08:15:54.000Z</time>
      </trkpt>
      <trkpt lat="47.74657" lon="2.47357">
        <ele>121.403955</ele>
        <time>2021-09-09T08:16:02.000Z</time>
      </trkpt>
      <trkpt lat="47.7464" lon="2.4737">
        <ele>121.289908</ele>
        <time>2021-09-09T08:16:06.000Z</time>
      </trkpt>
      <trkpt lat="47.74619" lon="2.47389">
        <ele>121.147446</ele>
        <time>2021-09-09T08:16:11.000Z</time>
      </trkpt>
      <trkpt lat="47.74595" lon="2.4741">
        <ele>121.047823</ele>
        <time>2021-09-09T08:16:16.000Z</time>
      </trkpt>
      <trkpt lat="47.74553" lon="2.47446">
        <ele>121.003144</ele>
        <time>2021-09-09T08:16:24.000Z</time>
      </trkpt>
      <trkpt lat="47.74538" lon="2.47458">
        <ele>120.987532</ele>
        <time>2021-09-09T08:16:27.000Z</time>
      </trkpt>
      <trkpt lat="47.74533" lon="2.47461">
        <ele>120.982386</ele>
        <time>2021-09-09T08:16:28.000Z</time>
      </trkpt>
      <trkpt lat="47.74508" lon="2.47479">
        <ele>120.956135</ele>
        <time>2021-09-09T08:16:33.000Z</time>
      </trkpt>
      <trkpt lat="47.74476" lon="2.47505">
        <ele>120.922592</ele>
        <time>2021-09-09T08:16:39.000Z</time>
      </trkpt>
      <trkpt lat="47.7445" lon="2.47525">
        <ele>120.895433</ele>
        <time>2021-09-09T08:16:44.000Z</time>
      </trkpt>
      <trkpt lat="47.74446" lon="2.47529">
        <ele>120.905115</ele>
        <time>2021-09-09T08:16:45.000Z</time>
      </trkpt>
      <trkpt lat="47.74436" lon="2.47537">
        <ele>120.956541</ele>
        <time>2021-09-09T08:16:47.000Z</time>
      </trkpt>
      <trkpt lat="47.74415" lon="2.47553">
        <ele>121.070298</ele>
        <time>2021-09-09T08:16:51.000Z</time>
      </trkpt>
      <trkpt lat="47.74392" lon="2.47573">
        <ele>121.201471</ele>
        <time>2021-09-09T08:16:56.000Z</time>
      </trkpt>
      <trkpt lat="47.74387" lon="2.47577">
        <ele>121.22654</ele>
        <time>2021-09-09T08:16:57.000Z</time>
      </trkpt>
      <trkpt lat="47.74371" lon="2.47591">
        <ele>121.314268</ele>
        <time>2021-09-09T08:17:00.000Z</time>
      </trkpt>
      <trkpt lat="47.74334" lon="2.47622">
        <ele>121.520555</ele>
        <time>2021-09-09T08:17:06.000Z</time>
      </trkpt>
      <trkpt lat="47.74291" lon="2.47658">
        <ele>121.75578</ele>
        <time>2021-09-09T08:17:14.000Z</time>
      </trkpt>
      <trkpt lat="47.74272" lon="2.47673">
        <ele>121.854405</ele>
        <time>2021-09-09T08:17:18.000Z</time>
      </trkpt>
      <trkpt lat="47.74246" lon="2.47693">
        <ele>121.989728</ele>
        <time>2021-09-09T08:17:23.000Z</time>
      </trkpt>
      <trkpt lat="47.74241" lon="2.47697">
        <ele>122.017001</ele>
        <time>2021-09-09T08:17:24.000Z</time>
      </trkpt>
      <trkpt lat="47.74218" lon="2.47715">
        <ele>122.135397</ele>
        <time>2021-09-09T08:17:28.000Z</time>
      </trkpt>
      <trkpt lat="47.74213" lon="2.4772">
        <ele>122.163551</ele>
        <time>2021-09-09T08:17:29.000Z</time>
      </trkpt>
      <trkpt lat="47.74205" lon="2.4773">
        <ele>122.213022</ele>
        <time>2021-09-09T08:17:31.000Z</time>
      </trkpt>
      <trkpt lat="47.74177" lon="2.4777">
        <ele>122.389553</ele>
        <time>2021-09-09T08:17:37.000Z</time>
      </trkpt>
      <trkpt lat="47.74154" lon="2.47802">
        <ele>122.535522</ele>
        <time>2021-09-09T08:17:42.000Z</time>
      </trkpt>
      <trkpt lat="47.74138" lon="2.47822">
        <ele>122.623251</ele>
        <time>2021-09-09T08:17:45.000Z</time>
      </trkpt>
      <trkpt lat="47.74134" lon="2.4783">
        <ele>122.649427</ele>
        <time>2021-09-09T08:17:46.000Z</time>
      </trkpt>
      <trkpt lat="47.74103" lon="2.47868">
        <ele>122.801125</ele>
        <time>2021-09-09T08:17:52.000Z</time>
      </trkpt>
      <trkpt lat="47.74086" lon="2.47878">
        <ele>122.871691</ele>
        <time>2021-09-09T08:17:55.000Z</time>
      </trkpt>
      <trkpt lat="47.74074" lon="2.47881">
        <ele>122.919141</ele>
        <time>2021-09-09T08:17:57.000Z</time>
      </trkpt>
      <trkpt lat="47.74034" lon="2.47898">
        <ele>123.07439</ele>
        <time>2021-09-09T08:18:04.000Z</time>
      </trkpt>
      <trkpt lat="47.74002" lon="2.47912">
        <ele>123.203121</ele>
        <time>2021-09-09T08:18:10.000Z</time>
      </trkpt>
      <trkpt lat="47.73968" lon="2.47929">
        <ele>123.581406</ele>
        <time>2021-09-09T08:18:16.000Z</time>
      </trkpt>
      <trkpt lat="47.73963" lon="2.47932">
        <ele>123.678723</ele>
        <time>2021-09-09T08:18:17.000Z</time>
      </trkpt>
      <trkpt lat="47.73948" lon="2.47942">
        <ele>123.952858</ele>
        <time>2021-09-09T08:18:20.000Z</time>
      </trkpt>
      <trkpt lat="47.73926" lon="2.47955">
        <ele>124.351125</ele>
        <time>2021-09-09T08:18:25.000Z</time>
      </trkpt>
      <trkpt lat="47.73918" lon="2.47962">
        <ele>124.510755</ele>
        <time>2021-09-09T08:18:27.000Z</time>
      </trkpt>
      <trkpt lat="47.73904" lon="2.47971">
        <ele>124.773878</ele>
        <time>2021-09-09T08:18:30.000Z</time>
      </trkpt>
      <trkpt lat="47.73899" lon="2.47975">
        <ele>124.876539</ele>
        <time>2021-09-09T08:18:31.000Z</time>
      </trkpt>
      <trkpt lat="47.73883" lon="2.47986">
        <ele>125.174474</ele>
        <time>2021-09-09T08:18:34.000Z</time>
      </trkpt>
      <trkpt lat="47.73858" lon="2.48003">
        <ele>125.6334</ele>
        <time>2021-09-09T08:18:38.000Z</time>
      </trkpt>
      <trkpt lat="47.73832" lon="2.48022">
        <ele>126.135067</ele>
        <time>2021-09-09T08:18:43.000Z</time>
      </trkpt>
      <trkpt lat="47.73805" lon="2.48041">
        <ele>127.023648</ele>
        <time>2021-09-09T08:18:48.000Z</time>
      </trkpt>
      <trkpt lat="47.7379" lon="2.48053">
        <ele>127.676372</ele>
        <time>2021-09-09T08:18:51.000Z</time>
      </trkpt>
      <trkpt lat="47.73779" lon="2.4806">
        <ele>128.127487</ele>
        <time>2021-09-09T08:18:53.000Z</time>
      </trkpt>
      <trkpt lat="47.73757" lon="2.48076">
        <ele>129.066</ele>
        <time>2021-09-09T08:18:57.000Z</time>
      </trkpt>
      <trkpt lat="47.73735" lon="2.48092">
        <ele>130.00914</ele>
        <time>2021-09-09T08:19:01.000Z</time>
      </trkpt>
      <trkpt lat="47.73715" lon="2.48106">
        <ele>130.847097</ele>
        <time>2021-09-09T08:19:05.000Z</time>
      </trkpt>
      <trkpt lat="47.73705" lon="2.48112">
        <ele>131.253248</ele>
        <time>2021-09-09T08:19:07.000Z</time>
      </trkpt>
      <trkpt lat="47.73697" lon="2.48117">
        <ele>131.593809</ele>
        <time>2021-09-09T08:19:09.000Z</time>
      </trkpt>
      <trkpt lat="47.73679" lon="2.48129">
        <ele>132.333084</ele>
        <time>2021-09-09T08:19:13.000Z</time>
      </trkpt>
      <trkpt lat="47.73667" lon="2.48139">
        <ele>132.84572</ele>
        <time>2021-09-09T08:19:16.000Z</time>
      </trkpt>
      <trkpt lat="47.73653" lon="2.48151">
        <ele>133.474663</ele>
        <time>2021-09-09T08:19:20.000Z</time>
      </trkpt>
      <trkpt lat="47.73648" lon="2.48154">
        <ele>133.649618</ele>
        <time>2021-09-09T08:19:21.000Z</time>
      </trkpt>
      <trkpt lat="47.7364" lon="2.48161">
        <ele>133.991688</ele>
        <time>2021-09-09T08:19:23.000Z</time>
      </trkpt>
      <trkpt lat="47.73633" lon="2.48165">
        <ele>134.250144</ele>
        <time>2021-09-09T08:19:24.000Z</time>
      </trkpt>
      <trkpt lat="47.73628" lon="2.48169">
        <ele>134.438743</ele>
        <time>2021-09-09T08:19:25.000Z</time>
      </trkpt>
      <trkpt lat="47.73618" lon="2.48177">
        <ele>134.841836</ele>
        <time>2021-09-09T08:19:27.000Z</time>
      </trkpt>
      <trkpt lat="47.73592" lon="2.48196">
        <ele>135.890197</ele>
        <time>2021-09-09T08:19:32.000Z</time>
      </trkpt>
      <trkpt lat="47.73581" lon="2.48205">
        <ele>136.319811</ele>
        <time>2021-09-09T08:19:34.000Z</time>
      </trkpt>
      <trkpt lat="47.73567" lon="2.48214">
        <ele>136.893516</ele>
        <time>2021-09-09T08:19:36.000Z</time>
      </trkpt>
      <trkpt lat="47.73535" lon="2.48241">
        <ele>138.189345</ele>
        <time>2021-09-09T08:19:41.000Z</time>
      </trkpt>
      <trkpt lat="47.73525" lon="2.48251">
        <ele>138.62962</ele>
        <time>2021-09-09T08:19:43.000Z</time>
      </trkpt>
      <trkpt lat="47.73508" lon="2.48262">
        <ele>139.295866</ele>
        <time>2021-09-09T08:19:45.000Z</time>
      </trkpt>
      <trkpt lat="47.73476" lon="2.48283">
        <ele>140.035742</ele>
        <time>2021-09-09T08:19:49.000Z</time>
      </trkpt>
      <trkpt lat="47.73468" lon="2.48288">
        <ele>140.18796</ele>
        <time>2021-09-09T08:19:50.000Z</time>
      </trkpt>
      <trkpt lat="47.73452" lon="2.483">
        <ele>140.48709</ele>
        <time>2021-09-09T08:19:52.000Z</time>
      </trkpt>
      <trkpt lat="47.73439" lon="2.4831">
        <ele>140.735285</ele>
        <time>2021-09-09T08:19:54.000Z</time>
      </trkpt>
      <trkpt lat="47.73405" lon="2.48343">
        <ele>141.412984</ele>
        <time>2021-09-09T08:20:00.000Z</time>
      </trkpt>
      <trkpt lat="47.73381" lon="2.48367">
        <ele>141.897814</ele>
        <time>2021-09-09T08:20:05.000Z</time>
      </trkpt>
      <trkpt lat="47.73366" lon="2.48385">
        <ele>142.225055</ele>
        <time>2021-09-09T08:20:09.000Z</time>
      </trkpt>
      <trkpt lat="47.73348" lon="2.48403">
        <ele>142.584457</ele>
        <time>2021-09-09T08:20:13.000Z</time>
      </trkpt>
      <trkpt lat="47.7333" lon="2.48421">
        <ele>143.417733</ele>
        <time>2021-09-09T08:20:17.000Z</time>
      </trkpt>
      <trkpt lat="47.73321" lon="2.4843">
        <ele>143.872736</ele>
        <time>2021-09-09T08:20:19.000Z</time>
      </trkpt>
      <trkpt lat="47.73313" lon="2.48439">
        <ele>144.287712</ele>
        <time>2021-09-09T08:20:21.000Z</time>
      </trkpt>
      <trkpt lat="47.73304" lon="2.48449">
        <ele>144.721198</ele>
        <time>2021-09-09T08:20:23.000Z</time>
      </trkpt>
      <trkpt lat="47.73295" lon="2.48458">
        <ele>145.184251</ele>
        <time>2021-09-09T08:20:25.000Z</time>
      </trkpt>
      <trkpt lat="47.73281" lon="2.48473">
        <ele>145.879743</ele>
        <time>2021-09-09T08:20:28.000Z</time>
      </trkpt>
      <trkpt lat="47.73266" lon="2.48486">
        <ele>146.592263</ele>
        <time>2021-09-09T08:20:31.000Z</time>
      </trkpt>
      <trkpt lat="47.73254" lon="2.48498">
        <ele>147.207411</ele>
        <time>2021-09-09T08:20:34.000Z</time>
      </trkpt>
      <trkpt lat="47.73235" lon="2.48514">
        <ele>148.078639</ele>
        <time>2021-09-09T08:20:38.000Z</time>
      </trkpt>
      <trkpt lat="47.73212" lon="2.48534">
        <ele>149.176433</ele>
        <time>2021-09-09T08:20:43.000Z</time>
      </trkpt>
      <trkpt lat="47.73178" lon="2.48559">
        <ele>149.634799</ele>
        <time>2021-09-09T08:20:49.000Z</time>
      </trkpt>
      <trkpt lat="47.7314" lon="2.48599">
        <ele>148.69646</ele>
        <time>2021-09-09T08:20:55.000Z</time>
      </trkpt>
      <trkpt lat="47.73097" lon="2.4865">
        <ele>147.571362</ele>
        <time>2021-09-09T08:21:01.000Z</time>
      </trkpt>
      <trkpt lat="47.73087" lon="2.4866">
        <ele>147.328611</ele>
        <time>2021-09-09T08:21:03.000Z</time>
      </trkpt>
      <trkpt lat="47.73064" lon="2.48682">
        <ele>146.775113</ele>
        <time>2021-09-09T08:21:08.000Z</time>
      </trkpt>
      <trkpt lat="47.73054" lon="2.48688">
        <ele>146.562957</ele>
        <time>2021-09-09T08:21:10.000Z</time>
      </trkpt>
      <trkpt lat="47.73044" lon="2.48696">
        <ele>146.331364</ele>
        <time>2021-09-09T08:21:12.000Z</time>
      </trkpt>
      <trkpt lat="47.73022" lon="2.48713">
        <ele>145.608988</ele>
        <time>2021-09-09T08:21:16.000Z</time>
      </trkpt>
      <trkpt lat="47.72996" lon="2.48732">
        <ele>144.777639</ele>
        <time>2021-09-09T08:21:21.000Z</time>
      </trkpt>
      <trkpt lat="47.72969" lon="2.48754">
        <ele>143.894837</ele>
        <time>2021-09-09T08:21:26.000Z</time>
      </trkpt>
      <trkpt lat="47.72964" lon="2.48759">
        <ele>143.709263</ele>
        <time>2021-09-09T08:21:27.000Z</time>
      </trkpt>
      <trkpt lat="47.72948" lon="2.48773">
        <ele>143.17592</ele>
        <time>2021-09-09T08:21:30.000Z</time>
      </trkpt>
      <trkpt lat="47.72933" lon="2.48787">
        <ele>142.659727</ele>
        <time>2021-09-09T08:21:33.000Z</time>
      </trkpt>
      <trkpt lat="47.72927" lon="2.48792">
        <ele>142.475759</ele>
        <time>2021-09-09T08:21:34.000Z</time>
      </trkpt>
      <trkpt lat="47.72894" lon="2.48816">
        <ele>141.424532</ele>
        <time>2021-09-09T08:21:40.000Z</time>
      </trkpt>
      <trkpt lat="47.72874" lon="2.48826">
        <ele>140.827684</ele>
        <time>2021-09-09T08:21:44.000Z</time>
      </trkpt>
      <trkpt lat="47.72869" lon="2.48828">
        <ele>140.70249</ele>
        <time>2021-09-09T08:21:45.000Z</time>
      </trkpt>
      <trkpt lat="47.72852" lon="2.48834">
        <ele>140.232589</ele>
        <time>2021-09-09T08:21:50.000Z</time>
      </trkpt>
      <trkpt lat="47.72838" lon="2.48846">
        <ele>139.777752</ele>
        <time>2021-09-09T08:21:55.000Z</time>
      </trkpt>
      <trkpt lat="47.72833" lon="2.48865">
        <ele>139.40727</ele>
        <time>2021-09-09T08:21:59.000Z</time>
      </trkpt>
      <trkpt lat="47.72827" lon="2.48902">
        <ele>138.717872</ele>
        <time>2021-09-09T08:22:06.000Z</time>
      </trkpt>
      <trkpt lat="47.72821" lon="2.48956">
        <ele>137.731446</ele>
        <time>2021-09-09T08:22:15.000Z</time>
      </trkpt>
      <trkpt lat="47.72817" lon="2.48994">
        <ele>137.03145</ele>
        <time>2021-09-09T08:22:21.000Z</time>
      </trkpt>
      <trkpt lat="47.72817" lon="2.49007">
        <ele>136.795527</ele>
        <time>2021-09-09T08:22:23.000Z</time>
      </trkpt>
      <trkpt lat="47.72817" lon="2.49013">
        <ele>136.679323</ele>
        <time>2021-09-09T08:22:24.000Z</time>
      </trkpt>
      <trkpt lat="47.72815" lon="2.49026">
        <ele>136.441408</ele>
        <time>2021-09-09T08:22:26.000Z</time>
      </trkpt>
      <trkpt lat="47.72814" lon="2.4904">
        <ele>136.281668</ele>
        <time>2021-09-09T08:22:28.000Z</time>
      </trkpt>
      <trkpt lat="47.72813" lon="2.49054">
        <ele>136.189354</ele>
        <time>2021-09-09T08:22:30.000Z</time>
      </trkpt>
      <trkpt lat="47.72812" lon="2.49069">
        <ele>136.092787</ele>
        <time>2021-09-09T08:22:32.000Z</time>
      </trkpt>
      <trkpt lat="47.72811" lon="2.49076">
        <ele>136.044565</ele>
        <time>2021-09-09T08:22:33.000Z</time>
      </trkpt>
      <trkpt lat="47.72803" lon="2.49144">
        <ele>135.594516</ele>
        <time>2021-09-09T08:22:42.000Z</time>
      </trkpt>
      <trkpt lat="47.72799" lon="2.49164">
        <ele>135.449389</ele>
        <time>2021-09-09T08:22:45.000Z</time>
      </trkpt>
      <trkpt lat="47.72791" lon="2.49185">
        <ele>135.29695</ele>
        <time>2021-09-09T08:22:48.000Z</time>
      </trkpt>
      <trkpt lat="47.72777" lon="2.49228">
        <ele>134.981764</ele>
        <time>2021-09-09T08:22:54.000Z</time>
      </trkpt>
      <trkpt lat="47.72756" lon="2.49295">
        <ele>134.555119</ele>
        <time>2021-09-09T08:23:03.000Z</time>
      </trkpt>
      <trkpt lat="47.72742" lon="2.4934">
        <ele>134.455319</ele>
        <time>2021-09-09T08:23:09.000Z</time>
      </trkpt>
      <trkpt lat="47.72723" lon="2.49399">
        <ele>134.324759</ele>
        <time>2021-09-09T08:23:17.000Z</time>
      </trkpt>
      <trkpt lat="47.72703" lon="2.49447">
        <ele>134.212058</ele>
        <time>2021-09-09T08:23:24.000Z</time>
      </trkpt>
      <trkpt lat="47.72697" lon="2.49458">
        <ele>134.184302</ele>
        <time>2021-09-09T08:23:26.000Z</time>
      </trkpt>
      <trkpt lat="47.72689" lon="2.49472">
        <ele>134.146387</ele>
        <time>2021-09-09T08:23:29.000Z</time>
      </trkpt>
      <trkpt lat="47.72686" lon="2.49478">
        <ele>134.132102</ele>
        <time>2021-09-09T08:23:30.000Z</time>
      </trkpt>
      <trkpt lat="47.72684" lon="2.49494">
        <ele>134.099741</ele>
        <time>2021-09-09T08:23:32.000Z</time>
      </trkpt>
      <trkpt lat="47.7268" lon="2.49519">
        <ele>134.048878</ele>
        <time>2021-09-09T08:23:35.000Z</time>
      </trkpt>
      <trkpt lat="47.72674" lon="2.49542">
        <ele>134.051856</ele>
        <time>2021-09-09T08:23:38.000Z</time>
      </trkpt>
      <trkpt lat="47.7265" lon="2.49618">
        <ele>134.076512</ele>
        <time>2021-09-09T08:23:48.000Z</time>
      </trkpt>
      <trkpt lat="47.72631" lon="2.49678">
        <ele>134.096442</ele>
        <time>2021-09-09T08:23:56.000Z</time>
      </trkpt>
      <trkpt lat="47.72613" lon="2.49734">
        <ele>134.114687</ele>
        <time>2021-09-09T08:24:03.000Z</time>
      </trkpt>
      <trkpt lat="47.72591" lon="2.49806">
        <ele>134.133095</ele>
        <time>2021-09-09T08:24:12.000Z</time>
      </trkpt>
      <trkpt lat="47.72565" lon="2.49886">
        <ele>134.149996</ele>
        <time>2021-09-09T08:24:22.000Z</time>
      </trkpt>
      <trkpt lat="47.72544" lon="2.4994">
        <ele>134.161993</ele>
        <time>2021-09-09T08:24:29.000Z</time>
      </trkpt>
      <trkpt lat="47.72522" lon="2.49994">
        <ele>134.174057</ele>
        <time>2021-09-09T08:24:36.000Z</time>
      </trkpt>
      <trkpt lat="47.72494" lon="2.50063">
        <ele>134.141158</ele>
        <time>2021-09-09T08:24:45.000Z</time>
      </trkpt>
      <trkpt lat="47.72465" lon="2.50134">
        <ele>134.103285</ele>
        <time>2021-09-09T08:24:54.000Z</time>
      </trkpt>
      <trkpt lat="47.72436" lon="2.50206">
        <ele>134.06471</ele>
        <time>2021-09-09T08:25:03.000Z</time>
      </trkpt>
      <trkpt lat="47.72429" lon="2.50222">
        <ele>134.056486</ele>
        <time>2021-09-09T08:25:05.000Z</time>
      </trkpt>
      <trkpt lat="47.72407" lon="2.50277">
        <ele>134.073725</ele>
        <time>2021-09-09T08:25:12.000Z</time>
      </trkpt>
      <trkpt lat="47.7239" lon="2.50317">
        <ele>134.090322</ele>
        <time>2021-09-09T08:25:17.000Z</time>
      </trkpt>
      <trkpt lat="47.72359" lon="2.5039">
        <ele>134.120743</ele>
        <time>2021-09-09T08:25:26.000Z</time>
      </trkpt>
      <trkpt lat="47.72331" lon="2.50453">
        <ele>134.147621</ele>
        <time>2021-09-09T08:25:34.000Z</time>
      </trkpt>
      <trkpt lat="47.72294" lon="2.50506">
        <ele>133.99255</ele>
        <time>2021-09-09T08:25:42.000Z</time>
      </trkpt>
      <trkpt lat="47.72256" lon="2.50543">
        <ele>133.851742</ele>
        <time>2021-09-09T08:25:49.000Z</time>
      </trkpt>
      <trkpt lat="47.72212" lon="2.50579">
        <ele>133.6973</ele>
        <time>2021-09-09T08:25:57.000Z</time>
      </trkpt>
      <trkpt lat="47.72162" lon="2.50615">
        <ele>133.569424</ele>
        <time>2021-09-09T08:26:06.000Z</time>
      </trkpt>
      <trkpt lat="47.72122" lon="2.50648">
        <ele>133.518145</ele>
        <time>2021-09-09T08:26:14.000Z</time>
      </trkpt>
      <trkpt lat="47.72096" lon="2.50677">
        <ele>133.481015</ele>
        <time>2021-09-09T08:26:20.000Z</time>
      </trkpt>
      <trkpt lat="47.72091" lon="2.50683">
        <ele>133.474624</ele>
        <time>2021-09-09T08:26:21.000Z</time>
      </trkpt>
      <trkpt lat="47.72062" lon="2.50727">
        <ele>133.427707</ele>
        <time>2021-09-09T08:26:28.000Z</time>
      </trkpt>
      <trkpt lat="47.72024" lon="2.50789">
        <ele>133.247808</ele>
        <time>2021-09-09T08:26:37.000Z</time>
      </trkpt>
      <trkpt lat="47.71991" lon="2.50844">
        <ele>132.961547</ele>
        <time>2021-09-09T08:26:45.000Z</time>
      </trkpt>
      <trkpt lat="47.71955" lon="2.509">
        <ele>132.660512</ele>
        <time>2021-09-09T08:26:53.000Z</time>
      </trkpt>
      <trkpt lat="47.71916" lon="2.50947">
        <ele>132.368051</ele>
        <time>2021-09-09T08:27:00.000Z</time>
      </trkpt>
      <trkpt lat="47.71875" lon="2.50991">
        <ele>131.993535</ele>
        <time>2021-09-09T08:27:06.000Z</time>
      </trkpt>
      <trkpt lat="47.71838" lon="2.51035">
        <ele>131.630021</ele>
        <time>2021-09-09T08:27:11.000Z</time>
      </trkpt>
      <trkpt lat="47.71788" lon="2.51089">
        <ele>131.162009</ele>
        <time>2021-09-09T08:27:18.000Z</time>
      </trkpt>
      <trkpt lat="47.71771" lon="2.51107">
        <ele>131.004402</ele>
        <time>2021-09-09T08:27:21.000Z</time>
      </trkpt>
      <trkpt lat="47.71743" lon="2.51141">
        <ele>130.676439</ele>
        <time>2021-09-09T08:27:26.000Z</time>
      </trkpt>
      <trkpt lat="47.717" lon="2.51193">
        <ele>130.172516</ele>
        <time>2021-09-09T08:27:33.000Z</time>
      </trkpt>
      <trkpt lat="47.71655" lon="2.51246">
        <ele>129.645949</ele>
        <time>2021-09-09T08:27:41.000Z</time>
      </trkpt>
      <trkpt lat="47.71611" lon="2.51296">
        <ele>129.181202</ele>
        <time>2021-09-09T08:27:49.000Z</time>
      </trkpt>
      <trkpt lat="47.71576" lon="2.51337">
        <ele>128.850096</ele>
        <time>2021-09-09T08:27:56.000Z</time>
      </trkpt>
      <trkpt lat="47.71534" lon="2.51387">
        <ele>128.446218</ele>
        <time>2021-09-09T08:28:05.000Z</time>
      </trkpt>
      <trkpt lat="47.71529" lon="2.51393">
        <ele>128.401799</ele>
        <time>2021-09-09T08:28:06.000Z</time>
      </trkpt>
      <trkpt lat="47.71487" lon="2.51442">
        <ele>128.0075</ele>
        <time>2021-09-09T08:28:15.000Z</time>
      </trkpt>
      <trkpt lat="47.71455" lon="2.5148">
        <ele>127.988946</ele>
        <time>2021-09-09T08:28:22.000Z</time>
      </trkpt>
      <trkpt lat="47.71422" lon="2.51518">
        <ele>127.970454</ele>
        <time>2021-09-09T08:28:29.000Z</time>
      </trkpt>
      <trkpt lat="47.71399" lon="2.51544">
        <ele>127.957124</ele>
        <time>2021-09-09T08:28:34.000Z</time>
      </trkpt>
      <trkpt lat="47.71394" lon="2.5155">
        <ele>127.954456</ele>
        <time>2021-09-09T08:28:35.000Z</time>
      </trkpt>
      <trkpt lat="47.71363" lon="2.51588">
        <ele>127.936109</ele>
        <time>2021-09-09T08:28:42.000Z</time>
      </trkpt>
      <trkpt lat="47.71327" lon="2.51632">
        <ele>128.038787</ele>
        <time>2021-09-09T08:28:50.000Z</time>
      </trkpt>
      <trkpt lat="47.71294" lon="2.51671">
        <ele>128.222004</ele>
        <time>2021-09-09T08:28:57.000Z</time>
      </trkpt>
      <trkpt lat="47.71269" lon="2.51705">
        <ele>128.37362</ele>
        <time>2021-09-09T08:29:03.000Z</time>
      </trkpt>
      <trkpt lat="47.71251" lon="2.5174">
        <ele>128.503327</ele>
        <time>2021-09-09T08:29:08.000Z</time>
      </trkpt>
      <trkpt lat="47.71248" lon="2.51748">
        <ele>128.53043</ele>
        <time>2021-09-09T08:29:09.000Z</time>
      </trkpt>
      <trkpt lat="47.71222" lon="2.51806">
        <ele>128.736742</ele>
        <time>2021-09-09T08:29:17.000Z</time>
      </trkpt>
      <trkpt lat="47.71208" lon="2.51833">
        <ele>128.835624</ele>
        <time>2021-09-09T08:29:21.000Z</time>
      </trkpt>
      <trkpt lat="47.71201" lon="2.51846">
        <ele>128.885902</ele>
        <time>2021-09-09T08:29:23.000Z</time>
      </trkpt>
      <trkpt lat="47.71198" lon="2.51854">
        <ele>128.911137</ele>
        <time>2021-09-09T08:29:24.000Z</time>
      </trkpt>
      <trkpt lat="47.71191" lon="2.51868">
        <ele>128.963366</ele>
        <time>2021-09-09T08:29:26.000Z</time>
      </trkpt>
      <trkpt lat="47.71184" lon="2.51883">
        <ele>129.01506</ele>
        <time>2021-09-09T08:29:28.000Z</time>
      </trkpt>
      <trkpt lat="47.71168" lon="2.5193">
        <ele>129.17075</ele>
        <time>2021-09-09T08:29:34.000Z</time>
      </trkpt>
      <trkpt lat="47.71148" lon="2.51983">
        <ele>129.346468</ele>
        <time>2021-09-09T08:29:41.000Z</time>
      </trkpt>
      <trkpt lat="47.71123" lon="2.52048">
        <ele>129.439527</ele>
        <time>2021-09-09T08:29:50.000Z</time>
      </trkpt>
      <trkpt lat="47.71093" lon="2.52118">
        <ele>129.216729</ele>
        <time>2021-09-09T08:30:00.000Z</time>
      </trkpt>
      <trkpt lat="47.71065" lon="2.52179">
        <ele>129.018264</ele>
        <time>2021-09-09T08:30:09.000Z</time>
      </trkpt>
      <trkpt lat="47.71036" lon="2.52239">
        <ele>128.820644</ele>
        <time>2021-09-09T08:30:18.000Z</time>
      </trkpt>
      <trkpt lat="47.71004" lon="2.5231">
        <ele>128.742328</ele>
        <time>2021-09-09T08:30:28.000Z</time>
      </trkpt>
      <trkpt lat="47.71001" lon="2.52317">
        <ele>128.737423</ele>
        <time>2021-09-09T08:30:29.000Z</time>
      </trkpt>
      <trkpt lat="47.70975" lon="2.52373">
        <ele>128.697651</ele>
        <time>2021-09-09T08:30:37.000Z</time>
      </trkpt>
      <trkpt lat="47.70942" lon="2.52443">
        <ele>128.64822</ele>
        <time>2021-09-09T08:30:47.000Z</time>
      </trkpt>
      <trkpt lat="47.70936" lon="2.52457">
        <ele>128.638517</ele>
        <time>2021-09-09T08:30:49.000Z</time>
      </trkpt>
      <trkpt lat="47.70909" lon="2.52523">
        <ele>128.595144</ele>
        <time>2021-09-09T08:30:58.000Z</time>
      </trkpt>
      <trkpt lat="47.70888" lon="2.52586">
        <ele>128.554546</ele>
        <time>2021-09-09T08:31:06.000Z</time>
      </trkpt>
      <trkpt lat="47.70864" lon="2.52658">
        <ele>128.508721</ele>
        <time>2021-09-09T08:31:15.000Z</time>
      </trkpt>
      <trkpt lat="47.70861" lon="2.52666">
        <ele>128.503494</ele>
        <time>2021-09-09T08:31:16.000Z</time>
      </trkpt>
      <trkpt lat="47.70845" lon="2.52712">
        <ele>128.465086</ele>
        <time>2021-09-09T08:31:22.000Z</time>
      </trkpt>
      <trkpt lat="47.70829" lon="2.52759">
        <ele>128.315286</ele>
        <time>2021-09-09T08:31:28.000Z</time>
      </trkpt>
      <trkpt lat="47.7081" lon="2.52815">
        <ele>128.141999</ele>
        <time>2021-09-09T08:31:35.000Z</time>
      </trkpt>
      <trkpt lat="47.7079" lon="2.52873">
        <ele>127.958998</ele>
        <time>2021-09-09T08:31:42.000Z</time>
      </trkpt>
      <trkpt lat="47.70765" lon="2.52951">
        <ele>127.728076</ele>
        <time>2021-09-09T08:31:51.000Z</time>
      </trkpt>
      <trkpt lat="47.70744" lon="2.53016">
        <ele>127.766359</ele>
        <time>2021-09-09T08:31:59.000Z</time>
      </trkpt>
      <trkpt lat="47.7073" lon="2.53048">
        <ele>127.786139</ele>
        <time>2021-09-09T08:32:03.000Z</time>
      </trkpt>
      <trkpt lat="47.70722" lon="2.53062">
        <ele>127.79583</ele>
        <time>2021-09-09T08:32:05.000Z</time>
      </trkpt>
      <trkpt lat="47.70695" lon="2.5311">
        <ele>127.828294</ele>
        <time>2021-09-09T08:32:12.000Z</time>
      </trkpt>
      <trkpt lat="47.70665" lon="2.53161">
        <ele>127.864261</ele>
        <time>2021-09-09T08:32:20.000Z</time>
      </trkpt>
      <trkpt lat="47.70636" lon="2.53209">
        <ele>128.269767</ele>
        <time>2021-09-09T08:32:28.000Z</time>
      </trkpt>
      <trkpt lat="47.70624" lon="2.5323">
        <ele>128.466205</ele>
        <time>2021-09-09T08:32:32.000Z</time>
      </trkpt>
      <trkpt lat="47.70614" lon="2.53246">
        <ele>128.606297</ele>
        <time>2021-09-09T08:32:35.000Z</time>
      </trkpt>
      <trkpt lat="47.70591" lon="2.53283">
        <ele>128.946872</ele>
        <time>2021-09-09T08:32:43.000Z</time>
      </trkpt>
      <trkpt lat="47.7058" lon="2.533">
        <ele>129.112335</ele>
        <time>2021-09-09T08:32:47.000Z</time>
      </trkpt>
      <trkpt lat="47.70574" lon="2.53309">
        <ele>129.196709</ele>
        <time>2021-09-09T08:32:49.000Z</time>
      </trkpt>
      <trkpt lat="47.70549" lon="2.53353">
        <ele>129.590908</ele>
        <time>2021-09-09T08:32:58.000Z</time>
      </trkpt>
      <trkpt lat="47.70521" lon="2.53399">
        <ele>129.995719</ele>
        <time>2021-09-09T08:33:07.000Z</time>
      </trkpt>
      <trkpt lat="47.70515" lon="2.53409">
        <ele>130.084529</ele>
        <time>2021-09-09T08:33:09.000Z</time>
      </trkpt>
      <trkpt lat="47.70502" lon="2.53429">
        <ele>130.266907</ele>
        <time>2021-09-09T08:33:13.000Z</time>
      </trkpt>
      <trkpt lat="47.70471" lon="2.53475">
        <ele>130.688761</ele>
        <time>2021-09-09T08:33:22.000Z</time>
      </trkpt>
      <trkpt lat="47.70463" lon="2.53483">
        <ele>130.783088</ele>
        <time>2021-09-09T08:33:24.000Z</time>
      </trkpt>
      <trkpt lat="47.70442" lon="2.53501">
        <ele>131.020588</ele>
        <time>2021-09-09T08:33:29.000Z</time>
      </trkpt>
      <trkpt lat="47.70429" lon="2.53513">
        <ele>131.164159</ele>
        <time>2021-09-09T08:33:32.000Z</time>
      </trkpt>
      <trkpt lat="47.70423" lon="2.53524">
        <ele>131.258625</ele>
        <time>2021-09-09T08:33:34.000Z</time>
      </trkpt>
      <trkpt lat="47.70413" lon="2.53542">
        <ele>131.407087</ele>
        <time>2021-09-09T08:33:37.000Z</time>
      </trkpt>
      <trkpt lat="47.70402" lon="2.53559">
        <ele>131.533405</ele>
        <time>2021-09-09T08:33:40.000Z</time>
      </trkpt>
      <trkpt lat="47.70381" lon="2.53596">
        <ele>131.791755</ele>
        <time>2021-09-09T08:33:46.000Z</time>
      </trkpt>
      <trkpt lat="47.70353" lon="2.53647">
        <ele>132.138913</ele>
        <time>2021-09-09T08:33:54.000Z</time>
      </trkpt>
      <trkpt lat="47.70333" lon="2.53684">
        <ele>132.393787</ele>
        <time>2021-09-09T08:34:00.000Z</time>
      </trkpt>
      <trkpt lat="47.70308" lon="2.53728">
        <ele>132.695843</ele>
        <time>2021-09-09T08:34:07.000Z</time>
      </trkpt>
      <trkpt lat="47.70278" lon="2.53765">
        <ele>132.739474</ele>
        <time>2021-09-09T08:34:14.000Z</time>
      </trkpt>
      <trkpt lat="47.70269" lon="2.53775">
        <ele>132.686691</ele>
        <time>2021-09-09T08:34:16.000Z</time>
      </trkpt>
      <trkpt lat="47.70256" lon="2.5379">
        <ele>132.612653</ele>
        <time>2021-09-09T08:34:19.000Z</time>
      </trkpt>
      <trkpt lat="47.70231" lon="2.53813">
        <ele>132.479446</ele>
        <time>2021-09-09T08:34:24.000Z</time>
      </trkpt>
      <trkpt lat="47.70208" lon="2.53838">
        <ele>132.349143</ele>
        <time>2021-09-09T08:34:29.000Z</time>
      </trkpt>
      <trkpt lat="47.70204" lon="2.53844">
        <ele>132.323982</ele>
        <time>2021-09-09T08:34:30.000Z</time>
      </trkpt>
      <trkpt lat="47.70201" lon="2.5385">
        <ele>132.299508</ele>
        <time>2021-09-09T08:34:31.000Z</time>
      </trkpt>
      <trkpt lat="47.70189" lon="2.53877">
        <ele>132.198548</ele>
        <time>2021-09-09T08:34:35.000Z</time>
      </trkpt>
      <trkpt lat="47.70179" lon="2.53896">
        <ele>132.127559</ele>
        <time>2021-09-09T08:34:39.000Z</time>
      </trkpt>
      <trkpt lat="47.70178" lon="2.53895">
        <ele>132.122512</ele>
        <time>2021-09-09T08:34:41.000Z</time>
      </trkpt>
      <trkpt lat="47.70181" lon="2.53894">
        <ele>132.106841</ele>
        <time>2021-09-09T08:35:22.000Z</time>
      </trkpt>
      <trkpt lat="47.70182" lon="2.53892">
        <ele>132.100572</ele>
        <time>2021-09-09T08:35:23.000Z</time>
      </trkpt>
      <trkpt lat="47.70183" lon="2.5389">
        <ele>132.094184</ele>
        <time>2021-09-09T08:35:24.000Z</time>
      </trkpt>
      <trkpt lat="47.70187" lon="2.53881">
        <ele>132.060015</ele>
        <time>2021-09-09T08:35:28.000Z</time>
      </trkpt>
      <trkpt lat="47.70198" lon="2.53861">
        <ele>132.011351</ele>
        <time>2021-09-09T08:35:34.000Z</time>
      </trkpt>
      <trkpt lat="47.70199" lon="2.53849">
        <ele>132.008165</ele>
        <time>2021-09-09T08:35:37.000Z</time>
      </trkpt>
      <trkpt lat="47.70197" lon="2.53846">
        <ele>132.007048</ele>
        <time>2021-09-09T08:35:38.000Z</time>
      </trkpt>
      <trkpt lat="47.70181" lon="2.53825">
        <ele>131.998646</ele>
        <time>2021-09-09T08:35:45.000Z</time>
      </trkpt>
      <trkpt lat="47.70166" lon="2.53809">
        <ele>131.991502</ele>
        <time>2021-09-09T08:35:52.000Z</time>
      </trkpt>
      <trkpt lat="47.70151" lon="2.53788">
        <ele>131.983217</ele>
        <time>2021-09-09T08:35:57.000Z</time>
      </trkpt>
      <trkpt lat="47.70128" lon="2.53753">
        <ele>131.970503</ele>
        <time>2021-09-09T08:36:03.000Z</time>
      </trkpt>
      <trkpt lat="47.70099" lon="2.53705">
        <ele>131.953371</ele>
        <time>2021-09-09T08:36:10.000Z</time>
      </trkpt>
      <trkpt lat="47.70071" lon="2.53667">
        <ele>131.897454</ele>
        <time>2021-09-09T08:36:16.000Z</time>
      </trkpt>
      <trkpt lat="47.70063" lon="2.5366">
        <ele>131.866976</ele>
        <time>2021-09-09T08:36:18.000Z</time>
      </trkpt>
      <trkpt lat="47.70059" lon="2.5366">
        <ele>131.851042</ele>
        <time>2021-09-09T08:36:19.000Z</time>
      </trkpt>
      <trkpt lat="47.70054" lon="2.53662">
        <ele>131.834505</ele>
        <time>2021-09-09T08:36:20.000Z</time>
      </trkpt>
      <trkpt lat="47.70034" lon="2.53673">
        <ele>131.7599</ele>
        <time>2021-09-09T08:36:24.000Z</time>
      </trkpt>
      <trkpt lat="47.69991" lon="2.53697">
        <ele>131.599981</ele>
        <time>2021-09-09T08:36:32.000Z</time>
      </trkpt>
      <trkpt lat="47.69948" lon="2.53719">
        <ele>131.444514</ele>
        <time>2021-09-09T08:36:40.000Z</time>
      </trkpt>
      <trkpt lat="47.69928" lon="2.5373">
        <ele>131.369993</ele>
        <time>2021-09-09T08:36:44.000Z</time>
      </trkpt>
      <trkpt lat="47.69918" lon="2.53736">
        <ele>131.331516</ele>
        <time>2021-09-09T08:36:46.000Z</time>
      </trkpt>
      <trkpt lat="47.69892" lon="2.53757">
        <ele>131.177457</ele>
        <time>2021-09-09T08:36:51.000Z</time>
      </trkpt>
      <trkpt lat="47.69883" lon="2.53769">
        <ele>131.107585</ele>
        <time>2021-09-09T08:36:53.000Z</time>
      </trkpt>
      <trkpt lat="47.69843" lon="2.5383">
        <ele>130.795274</ele>
        <time>2021-09-09T08:37:02.000Z</time>
      </trkpt>
      <trkpt lat="47.69839" lon="2.53836">
        <ele>130.763053</ele>
        <time>2021-09-09T08:37:03.000Z</time>
      </trkpt>
      <trkpt lat="47.69829" lon="2.53857">
        <ele>130.66656</ele>
        <time>2021-09-09T08:37:06.000Z</time>
      </trkpt>
      <trkpt lat="47.69825" lon="2.53873">
        <ele>130.601956</ele>
        <time>2021-09-09T08:37:08.000Z</time>
      </trkpt>
      <trkpt lat="47.69823" lon="2.53891">
        <ele>130.535704</ele>
        <time>2021-09-09T08:37:10.000Z</time>
      </trkpt>
      <trkpt lat="47.69825" lon="2.53909">
        <ele>130.466925</ele>
        <time>2021-09-09T08:37:12.000Z</time>
      </trkpt>
      <trkpt lat="47.69834" lon="2.53945">
        <ele>130.33371</ele>
        <time>2021-09-09T08:37:16.000Z</time>
      </trkpt>
      <trkpt lat="47.69835" lon="2.53954">
        <ele>130.377088</ele>
        <time>2021-09-09T08:37:17.000Z</time>
      </trkpt>
      <trkpt lat="47.69846" lon="2.53995">
        <ele>130.574274</ele>
        <time>2021-09-09T08:37:22.000Z</time>
      </trkpt>
      <trkpt lat="47.6985" lon="2.54001">
        <ele>130.611863</ele>
        <time>2021-09-09T08:37:23.000Z</time>
      </trkpt>
      <trkpt lat="47.69879" lon="2.54038">
        <ele>130.864923</ele>
        <time>2021-09-09T08:37:30.000Z</time>
      </trkpt>
      <trkpt lat="47.69891" lon="2.54052">
        <ele>130.965668</ele>
        <time>2021-09-09T08:37:33.000Z</time>
      </trkpt>
      <trkpt lat="47.69895" lon="2.54065">
        <ele>131.027427</ele>
        <time>2021-09-09T08:37:35.000Z</time>
      </trkpt>
      <trkpt lat="47.69892" lon="2.54099">
        <ele>131.180444</ele>
        <time>2021-09-09T08:37:40.000Z</time>
      </trkpt>
      <trkpt lat="47.69888" lon="2.54143">
        <ele>131.382575</ele>
        <time>2021-09-09T08:37:47.000Z</time>
      </trkpt>
      <trkpt lat="47.69886" lon="2.54168">
        <ele>131.493805</ele>
        <time>2021-09-09T08:37:51.000Z</time>
      </trkpt>
      <trkpt lat="47.69885" lon="2.54186">
        <ele>131.616074</ele>
        <time>2021-09-09T08:37:54.000Z</time>
      </trkpt>
      <trkpt lat="47.69884" lon="2.54192">
        <ele>131.675113</ele>
        <time>2021-09-09T08:37:55.000Z</time>
      </trkpt>
      <trkpt lat="47.69881" lon="2.54204">
        <ele>131.788568</ele>
        <time>2021-09-09T08:37:57.000Z</time>
      </trkpt>
      <trkpt lat="47.69877" lon="2.54217">
        <ele>131.908123</ele>
        <time>2021-09-09T08:37:59.000Z</time>
      </trkpt>
      <trkpt lat="47.69875" lon="2.54224">
        <ele>131.974815</ele>
        <time>2021-09-09T08:38:00.000Z</time>
      </trkpt>
      <trkpt lat="47.69868" lon="2.54244">
        <ele>132.170174</ele>
        <time>2021-09-09T08:38:03.000Z</time>
      </trkpt>
      <trkpt lat="47.69866" lon="2.5425">
        <ele>132.235871</ele>
        <time>2021-09-09T08:38:04.000Z</time>
      </trkpt>
      <trkpt lat="47.6985" lon="2.54295">
        <ele>132.674319</ele>
        <time>2021-09-09T08:38:11.000Z</time>
      </trkpt>
      <trkpt lat="47.69833" lon="2.54331">
        <ele>133.063523</ele>
        <time>2021-09-09T08:38:17.000Z</time>
      </trkpt>
      <trkpt lat="47.69825" lon="2.54352">
        <ele>133.268351</ele>
        <time>2021-09-09T08:38:20.000Z</time>
      </trkpt>
      <trkpt lat="47.69815" lon="2.54379">
        <ele>133.544922</ele>
        <time>2021-09-09T08:38:24.000Z</time>
      </trkpt>
      <trkpt lat="47.698" lon="2.54416">
        <ele>133.887466</ele>
        <time>2021-09-09T08:38:29.000Z</time>
      </trkpt>
      <trkpt lat="47.69794" lon="2.5443">
        <ele>133.962767</ele>
        <time>2021-09-09T08:38:31.000Z</time>
      </trkpt>
      <trkpt lat="47.69768" lon="2.54498">
        <ele>134.304532</ele>
        <time>2021-09-09T08:38:40.000Z</time>
      </trkpt>
      <trkpt lat="47.69742" lon="2.54565">
        <ele>134.64167</ele>
        <time>2021-09-09T08:38:49.000Z</time>
      </trkpt>
      <trkpt lat="47.6972" lon="2.54626">
        <ele>134.942685</ele>
        <time>2021-09-09T08:38:57.000Z</time>
      </trkpt>
      <trkpt lat="47.69693" lon="2.54698">
        <ele>135.125196</ele>
        <time>2021-09-09T08:39:06.000Z</time>
      </trkpt>
      <trkpt lat="47.69667" lon="2.5477">
        <ele>135.254018</ele>
        <time>2021-09-09T08:39:15.000Z</time>
      </trkpt>
      <trkpt lat="47.69639" lon="2.54841">
        <ele>135.381328</ele>
        <time>2021-09-09T08:39:24.000Z</time>
      </trkpt>
      <trkpt lat="47.69614" lon="2.54902">
        <ele>135.498222</ele>
        <time>2021-09-09T08:39:32.000Z</time>
      </trkpt>
      <trkpt lat="47.69585" lon="2.54977">
        <ele>135.645334</ele>
        <time>2021-09-09T08:39:42.000Z</time>
      </trkpt>
      <trkpt lat="47.69555" lon="2.5505">
        <ele>135.791886</ele>
        <time>2021-09-09T08:39:52.000Z</time>
      </trkpt>
      <trkpt lat="47.6953" lon="2.55108">
        <ele>135.902148</ele>
        <time>2021-09-09T08:40:00.000Z</time>
      </trkpt>
      <trkpt lat="47.69504" lon="2.55167">
        <ele>135.922817</ele>
        <time>2021-09-09T08:40:08.000Z</time>
      </trkpt>
      <trkpt lat="47.69476" lon="2.55228">
        <ele>135.944512</ele>
        <time>2021-09-09T08:40:16.000Z</time>
      </trkpt>
      <trkpt lat="47.69447" lon="2.55291">
        <ele>135.967037</ele>
        <time>2021-09-09T08:40:24.000Z</time>
      </trkpt>
      <trkpt lat="47.69423" lon="2.55338">
        <ele>135.884921</ele>
        <time>2021-09-09T08:40:30.000Z</time>
      </trkpt>
      <trkpt lat="47.69385" lon="2.55405">
        <ele>135.421214</ele>
        <time>2021-09-09T08:40:39.000Z</time>
      </trkpt>
      <trkpt lat="47.69381" lon="2.55412">
        <ele>135.371022</ele>
        <time>2021-09-09T08:40:40.000Z</time>
      </trkpt>
      <trkpt lat="47.69348" lon="2.55465">
        <ele>134.988665</ele>
        <time>2021-09-09T08:40:47.000Z</time>
      </trkpt>
      <trkpt lat="47.69328" lon="2.5551">
        <ele>134.702729</ele>
        <time>2021-09-09T08:40:52.000Z</time>
      </trkpt>
      <trkpt lat="47.69314" lon="2.55565">
        <ele>134.270802</ele>
        <time>2021-09-09T08:40:57.000Z</time>
      </trkpt>
      <trkpt lat="47.69295" lon="2.55639">
        <ele>133.567669</ele>
        <time>2021-09-09T08:41:03.000Z</time>
      </trkpt>
      <trkpt lat="47.6927" lon="2.55705">
        <ele>132.898949</ele>
        <time>2021-09-09T08:41:09.000Z</time>
      </trkpt>
      <trkpt lat="47.69237" lon="2.55773">
        <ele>132.162031</ele>
        <time>2021-09-09T08:41:16.000Z</time>
      </trkpt>
      <trkpt lat="47.69233" lon="2.55782">
        <ele>132.083925</ele>
        <time>2021-09-09T08:41:17.000Z</time>
      </trkpt>
      <trkpt lat="47.69203" lon="2.55844">
        <ele>131.568495</ele>
        <time>2021-09-09T08:41:24.000Z</time>
      </trkpt>
      <trkpt lat="47.69172" lon="2.55903">
        <ele>131.066147</ele>
        <time>2021-09-09T08:41:31.000Z</time>
      </trkpt>
      <trkpt lat="47.69138" lon="2.55966">
        <ele>130.519106</ele>
        <time>2021-09-09T08:41:39.000Z</time>
      </trkpt>
      <trkpt lat="47.6913" lon="2.55982">
        <ele>130.382508</ele>
        <time>2021-09-09T08:41:41.000Z</time>
      </trkpt>
      <trkpt lat="47.69117" lon="2.56018">
        <ele>130.114908</ele>
        <time>2021-09-09T08:41:45.000Z</time>
      </trkpt>
      <trkpt lat="47.69103" lon="2.56074">
        <ele>129.720701</ele>
        <time>2021-09-09T08:41:51.000Z</time>
      </trkpt>
      <trkpt lat="47.69086" lon="2.56151">
        <ele>129.189818</ele>
        <time>2021-09-09T08:41:59.000Z</time>
      </trkpt>
      <trkpt lat="47.69084" lon="2.56161">
        <ele>129.123651</ele>
        <time>2021-09-09T08:42:00.000Z</time>
      </trkpt>
      <trkpt lat="47.69061" lon="2.56223">
        <ele>128.660779</ele>
        <time>2021-09-09T08:42:07.000Z</time>
      </trkpt>
      <trkpt lat="47.69025" lon="2.56293">
        <ele>128.283494</ele>
        <time>2021-09-09T08:42:16.000Z</time>
      </trkpt>
      <trkpt lat="47.69021" lon="2.56301">
        <ele>128.242918</ele>
        <time>2021-09-09T08:42:17.000Z</time>
      </trkpt>
      <trkpt lat="47.68984" lon="2.56367">
        <ele>127.887584</ele>
        <time>2021-09-09T08:42:26.000Z</time>
      </trkpt>
      <trkpt lat="47.6898" lon="2.56375">
        <ele>127.84836</ele>
        <time>2021-09-09T08:42:27.000Z</time>
      </trkpt>
      <trkpt lat="47.68949" lon="2.56432">
        <ele>127.5455</ele>
        <time>2021-09-09T08:42:35.000Z</time>
      </trkpt>
      <trkpt lat="47.68911" lon="2.56498">
        <ele>127.36992</ele>
        <time>2021-09-09T08:42:44.000Z</time>
      </trkpt>
      <trkpt lat="47.68875" lon="2.56563">
        <ele>127.213492</ele>
        <time>2021-09-09T08:42:53.000Z</time>
      </trkpt>
      <trkpt lat="47.68839" lon="2.56625">
        <ele>127.061226</ele>
        <time>2021-09-09T08:43:02.000Z</time>
      </trkpt>
      <trkpt lat="47.68836" lon="2.56633">
        <ele>127.04456</ele>
        <time>2021-09-09T08:43:03.000Z</time>
      </trkpt>
      <trkpt lat="47.68812" lon="2.56697">
        <ele>126.9091</ele>
        <time>2021-09-09T08:43:11.000Z</time>
      </trkpt>
      <trkpt lat="47.68789" lon="2.56774">
        <ele>126.751897</ele>
        <time>2021-09-09T08:43:20.000Z</time>
      </trkpt>
      <trkpt lat="47.68781" lon="2.568">
        <ele>126.698911</ele>
        <time>2021-09-09T08:43:23.000Z</time>
      </trkpt>
      <trkpt lat="47.68757" lon="2.56878">
        <ele>126.54027</ele>
        <time>2021-09-09T08:43:32.000Z</time>
      </trkpt>
      <trkpt lat="47.68733" lon="2.56955">
        <ele>126.509092</ele>
        <time>2021-09-09T08:43:41.000Z</time>
      </trkpt>
      <trkpt lat="47.68731" lon="2.56963">
        <ele>126.50677</ele>
        <time>2021-09-09T08:43:42.000Z</time>
      </trkpt>
      <trkpt lat="47.68709" lon="2.57031">
        <ele>126.488426</ele>
        <time>2021-09-09T08:43:50.000Z</time>
      </trkpt>
      <trkpt lat="47.68688" lon="2.57109">
        <ele>126.467826</ele>
        <time>2021-09-09T08:43:59.000Z</time>
      </trkpt>
      <trkpt lat="47.68669" lon="2.57187">
        <ele>126.448012</ele>
        <time>2021-09-09T08:44:08.000Z</time>
      </trkpt>
      <trkpt lat="47.68667" lon="2.57196">
        <ele>126.445845</ele>
        <time>2021-09-09T08:44:09.000Z</time>
      </trkpt>
      <trkpt lat="47.68648" lon="2.57274">
        <ele>126.426425</ele>
        <time>2021-09-09T08:44:18.000Z</time>
      </trkpt>
      <trkpt lat="47.68646" lon="2.57283">
        <ele>126.424258</ele>
        <time>2021-09-09T08:44:19.000Z</time>
      </trkpt>
      <trkpt lat="47.68628" lon="2.5736">
        <ele>126.40504</ele>
        <time>2021-09-09T08:44:28.000Z</time>
      </trkpt>
      <trkpt lat="47.68626" lon="2.57369">
        <ele>126.40285</ele>
        <time>2021-09-09T08:44:29.000Z</time>
      </trkpt>
      <trkpt lat="47.6861" lon="2.57431">
        <ele>126.399997</ele>
        <time>2021-09-09T08:44:36.000Z</time>
      </trkpt>
      <trkpt lat="47.68594" lon="2.57502">
        <ele>126.399997</ele>
        <time>2021-09-09T08:44:44.000Z</time>
      </trkpt>
      <trkpt lat="47.68574" lon="2.57582">
        <ele>126.399997</ele>
        <time>2021-09-09T08:44:53.000Z</time>
      </trkpt>
      <trkpt lat="47.68557" lon="2.57653">
        <ele>126.412883</ele>
        <time>2021-09-09T08:45:01.000Z</time>
      </trkpt>
      <trkpt lat="47.68541" lon="2.57714">
        <ele>126.450368</ele>
        <time>2021-09-09T08:45:08.000Z</time>
      </trkpt>
      <trkpt lat="47.68518" lon="2.57773">
        <ele>126.488641</ele>
        <time>2021-09-09T08:45:15.000Z</time>
      </trkpt>
      <trkpt lat="47.68488" lon="2.57844">
        <ele>126.53632</ele>
        <time>2021-09-09T08:45:24.000Z</time>
      </trkpt>
      <trkpt lat="47.68484" lon="2.57851">
        <ele>126.541507</ele>
        <time>2021-09-09T08:45:25.000Z</time>
      </trkpt>
      <trkpt lat="47.68455" lon="2.57921">
        <ele>126.603005</ele>
        <time>2021-09-09T08:45:34.000Z</time>
      </trkpt>
      <trkpt lat="47.68448" lon="2.57937">
        <ele>126.617592</ele>
        <time>2021-09-09T08:45:36.000Z</time>
      </trkpt>
      <trkpt lat="47.68418" lon="2.58008">
        <ele>126.683169</ele>
        <time>2021-09-09T08:45:45.000Z</time>
      </trkpt>
      <trkpt lat="47.68405" lon="2.58039">
        <ele>126.712615</ele>
        <time>2021-09-09T08:45:49.000Z</time>
      </trkpt>
      <trkpt lat="47.68374" lon="2.58112">
        <ele>126.781053</ele>
        <time>2021-09-09T08:45:58.000Z</time>
      </trkpt>
      <trkpt lat="47.68371" lon="2.5812">
        <ele>126.788805</ele>
        <time>2021-09-09T08:45:59.000Z</time>
      </trkpt>
      <trkpt lat="47.6834" lon="2.58193">
        <ele>126.859279</ele>
        <time>2021-09-09T08:46:08.000Z</time>
      </trkpt>
      <trkpt lat="47.68312" lon="2.58258">
        <ele>126.922698</ele>
        <time>2021-09-09T08:46:16.000Z</time>
      </trkpt>
      <trkpt lat="47.68283" lon="2.58332">
        <ele>126.991167</ele>
        <time>2021-09-09T08:46:25.000Z</time>
      </trkpt>
      <trkpt lat="47.6828" lon="2.58341">
        <ele>126.997833</ele>
        <time>2021-09-09T08:46:26.000Z</time>
      </trkpt>
      <trkpt lat="47.68252" lon="2.58416">
        <ele>127.056953</ele>
        <time>2021-09-09T08:46:35.000Z</time>
      </trkpt>
      <trkpt lat="47.68243" lon="2.5844">
        <ele>127.076237</ele>
        <time>2021-09-09T08:46:38.000Z</time>
      </trkpt>
      <trkpt lat="47.68216" lon="2.58514">
        <ele>127.134122</ele>
        <time>2021-09-09T08:46:47.000Z</time>
      </trkpt>
      <trkpt lat="47.68213" lon="2.58522">
        <ele>127.140448</ele>
        <time>2021-09-09T08:46:48.000Z</time>
      </trkpt>
      <trkpt lat="47.68189" lon="2.58586">
        <ele>127.189064</ele>
        <time>2021-09-09T08:46:56.000Z</time>
      </trkpt>
      <trkpt lat="47.68162" lon="2.58659">
        <ele>127.241419</ele>
        <time>2021-09-09T08:47:05.000Z</time>
      </trkpt>
      <trkpt lat="47.68153" lon="2.58684">
        <ele>127.259427</ele>
        <time>2021-09-09T08:47:08.000Z</time>
      </trkpt>
      <trkpt lat="47.68128" lon="2.58752">
        <ele>127.308063</ele>
        <time>2021-09-09T08:47:16.000Z</time>
      </trkpt>
      <trkpt lat="47.68099" lon="2.5883">
        <ele>127.35465</ele>
        <time>2021-09-09T08:47:25.000Z</time>
      </trkpt>
      <trkpt lat="47.68081" lon="2.58895">
        <ele>127.384485</ele>
        <time>2021-09-09T08:47:32.000Z</time>
      </trkpt>
      <trkpt lat="47.68065" lon="2.58956">
        <ele>127.412634</ele>
        <time>2021-09-09T08:47:39.000Z</time>
      </trkpt>
      <trkpt lat="47.68047" lon="2.59033">
        <ele>127.447522</ele>
        <time>2021-09-09T08:47:48.000Z</time>
      </trkpt>
      <trkpt lat="47.6803" lon="2.5909">
        <ele>127.467572</ele>
        <time>2021-09-09T08:47:55.000Z</time>
      </trkpt>
      <trkpt lat="47.68015" lon="2.59141">
        <ele>127.485254</ele>
        <time>2021-09-09T08:48:01.000Z</time>
      </trkpt>
      <trkpt lat="47.68" lon="2.59191">
        <ele>127.502837</ele>
        <time>2021-09-09T08:48:07.000Z</time>
      </trkpt>
      <trkpt lat="47.67992" lon="2.59216">
        <ele>127.511619</ele>
        <time>2021-09-09T08:48:10.000Z</time>
      </trkpt>
      <trkpt lat="47.67986" lon="2.59232">
        <ele>127.517517</ele>
        <time>2021-09-09T08:48:12.000Z</time>
      </trkpt>
      <trkpt lat="47.67969" lon="2.59293">
        <ele>127.532106</ele>
        <time>2021-09-09T08:48:19.000Z</time>
      </trkpt>
      <trkpt lat="47.67952" lon="2.59356">
        <ele>127.525718</ele>
        <time>2021-09-09T08:48:26.000Z</time>
      </trkpt>
      <trkpt lat="47.67936" lon="2.59409">
        <ele>127.520268</ele>
        <time>2021-09-09T08:48:32.000Z</time>
      </trkpt>
      <trkpt lat="47.67915" lon="2.5948">
        <ele>127.512973</ele>
        <time>2021-09-09T08:48:40.000Z</time>
      </trkpt>
      <trkpt lat="47.67895" lon="2.59549">
        <ele>127.525772</ele>
        <time>2021-09-09T08:48:48.000Z</time>
      </trkpt>
      <trkpt lat="47.67874" lon="2.59619">
        <ele>127.574463</ele>
        <time>2021-09-09T08:48:56.000Z</time>
      </trkpt>
      <trkpt lat="47.67853" lon="2.59688">
        <ele>127.622645</ele>
        <time>2021-09-09T08:49:04.000Z</time>
      </trkpt>
      <trkpt lat="47.67832" lon="2.59765">
        <ele>127.676259</ele>
        <time>2021-09-09T08:49:13.000Z</time>
      </trkpt>
      <trkpt lat="47.67813" lon="2.59824">
        <ele>127.71056</ele>
        <time>2021-09-09T08:49:20.000Z</time>
      </trkpt>
      <trkpt lat="47.6781" lon="2.59831">
        <ele>127.715192</ele>
        <time>2021-09-09T08:49:21.000Z</time>
      </trkpt>
      <trkpt lat="47.67794" lon="2.59886">
        <ele>127.746324</ele>
        <time>2021-09-09T08:49:28.000Z</time>
      </trkpt>
      <trkpt lat="47.67793" lon="2.59895">
        <ele>127.750773</ele>
        <time>2021-09-09T08:49:29.000Z</time>
      </trkpt>
      <trkpt lat="47.67793" lon="2.59912">
        <ele>127.759716</ele>
        <time>2021-09-09T08:49:31.000Z</time>
      </trkpt>
      <trkpt lat="47.68116" lon="2.63033">
        <ele>127.193021</ele>
        <time>2021-09-09T09:22:51.000Z</time>
      </trkpt>
      <trkpt lat="47.68112" lon="2.63044">
        <ele>127.54272</ele>
        <time>2021-09-09T09:27:25.000Z</time>
      </trkpt>
      <trkpt lat="47.68109" lon="2.63047">
        <ele>127.680712</ele>
        <time>2021-09-09T09:27:27.000Z</time>
      </trkpt>
      <trkpt lat="47.68103" lon="2.63067">
        <ele>128.303729</ele>
        <time>2021-09-09T09:27:32.000Z</time>
      </trkpt>
      <trkpt lat="47.681" lon="2.63078">
        <ele>128.67047</ele>
        <time>2021-09-09T09:27:34.000Z</time>
      </trkpt>
      <trkpt lat="47.68094" lon="2.6309">
        <ele>129.09756</ele>
        <time>2021-09-09T09:27:36.000Z</time>
      </trkpt>
      <trkpt lat="47.68071" lon="2.63143">
        <ele>130.890124</ele>
        <time>2021-09-09T09:27:44.000Z</time>
      </trkpt>
      <trkpt lat="47.68064" lon="2.63165">
        <ele>131.569241</ele>
        <time>2021-09-09T09:27:47.000Z</time>
      </trkpt>
      <trkpt lat="47.68059" lon="2.63178">
        <ele>131.734289</ele>
        <time>2021-09-09T09:27:49.000Z</time>
      </trkpt>
      <trkpt lat="47.68043" lon="2.63223">
        <ele>131.445885</ele>
        <time>2021-09-09T09:27:55.000Z</time>
      </trkpt>
      <trkpt lat="47.68028" lon="2.63265">
        <ele>131.173705</ele>
        <time>2021-09-09T09:28:01.000Z</time>
      </trkpt>
      <trkpt lat="47.68013" lon="2.6331">
        <ele>130.886975</ele>
        <time>2021-09-09T09:28:08.000Z</time>
      </trkpt>
      <trkpt lat="47.68011" lon="2.63316">
        <ele>130.845989</ele>
        <time>2021-09-09T09:28:09.000Z</time>
      </trkpt>
      <trkpt lat="47.68001" lon="2.63343">
        <ele>130.676715</ele>
        <time>2021-09-09T09:28:13.000Z</time>
      </trkpt>
      <trkpt lat="47.67988" lon="2.63384">
        <ele>130.413885</ele>
        <time>2021-09-09T09:28:19.000Z</time>
      </trkpt>
      <trkpt lat="47.67973" lon="2.63424">
        <ele>130.282597</ele>
        <time>2021-09-09T09:28:25.000Z</time>
      </trkpt>
      <trkpt lat="47.67966" lon="2.63445">
        <ele>130.314268</ele>
        <time>2021-09-09T09:28:28.000Z</time>
      </trkpt>
      <trkpt lat="47.67958" lon="2.63466">
        <ele>130.346309</ele>
        <time>2021-09-09T09:28:31.000Z</time>
      </trkpt>
      <trkpt lat="47.6795" lon="2.63487">
        <ele>130.37808</ele>
        <time>2021-09-09T09:28:34.000Z</time>
      </trkpt>
      <trkpt lat="47.67942" lon="2.63509">
        <ele>130.410798</ele>
        <time>2021-09-09T09:28:37.000Z</time>
      </trkpt>
      <trkpt lat="47.67932" lon="2.6354">
        <ele>130.456941</ele>
        <time>2021-09-09T09:28:41.000Z</time>
      </trkpt>
      <trkpt lat="47.67927" lon="2.63556">
        <ele>130.480472</ele>
        <time>2021-09-09T09:28:43.000Z</time>
      </trkpt>
      <trkpt lat="47.67925" lon="2.63564">
        <ele>130.491914</ele>
        <time>2021-09-09T09:28:44.000Z</time>
      </trkpt>
      <trkpt lat="47.6792" lon="2.63579">
        <ele>130.513331</ele>
        <time>2021-09-09T09:28:46.000Z</time>
      </trkpt>
      <trkpt lat="47.67918" lon="2.63586">
        <ele>130.523662</ele>
        <time>2021-09-09T09:28:47.000Z</time>
      </trkpt>
      <trkpt lat="47.67913" lon="2.63601">
        <ele>130.546218</ele>
        <time>2021-09-09T09:28:49.000Z</time>
      </trkpt>
      <trkpt lat="47.67906" lon="2.63625">
        <ele>130.580556</ele>
        <time>2021-09-09T09:28:52.000Z</time>
      </trkpt>
      <trkpt lat="47.67904" lon="2.63632">
        <ele>130.591557</ele>
        <time>2021-09-09T09:28:53.000Z</time>
      </trkpt>
      <trkpt lat="47.67897" lon="2.63659">
        <ele>130.619425</ele>
        <time>2021-09-09T09:28:56.000Z</time>
      </trkpt>
      <trkpt lat="47.67885" lon="2.63712">
        <ele>130.648735</ele>
        <time>2021-09-09T09:29:02.000Z</time>
      </trkpt>
      <trkpt lat="47.67884" lon="2.63719">
        <ele>130.652958</ele>
        <time>2021-09-09T09:29:03.000Z</time>
      </trkpt>
      <trkpt lat="47.6788" lon="2.63734">
        <ele>130.66138</ele>
        <time>2021-09-09T09:29:05.000Z</time>
      </trkpt>
      <trkpt lat="47.67875" lon="2.63749">
        <ele>130.669833</ele>
        <time>2021-09-09T09:29:07.000Z</time>
      </trkpt>
      <trkpt lat="47.67871" lon="2.63764">
        <ele>130.678431</ele>
        <time>2021-09-09T09:29:09.000Z</time>
      </trkpt>
      <trkpt lat="47.67868" lon="2.6377">
        <ele>130.682324</ele>
        <time>2021-09-09T09:29:10.000Z</time>
      </trkpt>
      <trkpt lat="47.67865" lon="2.63774">
        <ele>130.685874</ele>
        <time>2021-09-09T09:29:11.000Z</time>
      </trkpt>
      <trkpt lat="47.6786" lon="2.63774">
        <ele>130.689551</ele>
        <time>2021-09-09T09:29:12.000Z</time>
      </trkpt>
      <trkpt lat="47.67855" lon="2.63772">
        <ele>130.693862</ele>
        <time>2021-09-09T09:29:13.000Z</time>
      </trkpt>
      <trkpt lat="47.67838" lon="2.63759">
        <ele>130.708729</ele>
        <time>2021-09-09T09:29:16.000Z</time>
      </trkpt>
      <trkpt lat="47.67798" lon="2.6373">
        <ele>130.743697</ele>
        <time>2021-09-09T09:29:23.000Z</time>
      </trkpt>
      <trkpt lat="47.6777" lon="2.63713">
        <ele>130.564922</ele>
        <time>2021-09-09T09:29:28.000Z</time>
      </trkpt>
      <trkpt lat="47.67735" lon="2.63691">
        <ele>130.148428</ele>
        <time>2021-09-09T09:29:34.000Z</time>
      </trkpt>
      <trkpt lat="47.67729" lon="2.63687">
        <ele>130.078056</ele>
        <time>2021-09-09T09:29:35.000Z</time>
      </trkpt>
      <trkpt lat="47.67705" lon="2.63673">
        <ele>129.791012</ele>
        <time>2021-09-09T09:29:39.000Z</time>
      </trkpt>
      <trkpt lat="47.67692" lon="2.63666">
        <ele>129.647204</ele>
        <time>2021-09-09T09:29:41.000Z</time>
      </trkpt>
      <trkpt lat="47.67655" lon="2.63645">
        <ele>129.210131</ele>
        <time>2021-09-09T09:29:47.000Z</time>
      </trkpt>
      <trkpt lat="47.67624" lon="2.63631">
        <ele>128.859371</ele>
        <time>2021-09-09T09:29:52.000Z</time>
      </trkpt>
      <trkpt lat="47.67619" lon="2.63627">
        <ele>128.790043</ele>
        <time>2021-09-09T09:29:53.000Z</time>
      </trkpt>
      <trkpt lat="47.67612" lon="2.63624">
        <ele>128.733249</ele>
        <time>2021-09-09T09:29:54.000Z</time>
      </trkpt>
      <trkpt lat="47.67587" lon="2.63613">
        <ele>128.506852</ele>
        <time>2021-09-09T09:29:58.000Z</time>
      </trkpt>
      <trkpt lat="47.67581" lon="2.63611">
        <ele>128.449753</ele>
        <time>2021-09-09T09:29:59.000Z</time>
      </trkpt>
      <trkpt lat="47.67569" lon="2.63605">
        <ele>128.338166</ele>
        <time>2021-09-09T09:30:01.000Z</time>
      </trkpt>
      <trkpt lat="47.67563" lon="2.63602">
        <ele>128.28456</ele>
        <time>2021-09-09T09:30:02.000Z</time>
      </trkpt>
      <trkpt lat="47.67528" lon="2.63582">
        <ele>127.961159</ele>
        <time>2021-09-09T09:30:08.000Z</time>
      </trkpt>
      <trkpt lat="47.67496" lon="2.63561">
        <ele>127.651822</ele>
        <time>2021-09-09T09:30:14.000Z</time>
      </trkpt>
      <trkpt lat="47.67469" lon="2.6354">
        <ele>127.389759</ele>
        <time>2021-09-09T09:30:19.000Z</time>
      </trkpt>
      <trkpt lat="47.67454" lon="2.63528">
        <ele>127.241332</ele>
        <time>2021-09-09T09:30:22.000Z</time>
      </trkpt>
      <trkpt lat="47.6745" lon="2.63523">
        <ele>127.212674</ele>
        <time>2021-09-09T09:30:23.000Z</time>
      </trkpt>
      <trkpt lat="47.67447" lon="2.63517">
        <ele>127.198479</ele>
        <time>2021-09-09T09:30:24.000Z</time>
      </trkpt>
      <trkpt lat="47.67441" lon="2.63509">
        <ele>127.171404</ele>
        <time>2021-09-09T09:30:26.000Z</time>
      </trkpt>
      <trkpt lat="47.67433" lon="2.63503">
        <ele>127.142432</ele>
        <time>2021-09-09T09:30:28.000Z</time>
      </trkpt>
      <trkpt lat="47.67425" lon="2.63496">
        <ele>127.113661</ele>
        <time>2021-09-09T09:30:30.000Z</time>
      </trkpt>
      <trkpt lat="47.6742" lon="2.63493">
        <ele>127.097901</ele>
        <time>2021-09-09T09:30:31.000Z</time>
      </trkpt>
      <trkpt lat="47.67416" lon="2.6349">
        <ele>127.081935</ele>
        <time>2021-09-09T09:30:32.000Z</time>
      </trkpt>
      <trkpt lat="47.67407" lon="2.63479">
        <ele>127.047831</ele>
        <time>2021-09-09T09:30:34.000Z</time>
      </trkpt>
      <trkpt lat="47.674" lon="2.63468">
        <ele>127.013203</ele>
        <time>2021-09-09T09:30:36.000Z</time>
      </trkpt>
      <trkpt lat="47.67389" lon="2.6346">
        <ele>126.977966</ele>
        <time>2021-09-09T09:30:38.000Z</time>
      </trkpt>
      <trkpt lat="47.67378" lon="2.63462">
        <ele>126.94302</ele>
        <time>2021-09-09T09:30:40.000Z</time>
      </trkpt>
      <trkpt lat="47.67374" lon="2.63466">
        <ele>126.925623</ele>
        <time>2021-09-09T09:30:41.000Z</time>
      </trkpt>
      <trkpt lat="47.6737" lon="2.63473">
        <ele>126.908403</ele>
        <time>2021-09-09T09:30:42.000Z</time>
      </trkpt>
      <trkpt lat="47.67368" lon="2.63488">
        <ele>126.874867</ele>
        <time>2021-09-09T09:30:44.000Z</time>
      </trkpt>
      <trkpt lat="47.67367" lon="2.63503">
        <ele>126.843548</ele>
        <time>2021-09-09T09:30:46.000Z</time>
      </trkpt>
      <trkpt lat="47.67364" lon="2.63524">
        <ele>126.798614</ele>
        <time>2021-09-09T09:30:49.000Z</time>
      </trkpt>
      <trkpt lat="47.67365" lon="2.63538">
        <ele>126.76841</ele>
        <time>2021-09-09T09:30:51.000Z</time>
      </trkpt>
      <trkpt lat="47.67369" lon="2.63552">
        <ele>126.736091</ele>
        <time>2021-09-09T09:30:53.000Z</time>
      </trkpt>
      <trkpt lat="47.67378" lon="2.63572">
        <ele>126.686658</ele>
        <time>2021-09-09T09:30:56.000Z</time>
      </trkpt>
      <trkpt lat="47.6738" lon="2.63587">
        <ele>126.649858</ele>
        <time>2021-09-09T09:30:58.000Z</time>
      </trkpt>
      <trkpt lat="47.67378" lon="2.63604">
        <ele>126.593681</ele>
        <time>2021-09-09T09:31:00.000Z</time>
      </trkpt>
      <trkpt lat="47.67375" lon="2.63612">
        <ele>126.565082</ele>
        <time>2021-09-09T09:31:01.000Z</time>
      </trkpt>
      <trkpt lat="47.67372" lon="2.63619">
        <ele>126.535838</ele>
        <time>2021-09-09T09:31:02.000Z</time>
      </trkpt>
      <trkpt lat="47.67354" lon="2.63643">
        <ele>126.418585</ele>
        <time>2021-09-09T09:31:06.000Z</time>
      </trkpt>
      <trkpt lat="47.6732" lon="2.63688">
        <ele>126.19816</ele>
        <time>2021-09-09T09:31:13.000Z</time>
      </trkpt>
      <trkpt lat="47.67309" lon="2.637">
        <ele>126.131797</ele>
        <time>2021-09-09T09:31:15.000Z</time>
      </trkpt>
      <trkpt lat="47.67295" lon="2.6372">
        <ele>126.035133</ele>
        <time>2021-09-09T09:31:18.000Z</time>
      </trkpt>
      <trkpt lat="47.67266" lon="2.63761">
        <ele>125.840327</ele>
        <time>2021-09-09T09:31:24.000Z</time>
      </trkpt>
      <trkpt lat="47.67255" lon="2.63773">
        <ele>125.776752</ele>
        <time>2021-09-09T09:31:26.000Z</time>
      </trkpt>
      <trkpt lat="47.6722" lon="2.6382">
        <ele>125.591037</ele>
        <time>2021-09-09T09:31:33.000Z</time>
      </trkpt>
      <trkpt lat="47.67205" lon="2.63839">
        <ele>125.511776</ele>
        <time>2021-09-09T09:31:36.000Z</time>
      </trkpt>
      <trkpt lat="47.67194" lon="2.63851">
        <ele>125.458678</ele>
        <time>2021-09-09T09:31:38.000Z</time>
      </trkpt>
      <trkpt lat="47.67179" lon="2.63873">
        <ele>125.378055</ele>
        <time>2021-09-09T09:31:41.000Z</time>
      </trkpt>
      <trkpt lat="47.6717" lon="2.63886">
        <ele>125.325487</ele>
        <time>2021-09-09T09:31:43.000Z</time>
      </trkpt>
      <trkpt lat="47.67138" lon="2.63935">
        <ele>125.14644</ele>
        <time>2021-09-09T09:31:50.000Z</time>
      </trkpt>
      <trkpt lat="47.67125" lon="2.63957">
        <ele>125.069494</ele>
        <time>2021-09-09T09:31:53.000Z</time>
      </trkpt>
      <trkpt lat="47.67092" lon="2.6401">
        <ele>124.945491</ele>
        <time>2021-09-09T09:32:00.000Z</time>
      </trkpt>
      <trkpt lat="47.6706" lon="2.64063">
        <ele>124.822026</ele>
        <time>2021-09-09T09:32:07.000Z</time>
      </trkpt>
      <trkpt lat="47.67022" lon="2.64133">
        <ele>124.668205</ele>
        <time>2021-09-09T09:32:16.000Z</time>
      </trkpt>
      <trkpt lat="47.66988" lon="2.64197">
        <ele>124.530395</ele>
        <time>2021-09-09T09:32:24.000Z</time>
      </trkpt>
      <trkpt lat="47.66984" lon="2.64205">
        <ele>124.513023</ele>
        <time>2021-09-09T09:32:25.000Z</time>
      </trkpt>
      <trkpt lat="47.66951" lon="2.64268">
        <ele>124.380656</ele>
        <time>2021-09-09T09:32:33.000Z</time>
      </trkpt>
      <trkpt lat="47.66924" lon="2.64323">
        <ele>124.266192</ele>
        <time>2021-09-09T09:32:40.000Z</time>
      </trkpt>
      <trkpt lat="47.66895" lon="2.64387">
        <ele>124.157494</ele>
        <time>2021-09-09T09:32:48.000Z</time>
      </trkpt>
      <trkpt lat="47.66864" lon="2.6446">
        <ele>124.114299</ele>
        <time>2021-09-09T09:32:57.000Z</time>
      </trkpt>
      <trkpt lat="47.6686" lon="2.64468">
        <ele>124.109459</ele>
        <time>2021-09-09T09:32:58.000Z</time>
      </trkpt>
      <trkpt lat="47.66833" lon="2.64532">
        <ele>124.071428</ele>
        <time>2021-09-09T09:33:06.000Z</time>
      </trkpt>
      <trkpt lat="47.66806" lon="2.64604">
        <ele>124.037186</ele>
        <time>2021-09-09T09:33:15.000Z</time>
      </trkpt>
      <trkpt lat="47.66778" lon="2.64675">
        <ele>124.131689</ele>
        <time>2021-09-09T09:33:24.000Z</time>
      </trkpt>
      <trkpt lat="47.66771" lon="2.64688">
        <ele>124.151268</ele>
        <time>2021-09-09T09:33:26.000Z</time>
      </trkpt>
      <trkpt lat="47.66763" lon="2.64697">
        <ele>124.16887</ele>
        <time>2021-09-09T09:33:28.000Z</time>
      </trkpt>
      <trkpt lat="47.66752" lon="2.64697">
        <ele>124.187442</ele>
        <time>2021-09-09T09:33:30.000Z</time>
      </trkpt>
      <trkpt lat="47.66746" lon="2.64695">
        <ele>124.196732</ele>
        <time>2021-09-09T09:33:31.000Z</time>
      </trkpt>
      <trkpt lat="47.66735" lon="2.64688">
        <ele>124.217697</ele>
        <time>2021-09-09T09:33:33.000Z</time>
      </trkpt>
      <trkpt lat="47.66718" lon="2.64678">
        <ele>124.248419</ele>
        <time>2021-09-09T09:33:36.000Z</time>
      </trkpt>
      <trkpt lat="47.66683" lon="2.64664">
        <ele>124.310253</ele>
        <time>2021-09-09T09:33:42.000Z</time>
      </trkpt>
      <trkpt lat="47.66641" lon="2.6466">
        <ele>124.366357</ele>
        <time>2021-09-09T09:33:49.000Z</time>
      </trkpt>
      <trkpt lat="47.66606" lon="2.64659">
        <ele>124.403043</ele>
        <time>2021-09-09T09:33:55.000Z</time>
      </trkpt>
      <trkpt lat="47.66594" lon="2.64659">
        <ele>124.41609</ele>
        <time>2021-09-09T09:33:57.000Z</time>
      </trkpt>
      <trkpt lat="47.66576" lon="2.64662">
        <ele>124.436075</ele>
        <time>2021-09-09T09:34:00.000Z</time>
      </trkpt>
      <trkpt lat="47.66569" lon="2.64664">
        <ele>124.442876</ele>
        <time>2021-09-09T09:34:01.000Z</time>
      </trkpt>
      <trkpt lat="47.66533" lon="2.64682">
        <ele>124.483397</ele>
        <time>2021-09-09T09:34:07.000Z</time>
      </trkpt>
      <trkpt lat="47.66521" lon="2.64686">
        <ele>124.49679</ele>
        <time>2021-09-09T09:34:09.000Z</time>
      </trkpt>
      <trkpt lat="47.66509" lon="2.64686">
        <ele>124.509946</ele>
        <time>2021-09-09T09:34:11.000Z</time>
      </trkpt>
      <trkpt lat="47.66497" lon="2.64683">
        <ele>124.522919</ele>
        <time>2021-09-09T09:34:13.000Z</time>
      </trkpt>
      <trkpt lat="47.6648" lon="2.64673">
        <ele>124.601214</ele>
        <time>2021-09-09T09:34:16.000Z</time>
      </trkpt>
      <trkpt lat="47.66437" lon="2.64637">
        <ele>124.917816</ele>
        <time>2021-09-09T09:34:24.000Z</time>
      </trkpt>
      <trkpt lat="47.66403" lon="2.64609">
        <ele>125.169036</ele>
        <time>2021-09-09T09:34:31.000Z</time>
      </trkpt>
      <trkpt lat="47.66384" lon="2.64596">
        <ele>125.305985</ele>
        <time>2021-09-09T09:34:35.000Z</time>
      </trkpt>
      <trkpt lat="47.66375" lon="2.64593">
        <ele>125.367088</ele>
        <time>2021-09-09T09:34:37.000Z</time>
      </trkpt>
      <trkpt lat="47.66345" lon="2.64591">
        <ele>125.560613</ele>
        <time>2021-09-09T09:34:44.000Z</time>
      </trkpt>
      <trkpt lat="47.6632" lon="2.64587">
        <ele>125.783689</ele>
        <time>2021-09-09T09:34:50.000Z</time>
      </trkpt>
      <trkpt lat="47.66316" lon="2.64586">
        <ele>125.874696</ele>
        <time>2021-09-09T09:34:51.000Z</time>
      </trkpt>
      <trkpt lat="47.66279" lon="2.64569">
        <ele>126.67422</ele>
        <time>2021-09-09T09:35:00.000Z</time>
      </trkpt>
      <trkpt lat="47.66257" lon="2.64569">
        <ele>127.140573</ele>
        <time>2021-09-09T09:35:06.000Z</time>
      </trkpt>
      <trkpt lat="47.6625" lon="2.64589">
        <ele>127.45972</ele>
        <time>2021-09-09T09:35:10.000Z</time>
      </trkpt>
      <trkpt lat="47.66237" lon="2.64636">
        <ele>128.169531</ele>
        <time>2021-09-09T09:35:19.000Z</time>
      </trkpt>
      <trkpt lat="47.66224" lon="2.64683">
        <ele>128.878288</ele>
        <time>2021-09-09T09:35:28.000Z</time>
      </trkpt>
      <trkpt lat="47.66222" lon="2.64695">
        <ele>129.04861</ele>
        <time>2021-09-09T09:35:30.000Z</time>
      </trkpt>
      <trkpt lat="47.66217" lon="2.64714">
        <ele>129.341977</ele>
        <time>2021-09-09T09:35:33.000Z</time>
      </trkpt>
      <trkpt lat="47.66206" lon="2.64764">
        <ele>129.797106</ele>
        <time>2021-09-09T09:35:40.000Z</time>
      </trkpt>
      <trkpt lat="47.66199" lon="2.64802">
        <ele>130.109125</ele>
        <time>2021-09-09T09:35:45.000Z</time>
      </trkpt>
      <trkpt lat="47.66198" lon="2.64809">
        <ele>130.167835</ele>
        <time>2021-09-09T09:35:46.000Z</time>
      </trkpt>
      <trkpt lat="47.66185" lon="2.64877">
        <ele>130.726078</ele>
        <time>2021-09-09T09:35:54.000Z</time>
      </trkpt>
      <trkpt lat="47.66182" lon="2.64932">
        <ele>131.164335</ele>
        <time>2021-09-09T09:36:00.000Z</time>
      </trkpt>
      <trkpt lat="47.66188" lon="2.64998">
        <ele>131.611616</ele>
        <time>2021-09-09T09:36:07.000Z</time>
      </trkpt>
      <trkpt lat="47.66185" lon="2.65053">
        <ele>131.804928</ele>
        <time>2021-09-09T09:36:13.000Z</time>
      </trkpt>
      <trkpt lat="47.66175" lon="2.65107">
        <ele>132.000825</ele>
        <time>2021-09-09T09:36:19.000Z</time>
      </trkpt>
      <trkpt lat="47.66158" lon="2.65185">
        <ele>132.28701</ele>
        <time>2021-09-09T09:36:28.000Z</time>
      </trkpt>
      <trkpt lat="47.66156" lon="2.65194">
        <ele>132.32102</ele>
        <time>2021-09-09T09:36:29.000Z</time>
      </trkpt>
      <trkpt lat="47.6614" lon="2.65253">
        <ele>132.551386</ele>
        <time>2021-09-09T09:36:35.000Z</time>
      </trkpt>
      <trkpt lat="47.66129" lon="2.65298">
        <ele>132.745043</ele>
        <time>2021-09-09T09:36:40.000Z</time>
      </trkpt>
      <trkpt lat="47.66118" lon="2.65347">
        <ele>132.954566</ele>
        <time>2021-09-09T09:36:47.000Z</time>
      </trkpt>
      <trkpt lat="47.66103" lon="2.65407">
        <ele>133.209578</ele>
        <time>2021-09-09T09:36:55.000Z</time>
      </trkpt>
      <trkpt lat="47.66086" lon="2.65464">
        <ele>133.462246</ele>
        <time>2021-09-09T09:37:02.000Z</time>
      </trkpt>
      <trkpt lat="47.66075" lon="2.655">
        <ele>133.578316</ele>
        <time>2021-09-09T09:37:06.000Z</time>
      </trkpt>
      <trkpt lat="47.66069" lon="2.6552">
        <ele>133.600832</ele>
        <time>2021-09-09T09:37:08.000Z</time>
      </trkpt>
      <trkpt lat="47.66042" lon="2.65581">
        <ele>133.678391</ele>
        <time>2021-09-09T09:37:15.000Z</time>
      </trkpt>
      <trkpt lat="47.66018" lon="2.65628">
        <ele>133.741951</ele>
        <time>2021-09-09T09:37:22.000Z</time>
      </trkpt>
      <trkpt lat="47.66002" lon="2.65664">
        <ele>133.787502</ele>
        <time>2021-09-09T09:37:28.000Z</time>
      </trkpt>
      <trkpt lat="47.65987" lon="2.65701">
        <ele>133.833807</ele>
        <time>2021-09-09T09:37:34.000Z</time>
      </trkpt>
      <trkpt lat="47.65969" lon="2.65744">
        <ele>133.992583</ele>
        <time>2021-09-09T09:37:41.000Z</time>
      </trkpt>
      <trkpt lat="47.65949" lon="2.65795">
        <ele>134.210593</ele>
        <time>2021-09-09T09:37:49.000Z</time>
      </trkpt>
      <trkpt lat="47.65947" lon="2.65801">
        <ele>134.236279</ele>
        <time>2021-09-09T09:37:50.000Z</time>
      </trkpt>
      <trkpt lat="47.65941" lon="2.65811">
        <ele>134.286238</ele>
        <time>2021-09-09T09:37:52.000Z</time>
      </trkpt>
      <trkpt lat="47.65935" lon="2.65822">
        <ele>134.339328</ele>
        <time>2021-09-09T09:37:54.000Z</time>
      </trkpt>
      <trkpt lat="47.65926" lon="2.65855">
        <ele>134.472421</ele>
        <time>2021-09-09T09:37:59.000Z</time>
      </trkpt>
      <trkpt lat="47.65916" lon="2.6591">
        <ele>134.68334</ele>
        <time>2021-09-09T09:38:06.000Z</time>
      </trkpt>
      <trkpt lat="47.65912" lon="2.65935">
        <ele>134.78077</ele>
        <time>2021-09-09T09:38:09.000Z</time>
      </trkpt>
      <trkpt lat="47.65905" lon="2.65961">
        <ele>134.843882</ele>
        <time>2021-09-09T09:38:12.000Z</time>
      </trkpt>
      <trkpt lat="47.65886" lon="2.66014">
        <ele>134.846101</ele>
        <time>2021-09-09T09:38:19.000Z</time>
      </trkpt>
      <trkpt lat="47.65867" lon="2.66056">
        <ele>134.847971</ele>
        <time>2021-09-09T09:38:25.000Z</time>
      </trkpt>
      <trkpt lat="47.65864" lon="2.66062">
        <ele>134.848287</ele>
        <time>2021-09-09T09:38:26.000Z</time>
      </trkpt>
      <trkpt lat="47.65855" lon="2.66075">
        <ele>134.848977</ele>
        <time>2021-09-09T09:38:28.000Z</time>
      </trkpt>
      <trkpt lat="47.65849" lon="2.66081">
        <ele>134.84934</ele>
        <time>2021-09-09T09:38:29.000Z</time>
      </trkpt>
      <trkpt lat="47.65814" lon="2.66115">
        <ele>134.851681</ele>
        <time>2021-09-09T09:38:35.000Z</time>
      </trkpt>
      <trkpt lat="47.65801" lon="2.6614">
        <ele>134.852826</ele>
        <time>2021-09-09T09:38:38.000Z</time>
      </trkpt>
      <trkpt lat="47.65785" lon="2.66186">
        <ele>134.995712</ele>
        <time>2021-09-09T09:38:44.000Z</time>
      </trkpt>
      <trkpt lat="47.65768" lon="2.66231">
        <ele>135.196354</ele>
        <time>2021-09-09T09:38:51.000Z</time>
      </trkpt>
      <trkpt lat="47.65743" lon="2.66294">
        <ele>135.476903</ele>
        <time>2021-09-09T09:39:01.000Z</time>
      </trkpt>
      <trkpt lat="47.65719" lon="2.66358">
        <ele>135.763936</ele>
        <time>2021-09-09T09:39:11.000Z</time>
      </trkpt>
      <trkpt lat="47.65698" lon="2.66408">
        <ele>135.798406</ele>
        <time>2021-09-09T09:39:19.000Z</time>
      </trkpt>
      <trkpt lat="47.6568" lon="2.66451">
        <ele>135.62281</ele>
        <time>2021-09-09T09:39:26.000Z</time>
      </trkpt>
      <trkpt lat="47.65678" lon="2.66466">
        <ele>135.570382</ele>
        <time>2021-09-09T09:39:28.000Z</time>
      </trkpt>
      <trkpt lat="47.65675" lon="2.66491">
        <ele>135.482569</ele>
        <time>2021-09-09T09:39:31.000Z</time>
      </trkpt>
      <trkpt lat="47.65666" lon="2.66541">
        <ele>135.305665</ele>
        <time>2021-09-09T09:39:36.000Z</time>
      </trkpt>
      <trkpt lat="47.65654" lon="2.66612">
        <ele>135.050814</ele>
        <time>2021-09-09T09:39:42.000Z</time>
      </trkpt>
      <trkpt lat="47.65641" lon="2.66679">
        <ele>134.559152</ele>
        <time>2021-09-09T09:39:47.000Z</time>
      </trkpt>
      <trkpt lat="47.65625" lon="2.66756">
        <ele>133.826352</ele>
        <time>2021-09-09T09:39:53.000Z</time>
      </trkpt>
      <trkpt lat="47.65617" lon="2.66776">
        <ele>133.614146</ele>
        <time>2021-09-09T09:39:55.000Z</time>
      </trkpt>
      <trkpt lat="47.65606" lon="2.66793">
        <ele>133.404293</ele>
        <time>2021-09-09T09:39:57.000Z</time>
      </trkpt>
      <trkpt lat="47.65571" lon="2.66853">
        <ele>132.685365</ele>
        <time>2021-09-09T09:40:04.000Z</time>
      </trkpt>
      <trkpt lat="47.65538" lon="2.66926">
        <ele>132.315697</ele>
        <time>2021-09-09T09:40:12.000Z</time>
      </trkpt>
      <trkpt lat="47.65511" lon="2.66986">
        <ele>132.081157</ele>
        <time>2021-09-09T09:40:19.000Z</time>
      </trkpt>
      <trkpt lat="47.6548" lon="2.6706">
        <ele>131.798399</ele>
        <time>2021-09-09T09:40:28.000Z</time>
      </trkpt>
      <trkpt lat="47.65451" lon="2.6713">
        <ele>131.626402</ele>
        <time>2021-09-09T09:40:37.000Z</time>
      </trkpt>
      <trkpt lat="47.65439" lon="2.67161">
        <ele>131.580633</ele>
        <time>2021-09-09T09:40:41.000Z</time>
      </trkpt>
      <trkpt lat="47.65435" lon="2.67168">
        <ele>131.568718</ele>
        <time>2021-09-09T09:40:42.000Z</time>
      </trkpt>
      <trkpt lat="47.65421" lon="2.67199">
        <ele>131.521504</ele>
        <time>2021-09-09T09:40:46.000Z</time>
      </trkpt>
      <trkpt lat="47.65415" lon="2.67214">
        <ele>131.500403</ele>
        <time>2021-09-09T09:40:48.000Z</time>
      </trkpt>
      <trkpt lat="47.65405" lon="2.67237">
        <ele>131.465413</ele>
        <time>2021-09-09T09:40:51.000Z</time>
      </trkpt>
      <trkpt lat="47.65398" lon="2.67252">
        <ele>131.441174</ele>
        <time>2021-09-09T09:40:53.000Z</time>
      </trkpt>
      <trkpt lat="47.6539" lon="2.67269">
        <ele>131.415128</ele>
        <time>2021-09-09T09:40:55.000Z</time>
      </trkpt>
      <trkpt lat="47.65378" lon="2.67295">
        <ele>131.376131</ele>
        <time>2021-09-09T09:40:58.000Z</time>
      </trkpt>
      <trkpt lat="47.65371" lon="2.67313">
        <ele>131.348726</ele>
        <time>2021-09-09T09:41:00.000Z</time>
      </trkpt>
      <trkpt lat="47.65355" lon="2.67357">
        <ele>131.216378</ele>
        <time>2021-09-09T09:41:05.000Z</time>
      </trkpt>
      <trkpt lat="47.65334" lon="2.67418">
        <ele>131.032104</ele>
        <time>2021-09-09T09:41:12.000Z</time>
      </trkpt>
      <trkpt lat="47.65308" lon="2.67484">
        <ele>130.825003</ele>
        <time>2021-09-09T09:41:20.000Z</time>
      </trkpt>
      <trkpt lat="47.65285" lon="2.6754">
        <ele>130.648404</ele>
        <time>2021-09-09T09:41:27.000Z</time>
      </trkpt>
      <trkpt lat="47.6527" lon="2.67579">
        <ele>130.606029</ele>
        <time>2021-09-09T09:41:32.000Z</time>
      </trkpt>
      <trkpt lat="47.65259" lon="2.67611">
        <ele>130.582743</ele>
        <time>2021-09-09T09:41:36.000Z</time>
      </trkpt>
      <trkpt lat="47.65256" lon="2.6762">
        <ele>130.576737</ele>
        <time>2021-09-09T09:41:37.000Z</time>
      </trkpt>
      <trkpt lat="47.65241" lon="2.67684">
        <ele>130.533476</ele>
        <time>2021-09-09T09:41:44.000Z</time>
      </trkpt>
      <trkpt lat="47.65223" lon="2.67755">
        <ele>130.485611</ele>
        <time>2021-09-09T09:41:52.000Z</time>
      </trkpt>
      <trkpt lat="47.65206" lon="2.67812">
        <ele>130.468544</ele>
        <time>2021-09-09T09:41:59.000Z</time>
      </trkpt>
      <trkpt lat="47.65187" lon="2.67868">
        <ele>130.493112</ele>
        <time>2021-09-09T09:42:06.000Z</time>
      </trkpt>
      <trkpt lat="47.65169" lon="2.67928">
        <ele>130.518647</ele>
        <time>2021-09-09T09:42:13.000Z</time>
      </trkpt>
      <trkpt lat="47.65149" lon="2.67991">
        <ele>130.546015</ele>
        <time>2021-09-09T09:42:21.000Z</time>
      </trkpt>
      <trkpt lat="47.65128" lon="2.68057">
        <ele>130.924361</ele>
        <time>2021-09-09T09:42:30.000Z</time>
      </trkpt>
      <trkpt lat="47.65109" lon="2.68102">
        <ele>131.659831</ele>
        <time>2021-09-09T09:42:37.000Z</time>
      </trkpt>
      <trkpt lat="47.65093" lon="2.68124">
        <ele>132.087601</ele>
        <time>2021-09-09T09:42:42.000Z</time>
      </trkpt>
      <trkpt lat="47.65077" lon="2.68132">
        <ele>132.448186</ele>
        <time>2021-09-09T09:42:47.000Z</time>
      </trkpt>
      <trkpt lat="47.65052" lon="2.68123">
        <ele>132.958754</ele>
        <time>2021-09-09T09:42:54.000Z</time>
      </trkpt>
      <trkpt lat="47.6503" lon="2.68119">
        <ele>133.419682</ele>
        <time>2021-09-09T09:43:01.000Z</time>
      </trkpt>
      <trkpt lat="47.6501" lon="2.68123">
        <ele>133.838923</ele>
        <time>2021-09-09T09:43:08.000Z</time>
      </trkpt>
      <trkpt lat="47.64993" lon="2.68131">
        <ele>134.193732</ele>
        <time>2021-09-09T09:43:15.000Z</time>
      </trkpt>
      <trkpt lat="47.64979" lon="2.68139">
        <ele>134.972685</ele>
        <time>2021-09-09T09:43:21.000Z</time>
      </trkpt>
      <trkpt lat="47.64965" lon="2.68148">
        <ele>135.85076</ele>
        <time>2021-09-09T09:43:27.000Z</time>
      </trkpt>
      <trkpt lat="47.6495" lon="2.68155">
        <ele>136.76404</ele>
        <time>2021-09-09T09:43:34.000Z</time>
      </trkpt>
      <trkpt lat="47.64932" lon="2.68163">
        <ele>137.837847</ele>
        <time>2021-09-09T09:43:42.000Z</time>
      </trkpt>
      <trkpt lat="47.64911" lon="2.68171">
        <ele>139.056125</ele>
        <time>2021-09-09T09:43:51.000Z</time>
      </trkpt>
      <trkpt lat="47.64893" lon="2.68181">
        <ele>140.160698</ele>
        <time>2021-09-09T09:44:00.000Z</time>
      </trkpt>
      <trkpt lat="47.64872" lon="2.68189">
        <ele>141.374096</ele>
        <time>2021-09-09T09:44:09.000Z</time>
      </trkpt>
      <trkpt lat="47.64852" lon="2.68202">
        <ele>142.63752</ele>
        <time>2021-09-09T09:44:18.000Z</time>
      </trkpt>
      <trkpt lat="47.64833" lon="2.68223">
        <ele>143.960554</ele>
        <time>2021-09-09T09:44:27.000Z</time>
      </trkpt>
      <trkpt lat="47.64821" lon="2.6823">
        <ele>144.583387</ele>
        <time>2021-09-09T09:44:32.000Z</time>
      </trkpt>
      <trkpt lat="47.64817" lon="2.68231">
        <ele>144.730986</ele>
        <time>2021-09-09T09:44:34.000Z</time>
      </trkpt>
      <trkpt lat="47.64812" lon="2.68229">
        <ele>144.901181</ele>
        <time>2021-09-09T09:44:36.000Z</time>
      </trkpt>
      <trkpt lat="47.64806" lon="2.68228">
        <ele>145.087369</ele>
        <time>2021-09-09T09:44:38.000Z</time>
      </trkpt>
      <trkpt lat="47.64801" lon="2.6823">
        <ele>145.254928</ele>
        <time>2021-09-09T09:44:40.000Z</time>
      </trkpt>
      <trkpt lat="47.64786" lon="2.68219">
        <ele>145.777299</ele>
        <time>2021-09-09T09:44:45.000Z</time>
      </trkpt>
      <trkpt lat="47.64772" lon="2.68218">
        <ele>146.238079</ele>
        <time>2021-09-09T09:44:49.000Z</time>
      </trkpt>
      <trkpt lat="47.6477" lon="2.68223">
        <ele>146.357734</ele>
        <time>2021-09-09T09:44:50.000Z</time>
      </trkpt>
      <trkpt lat="47.64767" lon="2.68244">
        <ele>146.828632</ele>
        <time>2021-09-09T09:44:54.000Z</time>
      </trkpt>
      <trkpt lat="47.64765" lon="2.68271">
        <ele>147.410394</ele>
        <time>2021-09-09T09:44:59.000Z</time>
      </trkpt>
      <trkpt lat="47.64758" lon="2.68322">
        <ele>148.519348</ele>
        <time>2021-09-09T09:45:07.000Z</time>
      </trkpt>
      <trkpt lat="47.64752" lon="2.68357">
        <ele>149.319012</ele>
        <time>2021-09-09T09:45:13.000Z</time>
      </trkpt>
      <trkpt lat="47.64749" lon="2.68383">
        <ele>149.883867</ele>
        <time>2021-09-09T09:45:18.000Z</time>
      </trkpt>
      <trkpt lat="47.6475" lon="2.68406">
        <ele>150.244932</ele>
        <time>2021-09-09T09:45:23.000Z</time>
      </trkpt>
      <trkpt lat="47.64749" lon="2.68444">
        <ele>150.392562</ele>
        <time>2021-09-09T09:45:29.000Z</time>
      </trkpt>
      <trkpt lat="47.64749" lon="2.6846">
        <ele>150.454366</ele>
        <time>2021-09-09T09:45:31.000Z</time>
      </trkpt>
      <trkpt lat="47.64748" lon="2.68474">
        <ele>150.510943</ele>
        <time>2021-09-09T09:45:33.000Z</time>
      </trkpt>
      <trkpt lat="47.6475" lon="2.68492">
        <ele>150.580842</ele>
        <time>2021-09-09T09:45:36.000Z</time>
      </trkpt>
      <trkpt lat="47.6475" lon="2.68499">
        <ele>150.606045</ele>
        <time>2021-09-09T09:45:37.000Z</time>
      </trkpt>
      <trkpt lat="47.6475" lon="2.68505">
        <ele>150.633072</ele>
        <time>2021-09-09T09:45:38.000Z</time>
      </trkpt>
      <trkpt lat="47.64742" lon="2.68534">
        <ele>150.753518</ele>
        <time>2021-09-09T09:45:42.000Z</time>
      </trkpt>
      <trkpt lat="47.64727" lon="2.68581">
        <ele>150.953771</ele>
        <time>2021-09-09T09:45:49.000Z</time>
      </trkpt>
      <trkpt lat="47.64725" lon="2.68588">
        <ele>150.982209</ele>
        <time>2021-09-09T09:45:50.000Z</time>
      </trkpt>
      <trkpt lat="47.64714" lon="2.68616">
        <ele>151.10769</ele>
        <time>2021-09-09T09:45:54.000Z</time>
      </trkpt>
      <trkpt lat="47.64712" lon="2.68624">
        <ele>151.141025</ele>
        <time>2021-09-09T09:45:55.000Z</time>
      </trkpt>
      <trkpt lat="47.64701" lon="2.68656">
        <ele>151.241822</ele>
        <time>2021-09-09T09:45:59.000Z</time>
      </trkpt>
      <trkpt lat="47.6469" lon="2.68679">
        <ele>151.202674</ele>
        <time>2021-09-09T09:46:02.000Z</time>
      </trkpt>
      <trkpt lat="47.64681" lon="2.68692">
        <ele>151.177782</ele>
        <time>2021-09-09T09:46:04.000Z</time>
      </trkpt>
      <trkpt lat="47.64677" lon="2.68698">
        <ele>151.16525</ele>
        <time>2021-09-09T09:46:05.000Z</time>
      </trkpt>
      <trkpt lat="47.64662" lon="2.68723">
        <ele>151.11952</ele>
        <time>2021-09-09T09:46:09.000Z</time>
      </trkpt>
      <trkpt lat="47.64648" lon="2.68746">
        <ele>151.075453</ele>
        <time>2021-09-09T09:46:13.000Z</time>
      </trkpt>
      <trkpt lat="47.64626" lon="2.68781">
        <ele>151.00928</ele>
        <time>2021-09-09T09:46:19.000Z</time>
      </trkpt>
      <trkpt lat="47.64602" lon="2.68814">
        <ele>150.941316</ele>
        <time>2021-09-09T09:46:25.000Z</time>
      </trkpt>
      <trkpt lat="47.64575" lon="2.68845">
        <ele>150.884801</ele>
        <time>2021-09-09T09:46:31.000Z</time>
      </trkpt>
      <trkpt lat="47.64548" lon="2.68876">
        <ele>150.923273</ele>
        <time>2021-09-09T09:46:37.000Z</time>
      </trkpt>
      <trkpt lat="47.64543" lon="2.68881">
        <ele>150.929753</ele>
        <time>2021-09-09T09:46:38.000Z</time>
      </trkpt>
      <trkpt lat="47.64521" lon="2.68898">
        <ele>150.956507</ele>
        <time>2021-09-09T09:46:42.000Z</time>
      </trkpt>
      <trkpt lat="47.6448" lon="2.68927">
        <ele>151.007402</ele>
        <time>2021-09-09T09:46:49.000Z</time>
      </trkpt>
      <trkpt lat="47.64463" lon="2.68941">
        <ele>151.028054</ele>
        <time>2021-09-09T09:46:52.000Z</time>
      </trkpt>
      <trkpt lat="47.64458" lon="2.68946">
        <ele>151.034883</ele>
        <time>2021-09-09T09:46:53.000Z</time>
      </trkpt>
      <trkpt lat="47.64445" lon="2.6896">
        <ele>151.052875</ele>
        <time>2021-09-09T09:46:56.000Z</time>
      </trkpt>
      <trkpt lat="47.64441" lon="2.68965">
        <ele>151.058335</ele>
        <time>2021-09-09T09:46:57.000Z</time>
      </trkpt>
      <trkpt lat="47.64421" lon="2.68988">
        <ele>151.201885</ele>
        <time>2021-09-09T09:47:03.000Z</time>
      </trkpt>
      <trkpt lat="47.64404" lon="2.69009">
        <ele>151.551805</ele>
        <time>2021-09-09T09:47:09.000Z</time>
      </trkpt>
      <trkpt lat="47.6439" lon="2.6903">
        <ele>151.863339</ele>
        <time>2021-09-09T09:47:14.000Z</time>
      </trkpt>
      <trkpt lat="47.64373" lon="2.69058">
        <ele>152.278778</ele>
        <time>2021-09-09T09:47:21.000Z</time>
      </trkpt>
      <trkpt lat="47.64361" lon="2.69077">
        <ele>152.558148</ele>
        <time>2021-09-09T09:47:25.000Z</time>
      </trkpt>
      <trkpt lat="47.64355" lon="2.69088">
        <ele>152.712701</ele>
        <time>2021-09-09T09:47:27.000Z</time>
      </trkpt>
      <trkpt lat="47.64341" lon="2.69111">
        <ele>153.044425</ele>
        <time>2021-09-09T09:47:31.000Z</time>
      </trkpt>
      <trkpt lat="47.64326" lon="2.69143">
        <ele>153.465927</ele>
        <time>2021-09-09T09:47:36.000Z</time>
      </trkpt>
      <trkpt lat="47.64307" lon="2.69198">
        <ele>154.071047</ele>
        <time>2021-09-09T09:47:44.000Z</time>
      </trkpt>
      <trkpt lat="47.64284" lon="2.69265">
        <ele>154.599099</ele>
        <time>2021-09-09T09:47:54.000Z</time>
      </trkpt>
      <trkpt lat="47.64261" lon="2.69332">
        <ele>155.119989</ele>
        <time>2021-09-09T09:48:04.000Z</time>
      </trkpt>
      <trkpt lat="47.64236" lon="2.69382">
        <ele>155.55888</ele>
        <time>2021-09-09T09:48:12.000Z</time>
      </trkpt>
      <trkpt lat="47.64198" lon="2.69435">
        <ele>155.880305</ele>
        <time>2021-09-09T09:48:21.000Z</time>
      </trkpt>
      <trkpt lat="47.64161" lon="2.69486">
        <ele>155.985684</ele>
        <time>2021-09-09T09:48:30.000Z</time>
      </trkpt>
      <trkpt lat="47.64131" lon="2.69528">
        <ele>156.071434</ele>
        <time>2021-09-09T09:48:37.000Z</time>
      </trkpt>
      <trkpt lat="47.64091" lon="2.69583">
        <ele>156.184411</ele>
        <time>2021-09-09T09:48:46.000Z</time>
      </trkpt>
      <trkpt lat="47.6406" lon="2.6963">
        <ele>156.280464</ele>
        <time>2021-09-09T09:48:54.000Z</time>
      </trkpt>
      <trkpt lat="47.64042" lon="2.6967">
        <ele>156.349646</ele>
        <time>2021-09-09T09:49:00.000Z</time>
      </trkpt>
      <trkpt lat="47.6404" lon="2.69678">
        <ele>156.361579</ele>
        <time>2021-09-09T09:49:01.000Z</time>
      </trkpt>
      <trkpt lat="47.64035" lon="2.69693">
        <ele>156.386076</ele>
        <time>2021-09-09T09:49:03.000Z</time>
      </trkpt>
      <trkpt lat="47.64027" lon="2.69708">
        <ele>156.412505</ele>
        <time>2021-09-09T09:49:05.000Z</time>
      </trkpt>
      <trkpt lat="47.64023" lon="2.69715">
        <ele>156.426369</ele>
        <time>2021-09-09T09:49:06.000Z</time>
      </trkpt>
      <trkpt lat="47.64018" lon="2.69721">
        <ele>156.44018</ele>
        <time>2021-09-09T09:49:07.000Z</time>
      </trkpt>
      <trkpt lat="47.64002" lon="2.69733">
        <ele>156.479615</ele>
        <time>2021-09-09T09:49:10.000Z</time>
      </trkpt>
      <trkpt lat="47.63991" lon="2.69738">
        <ele>156.504179</ele>
        <time>2021-09-09T09:49:12.000Z</time>
      </trkpt>
      <trkpt lat="47.6398" lon="2.69738">
        <ele>156.528049</ele>
        <time>2021-09-09T09:49:14.000Z</time>
      </trkpt>
      <trkpt lat="47.63974" lon="2.69736">
        <ele>156.539945</ele>
        <time>2021-09-09T09:49:15.000Z</time>
      </trkpt>
      <trkpt lat="47.63964" lon="2.69731">
        <ele>156.562622</ele>
        <time>2021-09-09T09:49:17.000Z</time>
      </trkpt>
      <trkpt lat="47.63952" lon="2.69719">
        <ele>156.667181</ele>
        <time>2021-09-09T09:49:20.000Z</time>
      </trkpt>
      <trkpt lat="47.63918" lon="2.69688">
        <ele>157.55174</ele>
        <time>2021-09-09T09:49:29.000Z</time>
      </trkpt>
      <trkpt lat="47.63897" lon="2.69673">
        <ele>158.079142</ele>
        <time>2021-09-09T09:49:35.000Z</time>
      </trkpt>
      <trkpt lat="47.63879" lon="2.69672">
        <ele>158.48282</ele>
        <time>2021-09-09T09:49:40.000Z</time>
      </trkpt>
      <trkpt lat="47.63847" lon="2.69676">
        <ele>159.200082</ele>
        <time>2021-09-09T09:49:49.000Z</time>
      </trkpt>
      <trkpt lat="47.6382" lon="2.69682">
        <ele>159.803088</ele>
        <time>2021-09-09T09:49:57.000Z</time>
      </trkpt>
      <trkpt lat="47.63796" lon="2.69684">
        <ele>160.345457</ele>
        <time>2021-09-09T09:50:05.000Z</time>
      </trkpt>
      <trkpt lat="47.63778" lon="2.69685">
        <ele>160.859388</ele>
        <time>2021-09-09T09:50:11.000Z</time>
      </trkpt>
      <trkpt lat="47.63756" lon="2.69682">
        <ele>161.665922</ele>
        <time>2021-09-09T09:50:18.000Z</time>
      </trkpt>
      <trkpt lat="47.63733" lon="2.6968">
        <ele>162.542356</ele>
        <time>2021-09-09T09:50:26.000Z</time>
      </trkpt>
      <trkpt lat="47.63707" lon="2.6968">
        <ele>163.539058</ele>
        <time>2021-09-09T09:50:35.000Z</time>
      </trkpt>
      <trkpt lat="47.63675" lon="2.69678">
        <ele>164.737304</ele>
        <time>2021-09-09T09:50:45.000Z</time>
      </trkpt>
      <trkpt lat="47.63646" lon="2.69678">
        <ele>165.843962</ele>
        <time>2021-09-09T09:50:53.000Z</time>
      </trkpt>
      <trkpt lat="47.63617" lon="2.69676">
        <ele>166.932202</ele>
        <time>2021-09-09T09:51:01.000Z</time>
      </trkpt>
      <trkpt lat="47.63578" lon="2.69674">
        <ele>167.939725</ele>
        <time>2021-09-09T09:51:11.000Z</time>
      </trkpt>
      <trkpt lat="47.63542" lon="2.69672">
        <ele>168.664757</ele>
        <time>2021-09-09T09:51:20.000Z</time>
      </trkpt>
      <trkpt lat="47.63503" lon="2.69667">
        <ele>169.423948</ele>
        <time>2021-09-09T09:51:29.000Z</time>
      </trkpt>
      <trkpt lat="47.63464" lon="2.69652">
        <ele>170.224806</ele>
        <time>2021-09-09T09:51:38.000Z</time>
      </trkpt>
      <trkpt lat="47.6342" lon="2.69633">
        <ele>171.023329</ele>
        <time>2021-09-09T09:51:48.000Z</time>
      </trkpt>
      <trkpt lat="47.63387" lon="2.6962">
        <ele>171.249653</ele>
        <time>2021-09-09T09:51:55.000Z</time>
      </trkpt>
      <trkpt lat="47.63341" lon="2.69601">
        <ele>171.568465</ele>
        <time>2021-09-09T09:52:04.000Z</time>
      </trkpt>
      <trkpt lat="47.63309" lon="2.69591">
        <ele>171.786465</ele>
        <time>2021-09-09T09:52:10.000Z</time>
      </trkpt>
      <trkpt lat="47.63304" lon="2.69591">
        <ele>171.824112</ele>
        <time>2021-09-09T09:52:11.000Z</time>
      </trkpt>
      <trkpt lat="47.63292" lon="2.6959">
        <ele>171.903412</ele>
        <time>2021-09-09T09:52:13.000Z</time>
      </trkpt>
      <trkpt lat="47.63274" lon="2.69592">
        <ele>172.022645</ele>
        <time>2021-09-09T09:52:16.000Z</time>
      </trkpt>
      <trkpt lat="47.63227" lon="2.69599">
        <ele>172.246017</ele>
        <time>2021-09-09T09:52:24.000Z</time>
      </trkpt>
      <trkpt lat="47.63177" lon="2.69606">
        <ele>172.385793</ele>
        <time>2021-09-09T09:52:32.000Z</time>
      </trkpt>
      <trkpt lat="47.63153" lon="2.69614">
        <ele>172.455474</ele>
        <time>2021-09-09T09:52:36.000Z</time>
      </trkpt>
      <trkpt lat="47.63147" lon="2.69618">
        <ele>172.472379</ele>
        <time>2021-09-09T09:52:37.000Z</time>
      </trkpt>
      <trkpt lat="47.6312" lon="2.69646">
        <ele>172.564006</ele>
        <time>2021-09-09T09:52:42.000Z</time>
      </trkpt>
      <trkpt lat="47.63089" lon="2.69699">
        <ele>172.684231</ele>
        <time>2021-09-09T09:52:49.000Z</time>
      </trkpt>
      <trkpt lat="47.6305" lon="2.69763">
        <ele>172.733566</ele>
        <time>2021-09-09T09:52:58.000Z</time>
      </trkpt>
      <trkpt lat="47.63046" lon="2.6977">
        <ele>172.738749</ele>
        <time>2021-09-09T09:52:59.000Z</time>
      </trkpt>
      <trkpt lat="47.63026" lon="2.69803">
        <ele>172.764483</ele>
        <time>2021-09-09T09:53:04.000Z</time>
      </trkpt>
      <trkpt lat="47.62991" lon="2.69854">
        <ele>172.806562</ele>
        <time>2021-09-09T09:53:12.000Z</time>
      </trkpt>
      <trkpt lat="47.62955" lon="2.69886">
        <ele>172.814005</ele>
        <time>2021-09-09T09:53:19.000Z</time>
      </trkpt>
      <trkpt lat="47.62934" lon="2.69905">
        <ele>172.776589</ele>
        <time>2021-09-09T09:53:23.000Z</time>
      </trkpt>
      <trkpt lat="47.62924" lon="2.69917">
        <ele>172.758071</ele>
        <time>2021-09-09T09:53:25.000Z</time>
      </trkpt>
      <trkpt lat="47.62911" lon="2.69935">
        <ele>172.731067</ele>
        <time>2021-09-09T09:53:28.000Z</time>
      </trkpt>
      <trkpt lat="47.62868" lon="2.69986">
        <ele>172.649156</ele>
        <time>2021-09-09T09:53:36.000Z</time>
      </trkpt>
      <trkpt lat="47.62827" lon="2.70024">
        <ele>172.575783</ele>
        <time>2021-09-09T09:53:43.000Z</time>
      </trkpt>
      <trkpt lat="47.62783" lon="2.70056">
        <ele>172.383702</ele>
        <time>2021-09-09T09:53:50.000Z</time>
      </trkpt>
      <trkpt lat="47.62739" lon="2.70087">
        <ele>172.166614</ele>
        <time>2021-09-09T09:53:57.000Z</time>
      </trkpt>
      <trkpt lat="47.62701" lon="2.70114">
        <ele>171.978928</ele>
        <time>2021-09-09T09:54:03.000Z</time>
      </trkpt>
      <trkpt lat="47.62653" lon="2.70152">
        <ele>171.736874</ele>
        <time>2021-09-09T09:54:11.000Z</time>
      </trkpt>
      <trkpt lat="47.62612" lon="2.70195">
        <ele>171.487145</ele>
        <time>2021-09-09T09:54:19.000Z</time>
      </trkpt>
      <trkpt lat="47.62593" lon="2.70214">
        <ele>171.368643</ele>
        <time>2021-09-09T09:54:23.000Z</time>
      </trkpt>
      <trkpt lat="47.62571" lon="2.70231">
        <ele>171.24741</ele>
        <time>2021-09-09T09:54:27.000Z</time>
      </trkpt>
      <trkpt lat="47.62525" lon="2.70269">
        <ele>170.981842</ele>
        <time>2021-09-09T09:54:35.000Z</time>
      </trkpt>
      <trkpt lat="47.62513" lon="2.7028">
        <ele>170.914387</ele>
        <time>2021-09-09T09:54:37.000Z</time>
      </trkpt>
      <trkpt lat="47.62493" lon="2.70308">
        <ele>170.666968</ele>
        <time>2021-09-09T09:54:41.000Z</time>
      </trkpt>
      <trkpt lat="47.62457" lon="2.70378">
        <ele>170.006744</ele>
        <time>2021-09-09T09:54:49.000Z</time>
      </trkpt>
      <trkpt lat="47.62423" lon="2.70453">
        <ele>169.333225</ele>
        <time>2021-09-09T09:54:57.000Z</time>
      </trkpt>
      <trkpt lat="47.62404" lon="2.70514">
        <ele>168.824476</ele>
        <time>2021-09-09T09:55:03.000Z</time>
      </trkpt>
      <trkpt lat="47.62399" lon="2.70523">
        <ele>168.742445</ele>
        <time>2021-09-09T09:55:04.000Z</time>
      </trkpt>
      <trkpt lat="47.62386" lon="2.70549">
        <ele>168.501692</ele>
        <time>2021-09-09T09:55:07.000Z</time>
      </trkpt>
      <trkpt lat="47.62373" lon="2.70561">
        <ele>168.341845</ele>
        <time>2021-09-09T09:55:09.000Z</time>
      </trkpt>
      <trkpt lat="47.62366" lon="2.70564">
        <ele>168.265905</ele>
        <time>2021-09-09T09:55:10.000Z</time>
      </trkpt>
      <trkpt lat="47.62346" lon="2.70571">
        <ele>168.040321</ele>
        <time>2021-09-09T09:55:13.000Z</time>
      </trkpt>
      <trkpt lat="47.62333" lon="2.70577">
        <ele>167.891744</ele>
        <time>2021-09-09T09:55:15.000Z</time>
      </trkpt>
      <trkpt lat="47.6232" lon="2.70585">
        <ele>167.74359</ele>
        <time>2021-09-09T09:55:17.000Z</time>
      </trkpt>
      <trkpt lat="47.62295" lon="2.70602">
        <ele>167.449954</ele>
        <time>2021-09-09T09:55:21.000Z</time>
      </trkpt>
      <trkpt lat="47.6226" lon="2.7062">
        <ele>167.04502</ele>
        <time>2021-09-09T09:55:27.000Z</time>
      </trkpt>
      <trkpt lat="47.62218" lon="2.70641">
        <ele>166.811802</ele>
        <time>2021-09-09T09:55:34.000Z</time>
      </trkpt>
      <trkpt lat="47.62171" lon="2.70661">
        <ele>166.648021</ele>
        <time>2021-09-09T09:55:42.000Z</time>
      </trkpt>
      <trkpt lat="47.62139" lon="2.70678">
        <ele>166.536825</ele>
        <time>2021-09-09T09:55:48.000Z</time>
      </trkpt>
      <trkpt lat="47.62123" lon="2.70698">
        <ele>166.467502</ele>
        <time>2021-09-09T09:55:53.000Z</time>
      </trkpt>
      <trkpt lat="47.62113" lon="2.70711">
        <ele>166.423865</ele>
        <time>2021-09-09T09:55:57.000Z</time>
      </trkpt>
      <trkpt lat="47.6211" lon="2.70715">
        <ele>166.409626</ele>
        <time>2021-09-09T09:55:58.000Z</time>
      </trkpt>
      <trkpt lat="47.62081" lon="2.70742">
        <ele>166.412883</ele>
        <time>2021-09-09T09:56:05.000Z</time>
      </trkpt>
      <trkpt lat="47.62046" lon="2.7077">
        <ele>166.866502</ele>
        <time>2021-09-09T09:56:13.000Z</time>
      </trkpt>
      <trkpt lat="47.62025" lon="2.70788">
        <ele>167.149729</ele>
        <time>2021-09-09T09:56:19.000Z</time>
      </trkpt>
      <trkpt lat="47.6199" lon="2.70814">
        <ele>167.602177</ele>
        <time>2021-09-09T09:56:28.000Z</time>
      </trkpt>
      <trkpt lat="47.61948" lon="2.70844">
        <ele>168.133659</ele>
        <time>2021-09-09T09:56:39.000Z</time>
      </trkpt>
      <trkpt lat="47.61908" lon="2.70872">
        <ele>168.615347</ele>
        <time>2021-09-09T09:56:49.000Z</time>
      </trkpt>
      <trkpt lat="47.61865" lon="2.70903">
        <ele>169.10343</ele>
        <time>2021-09-09T09:56:59.000Z</time>
      </trkpt>
      <trkpt lat="47.61826" lon="2.70933">
        <ele>169.55628</ele>
        <time>2021-09-09T09:57:08.000Z</time>
      </trkpt>
      <trkpt lat="47.61789" lon="2.70965">
        <ele>169.993194</ele>
        <time>2021-09-09T09:57:17.000Z</time>
      </trkpt>
      <trkpt lat="47.61754" lon="2.71004">
        <ele>170.40239</ele>
        <time>2021-09-09T09:57:26.000Z</time>
      </trkpt>
      <trkpt lat="47.61721" lon="2.71031">
        <ele>170.721986</ele>
        <time>2021-09-09T09:57:34.000Z</time>
      </trkpt>
      <trkpt lat="47.61671" lon="2.71067">
        <ele>171.197826</ele>
        <time>2021-09-09T09:57:46.000Z</time>
      </trkpt>
      <trkpt lat="47.61636" lon="2.71091">
        <ele>171.520916</ele>
        <time>2021-09-09T09:57:54.000Z</time>
      </trkpt>
      <trkpt lat="47.61601" lon="2.71121">
        <ele>171.764768</ele>
        <time>2021-09-09T09:58:02.000Z</time>
      </trkpt>
      <trkpt lat="47.61576" lon="2.71145">
        <ele>171.786677</ele>
        <time>2021-09-09T09:58:08.000Z</time>
      </trkpt>
      <trkpt lat="47.61571" lon="2.71149">
        <ele>171.790695</ele>
        <time>2021-09-09T09:58:09.000Z</time>
      </trkpt>
      <trkpt lat="47.61566" lon="2.71154">
        <ele>171.794739</ele>
        <time>2021-09-09T09:58:10.000Z</time>
      </trkpt>
      <trkpt lat="47.61547" lon="2.71171">
        <ele>171.811218</ele>
        <time>2021-09-09T09:58:14.000Z</time>
      </trkpt>
      <trkpt lat="47.61529" lon="2.71189">
        <ele>171.827095</ele>
        <time>2021-09-09T09:58:18.000Z</time>
      </trkpt>
      <trkpt lat="47.61525" lon="2.71194">
        <ele>171.830997</ele>
        <time>2021-09-09T09:58:19.000Z</time>
      </trkpt>
      <trkpt lat="47.61491" lon="2.71223">
        <ele>171.859544</ele>
        <time>2021-09-09T09:58:26.000Z</time>
      </trkpt>
      <trkpt lat="47.61454" lon="2.71254">
        <ele>171.90613</ele>
        <time>2021-09-09T09:58:34.000Z</time>
      </trkpt>
      <trkpt lat="47.61428" lon="2.71278">
        <ele>172.034223</ele>
        <time>2021-09-09T09:58:40.000Z</time>
      </trkpt>
      <trkpt lat="47.61377" lon="2.71324">
        <ele>172.276449</ele>
        <time>2021-09-09T09:58:51.000Z</time>
      </trkpt>
      <trkpt lat="47.61371" lon="2.71328">
        <ele>172.299923</ele>
        <time>2021-09-09T09:58:52.000Z</time>
      </trkpt>
      <trkpt lat="47.6132" lon="2.71364">
        <ele>172.530937</ele>
        <time>2021-09-09T09:59:02.000Z</time>
      </trkpt>
      <trkpt lat="47.61315" lon="2.71368">
        <ele>172.555182</ele>
        <time>2021-09-09T09:59:03.000Z</time>
      </trkpt>
      <trkpt lat="47.61282" lon="2.71385">
        <ele>172.700382</ele>
        <time>2021-09-09T09:59:09.000Z</time>
      </trkpt>
      <trkpt lat="47.61236" lon="2.71411">
        <ele>172.913778</ele>
        <time>2021-09-09T09:59:18.000Z</time>
      </trkpt>
      <trkpt lat="47.61194" lon="2.7143">
        <ele>173.100446</ele>
        <time>2021-09-09T09:59:26.000Z</time>
      </trkpt>
      <trkpt lat="47.61152" lon="2.71455">
        <ele>173.296179</ele>
        <time>2021-09-09T09:59:34.000Z</time>
      </trkpt>
      <trkpt lat="47.61109" lon="2.71485">
        <ele>173.423178</ele>
        <time>2021-09-09T09:59:42.000Z</time>
      </trkpt>
      <trkpt lat="47.61098" lon="2.71493">
        <ele>173.438394</ele>
        <time>2021-09-09T09:59:44.000Z</time>
      </trkpt>
      <trkpt lat="47.61082" lon="2.71508">
        <ele>173.462225</ele>
        <time>2021-09-09T09:59:47.000Z</time>
      </trkpt>
      <trkpt lat="47.61048" lon="2.71536">
        <ele>173.510523</ele>
        <time>2021-09-09T09:59:53.000Z</time>
      </trkpt>
      <trkpt lat="47.60996" lon="2.71574">
        <ele>173.583583</ele>
        <time>2021-09-09T10:00:02.000Z</time>
      </trkpt>
      <trkpt lat="47.60961" lon="2.71591">
        <ele>173.612141</ele>
        <time>2021-09-09T10:00:08.000Z</time>
      </trkpt>
      <trkpt lat="47.60921" lon="2.71608">
        <ele>173.592931</ele>
        <time>2021-09-09T10:00:15.000Z</time>
      </trkpt>
      <trkpt lat="47.60876" lon="2.7163">
        <ele>173.570813</ele>
        <time>2021-09-09T10:00:23.000Z</time>
      </trkpt>
      <trkpt lat="47.60833" lon="2.71667">
        <ele>173.548116</ele>
        <time>2021-09-09T10:00:31.000Z</time>
      </trkpt>
      <trkpt lat="47.60809" lon="2.71701">
        <ele>173.52542</ele>
        <time>2021-09-09T10:00:36.000Z</time>
      </trkpt>
      <trkpt lat="47.60779" lon="2.71744">
        <ele>173.366122</ele>
        <time>2021-09-09T10:00:42.000Z</time>
      </trkpt>
      <trkpt lat="47.60775" lon="2.71752">
        <ele>173.339841</ele>
        <time>2021-09-09T10:00:43.000Z</time>
      </trkpt>
      <trkpt lat="47.60759" lon="2.71796">
        <ele>173.211907</ele>
        <time>2021-09-09T10:00:48.000Z</time>
      </trkpt>
      <trkpt lat="47.60735" lon="2.71865">
        <ele>173.01215</ele>
        <time>2021-09-09T10:00:56.000Z</time>
      </trkpt>
      <trkpt lat="47.60704" lon="2.71937">
        <ele>172.738757</ele>
        <time>2021-09-09T10:01:05.000Z</time>
      </trkpt>
      <trkpt lat="47.60667" lon="2.72003">
        <ele>172.312062</ele>
        <time>2021-09-09T10:01:14.000Z</time>
      </trkpt>
      <trkpt lat="47.60636" lon="2.72047">
        <ele>171.990431</ele>
        <time>2021-09-09T10:01:21.000Z</time>
      </trkpt>
      <trkpt lat="47.606" lon="2.72085">
        <ele>171.660778</ele>
        <time>2021-09-09T10:01:28.000Z</time>
      </trkpt>
      <trkpt lat="47.60561" lon="2.72128">
        <ele>171.143116</ele>
        <time>2021-09-09T10:01:35.000Z</time>
      </trkpt>
      <trkpt lat="47.60547" lon="2.72153">
        <ele>170.855221</ele>
        <time>2021-09-09T10:01:38.000Z</time>
      </trkpt>
      <trkpt lat="47.6054" lon="2.72173">
        <ele>170.650621</ele>
        <time>2021-09-09T10:01:40.000Z</time>
      </trkpt>
      <trkpt lat="47.60535" lon="2.72209">
        <ele>170.3259</ele>
        <time>2021-09-09T10:01:43.000Z</time>
      </trkpt>
      <trkpt lat="47.60535" lon="2.72221">
        <ele>170.218796</ele>
        <time>2021-09-09T10:01:44.000Z</time>
      </trkpt>
      <trkpt lat="47.60533" lon="2.72272">
        <ele>169.774021</ele>
        <time>2021-09-09T10:01:48.000Z</time>
      </trkpt>
      <trkpt lat="47.60531" lon="2.72284">
        <ele>169.662886</ele>
        <time>2021-09-09T10:01:49.000Z</time>
      </trkpt>
      <trkpt lat="47.60528" lon="2.72296">
        <ele>169.550789</ele>
        <time>2021-09-09T10:01:50.000Z</time>
      </trkpt>
      <trkpt lat="47.60519" lon="2.72316">
        <ele>169.334967</ele>
        <time>2021-09-09T10:01:52.000Z</time>
      </trkpt>
      <trkpt lat="47.60495" lon="2.72364">
        <ele>169.139313</ele>
        <time>2021-09-09T10:01:57.000Z</time>
      </trkpt>
      <trkpt lat="47.60481" lon="2.72409">
        <ele>169.127085</ele>
        <time>2021-09-09T10:02:02.000Z</time>
      </trkpt>
      <trkpt lat="47.60471" lon="2.72436">
        <ele>169.119648</ele>
        <time>2021-09-09T10:02:07.000Z</time>
      </trkpt>
      <trkpt lat="47.60456" lon="2.72467">
        <ele>169.110305</ele>
        <time>2021-09-09T10:02:15.000Z</time>
      </trkpt>
      <trkpt lat="47.60441" lon="2.72494">
        <ele>169.101917</ele>
        <time>2021-09-09T10:02:21.000Z</time>
      </trkpt>
      <trkpt lat="47.6043" lon="2.72515">
        <ele>169.095471</ele>
        <time>2021-09-09T10:02:25.000Z</time>
      </trkpt>
      <trkpt lat="47.60401" lon="2.72566">
        <ele>169.228692</ele>
        <time>2021-09-09T10:02:34.000Z</time>
      </trkpt>
      <trkpt lat="47.60377" lon="2.72609">
        <ele>169.654508</ele>
        <time>2021-09-09T10:02:42.000Z</time>
      </trkpt>
      <trkpt lat="47.60352" lon="2.72648">
        <ele>170.05981</ele>
        <time>2021-09-09T10:02:51.000Z</time>
      </trkpt>
      <trkpt lat="47.60324" lon="2.72696">
        <ele>170.547644</ele>
        <time>2021-09-09T10:03:03.000Z</time>
      </trkpt>
      <trkpt lat="47.60302" lon="2.72722">
        <ele>170.863455</ele>
        <time>2021-09-09T10:03:11.000Z</time>
      </trkpt>
      <trkpt lat="47.60291" lon="2.72731">
        <ele>171.004745</ele>
        <time>2021-09-09T10:03:15.000Z</time>
      </trkpt>
      <trkpt lat="47.60266" lon="2.72749">
        <ele>171.470226</ele>
        <time>2021-09-09T10:03:23.000Z</time>
      </trkpt>
      <trkpt lat="47.60255" lon="2.72756">
        <ele>171.703982</ele>
        <time>2021-09-09T10:03:27.000Z</time>
      </trkpt>
      <trkpt lat="47.6024" lon="2.72765">
        <ele>172.012468</ele>
        <time>2021-09-09T10:03:32.000Z</time>
      </trkpt>
      <trkpt lat="47.60217" lon="2.7278">
        <ele>172.505317</ele>
        <time>2021-09-09T10:03:38.000Z</time>
      </trkpt>
      <trkpt lat="47.60205" lon="2.72787">
        <ele>172.742571</ele>
        <time>2021-09-09T10:03:42.000Z</time>
      </trkpt>
      <trkpt lat="47.60185" lon="2.7279">
        <ele>173.129947</ele>
        <time>2021-09-09T10:03:47.000Z</time>
      </trkpt>
      <trkpt lat="47.60164" lon="2.72782">
        <ele>173.55235</ele>
        <time>2021-09-09T10:03:52.000Z</time>
      </trkpt>
      <trkpt lat="47.60126" lon="2.72763">
        <ele>174.321514</ele>
        <time>2021-09-09T10:04:00.000Z</time>
      </trkpt>
      <trkpt lat="47.60121" lon="2.72762">
        <ele>174.419336</ele>
        <time>2021-09-09T10:04:01.000Z</time>
      </trkpt>
      <trkpt lat="47.60111" lon="2.72763">
        <ele>174.611616</ele>
        <time>2021-09-09T10:04:03.000Z</time>
      </trkpt>
      <trkpt lat="47.60107" lon="2.72765">
        <ele>174.68079</ele>
        <time>2021-09-09T10:04:04.000Z</time>
      </trkpt>
      <trkpt lat="47.60103" lon="2.72769">
        <ele>174.750006</ele>
        <time>2021-09-09T10:04:05.000Z</time>
      </trkpt>
      <trkpt lat="47.60097" lon="2.72779">
        <ele>174.884995</ele>
        <time>2021-09-09T10:04:07.000Z</time>
      </trkpt>
      <trkpt lat="47.60096" lon="2.72793">
        <ele>175.020849</ele>
        <time>2021-09-09T10:04:09.000Z</time>
      </trkpt>
      <trkpt lat="47.60096" lon="2.728">
        <ele>175.093084</ele>
        <time>2021-09-09T10:04:10.000Z</time>
      </trkpt>
      <trkpt lat="47.60096" lon="2.72815">
        <ele>175.23068</ele>
        <time>2021-09-09T10:04:12.000Z</time>
      </trkpt>
      <trkpt lat="47.60098" lon="2.72851">
        <ele>175.587046</ele>
        <time>2021-09-09T10:04:17.000Z</time>
      </trkpt>
      <trkpt lat="47.60099" lon="2.72873">
        <ele>175.798563</ele>
        <time>2021-09-09T10:04:20.000Z</time>
      </trkpt>
      <trkpt lat="47.601" lon="2.72888">
        <ele>175.946072</ele>
        <time>2021-09-09T10:04:22.000Z</time>
      </trkpt>
      <trkpt lat="47.60107" lon="2.72948">
        <ele>176.53903</ele>
        <time>2021-09-09T10:04:30.000Z</time>
      </trkpt>
      <trkpt lat="47.60112" lon="2.7299">
        <ele>176.95894</ele>
        <time>2021-09-09T10:04:36.000Z</time>
      </trkpt>
      <trkpt lat="47.60116" lon="2.73026">
        <ele>177.25505</ele>
        <time>2021-09-09T10:04:41.000Z</time>
      </trkpt>
      <trkpt lat="47.60115" lon="2.73037">
        <ele>177.306265</ele>
        <time>2021-09-09T10:04:43.000Z</time>
      </trkpt>
      <trkpt lat="47.60115" lon="2.73053">
        <ele>177.379362</ele>
        <time>2021-09-09T10:04:48.000Z</time>
      </trkpt>
      <trkpt lat="47.60116" lon="2.73048">
        <ele>177.408174</ele>
        <time>2021-09-09T10:04:51.000Z</time>
      </trkpt>
      <trkpt lat="47.60116" lon="2.73024">
        <ele>177.5147</ele>
        <time>2021-09-09T10:04:55.000Z</time>
      </trkpt>
      <trkpt lat="47.60114" lon="2.73002">
        <ele>177.615728</ele>
        <time>2021-09-09T10:04:58.000Z</time>
      </trkpt>
      <trkpt lat="47.60113" lon="2.72986">
        <ele>177.688924</ele>
        <time>2021-09-09T10:05:00.000Z</time>
      </trkpt>
      <trkpt lat="47.60108" lon="2.72956">
        <ele>177.827179</ele>
        <time>2021-09-09T10:05:04.000Z</time>
      </trkpt>
      <trkpt lat="47.601" lon="2.72892">
        <ele>178.121942</ele>
        <time>2021-09-09T10:05:11.000Z</time>
      </trkpt>
      <trkpt lat="47.60097" lon="2.72837">
        <ele>178.375077</ele>
        <time>2021-09-09T10:05:17.000Z</time>
      </trkpt>
      <trkpt lat="47.60096" lon="2.72828">
        <ele>178.413562</ele>
        <time>2021-09-09T10:05:18.000Z</time>
      </trkpt>
      <trkpt lat="47.6009" lon="2.72813">
        <ele>178.457714</ele>
        <time>2021-09-09T10:05:20.000Z</time>
      </trkpt>
      <trkpt lat="47.6008" lon="2.7281">
        <ele>178.497869</ele>
        <time>2021-09-09T10:05:22.000Z</time>
      </trkpt>
      <trkpt lat="47.60072" lon="2.72821">
        <ele>178.540431</ele>
        <time>2021-09-09T10:05:24.000Z</time>
      </trkpt>
      <trkpt lat="47.60068" lon="2.72827">
        <ele>178.56189</ele>
        <time>2021-09-09T10:05:25.000Z</time>
      </trkpt>
      <trkpt lat="47.6004" lon="2.72876">
        <ele>178.733424</ele>
        <time>2021-09-09T10:05:33.000Z</time>
      </trkpt>
      <trkpt lat="47.60036" lon="2.72881">
        <ele>178.753226</ele>
        <time>2021-09-09T10:05:34.000Z</time>
      </trkpt>
      <trkpt lat="47.60027" lon="2.72899">
        <ele>178.813718</ele>
        <time>2021-09-09T10:05:37.000Z</time>
      </trkpt>
      <trkpt lat="47.6001" lon="2.72929">
        <ele>178.915759</ele>
        <time>2021-09-09T10:05:42.000Z</time>
      </trkpt>
      <trkpt lat="47.59991" lon="2.72968">
        <ele>179.04421</ele>
        <time>2021-09-09T10:05:48.000Z</time>
      </trkpt>
      <trkpt lat="47.59967" lon="2.73003">
        <ele>179.176358</ele>
        <time>2021-09-09T10:05:54.000Z</time>
      </trkpt>
      <trkpt lat="47.59957" lon="2.73011">
        <ele>179.219617</ele>
        <time>2021-09-09T10:05:56.000Z</time>
      </trkpt>
      <trkpt lat="47.59941" lon="2.73019">
        <ele>179.285065</ele>
        <time>2021-09-09T10:05:59.000Z</time>
      </trkpt>
      <trkpt lat="47.59898" lon="2.73034">
        <ele>179.456325</ele>
        <time>2021-09-09T10:06:07.000Z</time>
      </trkpt>
      <trkpt lat="47.59855" lon="2.7305">
        <ele>179.628885</ele>
        <time>2021-09-09T10:06:15.000Z</time>
      </trkpt>
      <trkpt lat="47.59805" lon="2.7307">
        <ele>179.821062</ele>
        <time>2021-09-09T10:06:24.000Z</time>
      </trkpt>
      <trkpt lat="47.59776" lon="2.73097">
        <ele>179.85477</ele>
        <time>2021-09-09T10:06:30.000Z</time>
      </trkpt>
      <trkpt lat="47.59752" lon="2.73143">
        <ele>179.892614</ele>
        <time>2021-09-09T10:06:37.000Z</time>
      </trkpt>
      <trkpt lat="47.59726" lon="2.7321">
        <ele>179.944199</ele>
        <time>2021-09-09T10:06:46.000Z</time>
      </trkpt>
      <trkpt lat="47.59705" lon="2.73264">
        <ele>179.985204</ele>
        <time>2021-09-09T10:06:53.000Z</time>
      </trkpt>
      <trkpt lat="47.59682" lon="2.73311">
        <ele>179.773082</ele>
        <time>2021-09-09T10:06:59.000Z</time>
      </trkpt>
      <trkpt lat="47.59645" lon="2.73367">
        <ele>179.388724</ele>
        <time>2021-09-09T10:07:07.000Z</time>
      </trkpt>
      <trkpt lat="47.59611" lon="2.7342">
        <ele>179.029051</ele>
        <time>2021-09-09T10:07:14.000Z</time>
      </trkpt>
      <trkpt lat="47.59607" lon="2.73429">
        <ele>178.978174</ele>
        <time>2021-09-09T10:07:15.000Z</time>
      </trkpt>
      <trkpt lat="47.596" lon="2.73447">
        <ele>178.875012</ele>
        <time>2021-09-09T10:07:17.000Z</time>
      </trkpt>
      <trkpt lat="47.59585" lon="2.73496">
        <ele>178.614618</ele>
        <time>2021-09-09T10:07:22.000Z</time>
      </trkpt>
      <trkpt lat="47.59575" lon="2.73556">
        <ele>178.320365</ele>
        <time>2021-09-09T10:07:28.000Z</time>
      </trkpt>
      <trkpt lat="47.59573" lon="2.73597">
        <ele>178.13029</ele>
        <time>2021-09-09T10:07:32.000Z</time>
      </trkpt>
      <trkpt lat="47.5957" lon="2.73616">
        <ele>178.038834</ele>
        <time>2021-09-09T10:07:34.000Z</time>
      </trkpt>
      <trkpt lat="47.5956" lon="2.7366">
        <ele>177.816992</ele>
        <time>2021-09-09T10:07:39.000Z</time>
      </trkpt>
      <trkpt lat="47.59548" lon="2.73707">
        <ele>177.577637</ele>
        <time>2021-09-09T10:07:44.000Z</time>
      </trkpt>
      <trkpt lat="47.59537" lon="2.7375">
        <ele>177.196426</ele>
        <time>2021-09-09T10:07:48.000Z</time>
      </trkpt>
      <trkpt lat="47.59533" lon="2.7376">
        <ele>176.984883</ele>
        <time>2021-09-09T10:07:49.000Z</time>
      </trkpt>
      <trkpt lat="47.59527" lon="2.73769">
        <ele>176.758051</ele>
        <time>2021-09-09T10:07:50.000Z</time>
      </trkpt>
      <trkpt lat="47.59512" lon="2.73789">
        <ele>176.23794</ele>
        <time>2021-09-09T10:07:52.000Z</time>
      </trkpt>
      <trkpt lat="47.59489" lon="2.73823">
        <ele>175.369317</ele>
        <time>2021-09-09T10:07:55.000Z</time>
      </trkpt>
      <trkpt lat="47.59482" lon="2.73837">
        <ele>175.062378</ele>
        <time>2021-09-09T10:07:56.000Z</time>
      </trkpt>
      <trkpt lat="47.59466" lon="2.73883">
        <ele>174.151631</ele>
        <time>2021-09-09T10:07:59.000Z</time>
      </trkpt>
      <trkpt lat="47.59462" lon="2.73899">
        <ele>173.855575</ele>
        <time>2021-09-09T10:08:00.000Z</time>
      </trkpt>
      <trkpt lat="47.5946" lon="2.73915">
        <ele>173.562534</ele>
        <time>2021-09-09T10:08:01.000Z</time>
      </trkpt>
      <trkpt lat="47.59456" lon="2.73962">
        <ele>172.719967</ele>
        <time>2021-09-09T10:08:04.000Z</time>
      </trkpt>
      <trkpt lat="47.59451" lon="2.74037">
        <ele>171.076746</ele>
        <time>2021-09-09T10:08:09.000Z</time>
      </trkpt>
      <trkpt lat="47.5945" lon="2.74066">
        <ele>170.426035</ele>
        <time>2021-09-09T10:08:11.000Z</time>
      </trkpt>
      <trkpt lat="47.59445" lon="2.74108">
        <ele>169.493042</ele>
        <time>2021-09-09T10:08:14.000Z</time>
      </trkpt>
      <trkpt lat="47.59442" lon="2.74121">
        <ele>169.185555</ele>
        <time>2021-09-09T10:08:15.000Z</time>
      </trkpt>
      <trkpt lat="47.59434" lon="2.74146">
        <ele>168.583483</ele>
        <time>2021-09-09T10:08:17.000Z</time>
      </trkpt>
      <trkpt lat="47.59429" lon="2.74157">
        <ele>168.272668</ele>
        <time>2021-09-09T10:08:18.000Z</time>
      </trkpt>
      <trkpt lat="47.59422" lon="2.74169">
        <ele>167.946331</ele>
        <time>2021-09-09T10:08:19.000Z</time>
      </trkpt>
      <trkpt lat="47.59399" lon="2.74201">
        <ele>166.917388</ele>
        <time>2021-09-09T10:08:22.000Z</time>
      </trkpt>
      <trkpt lat="47.59372" lon="2.74243">
        <ele>165.502004</ele>
        <time>2021-09-09T10:08:26.000Z</time>
      </trkpt>
      <trkpt lat="47.59337" lon="2.74302">
        <ele>163.627319</ele>
        <time>2021-09-09T10:08:32.000Z</time>
      </trkpt>
      <trkpt lat="47.59324" lon="2.74331">
        <ele>162.80546</ele>
        <time>2021-09-09T10:08:35.000Z</time>
      </trkpt>
      <trkpt lat="47.59318" lon="2.74351">
        <ele>162.274864</ele>
        <time>2021-09-09T10:08:37.000Z</time>
      </trkpt>
      <trkpt lat="47.59303" lon="2.74397">
        <ele>161.048644</ele>
        <time>2021-09-09T10:08:42.000Z</time>
      </trkpt>
      <trkpt lat="47.59292" lon="2.74433">
        <ele>160.120876</ele>
        <time>2021-09-09T10:08:46.000Z</time>
      </trkpt>
      <trkpt lat="47.59274" lon="2.74484">
        <ele>158.792328</ele>
        <time>2021-09-09T10:08:52.000Z</time>
      </trkpt>
      <trkpt lat="47.59248" lon="2.74535">
        <ele>157.310801</ele>
        <time>2021-09-09T10:08:59.000Z</time>
      </trkpt>
      <trkpt lat="47.59224" lon="2.74568">
        <ele>156.179344</ele>
        <time>2021-09-09T10:09:04.000Z</time>
      </trkpt>
      <trkpt lat="47.59186" lon="2.74618">
        <ele>154.447004</ele>
        <time>2021-09-09T10:09:11.000Z</time>
      </trkpt>
      <trkpt lat="47.59154" lon="2.74646">
        <ele>153.11189</ele>
        <time>2021-09-09T10:09:16.000Z</time>
      </trkpt>
      <trkpt lat="47.59112" lon="2.74682">
        <ele>151.32024</ele>
        <time>2021-09-09T10:09:23.000Z</time>
      </trkpt>
      <trkpt lat="47.59089" lon="2.7471">
        <ele>150.255615</ele>
        <time>2021-09-09T10:09:28.000Z</time>
      </trkpt>
      <trkpt lat="47.59082" lon="2.74724">
        <ele>149.823648</ele>
        <time>2021-09-09T10:09:32.000Z</time>
      </trkpt>
      <trkpt lat="47.59089" lon="2.7474">
        <ele>149.358311</ele>
        <time>2021-09-09T10:09:36.000Z</time>
      </trkpt>
      <trkpt lat="47.591" lon="2.74764">
        <ele>148.641267</ele>
        <time>2021-09-09T10:09:41.000Z</time>
      </trkpt>
      <trkpt lat="47.59103" lon="2.74769">
        <ele>148.481561</ele>
        <time>2021-09-09T10:09:42.000Z</time>
      </trkpt>
      <trkpt lat="47.59122" lon="2.74803">
        <ele>147.47922</ele>
        <time>2021-09-09T10:09:48.000Z</time>
      </trkpt>
      <trkpt lat="47.59133" lon="2.74821">
        <ele>147.031912</ele>
        <time>2021-09-09T10:09:51.000Z</time>
      </trkpt>
      <trkpt lat="47.59144" lon="2.7484">
        <ele>146.570425</ele>
        <time>2021-09-09T10:09:54.000Z</time>
      </trkpt>
      <trkpt lat="47.59165" lon="2.74876">
        <ele>145.68741</ele>
        <time>2021-09-09T10:10:00.000Z</time>
      </trkpt>
      <trkpt lat="47.59191" lon="2.74924">
        <ele>144.545073</ele>
        <time>2021-09-09T10:10:08.000Z</time>
      </trkpt>
      <trkpt lat="47.59198" lon="2.74941">
        <ele>144.174472</ele>
        <time>2021-09-09T10:10:11.000Z</time>
      </trkpt>
      <trkpt lat="47.59205" lon="2.74955">
        <ele>143.854365</ele>
        <time>2021-09-09T10:10:14.000Z</time>
      </trkpt>
      <trkpt lat="47.59224" lon="2.7499">
        <ele>143.028774</ele>
        <time>2021-09-09T10:10:21.000Z</time>
      </trkpt>
      <trkpt lat="47.59227" lon="2.74995">
        <ele>142.904609</ele>
        <time>2021-09-09T10:10:22.000Z</time>
      </trkpt>
      <trkpt lat="47.59231" lon="2.75007">
        <ele>142.605025</ele>
        <time>2021-09-09T10:10:24.000Z</time>
      </trkpt>
      <trkpt lat="47.59235" lon="2.7502">
        <ele>142.246303</ele>
        <time>2021-09-09T10:10:26.000Z</time>
      </trkpt>
      <trkpt lat="47.59248" lon="2.75079">
        <ele>140.699145</ele>
        <time>2021-09-09T10:10:34.000Z</time>
      </trkpt>
      <trkpt lat="47.59257" lon="2.75121">
        <ele>139.575049</ele>
        <time>2021-09-09T10:10:41.000Z</time>
      </trkpt>
      <trkpt lat="47.59271" lon="2.75158">
        <ele>138.520199</ele>
        <time>2021-09-09T10:10:48.000Z</time>
      </trkpt>
      <trkpt lat="47.59287" lon="2.75195">
        <ele>137.397167</ele>
        <time>2021-09-09T10:10:56.000Z</time>
      </trkpt>
      <trkpt lat="47.59298" lon="2.75223">
        <ele>136.591734</ele>
        <time>2021-09-09T10:11:02.000Z</time>
      </trkpt>
      <trkpt lat="47.59301" lon="2.75246">
        <ele>136.022787</ele>
        <time>2021-09-09T10:11:08.000Z</time>
      </trkpt>
      <trkpt lat="47.59307" lon="2.75259">
        <ele>135.762096</ele>
        <time>2021-09-09T10:11:13.000Z</time>
      </trkpt>
      <trkpt lat="47.59314" lon="2.7527">
        <ele>135.528464</ele>
        <time>2021-09-09T10:11:17.000Z</time>
      </trkpt>
      <trkpt lat="47.59314" lon="2.75272">
        <ele>135.494336</ele>
        <time>2021-09-09T10:11:18.000Z</time>
      </trkpt>
      <trkpt lat="47.59314" lon="2.75273">
        <ele>135.467947</ele>
        <time>2021-09-09T10:11:21.000Z</time>
      </trkpt>
      <trkpt lat="47.59306" lon="2.75254">
        <ele>135.096049</ele>
        <time>2021-09-09T10:18:40.000Z</time>
      </trkpt>
      <trkpt lat="47.59311" lon="2.75261">
        <ele>134.937835</ele>
        <time>2021-09-09T10:18:42.000Z</time>
      </trkpt>
      <trkpt lat="47.59305" lon="2.75255">
        <ele>134.773979</ele>
        <time>2021-09-09T10:18:45.000Z</time>
      </trkpt>
      <trkpt lat="47.59299" lon="2.75264">
        <ele>134.565551</ele>
        <time>2021-09-09T10:18:51.000Z</time>
      </trkpt>
      <trkpt lat="47.59284" lon="2.75284">
        <ele>134.074385</ele>
        <time>2021-09-09T10:18:56.000Z</time>
      </trkpt>
      <trkpt lat="47.59256" lon="2.7532">
        <ele>133.184844</ele>
        <time>2021-09-09T10:19:03.000Z</time>
      </trkpt>
      <trkpt lat="47.5923" lon="2.75354">
        <ele>132.332265</ele>
        <time>2021-09-09T10:19:10.000Z</time>
      </trkpt>
      <trkpt lat="47.59212" lon="2.7538">
        <ele>131.720819</ele>
        <time>2021-09-09T10:19:16.000Z</time>
      </trkpt>
      <trkpt lat="47.59203" lon="2.75393">
        <ele>132.015959</ele>
        <time>2021-09-09T10:19:20.000Z</time>
      </trkpt>
      <trkpt lat="47.59191" lon="2.75408">
        <ele>132.43197</ele>
        <time>2021-09-09T10:19:25.000Z</time>
      </trkpt>
      <trkpt lat="47.59173" lon="2.75431">
        <ele>133.089015</ele>
        <time>2021-09-09T10:19:32.000Z</time>
      </trkpt>
      <trkpt lat="47.59156" lon="2.7544">
        <ele>133.571515</ele>
        <time>2021-09-09T10:19:38.000Z</time>
      </trkpt>
      <trkpt lat="47.5914" lon="2.7544">
        <ele>134.003303</ele>
        <time>2021-09-09T10:19:44.000Z</time>
      </trkpt>
      <trkpt lat="47.59117" lon="2.75434">
        <ele>134.65885</ele>
        <time>2021-09-09T10:19:53.000Z</time>
      </trkpt>
      <trkpt lat="47.59099" lon="2.7543">
        <ele>135.140833</ele>
        <time>2021-09-09T10:19:59.000Z</time>
      </trkpt>
      <trkpt lat="47.5908" lon="2.75425">
        <ele>135.677892</ele>
        <time>2021-09-09T10:20:06.000Z</time>
      </trkpt>
      <trkpt lat="47.59053" lon="2.75418">
        <ele>136.423933</ele>
        <time>2021-09-09T10:20:15.000Z</time>
      </trkpt>
      <trkpt lat="47.59033" lon="2.75418">
        <ele>137.271245</ele>
        <time>2021-09-09T10:20:22.000Z</time>
      </trkpt>
      <trkpt lat="47.5902" lon="2.75432">
        <ele>138.117871</ele>
        <time>2021-09-09T10:20:28.000Z</time>
      </trkpt>
      <trkpt lat="47.59015" lon="2.75453">
        <ele>138.852772</ele>
        <time>2021-09-09T10:20:34.000Z</time>
      </trkpt>
      <trkpt lat="47.59016" lon="2.75478">
        <ele>139.718155</ele>
        <time>2021-09-09T10:20:42.000Z</time>
      </trkpt>
      <trkpt lat="47.59024" lon="2.75519">
        <ele>141.158241</ele>
        <time>2021-09-09T10:20:54.000Z</time>
      </trkpt>
      <trkpt lat="47.59029" lon="2.75543">
        <ele>142.029403</ele>
        <time>2021-09-09T10:21:01.000Z</time>
      </trkpt>
      <trkpt lat="47.59033" lon="2.75571">
        <ele>143.010243</ele>
        <time>2021-09-09T10:21:08.000Z</time>
      </trkpt>
      <trkpt lat="47.5903" lon="2.75598">
        <ele>143.913024</ele>
        <time>2021-09-09T10:21:14.000Z</time>
      </trkpt>
      <trkpt lat="47.59021" lon="2.75619">
        <ele>144.763956</ele>
        <time>2021-09-09T10:21:20.000Z</time>
      </trkpt>
      <trkpt lat="47.5901" lon="2.75633">
        <ele>145.493579</ele>
        <time>2021-09-09T10:21:25.000Z</time>
      </trkpt>
      <trkpt lat="47.58998" lon="2.75643">
        <ele>146.270039</ele>
        <time>2021-09-09T10:21:30.000Z</time>
      </trkpt>
      <trkpt lat="47.58998" lon="2.75643">
        <ele>146.270039</ele>
        <time>2021-09-09T10:21:31.000Z</time>
      </trkpt>
      <trkpt lat="47.58991" lon="2.75649">
        <ele>146.736737</ele>
        <time>2021-09-09T10:21:32.000Z</time>
      </trkpt>
      <trkpt lat="47.58971" lon="2.75664">
        <ele>148.035108</ele>
        <time>2021-09-09T10:21:40.000Z</time>
      </trkpt>
      <trkpt lat="47.58953" lon="2.75677">
        <ele>149.181914</ele>
        <time>2021-09-09T10:21:48.000Z</time>
      </trkpt>
      <trkpt lat="47.58927" lon="2.75695">
        <ele>150.814486</ele>
        <time>2021-09-09T10:21:57.000Z</time>
      </trkpt>
      <trkpt lat="47.58908" lon="2.75708">
        <ele>152.061213</ele>
        <time>2021-09-09T10:22:05.000Z</time>
      </trkpt>
      <trkpt lat="47.58891" lon="2.7572">
        <ele>153.132382</ele>
        <time>2021-09-09T10:22:12.000Z</time>
      </trkpt>
      <trkpt lat="47.58869" lon="2.75736">
        <ele>154.528875</ele>
        <time>2021-09-09T10:22:21.000Z</time>
      </trkpt>
      <trkpt lat="47.5885" lon="2.75751">
        <ele>155.751761</ele>
        <time>2021-09-09T10:22:29.000Z</time>
      </trkpt>
      <trkpt lat="47.58833" lon="2.75763">
        <ele>156.619781</ele>
        <time>2021-09-09T10:22:36.000Z</time>
      </trkpt>
      <trkpt lat="47.58812" lon="2.75779">
        <ele>157.571205</ele>
        <time>2021-09-09T10:22:44.000Z</time>
      </trkpt>
      <trkpt lat="47.5879" lon="2.75795">
        <ele>158.540536</ele>
        <time>2021-09-09T10:22:52.000Z</time>
      </trkpt>
      <trkpt lat="47.58769" lon="2.75809">
        <ele>159.44779</ele>
        <time>2021-09-09T10:22:59.000Z</time>
      </trkpt>
      <trkpt lat="47.58742" lon="2.75829">
        <ele>160.678564</ele>
        <time>2021-09-09T10:23:08.000Z</time>
      </trkpt>
      <trkpt lat="47.58711" lon="2.75852">
        <ele>162.052581</ele>
        <time>2021-09-09T10:23:17.000Z</time>
      </trkpt>
      <trkpt lat="47.58685" lon="2.7587">
        <ele>163.1807</ele>
        <time>2021-09-09T10:23:24.000Z</time>
      </trkpt>
      <trkpt lat="47.58654" lon="2.75894">
        <ele>163.758412</ele>
        <time>2021-09-09T10:23:32.000Z</time>
      </trkpt>
      <trkpt lat="47.58612" lon="2.75925">
        <ele>164.492841</ele>
        <time>2021-09-09T10:23:42.000Z</time>
      </trkpt>
      <trkpt lat="47.58571" lon="2.75954">
        <ele>165.199901</ele>
        <time>2021-09-09T10:23:51.000Z</time>
      </trkpt>
      <trkpt lat="47.5853" lon="2.75983">
        <ele>165.904158</ele>
        <time>2021-09-09T10:24:00.000Z</time>
      </trkpt>
      <trkpt lat="47.58491" lon="2.76011">
        <ele>166.489381</ele>
        <time>2021-09-09T10:24:08.000Z</time>
      </trkpt>
      <trkpt lat="47.58448" lon="2.76044">
        <ele>167.137255</ele>
        <time>2021-09-09T10:24:17.000Z</time>
      </trkpt>
      <trkpt lat="47.58405" lon="2.76077">
        <ele>167.774827</ele>
        <time>2021-09-09T10:24:26.000Z</time>
      </trkpt>
      <trkpt lat="47.58372" lon="2.76102">
        <ele>168.263324</ele>
        <time>2021-09-09T10:24:33.000Z</time>
      </trkpt>
      <trkpt lat="47.58334" lon="2.76132">
        <ele>168.724958</ele>
        <time>2021-09-09T10:24:41.000Z</time>
      </trkpt>
      <trkpt lat="47.58292" lon="2.76171">
        <ele>169.211427</ele>
        <time>2021-09-09T10:24:50.000Z</time>
      </trkpt>
      <trkpt lat="47.58258" lon="2.76214">
        <ele>169.636355</ele>
        <time>2021-09-09T10:24:58.000Z</time>
      </trkpt>
      <trkpt lat="47.58231" lon="2.76252">
        <ele>170.00817</ele>
        <time>2021-09-09T10:25:05.000Z</time>
      </trkpt>
      <trkpt lat="47.58203" lon="2.76291">
        <ele>170.35154</ele>
        <time>2021-09-09T10:25:12.000Z</time>
      </trkpt>
      <trkpt lat="47.58169" lon="2.76339">
        <ele>170.753734</ele>
        <time>2021-09-09T10:25:21.000Z</time>
      </trkpt>
      <trkpt lat="47.58139" lon="2.76382">
        <ele>171.109749</ele>
        <time>2021-09-09T10:25:29.000Z</time>
      </trkpt>
      <trkpt lat="47.5811" lon="2.7642">
        <ele>171.438557</ele>
        <time>2021-09-09T10:25:36.000Z</time>
      </trkpt>
      <trkpt lat="47.58076" lon="2.76454">
        <ele>171.73006</ele>
        <time>2021-09-09T10:25:43.000Z</time>
      </trkpt>
      <trkpt lat="47.58041" lon="2.7647">
        <ele>171.832291</ele>
        <time>2021-09-09T10:25:49.000Z</time>
      </trkpt>
      <trkpt lat="47.57997" lon="2.76479">
        <ele>171.956575</ele>
        <time>2021-09-09T10:25:57.000Z</time>
      </trkpt>
      <trkpt lat="47.57948" lon="2.76489">
        <ele>172.095154</ele>
        <time>2021-09-09T10:26:06.000Z</time>
      </trkpt>
      <trkpt lat="47.57899" lon="2.76499">
        <ele>172.232609</ele>
        <time>2021-09-09T10:26:14.000Z</time>
      </trkpt>
      <trkpt lat="47.57839" lon="2.76511">
        <ele>172.390503</ele>
        <time>2021-09-09T10:26:23.000Z</time>
      </trkpt>
      <trkpt lat="47.57783" lon="2.76522">
        <ele>172.536859</ele>
        <time>2021-09-09T10:26:32.000Z</time>
      </trkpt>
      <trkpt lat="47.5774" lon="2.76531">
        <ele>172.651631</ele>
        <time>2021-09-09T10:26:40.000Z</time>
      </trkpt>
      <trkpt lat="47.57689" lon="2.76541">
        <ele>173.036423</ele>
        <time>2021-09-09T10:26:50.000Z</time>
      </trkpt>
      <trkpt lat="47.57639" lon="2.76551">
        <ele>173.462574</ele>
        <time>2021-09-09T10:27:00.000Z</time>
      </trkpt>
      <trkpt lat="47.57596" lon="2.7656">
        <ele>173.832311</ele>
        <time>2021-09-09T10:27:09.000Z</time>
      </trkpt>
      <trkpt lat="47.57567" lon="2.76566">
        <ele>174.080836</ele>
        <time>2021-09-09T10:27:15.000Z</time>
      </trkpt>
      <trkpt lat="47.57527" lon="2.76574">
        <ele>174.398274</ele>
        <time>2021-09-09T10:27:23.000Z</time>
      </trkpt>
      <trkpt lat="47.5748" lon="2.76583">
        <ele>174.759913</ele>
        <time>2021-09-09T10:27:32.000Z</time>
      </trkpt>
      <trkpt lat="47.5743" lon="2.76593">
        <ele>175.146142</ele>
        <time>2021-09-09T10:27:41.000Z</time>
      </trkpt>
      <trkpt lat="47.57371" lon="2.76605">
        <ele>175.57593</ele>
        <time>2021-09-09T10:27:51.000Z</time>
      </trkpt>
      <trkpt lat="47.57318" lon="2.76618">
        <ele>175.707593</ele>
        <time>2021-09-09T10:28:00.000Z</time>
      </trkpt>
      <trkpt lat="47.57271" lon="2.76627">
        <ele>175.823943</ele>
        <time>2021-09-09T10:28:08.000Z</time>
      </trkpt>
      <trkpt lat="47.57213" lon="2.76639">
        <ele>175.968051</ele>
        <time>2021-09-09T10:28:18.000Z</time>
      </trkpt>
      <trkpt lat="47.57177" lon="2.76667">
        <ele>176.146869</ele>
        <time>2021-09-09T10:28:25.000Z</time>
      </trkpt>
      <trkpt lat="47.57142" lon="2.76695">
        <ele>176.365593</ele>
        <time>2021-09-09T10:28:32.000Z</time>
      </trkpt>
      <trkpt lat="47.5711" lon="2.76723">
        <ele>176.573165</ele>
        <time>2021-09-09T10:28:39.000Z</time>
      </trkpt>
      <trkpt lat="47.57077" lon="2.76754">
        <ele>176.786651</ele>
        <time>2021-09-09T10:28:47.000Z</time>
      </trkpt>
      <trkpt lat="47.5705" lon="2.7678">
        <ele>176.967736</ele>
        <time>2021-09-09T10:28:54.000Z</time>
      </trkpt>
      <trkpt lat="47.57028" lon="2.768">
        <ele>177.245689</ele>
        <time>2021-09-09T10:29:00.000Z</time>
      </trkpt>
      <trkpt lat="47.56993" lon="2.76833">
        <ele>177.749897</ele>
        <time>2021-09-09T10:29:10.000Z</time>
      </trkpt>
      <trkpt lat="47.56971" lon="2.76854">
        <ele>178.0802</ele>
        <time>2021-09-09T10:29:17.000Z</time>
      </trkpt>
      <trkpt lat="47.56948" lon="2.76876">
        <ele>178.414542</ele>
        <time>2021-09-09T10:29:24.000Z</time>
      </trkpt>
      <trkpt lat="47.5692" lon="2.76907">
        <ele>178.849794</ele>
        <time>2021-09-09T10:29:33.000Z</time>
      </trkpt>
      <trkpt lat="47.56897" lon="2.76941">
        <ele>179.249609</ele>
        <time>2021-09-09T10:29:41.000Z</time>
      </trkpt>
      <trkpt lat="47.56874" lon="2.76995">
        <ele>179.534236</ele>
        <time>2021-09-09T10:29:50.000Z</time>
      </trkpt>
      <trkpt lat="47.56851" lon="2.7705">
        <ele>179.825579</ele>
        <time>2021-09-09T10:29:58.000Z</time>
      </trkpt>
      <trkpt lat="47.56824" lon="2.77113">
        <ele>180.160531</ele>
        <time>2021-09-09T10:30:06.000Z</time>
      </trkpt>
      <trkpt lat="47.56795" lon="2.7718">
        <ele>180.419348</ele>
        <time>2021-09-09T10:30:14.000Z</time>
      </trkpt>
      <trkpt lat="47.56764" lon="2.77228">
        <ele>180.363502</ele>
        <time>2021-09-09T10:30:21.000Z</time>
      </trkpt>
      <trkpt lat="47.56724" lon="2.77292">
        <ele>180.291028</ele>
        <time>2021-09-09T10:30:30.000Z</time>
      </trkpt>
      <trkpt lat="47.56686" lon="2.7735">
        <ele>180.223572</ele>
        <time>2021-09-09T10:30:38.000Z</time>
      </trkpt>
      <trkpt lat="47.56681" lon="2.77357">
        <ele>180.215136</ele>
        <time>2021-09-09T10:30:39.000Z</time>
      </trkpt>
      <trkpt lat="47.56641" lon="2.7742">
        <ele>180.285471</ele>
        <time>2021-09-09T10:30:48.000Z</time>
      </trkpt>
      <trkpt lat="47.56605" lon="2.77475">
        <ele>180.3531</ele>
        <time>2021-09-09T10:30:57.000Z</time>
      </trkpt>
      <trkpt lat="47.56569" lon="2.77532">
        <ele>180.421846</ele>
        <time>2021-09-09T10:31:07.000Z</time>
      </trkpt>
      <trkpt lat="47.56538" lon="2.77581">
        <ele>180.45141</ele>
        <time>2021-09-09T10:31:16.000Z</time>
      </trkpt>
      <trkpt lat="47.56514" lon="2.77626">
        <ele>180.457978</ele>
        <time>2021-09-09T10:31:23.000Z</time>
      </trkpt>
      <trkpt lat="47.56484" lon="2.77684">
        <ele>180.466371</ele>
        <time>2021-09-09T10:31:32.000Z</time>
      </trkpt>
      <trkpt lat="47.5646" lon="2.77732">
        <ele>180.473234</ele>
        <time>2021-09-09T10:31:39.000Z</time>
      </trkpt>
      <trkpt lat="47.56432" lon="2.77786">
        <ele>180.290393</ele>
        <time>2021-09-09T10:31:46.000Z</time>
      </trkpt>
      <trkpt lat="47.56402" lon="2.77844">
        <ele>179.841396</ele>
        <time>2021-09-09T10:31:53.000Z</time>
      </trkpt>
      <trkpt lat="47.56368" lon="2.77909">
        <ele>179.335284</ele>
        <time>2021-09-09T10:32:00.000Z</time>
      </trkpt>
      <trkpt lat="47.56332" lon="2.77975">
        <ele>178.819598</ele>
        <time>2021-09-09T10:32:07.000Z</time>
      </trkpt>
      <trkpt lat="47.56297" lon="2.78041">
        <ele>178.539098</ele>
        <time>2021-09-09T10:32:14.000Z</time>
      </trkpt>
      <trkpt lat="47.56287" lon="2.78059">
        <ele>178.464183</ele>
        <time>2021-09-09T10:32:16.000Z</time>
      </trkpt>
      <trkpt lat="47.56253" lon="2.78123">
        <ele>178.190864</ele>
        <time>2021-09-09T10:32:24.000Z</time>
      </trkpt>
      <trkpt lat="47.56249" lon="2.78131">
        <ele>178.159348</ele>
        <time>2021-09-09T10:32:25.000Z</time>
      </trkpt>
      <trkpt lat="47.56216" lon="2.78192">
        <ele>177.947743</ele>
        <time>2021-09-09T10:32:34.000Z</time>
      </trkpt>
      <trkpt lat="47.56186" lon="2.78249">
        <ele>177.952468</ele>
        <time>2021-09-09T10:32:43.000Z</time>
      </trkpt>
      <trkpt lat="47.56159" lon="2.78298">
        <ele>177.956602</ele>
        <time>2021-09-09T10:32:51.000Z</time>
      </trkpt>
      <trkpt lat="47.56135" lon="2.78342">
        <ele>177.960356</ele>
        <time>2021-09-09T10:32:58.000Z</time>
      </trkpt>
      <trkpt lat="47.56113" lon="2.78384">
        <ele>177.963863</ele>
        <time>2021-09-09T10:33:05.000Z</time>
      </trkpt>
      <trkpt lat="47.56091" lon="2.78427">
        <ele>177.764557</ele>
        <time>2021-09-09T10:33:12.000Z</time>
      </trkpt>
      <trkpt lat="47.56066" lon="2.78472">
        <ele>177.518173</ele>
        <time>2021-09-09T10:33:19.000Z</time>
      </trkpt>
      <trkpt lat="47.56059" lon="2.78486">
        <ele>177.445619</ele>
        <time>2021-09-09T10:33:21.000Z</time>
      </trkpt>
      <trkpt lat="47.56052" lon="2.78499">
        <ele>177.373399</ele>
        <time>2021-09-09T10:33:23.000Z</time>
      </trkpt>
      <trkpt lat="47.56028" lon="2.78546">
        <ele>177.121047</ele>
        <time>2021-09-09T10:33:30.000Z</time>
      </trkpt>
      <trkpt lat="47.55999" lon="2.78598">
        <ele>176.834342</ele>
        <time>2021-09-09T10:33:38.000Z</time>
      </trkpt>
      <trkpt lat="47.55977" lon="2.78641">
        <ele>176.397038</ele>
        <time>2021-09-09T10:33:44.000Z</time>
      </trkpt>
      <trkpt lat="47.5595" lon="2.78699">
        <ele>175.820165</ele>
        <time>2021-09-09T10:33:51.000Z</time>
      </trkpt>
      <trkpt lat="47.55923" lon="2.78762">
        <ele>175.204448</ele>
        <time>2021-09-09T10:33:58.000Z</time>
      </trkpt>
      <trkpt lat="47.55894" lon="2.78841">
        <ele>174.397095</ele>
        <time>2021-09-09T10:34:06.000Z</time>
      </trkpt>
      <trkpt lat="47.55866" lon="2.78921">
        <ele>173.364783</ele>
        <time>2021-09-09T10:34:14.000Z</time>
      </trkpt>
      <trkpt lat="47.5584" lon="2.78991">
        <ele>172.449715</ele>
        <time>2021-09-09T10:34:21.000Z</time>
      </trkpt>
      <trkpt lat="47.55837" lon="2.79002">
        <ele>172.317151</ele>
        <time>2021-09-09T10:34:22.000Z</time>
      </trkpt>
      <trkpt lat="47.55811" lon="2.79073">
        <ele>171.340688</ele>
        <time>2021-09-09T10:34:29.000Z</time>
      </trkpt>
      <trkpt lat="47.5579" lon="2.79121">
        <ele>170.539676</ele>
        <time>2021-09-09T10:34:34.000Z</time>
      </trkpt>
      <trkpt lat="47.55784" lon="2.7913">
        <ele>170.376246</ele>
        <time>2021-09-09T10:34:35.000Z</time>
      </trkpt>
      <trkpt lat="47.55751" lon="2.79167">
        <ele>169.514955</ele>
        <time>2021-09-09T10:34:40.000Z</time>
      </trkpt>
      <trkpt lat="47.55718" lon="2.79187">
        <ele>168.788041</ele>
        <time>2021-09-09T10:34:44.000Z</time>
      </trkpt>
      <trkpt lat="47.55676" lon="2.79201">
        <ele>167.891997</ele>
        <time>2021-09-09T10:34:49.000Z</time>
      </trkpt>
      <trkpt lat="47.55635" lon="2.79217">
        <ele>167.389017</ele>
        <time>2021-09-09T10:34:55.000Z</time>
      </trkpt>
      <trkpt lat="47.55604" lon="2.79238">
        <ele>166.99265</ele>
        <time>2021-09-09T10:35:01.000Z</time>
      </trkpt>
      <trkpt lat="47.55579" lon="2.79266">
        <ele>166.631257</ele>
        <time>2021-09-09T10:35:07.000Z</time>
      </trkpt>
      <trkpt lat="47.55576" lon="2.79272">
        <ele>166.571912</ele>
        <time>2021-09-09T10:35:08.000Z</time>
      </trkpt>
      <trkpt lat="47.55555" lon="2.79311">
        <ele>166.182694</ele>
        <time>2021-09-09T10:35:15.000Z</time>
      </trkpt>
      <trkpt lat="47.55541" lon="2.79357">
        <ele>165.795162</ele>
        <time>2021-09-09T10:35:22.000Z</time>
      </trkpt>
      <trkpt lat="47.55527" lon="2.79406">
        <ele>165.923252</ele>
        <time>2021-09-09T10:35:30.000Z</time>
      </trkpt>
      <trkpt lat="47.5551" lon="2.79464">
        <ele>166.081182</ele>
        <time>2021-09-09T10:35:40.000Z</time>
      </trkpt>
      <trkpt lat="47.55496" lon="2.79511">
        <ele>166.210069</ele>
        <time>2021-09-09T10:35:48.000Z</time>
      </trkpt>
      <trkpt lat="47.55483" lon="2.79559">
        <ele>166.338376</ele>
        <time>2021-09-09T10:35:56.000Z</time>
      </trkpt>
      <trkpt lat="47.55467" lon="2.79616">
        <ele>166.477126</ele>
        <time>2021-09-09T10:36:05.000Z</time>
      </trkpt>
      <trkpt lat="47.5545" lon="2.79671">
        <ele>166.565291</ele>
        <time>2021-09-09T10:36:14.000Z</time>
      </trkpt>
      <trkpt lat="47.55433" lon="2.79708">
        <ele>166.629703</ele>
        <time>2021-09-09T10:36:21.000Z</time>
      </trkpt>
      <trkpt lat="47.55402" lon="2.79755">
        <ele>166.724491</ele>
        <time>2021-09-09T10:36:28.000Z</time>
      </trkpt>
      <trkpt lat="47.55367" lon="2.79803">
        <ele>166.825814</ele>
        <time>2021-09-09T10:36:35.000Z</time>
      </trkpt>
      <trkpt lat="47.5533" lon="2.79854">
        <ele>166.585283</ele>
        <time>2021-09-09T10:36:42.000Z</time>
      </trkpt>
      <trkpt lat="47.55288" lon="2.7991">
        <ele>166.253184</ele>
        <time>2021-09-09T10:36:49.000Z</time>
      </trkpt>
      <trkpt lat="47.55282" lon="2.79918">
        <ele>166.205007</ele>
        <time>2021-09-09T10:36:50.000Z</time>
      </trkpt>
      <trkpt lat="47.55243" lon="2.79972">
        <ele>165.886225</ele>
        <time>2021-09-09T10:36:57.000Z</time>
      </trkpt>
      <trkpt lat="47.55214" lon="2.80011">
        <ele>165.872731</ele>
        <time>2021-09-09T10:37:03.000Z</time>
      </trkpt>
      <trkpt lat="47.55186" lon="2.8005">
        <ele>166.05005</ele>
        <time>2021-09-09T10:37:10.000Z</time>
      </trkpt>
      <trkpt lat="47.55156" lon="2.8009">
        <ele>166.235272</ele>
        <time>2021-09-09T10:37:18.000Z</time>
      </trkpt>
      <trkpt lat="47.5512" lon="2.80139">
        <ele>166.456409</ele>
        <time>2021-09-09T10:37:28.000Z</time>
      </trkpt>
      <trkpt lat="47.5508" lon="2.80192">
        <ele>166.746844</ele>
        <time>2021-09-09T10:37:39.000Z</time>
      </trkpt>
      <trkpt lat="47.55048" lon="2.80235">
        <ele>167.038811</ele>
        <time>2021-09-09T10:37:48.000Z</time>
      </trkpt>
      <trkpt lat="47.5502" lon="2.80274">
        <ele>167.296769</ele>
        <time>2021-09-09T10:37:56.000Z</time>
      </trkpt>
      <trkpt lat="47.5499" lon="2.80315">
        <ele>167.574544</ele>
        <time>2021-09-09T10:38:05.000Z</time>
      </trkpt>
      <trkpt lat="47.54955" lon="2.80362">
        <ele>167.760842</ele>
        <time>2021-09-09T10:38:14.000Z</time>
      </trkpt>
      <trkpt lat="47.54928" lon="2.80398">
        <ele>167.615646</ele>
        <time>2021-09-09T10:38:20.000Z</time>
      </trkpt>
      <trkpt lat="47.54894" lon="2.80444">
        <ele>167.432787</ele>
        <time>2021-09-09T10:38:27.000Z</time>
      </trkpt>
      <trkpt lat="47.54853" lon="2.805">
        <ele>167.211013</ele>
        <time>2021-09-09T10:38:35.000Z</time>
      </trkpt>
      <trkpt lat="47.54848" lon="2.80507">
        <ele>167.183874</ele>
        <time>2021-09-09T10:38:36.000Z</time>
      </trkpt>
      <trkpt lat="47.54805" lon="2.80565">
        <ele>166.492425</ele>
        <time>2021-09-09T10:38:45.000Z</time>
      </trkpt>
      <trkpt lat="47.54801" lon="2.80571">
        <ele>166.392</ele>
        <time>2021-09-09T10:38:46.000Z</time>
      </trkpt>
      <trkpt lat="47.54762" lon="2.80623">
        <ele>165.51213</ele>
        <time>2021-09-09T10:38:54.000Z</time>
      </trkpt>
      <trkpt lat="47.54721" lon="2.80679">
        <ele>164.565504</ele>
        <time>2021-09-09T10:39:02.000Z</time>
      </trkpt>
      <trkpt lat="47.54716" lon="2.80687">
        <ele>164.439009</ele>
        <time>2021-09-09T10:39:03.000Z</time>
      </trkpt>
      <trkpt lat="47.54671" lon="2.80747">
        <ele>163.228563</ele>
        <time>2021-09-09T10:39:11.000Z</time>
      </trkpt>
      <trkpt lat="47.5463" lon="2.80804">
        <ele>162.01187</ele>
        <time>2021-09-09T10:39:18.000Z</time>
      </trkpt>
      <trkpt lat="47.54617" lon="2.80821">
        <ele>161.65201</ele>
        <time>2021-09-09T10:39:20.000Z</time>
      </trkpt>
      <trkpt lat="47.54589" lon="2.80867">
        <ele>160.734174</ele>
        <time>2021-09-09T10:39:25.000Z</time>
      </trkpt>
      <trkpt lat="47.5458" lon="2.80888">
        <ele>160.370969</ele>
        <time>2021-09-09T10:39:27.000Z</time>
      </trkpt>
      <trkpt lat="47.5457" lon="2.80919">
        <ele>160.039007</ele>
        <time>2021-09-09T10:39:30.000Z</time>
      </trkpt>
      <trkpt lat="47.5456" lon="2.80956">
        <ele>159.825412</ele>
        <time>2021-09-09T10:39:34.000Z</time>
      </trkpt>
      <trkpt lat="47.54558" lon="2.80964">
        <ele>159.777585</ele>
        <time>2021-09-09T10:39:35.000Z</time>
      </trkpt>
      <trkpt lat="47.54556" lon="2.80972">
        <ele>159.732584</ele>
        <time>2021-09-09T10:39:36.000Z</time>
      </trkpt>
      <trkpt lat="47.54552" lon="2.80988">
        <ele>159.643603</ele>
        <time>2021-09-09T10:39:38.000Z</time>
      </trkpt>
      <trkpt lat="47.54549" lon="2.81002">
        <ele>159.559523</ele>
        <time>2021-09-09T10:39:40.000Z</time>
      </trkpt>
      <trkpt lat="47.54544" lon="2.81021">
        <ele>159.449198</ele>
        <time>2021-09-09T10:39:43.000Z</time>
      </trkpt>
      <trkpt lat="47.54536" lon="2.81055">
        <ele>159.252481</ele>
        <time>2021-09-09T10:39:49.000Z</time>
      </trkpt>
      <trkpt lat="47.54527" lon="2.81091">
        <ele>159.044816</ele>
        <time>2021-09-09T10:39:56.000Z</time>
      </trkpt>
      <trkpt lat="47.54518" lon="2.81128">
        <ele>158.831144</ele>
        <time>2021-09-09T10:40:03.000Z</time>
      </trkpt>
      <trkpt lat="47.54512" lon="2.81151">
        <ele>158.698726</ele>
        <time>2021-09-09T10:40:07.000Z</time>
      </trkpt>
      <trkpt lat="47.54508" lon="2.81168">
        <ele>158.730144</ele>
        <time>2021-09-09T10:40:10.000Z</time>
      </trkpt>
      <trkpt lat="47.54499" lon="2.81208">
        <ele>158.804366</ele>
        <time>2021-09-09T10:40:17.000Z</time>
      </trkpt>
      <trkpt lat="47.54486" lon="2.81253">
        <ele>158.892017</ele>
        <time>2021-09-09T10:40:25.000Z</time>
      </trkpt>
      <trkpt lat="47.54484" lon="2.81259">
        <ele>158.903398</ele>
        <time>2021-09-09T10:40:26.000Z</time>
      </trkpt>
      <trkpt lat="47.54478" lon="2.81275">
        <ele>158.935845</ele>
        <time>2021-09-09T10:40:29.000Z</time>
      </trkpt>
      <trkpt lat="47.54474" lon="2.81286">
        <ele>158.957344</ele>
        <time>2021-09-09T10:40:31.000Z</time>
      </trkpt>
      <trkpt lat="47.54467" lon="2.81303">
        <ele>158.993719</ele>
        <time>2021-09-09T10:40:35.000Z</time>
      </trkpt>
      <trkpt lat="47.54463" lon="2.81312">
        <ele>159.012246</ele>
        <time>2021-09-09T10:40:39.000Z</time>
      </trkpt>
      <trkpt lat="47.5446" lon="2.81319">
        <ele>159.026807</ele>
        <time>2021-09-09T10:40:43.000Z</time>
      </trkpt>
      <trkpt lat="47.54459" lon="2.8132">
        <ele>159.030483</ele>
        <time>2021-09-09T10:40:44.000Z</time>
      </trkpt>
      <trkpt lat="47.54459" lon="2.81332">
        <ele>159.050885</ele>
        <time>2021-09-09T10:40:47.000Z</time>
      </trkpt>
      <trkpt lat="47.54459" lon="2.81332">
        <ele>159.050885</ele>
        <time>2021-09-09T10:40:49.000Z</time>
      </trkpt>
      <trkpt lat="47.54455" lon="2.81328">
        <ele>159.062868</ele>
        <time>2021-09-09T10:43:16.000Z</time>
      </trkpt>
      <trkpt lat="47.54453" lon="2.81333">
        <ele>159.072601</ele>
        <time>2021-09-09T10:43:18.000Z</time>
      </trkpt>
      <trkpt lat="47.54445" lon="2.81346">
        <ele>159.103894</ele>
        <time>2021-09-09T10:43:23.000Z</time>
      </trkpt>
      <trkpt lat="47.54432" lon="2.8137">
        <ele>159.15813</ele>
        <time>2021-09-09T10:43:30.000Z</time>
      </trkpt>
      <trkpt lat="47.54428" lon="2.81378">
        <ele>159.151776</ele>
        <time>2021-09-09T10:43:32.000Z</time>
      </trkpt>
      <trkpt lat="47.54419" lon="2.81392">
        <ele>159.020491</ele>
        <time>2021-09-09T10:43:35.000Z</time>
      </trkpt>
      <trkpt lat="47.54392" lon="2.81437">
        <ele>158.624345</ele>
        <time>2021-09-09T10:43:43.000Z</time>
      </trkpt>
      <trkpt lat="47.54373" lon="2.8147">
        <ele>158.339096</ele>
        <time>2021-09-09T10:43:48.000Z</time>
      </trkpt>
      <trkpt lat="47.54369" lon="2.81477">
        <ele>158.279284</ele>
        <time>2021-09-09T10:43:49.000Z</time>
      </trkpt>
      <trkpt lat="47.54348" lon="2.81512">
        <ele>157.967269</ele>
        <time>2021-09-09T10:43:54.000Z</time>
      </trkpt>
      <trkpt lat="47.5432" lon="2.8156">
        <ele>157.545942</ele>
        <time>2021-09-09T10:44:01.000Z</time>
      </trkpt>
      <trkpt lat="47.54313" lon="2.81572">
        <ele>157.441535</ele>
        <time>2021-09-09T10:44:03.000Z</time>
      </trkpt>
      <trkpt lat="47.54304" lon="2.81588">
        <ele>157.333571</ele>
        <time>2021-09-09T10:44:06.000Z</time>
      </trkpt>
      <trkpt lat="47.54291" lon="2.8161">
        <ele>157.205785</ele>
        <time>2021-09-09T10:44:10.000Z</time>
      </trkpt>
      <trkpt lat="47.54288" lon="2.81615">
        <ele>157.175681</ele>
        <time>2021-09-09T10:44:11.000Z</time>
      </trkpt>
      <trkpt lat="47.54276" lon="2.81634">
        <ele>157.058809</ele>
        <time>2021-09-09T10:44:15.000Z</time>
      </trkpt>
      <trkpt lat="47.5427" lon="2.81644">
        <ele>156.999545</ele>
        <time>2021-09-09T10:44:17.000Z</time>
      </trkpt>
      <trkpt lat="47.54245" lon="2.81675">
        <ele>156.787209</ele>
        <time>2021-09-09T10:44:24.000Z</time>
      </trkpt>
      <trkpt lat="47.54225" lon="2.817">
        <ele>156.610631</ele>
        <time>2021-09-09T10:44:30.000Z</time>
      </trkpt>
      <trkpt lat="47.54207" lon="2.8172">
        <ele>156.461448</ele>
        <time>2021-09-09T10:44:35.000Z</time>
      </trkpt>
      <trkpt lat="47.54178" lon="2.81754">
        <ele>156.219013</ele>
        <time>2021-09-09T10:44:43.000Z</time>
      </trkpt>
      <trkpt lat="47.5416" lon="2.81775">
        <ele>156.356407</ele>
        <time>2021-09-09T10:44:48.000Z</time>
      </trkpt>
      <trkpt lat="47.54157" lon="2.8178">
        <ele>156.38631</ele>
        <time>2021-09-09T10:44:49.000Z</time>
      </trkpt>
      <trkpt lat="47.54138" lon="2.81805">
        <ele>156.544681</ele>
        <time>2021-09-09T10:44:54.000Z</time>
      </trkpt>
      <trkpt lat="47.54117" lon="2.8183">
        <ele>156.707397</ele>
        <time>2021-09-09T10:44:59.000Z</time>
      </trkpt>
      <trkpt lat="47.54113" lon="2.81835">
        <ele>156.740992</ele>
        <time>2021-09-09T10:45:00.000Z</time>
      </trkpt>
      <trkpt lat="47.54085" lon="2.81871">
        <ele>156.967864</ele>
        <time>2021-09-09T10:45:08.000Z</time>
      </trkpt>
      <trkpt lat="47.54068" lon="2.81893">
        <ele>157.106138</ele>
        <time>2021-09-09T10:45:11.000Z</time>
      </trkpt>
      <trkpt lat="47.54055" lon="2.81909">
        <ele>157.21358</ele>
        <time>2021-09-09T10:45:14.000Z</time>
      </trkpt>
      <trkpt lat="47.54023" lon="2.81951">
        <ele>157.388247</ele>
        <time>2021-09-09T10:45:21.000Z</time>
      </trkpt>
      <trkpt lat="47.53983" lon="2.82004">
        <ele>157.521909</ele>
        <time>2021-09-09T10:45:30.000Z</time>
      </trkpt>
      <trkpt lat="47.53947" lon="2.8205">
        <ele>157.639795</ele>
        <time>2021-09-09T10:45:38.000Z</time>
      </trkpt>
      <trkpt lat="47.53914" lon="2.82094">
        <ele>157.749792</ele>
        <time>2021-09-09T10:45:45.000Z</time>
      </trkpt>
      <trkpt lat="47.53881" lon="2.82137">
        <ele>157.795255</ele>
        <time>2021-09-09T10:45:52.000Z</time>
      </trkpt>
      <trkpt lat="47.53849" lon="2.82178">
        <ele>157.820891</ele>
        <time>2021-09-09T10:45:59.000Z</time>
      </trkpt>
      <trkpt lat="47.53812" lon="2.82227">
        <ele>157.851224</ele>
        <time>2021-09-09T10:46:07.000Z</time>
      </trkpt>
      <trkpt lat="47.53768" lon="2.82283">
        <ele>157.858059</ele>
        <time>2021-09-09T10:46:16.000Z</time>
      </trkpt>
      <trkpt lat="47.53764" lon="2.8229">
        <ele>157.815447</ele>
        <time>2021-09-09T10:46:17.000Z</time>
      </trkpt>
      <trkpt lat="47.53729" lon="2.82334">
        <ele>157.508351</ele>
        <time>2021-09-09T10:46:24.000Z</time>
      </trkpt>
      <trkpt lat="47.53687" lon="2.82388">
        <ele>157.130562</ele>
        <time>2021-09-09T10:46:32.000Z</time>
      </trkpt>
      <trkpt lat="47.53653" lon="2.8243">
        <ele>156.828825</ele>
        <time>2021-09-09T10:46:38.000Z</time>
      </trkpt>
      <trkpt lat="47.53613" lon="2.82482">
        <ele>156.392195</ele>
        <time>2021-09-09T10:46:45.000Z</time>
      </trkpt>
      <trkpt lat="47.5358" lon="2.82526">
        <ele>155.969748</ele>
        <time>2021-09-09T10:46:51.000Z</time>
      </trkpt>
      <trkpt lat="47.53537" lon="2.82582">
        <ele>155.425082</ele>
        <time>2021-09-09T10:46:59.000Z</time>
      </trkpt>
      <trkpt lat="47.53493" lon="2.82638">
        <ele>154.858381</ele>
        <time>2021-09-09T10:47:07.000Z</time>
      </trkpt>
      <trkpt lat="47.53488" lon="2.82645">
        <ele>154.768883</ele>
        <time>2021-09-09T10:47:08.000Z</time>
      </trkpt>
      <trkpt lat="47.53445" lon="2.827">
        <ele>154.06721</ele>
        <time>2021-09-09T10:47:16.000Z</time>
      </trkpt>
      <trkpt lat="47.53439" lon="2.82707">
        <ele>153.979181</ele>
        <time>2021-09-09T10:47:17.000Z</time>
      </trkpt>
      <trkpt lat="47.53402" lon="2.82756">
        <ele>153.366078</ele>
        <time>2021-09-09T10:47:24.000Z</time>
      </trkpt>
      <trkpt lat="47.53359" lon="2.82811">
        <ele>152.67358</ele>
        <time>2021-09-09T10:47:32.000Z</time>
      </trkpt>
      <trkpt lat="47.53354" lon="2.82817">
        <ele>152.584616</ele>
        <time>2021-09-09T10:47:33.000Z</time>
      </trkpt>
      <trkpt lat="47.53312" lon="2.82871">
        <ele>151.886011</ele>
        <time>2021-09-09T10:47:41.000Z</time>
      </trkpt>
      <trkpt lat="47.53307" lon="2.82878">
        <ele>151.798566</ele>
        <time>2021-09-09T10:47:42.000Z</time>
      </trkpt>
      <trkpt lat="47.53277" lon="2.82916">
        <ele>151.293813</ele>
        <time>2021-09-09T10:47:48.000Z</time>
      </trkpt>
      <trkpt lat="47.5324" lon="2.82964">
        <ele>150.674095</ele>
        <time>2021-09-09T10:47:56.000Z</time>
      </trkpt>
      <trkpt lat="47.53205" lon="2.83009">
        <ele>150.120085</ele>
        <time>2021-09-09T10:48:04.000Z</time>
      </trkpt>
      <trkpt lat="47.5317" lon="2.83054">
        <ele>149.586831</ele>
        <time>2021-09-09T10:48:12.000Z</time>
      </trkpt>
      <trkpt lat="47.53145" lon="2.83086">
        <ele>149.197375</ele>
        <time>2021-09-09T10:48:18.000Z</time>
      </trkpt>
      <trkpt lat="47.53116" lon="2.83123">
        <ele>148.760956</ele>
        <time>2021-09-09T10:48:25.000Z</time>
      </trkpt>
      <trkpt lat="47.53083" lon="2.83165">
        <ele>148.285748</ele>
        <time>2021-09-09T10:48:33.000Z</time>
      </trkpt>
      <trkpt lat="47.53054" lon="2.83202">
        <ele>147.940549</ele>
        <time>2021-09-09T10:48:40.000Z</time>
      </trkpt>
      <trkpt lat="47.53037" lon="2.83225">
        <ele>147.725458</ele>
        <time>2021-09-09T10:48:44.000Z</time>
      </trkpt>
      <trkpt lat="47.53027" lon="2.83237">
        <ele>147.612207</ele>
        <time>2021-09-09T10:48:46.000Z</time>
      </trkpt>
      <trkpt lat="47.52995" lon="2.83278">
        <ele>147.227037</ele>
        <time>2021-09-09T10:48:53.000Z</time>
      </trkpt>
      <trkpt lat="47.52967" lon="2.83314">
        <ele>146.886996</ele>
        <time>2021-09-09T10:48:59.000Z</time>
      </trkpt>
      <trkpt lat="47.52937" lon="2.83353">
        <ele>146.492518</ele>
        <time>2021-09-09T10:49:05.000Z</time>
      </trkpt>
      <trkpt lat="47.529" lon="2.83401">
        <ele>145.99175</ele>
        <time>2021-09-09T10:49:12.000Z</time>
      </trkpt>
      <trkpt lat="47.52866" lon="2.83444">
        <ele>145.53348</ele>
        <time>2021-09-09T10:49:18.000Z</time>
      </trkpt>
      <trkpt lat="47.52823" lon="2.835">
        <ele>144.95215</ele>
        <time>2021-09-09T10:49:25.000Z</time>
      </trkpt>
      <trkpt lat="47.52817" lon="2.83508">
        <ele>144.891885</ele>
        <time>2021-09-09T10:49:26.000Z</time>
      </trkpt>
      <trkpt lat="47.52776" lon="2.83561">
        <ele>144.581903</ele>
        <time>2021-09-09T10:49:33.000Z</time>
      </trkpt>
      <trkpt lat="47.5277" lon="2.83568">
        <ele>144.541028</ele>
        <time>2021-09-09T10:49:34.000Z</time>
      </trkpt>
      <trkpt lat="47.52732" lon="2.83613">
        <ele>144.261563</ele>
        <time>2021-09-09T10:49:41.000Z</time>
      </trkpt>
      <trkpt lat="47.52704" lon="2.83646">
        <ele>144.0589</ele>
        <time>2021-09-09T10:49:47.000Z</time>
      </trkpt>
      <trkpt lat="47.52677" lon="2.83677">
        <ele>143.912678</ele>
        <time>2021-09-09T10:49:54.000Z</time>
      </trkpt>
      <trkpt lat="47.52665" lon="2.83688">
        <ele>143.941281</ele>
        <time>2021-09-09T10:49:57.000Z</time>
      </trkpt>
      <trkpt lat="47.52652" lon="2.83697">
        <ele>143.969099</ele>
        <time>2021-09-09T10:50:00.000Z</time>
      </trkpt>
      <trkpt lat="47.5262" lon="2.8372">
        <ele>144.040959</ele>
        <time>2021-09-09T10:50:08.000Z</time>
      </trkpt>
      <trkpt lat="47.52592" lon="2.83739">
        <ele>144.101703</ele>
        <time>2021-09-09T10:50:15.000Z</time>
      </trkpt>
      <trkpt lat="47.52555" lon="2.83765">
        <ele>144.184373</ele>
        <time>2021-09-09T10:50:25.000Z</time>
      </trkpt>
      <trkpt lat="47.52523" lon="2.83788">
        <ele>144.257432</ele>
        <time>2021-09-09T10:50:34.000Z</time>
      </trkpt>
      <trkpt lat="47.52493" lon="2.83809">
        <ele>144.353953</ele>
        <time>2021-09-09T10:50:42.000Z</time>
      </trkpt>
      <trkpt lat="47.52461" lon="2.83832">
        <ele>144.461161</ele>
        <time>2021-09-09T10:50:50.000Z</time>
      </trkpt>
      <trkpt lat="47.52428" lon="2.83855">
        <ele>144.568369</ele>
        <time>2021-09-09T10:50:57.000Z</time>
      </trkpt>
      <trkpt lat="47.52375" lon="2.83892">
        <ele>144.743415</ele>
        <time>2021-09-09T10:51:07.000Z</time>
      </trkpt>
      <trkpt lat="47.52325" lon="2.83927">
        <ele>144.738676</ele>
        <time>2021-09-09T10:51:16.000Z</time>
      </trkpt>
      <trkpt lat="47.5232" lon="2.83931">
        <ele>144.728622</ele>
        <time>2021-09-09T10:51:17.000Z</time>
      </trkpt>
      <trkpt lat="47.52275" lon="2.83962">
        <ele>144.645925</ele>
        <time>2021-09-09T10:51:25.000Z</time>
      </trkpt>
      <trkpt lat="47.52231" lon="2.83993">
        <ele>144.562474</ele>
        <time>2021-09-09T10:51:33.000Z</time>
      </trkpt>
      <trkpt lat="47.52185" lon="2.84025">
        <ele>144.436048</ele>
        <time>2021-09-09T10:51:41.000Z</time>
      </trkpt>
      <trkpt lat="47.52151" lon="2.84048">
        <ele>144.248838</ele>
        <time>2021-09-09T10:51:47.000Z</time>
      </trkpt>
      <trkpt lat="47.52102" lon="2.84083">
        <ele>143.974095</ele>
        <time>2021-09-09T10:51:56.000Z</time>
      </trkpt>
      <trkpt lat="47.52097" lon="2.84087">
        <ele>143.942544</ele>
        <time>2021-09-09T10:51:57.000Z</time>
      </trkpt>
      <trkpt lat="47.5205" lon="2.84119">
        <ele>143.678567</ele>
        <time>2021-09-09T10:52:05.000Z</time>
      </trkpt>
      <trkpt lat="47.52006" lon="2.84149">
        <ele>143.27186</ele>
        <time>2021-09-09T10:52:12.000Z</time>
      </trkpt>
      <trkpt lat="47.51968" lon="2.84176">
        <ele>142.810607</ele>
        <time>2021-09-09T10:52:18.000Z</time>
      </trkpt>
      <trkpt lat="47.5192" lon="2.84209">
        <ele>142.249228</ele>
        <time>2021-09-09T10:52:25.000Z</time>
      </trkpt>
      <trkpt lat="47.51868" lon="2.84245">
        <ele>141.627622</ele>
        <time>2021-09-09T10:52:33.000Z</time>
      </trkpt>
      <trkpt lat="47.51862" lon="2.8425">
        <ele>141.535123</ele>
        <time>2021-09-09T10:52:34.000Z</time>
      </trkpt>
      <trkpt lat="47.51836" lon="2.84268">
        <ele>141.156771</ele>
        <time>2021-09-09T10:52:38.000Z</time>
      </trkpt>
      <trkpt lat="47.5183" lon="2.84272">
        <ele>141.062688</ele>
        <time>2021-09-09T10:52:39.000Z</time>
      </trkpt>
      <trkpt lat="47.5181" lon="2.84286">
        <ele>140.773669</ele>
        <time>2021-09-09T10:52:42.000Z</time>
      </trkpt>
      <trkpt lat="47.51757" lon="2.84323">
        <ele>139.996323</ele>
        <time>2021-09-09T10:52:50.000Z</time>
      </trkpt>
      <trkpt lat="47.51704" lon="2.8436">
        <ele>139.224003</ele>
        <time>2021-09-09T10:52:58.000Z</time>
      </trkpt>
      <trkpt lat="47.51697" lon="2.84365">
        <ele>139.149543</ele>
        <time>2021-09-09T10:52:59.000Z</time>
      </trkpt>
      <trkpt lat="47.51648" lon="2.844">
        <ele>138.590047</ele>
        <time>2021-09-09T10:53:07.000Z</time>
      </trkpt>
      <trkpt lat="47.51597" lon="2.84437">
        <ele>137.996255</ele>
        <time>2021-09-09T10:53:16.000Z</time>
      </trkpt>
      <trkpt lat="47.51551" lon="2.8447">
        <ele>137.466723</ele>
        <time>2021-09-09T10:53:24.000Z</time>
      </trkpt>
      <trkpt lat="47.515" lon="2.84506">
        <ele>137.056606</ele>
        <time>2021-09-09T10:53:33.000Z</time>
      </trkpt>
      <trkpt lat="47.51495" lon="2.8451">
        <ele>137.015734</ele>
        <time>2021-09-09T10:53:34.000Z</time>
      </trkpt>
      <trkpt lat="47.51457" lon="2.84537">
        <ele>136.724861</ele>
        <time>2021-09-09T10:53:41.000Z</time>
      </trkpt>
      <trkpt lat="47.51435" lon="2.84553">
        <ele>136.556808</ele>
        <time>2021-09-09T10:53:45.000Z</time>
      </trkpt>
      <trkpt lat="47.51389" lon="2.84586">
        <ele>136.202032</ele>
        <time>2021-09-09T10:53:53.000Z</time>
      </trkpt>
      <trkpt lat="47.51345" lon="2.84617">
        <ele>135.890713</ele>
        <time>2021-09-09T10:54:01.000Z</time>
      </trkpt>
      <trkpt lat="47.51318" lon="2.84637">
        <ele>135.706399</ele>
        <time>2021-09-09T10:54:06.000Z</time>
      </trkpt>
      <trkpt lat="47.51297" lon="2.84653">
        <ele>135.55968</ele>
        <time>2021-09-09T10:54:10.000Z</time>
      </trkpt>
      <trkpt lat="47.51286" lon="2.84661">
        <ele>135.48688</ele>
        <time>2021-09-09T10:54:12.000Z</time>
      </trkpt>
      <trkpt lat="47.5125" lon="2.84688">
        <ele>135.234379</ele>
        <time>2021-09-09T10:54:19.000Z</time>
      </trkpt>
      <trkpt lat="47.51209" lon="2.8472">
        <ele>134.98748</ele>
        <time>2021-09-09T10:54:27.000Z</time>
      </trkpt>
      <trkpt lat="47.51168" lon="2.84751">
        <ele>134.823161</ele>
        <time>2021-09-09T10:54:35.000Z</time>
      </trkpt>
      <trkpt lat="47.51127" lon="2.84782">
        <ele>134.662334</ele>
        <time>2021-09-09T10:54:43.000Z</time>
      </trkpt>
      <trkpt lat="47.51093" lon="2.84809">
        <ele>134.523862</ele>
        <time>2021-09-09T10:54:50.000Z</time>
      </trkpt>
      <trkpt lat="47.51058" lon="2.84835">
        <ele>134.389889</ele>
        <time>2021-09-09T10:54:57.000Z</time>
      </trkpt>
      <trkpt lat="47.51023" lon="2.84863">
        <ele>134.268814</ele>
        <time>2021-09-09T10:55:04.000Z</time>
      </trkpt>
      <trkpt lat="47.50983" lon="2.84896">
        <ele>134.12818</ele>
        <time>2021-09-09T10:55:12.000Z</time>
      </trkpt>
      <trkpt lat="47.5095" lon="2.84931">
        <ele>134.006514</ele>
        <time>2021-09-09T10:55:19.000Z</time>
      </trkpt>
      <trkpt lat="47.50923" lon="2.8496">
        <ele>133.905443</ele>
        <time>2021-09-09T10:55:26.000Z</time>
      </trkpt>
      <trkpt lat="47.50919" lon="2.84964">
        <ele>133.890464</ele>
        <time>2021-09-09T10:55:27.000Z</time>
      </trkpt>
      <trkpt lat="47.50915" lon="2.84969">
        <ele>133.874269</ele>
        <time>2021-09-09T10:55:28.000Z</time>
      </trkpt>
      <trkpt lat="47.50896" lon="2.84988">
        <ele>133.977663</ele>
        <time>2021-09-09T10:55:32.000Z</time>
      </trkpt>
      <trkpt lat="47.50859" lon="2.85029">
        <ele>134.276844</ele>
        <time>2021-09-09T10:55:40.000Z</time>
      </trkpt>
      <trkpt lat="47.50836" lon="2.85057">
        <ele>134.470008</ele>
        <time>2021-09-09T10:55:45.000Z</time>
      </trkpt>
      <trkpt lat="47.50807" lon="2.85098">
        <ele>134.72808</ele>
        <time>2021-09-09T10:55:52.000Z</time>
      </trkpt>
      <trkpt lat="47.50799" lon="2.8511">
        <ele>134.804581</ele>
        <time>2021-09-09T10:55:54.000Z</time>
      </trkpt>
      <trkpt lat="47.5079" lon="2.85121">
        <ele>134.877398</ele>
        <time>2021-09-09T10:55:56.000Z</time>
      </trkpt>
      <trkpt lat="47.50786" lon="2.85127">
        <ele>134.914878</ele>
        <time>2021-09-09T10:55:57.000Z</time>
      </trkpt>
      <trkpt lat="47.50758" lon="2.85165">
        <ele>135.337161</ele>
        <time>2021-09-09T10:56:04.000Z</time>
      </trkpt>
      <trkpt lat="47.50737" lon="2.85192">
        <ele>135.737624</ele>
        <time>2021-09-09T10:56:10.000Z</time>
      </trkpt>
      <trkpt lat="47.50725" lon="2.85208">
        <ele>135.980849</ele>
        <time>2021-09-09T10:56:15.000Z</time>
      </trkpt>
      <trkpt lat="47.50726" lon="2.85223">
        <ele>136.132073</ele>
        <time>2021-09-09T10:56:21.000Z</time>
      </trkpt>
      <trkpt lat="47.50727" lon="2.85225">
        <ele>136.154193</ele>
        <time>2021-09-09T10:56:22.000Z</time>
      </trkpt>
      <trkpt lat="47.50729" lon="2.85232">
        <ele>136.230463</ele>
        <time>2021-09-09T10:56:25.000Z</time>
      </trkpt>
      <trkpt lat="47.50733" lon="2.85249">
        <ele>136.411732</ele>
        <time>2021-09-09T10:56:31.000Z</time>
      </trkpt>
      <trkpt lat="47.50734" lon="2.85255">
        <ele>136.468267</ele>
        <time>2021-09-09T10:56:34.000Z</time>
      </trkpt>
      <trkpt lat="47.50736" lon="2.8526">
        <ele>136.520566</ele>
        <time>2021-09-09T10:56:36.000Z</time>
      </trkpt>
      <trkpt lat="47.50736" lon="2.85262">
        <ele>136.541752</ele>
        <time>2021-09-09T10:56:37.000Z</time>
      </trkpt>
      <trkpt lat="47.50733" lon="2.85268">
        <ele>136.619989</ele>
        <time>2021-09-09T10:56:40.000Z</time>
      </trkpt>
      <trkpt lat="47.50733" lon="2.85268">
        <ele>136.619989</ele>
        <time>2021-09-09T10:56:41.000Z</time>
      </trkpt>
      <trkpt lat="47.50738" lon="2.85269">
        <ele>136.690834</ele>
        <time>2021-09-09T10:57:10.000Z</time>
      </trkpt>
      <trkpt lat="47.50739" lon="2.85273">
        <ele>136.732718</ele>
        <time>2021-09-09T10:57:12.000Z</time>
      </trkpt>
      <trkpt lat="47.50743" lon="2.85293">
        <ele>136.942624</ele>
        <time>2021-09-09T10:57:17.000Z</time>
      </trkpt>
      <trkpt lat="47.5075" lon="2.85327">
        <ele>137.302111</ele>
        <time>2021-09-09T10:57:22.000Z</time>
      </trkpt>
      <trkpt lat="47.50751" lon="2.85336">
        <ele>137.387369</ele>
        <time>2021-09-09T10:57:23.000Z</time>
      </trkpt>
      <trkpt lat="47.50754" lon="2.85373">
        <ele>137.655046</ele>
        <time>2021-09-09T10:57:27.000Z</time>
      </trkpt>
      <trkpt lat="47.50763" lon="2.85428">
        <ele>137.562838</ele>
        <time>2021-09-09T10:57:32.000Z</time>
      </trkpt>
      <trkpt lat="47.50776" lon="2.85491">
        <ele>137.455595</ele>
        <time>2021-09-09T10:57:38.000Z</time>
      </trkpt>
      <trkpt lat="47.50789" lon="2.8554">
        <ele>137.369232</ele>
        <time>2021-09-09T10:57:43.000Z</time>
      </trkpt>
      <trkpt lat="47.508" lon="2.85578">
        <ele>137.300575</ele>
        <time>2021-09-09T10:57:47.000Z</time>
      </trkpt>
      <trkpt lat="47.50803" lon="2.85588">
        <ele>137.283836</ele>
        <time>2021-09-09T10:57:48.000Z</time>
      </trkpt>
      <trkpt lat="47.50816" lon="2.85633">
        <ele>137.268847</ele>
        <time>2021-09-09T10:57:53.000Z</time>
      </trkpt>
      <trkpt lat="47.50819" lon="2.85642">
        <ele>137.286688</ele>
        <time>2021-09-09T10:57:54.000Z</time>
      </trkpt>
      <trkpt lat="47.50821" lon="2.85652">
        <ele>137.305299</ele>
        <time>2021-09-09T10:57:55.000Z</time>
      </trkpt>
      <trkpt lat="47.5083" lon="2.85681">
        <ele>137.361401</ele>
        <time>2021-09-09T10:57:58.000Z</time>
      </trkpt>
      <trkpt lat="47.50846" lon="2.85738">
        <ele>137.474043</ele>
        <time>2021-09-09T10:58:04.000Z</time>
      </trkpt>
      <trkpt lat="47.50866" lon="2.85809">
        <ele>137.612489</ele>
        <time>2021-09-09T10:58:12.000Z</time>
      </trkpt>
      <trkpt lat="47.50889" lon="2.85887">
        <ele>137.626933</ele>
        <time>2021-09-09T10:58:21.000Z</time>
      </trkpt>
      <trkpt lat="47.5091" lon="2.8596">
        <ele>137.388683</ele>
        <time>2021-09-09T10:58:29.000Z</time>
      </trkpt>
      <trkpt lat="47.50928" lon="2.86026">
        <ele>137.171038</ele>
        <time>2021-09-09T10:58:36.000Z</time>
      </trkpt>
      <trkpt lat="47.50944" lon="2.86088">
        <ele>136.969334</ele>
        <time>2021-09-09T10:58:43.000Z</time>
      </trkpt>
      <trkpt lat="47.50958" lon="2.86139">
        <ele>136.78236</ele>
        <time>2021-09-09T10:58:49.000Z</time>
      </trkpt>
      <trkpt lat="47.50974" lon="2.86204">
        <ele>136.529088</ele>
        <time>2021-09-09T10:58:57.000Z</time>
      </trkpt>
      <trkpt lat="47.50988" lon="2.86276">
        <ele>136.254082</ele>
        <time>2021-09-09T10:59:06.000Z</time>
      </trkpt>
      <trkpt lat="47.50998" lon="2.8634">
        <ele>136.013809</ele>
        <time>2021-09-09T10:59:13.000Z</time>
      </trkpt>
      <trkpt lat="47.51015" lon="2.86414">
        <ele>135.92561</ele>
        <time>2021-09-09T10:59:21.000Z</time>
      </trkpt>
      <trkpt lat="47.51036" lon="2.86489">
        <ele>135.916811</ele>
        <time>2021-09-09T10:59:29.000Z</time>
      </trkpt>
      <trkpt lat="47.51041" lon="2.86508">
        <ele>135.914603</ele>
        <time>2021-09-09T10:59:31.000Z</time>
      </trkpt>
      <trkpt lat="47.51059" lon="2.86573">
        <ele>135.907047</ele>
        <time>2021-09-09T10:59:38.000Z</time>
      </trkpt>
      <trkpt lat="47.51071" lon="2.8664">
        <ele>135.94541</ele>
        <time>2021-09-09T10:59:45.000Z</time>
      </trkpt>
      <trkpt lat="47.51079" lon="2.86718">
        <ele>136.052555</ele>
        <time>2021-09-09T10:59:53.000Z</time>
      </trkpt>
      <trkpt lat="47.51075" lon="2.86769">
        <ele>136.1229</ele>
        <time>2021-09-09T10:59:59.000Z</time>
      </trkpt>
      <trkpt lat="47.51073" lon="2.86776">
        <ele>136.133092</ele>
        <time>2021-09-09T11:00:00.000Z</time>
      </trkpt>
      <trkpt lat="47.51068" lon="2.86801">
        <ele>136.170029</ele>
        <time>2021-09-09T11:00:04.000Z</time>
      </trkpt>
      <trkpt lat="47.51063" lon="2.86825">
        <ele>136.203786</ele>
        <time>2021-09-09T11:00:09.000Z</time>
      </trkpt>
      <trkpt lat="47.51066" lon="2.86832">
        <ele>136.215823</ele>
        <time>2021-09-09T11:00:11.000Z</time>
      </trkpt>
      <trkpt lat="47.5107" lon="2.86836">
        <ele>136.224635</ele>
        <time>2021-09-09T11:00:12.000Z</time>
      </trkpt>
      <trkpt lat="47.51074" lon="2.86849">
        <ele>136.245333</ele>
        <time>2021-09-09T11:00:15.000Z</time>
      </trkpt>
      <trkpt lat="47.51069" lon="2.86856">
        <ele>136.259956</ele>
        <time>2021-09-09T11:00:18.000Z</time>
      </trkpt>
      <trkpt lat="47.51066" lon="2.8686">
        <ele>136.267209</ele>
        <time>2021-09-09T11:00:19.000Z</time>
      </trkpt>
      <trkpt lat="47.51057" lon="2.86865">
        <ele>136.254081</ele>
        <time>2021-09-09T11:00:21.000Z</time>
      </trkpt>
      <trkpt lat="47.51052" lon="2.86866">
        <ele>136.247285</ele>
        <time>2021-09-09T11:00:22.000Z</time>
      </trkpt>
      <trkpt lat="47.51043" lon="2.86861">
        <ele>136.23348</ele>
        <time>2021-09-09T11:00:25.000Z</time>
      </trkpt>
      <trkpt lat="47.51039" lon="2.86855">
        <ele>136.225346</ele>
        <time>2021-09-09T11:00:26.000Z</time>
      </trkpt>
      <trkpt lat="47.51032" lon="2.86842">
        <ele>136.208446</ele>
        <time>2021-09-09T11:00:28.000Z</time>
      </trkpt>
      <trkpt lat="47.50995" lon="2.86808">
        <ele>136.146661</ele>
        <time>2021-09-09T11:00:35.000Z</time>
      </trkpt>
      <trkpt lat="47.5099" lon="2.86804">
        <ele>136.137916</ele>
        <time>2021-09-09T11:00:36.000Z</time>
      </trkpt>
      <trkpt lat="47.50941" lon="2.86783">
        <ele>136.065365</ele>
        <time>2021-09-09T11:00:44.000Z</time>
      </trkpt>
      <trkpt lat="47.50904" lon="2.86777">
        <ele>136.011945</ele>
        <time>2021-09-09T11:00:50.000Z</time>
      </trkpt>
      <trkpt lat="47.50866" lon="2.86771">
        <ele>136.023548</ele>
        <time>2021-09-09T11:00:56.000Z</time>
      </trkpt>
      <trkpt lat="47.50854" lon="2.86769">
        <ele>136.027959</ele>
        <time>2021-09-09T11:00:58.000Z</time>
      </trkpt>
      <trkpt lat="47.50841" lon="2.86771">
        <ele>136.032406</ele>
        <time>2021-09-09T11:01:00.000Z</time>
      </trkpt>
      <trkpt lat="47.50835" lon="2.86772">
        <ele>136.034542</ele>
        <time>2021-09-09T11:01:01.000Z</time>
      </trkpt>
      <trkpt lat="47.50829" lon="2.86773">
        <ele>136.036856</ele>
        <time>2021-09-09T11:01:02.000Z</time>
      </trkpt>
      <trkpt lat="47.50817" lon="2.86775">
        <ele>136.041162</ele>
        <time>2021-09-09T11:01:04.000Z</time>
      </trkpt>
      <trkpt lat="47.50789" lon="2.8678">
        <ele>136.051438</ele>
        <time>2021-09-09T11:01:09.000Z</time>
      </trkpt>
      <trkpt lat="47.50755" lon="2.86785">
        <ele>136.063558</ele>
        <time>2021-09-09T11:01:15.000Z</time>
      </trkpt>
      <trkpt lat="47.50724" lon="2.8679">
        <ele>136.074884</ele>
        <time>2021-09-09T11:01:21.000Z</time>
      </trkpt>
      <trkpt lat="47.50686" lon="2.86795">
        <ele>136.037346</ele>
        <time>2021-09-09T11:01:27.000Z</time>
      </trkpt>
      <trkpt lat="47.5066" lon="2.86798">
        <ele>136.011377</ele>
        <time>2021-09-09T11:01:31.000Z</time>
      </trkpt>
      <trkpt lat="47.50647" lon="2.86802">
        <ele>135.998792</ele>
        <time>2021-09-09T11:01:33.000Z</time>
      </trkpt>
      <trkpt lat="47.50636" lon="2.86808">
        <ele>135.986775</ele>
        <time>2021-09-09T11:01:35.000Z</time>
      </trkpt>
      <trkpt lat="47.50626" lon="2.86821">
        <ele>135.973997</ele>
        <time>2021-09-09T11:01:37.000Z</time>
      </trkpt>
      <trkpt lat="47.506" lon="2.86851">
        <ele>135.941344</ele>
        <time>2021-09-09T11:01:42.000Z</time>
      </trkpt>
      <trkpt lat="47.50574" lon="2.86878">
        <ele>135.909561</ele>
        <time>2021-09-09T11:01:47.000Z</time>
      </trkpt>
      <trkpt lat="47.5054" lon="2.86912">
        <ele>135.804016</ele>
        <time>2021-09-09T11:01:53.000Z</time>
      </trkpt>
      <trkpt lat="47.50531" lon="2.86922">
        <ele>135.765248</ele>
        <time>2021-09-09T11:01:55.000Z</time>
      </trkpt>
      <trkpt lat="47.50516" lon="2.86916">
        <ele>135.71313</ele>
        <time>2021-09-09T11:01:56.000Z</time>
      </trkpt>
      <trkpt lat="47.50514" lon="2.86922">
        <ele>135.699037</ele>
        <time>2021-09-09T11:01:57.000Z</time>
      </trkpt>
      <trkpt lat="47.50503" lon="2.86942">
        <ele>135.63902</ele>
        <time>2021-09-09T11:02:00.000Z</time>
      </trkpt>
      <trkpt lat="47.50485" lon="2.86969">
        <ele>135.553705</ele>
        <time>2021-09-09T11:02:04.000Z</time>
      </trkpt>
      <trkpt lat="47.50476" lon="2.86981">
        <ele>135.514146</ele>
        <time>2021-09-09T11:02:06.000Z</time>
      </trkpt>
      <trkpt lat="47.50472" lon="2.86987">
        <ele>135.494684</ele>
        <time>2021-09-09T11:02:07.000Z</time>
      </trkpt>
      <trkpt lat="47.50461" lon="2.87013">
        <ele>135.425681</ele>
        <time>2021-09-09T11:02:10.000Z</time>
      </trkpt>
      <trkpt lat="47.50458" lon="2.87022">
        <ele>135.40379</ele>
        <time>2021-09-09T11:02:11.000Z</time>
      </trkpt>
      <trkpt lat="47.5045" lon="2.87046">
        <ele>135.341343</ele>
        <time>2021-09-09T11:02:14.000Z</time>
      </trkpt>
      <trkpt lat="47.50429" lon="2.87106">
        <ele>135.368125</ele>
        <time>2021-09-09T11:02:21.000Z</time>
      </trkpt>
      <trkpt lat="47.50405" lon="2.87173">
        <ele>135.485471</ele>
        <time>2021-09-09T11:02:29.000Z</time>
      </trkpt>
      <trkpt lat="47.50402" lon="2.87181">
        <ele>135.500096</ele>
        <time>2021-09-09T11:02:30.000Z</time>
      </trkpt>
      <trkpt lat="47.50392" lon="2.87215">
        <ele>135.559126</ele>
        <time>2021-09-09T11:02:34.000Z</time>
      </trkpt>
      <trkpt lat="47.50376" lon="2.8729">
        <ele>135.682436</ele>
        <time>2021-09-09T11:02:42.000Z</time>
      </trkpt>
      <trkpt lat="47.50358" lon="2.87375">
        <ele>135.929726</ele>
        <time>2021-09-09T11:02:51.000Z</time>
      </trkpt>
      <trkpt lat="47.50344" lon="2.87449">
        <ele>136.169806</ele>
        <time>2021-09-09T11:02:59.000Z</time>
      </trkpt>
      <trkpt lat="47.50331" lon="2.87534">
        <ele>136.441233</ele>
        <time>2021-09-09T11:03:08.000Z</time>
      </trkpt>
      <trkpt lat="47.50319" lon="2.87616">
        <ele>136.621523</ele>
        <time>2021-09-09T11:03:17.000Z</time>
      </trkpt>
      <trkpt lat="47.50318" lon="2.87625">
        <ele>136.636149</ele>
        <time>2021-09-09T11:03:18.000Z</time>
      </trkpt>
      <trkpt lat="47.5031" lon="2.87682">
        <ele>136.725617</ele>
        <time>2021-09-09T11:03:24.000Z</time>
      </trkpt>
      <trkpt lat="47.50299" lon="2.87757">
        <ele>136.845298</ele>
        <time>2021-09-09T11:03:32.000Z</time>
      </trkpt>
      <trkpt lat="47.50287" lon="2.87831">
        <ele>136.950854</ele>
        <time>2021-09-09T11:03:40.000Z</time>
      </trkpt>
      <trkpt lat="47.50277" lon="2.87885">
        <ele>136.910833</ele>
        <time>2021-09-09T11:03:46.000Z</time>
      </trkpt>
      <trkpt lat="47.50263" lon="2.87941">
        <ele>136.867799</ele>
        <time>2021-09-09T11:03:53.000Z</time>
      </trkpt>
      <trkpt lat="47.50248" lon="2.8797">
        <ele>136.842012</ele>
        <time>2021-09-09T11:03:57.000Z</time>
      </trkpt>
      <trkpt lat="47.5024" lon="2.87983">
        <ele>136.82896</ele>
        <time>2021-09-09T11:03:59.000Z</time>
      </trkpt>
      <trkpt lat="47.50221" lon="2.88015">
        <ele>136.798102</ele>
        <time>2021-09-09T11:04:04.000Z</time>
      </trkpt>
      <trkpt lat="47.50193" lon="2.8805">
        <ele>136.729102</ele>
        <time>2021-09-09T11:04:10.000Z</time>
      </trkpt>
      <trkpt lat="47.50168" lon="2.8808">
        <ele>136.491297</ele>
        <time>2021-09-09T11:04:15.000Z</time>
      </trkpt>
      <trkpt lat="47.50149" lon="2.88114">
        <ele>136.266556</ele>
        <time>2021-09-09T11:04:20.000Z</time>
      </trkpt>
      <trkpt lat="47.50145" lon="2.88121">
        <ele>136.219816</ele>
        <time>2021-09-09T11:04:21.000Z</time>
      </trkpt>
      <trkpt lat="47.50124" lon="2.88163">
        <ele>135.953538</ele>
        <time>2021-09-09T11:04:27.000Z</time>
      </trkpt>
      <trkpt lat="47.50101" lon="2.88215">
        <ele>135.637114</ele>
        <time>2021-09-09T11:04:34.000Z</time>
      </trkpt>
      <trkpt lat="47.50088" lon="2.88243">
        <ele>135.460095</ele>
        <time>2021-09-09T11:04:38.000Z</time>
      </trkpt>
      <trkpt lat="47.50078" lon="2.88253">
        <ele>135.336524</ele>
        <time>2021-09-09T11:04:40.000Z</time>
      </trkpt>
      <trkpt lat="47.50064" lon="2.88267">
        <ele>135.0655</ele>
        <time>2021-09-09T11:04:43.000Z</time>
      </trkpt>
      <trkpt lat="47.5006" lon="2.88272">
        <ele>134.985092</ele>
        <time>2021-09-09T11:04:44.000Z</time>
      </trkpt>
      <trkpt lat="47.50051" lon="2.88281">
        <ele>134.807174</ele>
        <time>2021-09-09T11:04:46.000Z</time>
      </trkpt>
      <trkpt lat="47.50041" lon="2.88291">
        <ele>134.621656</ele>
        <time>2021-09-09T11:04:48.000Z</time>
      </trkpt>
      <trkpt lat="47.50031" lon="2.88301">
        <ele>134.43864</ele>
        <time>2021-09-09T11:04:50.000Z</time>
      </trkpt>
      <trkpt lat="47.50021" lon="2.88311">
        <ele>134.247421</ele>
        <time>2021-09-09T11:04:52.000Z</time>
      </trkpt>
      <trkpt lat="47.50008" lon="2.88325">
        <ele>133.993498</ele>
        <time>2021-09-09T11:04:55.000Z</time>
      </trkpt>
      <trkpt lat="47.50004" lon="2.88329">
        <ele>133.909289</ele>
        <time>2021-09-09T11:04:56.000Z</time>
      </trkpt>
      <trkpt lat="47.4999" lon="2.88343">
        <ele>133.645262</ele>
        <time>2021-09-09T11:04:59.000Z</time>
      </trkpt>
      <trkpt lat="47.4998" lon="2.88353">
        <ele>133.464145</ele>
        <time>2021-09-09T11:05:01.000Z</time>
      </trkpt>
      <trkpt lat="47.49966" lon="2.88367">
        <ele>133.18932</ele>
        <time>2021-09-09T11:05:04.000Z</time>
      </trkpt>
      <trkpt lat="47.49958" lon="2.88382">
        <ele>132.989579</ele>
        <time>2021-09-09T11:05:06.000Z</time>
      </trkpt>
      <trkpt lat="47.49955" lon="2.88401">
        <ele>132.774263</ele>
        <time>2021-09-09T11:05:08.000Z</time>
      </trkpt>
      <trkpt lat="47.49956" lon="2.8841">
        <ele>132.680109</ele>
        <time>2021-09-09T11:05:09.000Z</time>
      </trkpt>
      <trkpt lat="47.49959" lon="2.88418">
        <ele>132.584633</ele>
        <time>2021-09-09T11:05:10.000Z</time>
      </trkpt>
      <trkpt lat="47.49969" lon="2.88435">
        <ele>132.485736</ele>
        <time>2021-09-09T11:05:13.000Z</time>
      </trkpt>
      <trkpt lat="47.49976" lon="2.88446">
        <ele>132.42562</ele>
        <time>2021-09-09T11:05:15.000Z</time>
      </trkpt>
      <trkpt lat="47.49978" lon="2.88459">
        <ele>132.369028</ele>
        <time>2021-09-09T11:05:16.000Z</time>
      </trkpt>
      <trkpt lat="47.49977" lon="2.88463">
        <ele>132.350773</ele>
        <time>2021-09-09T11:05:17.000Z</time>
      </trkpt>
      <trkpt lat="47.49968" lon="2.88474">
        <ele>132.280716</ele>
        <time>2021-09-09T11:05:19.000Z</time>
      </trkpt>
      <trkpt lat="47.49961" lon="2.88482">
        <ele>132.22685</ele>
        <time>2021-09-09T11:05:21.000Z</time>
      </trkpt>
      <trkpt lat="47.49952" lon="2.88492">
        <ele>132.159979</ele>
        <time>2021-09-09T11:05:23.000Z</time>
      </trkpt>
      <trkpt lat="47.49948" lon="2.88498">
        <ele>132.126177</ele>
        <time>2021-09-09T11:05:24.000Z</time>
      </trkpt>
      <trkpt lat="47.4994" lon="2.88507">
        <ele>132.064474</ele>
        <time>2021-09-09T11:05:26.000Z</time>
      </trkpt>
      <trkpt lat="47.49919" lon="2.88533">
        <ele>131.895727</ele>
        <time>2021-09-09T11:05:31.000Z</time>
      </trkpt>
      <trkpt lat="47.49893" lon="2.88556">
        <ele>131.712135</ele>
        <time>2021-09-09T11:05:36.000Z</time>
      </trkpt>
      <trkpt lat="47.4985" lon="2.8859">
        <ele>131.540072</ele>
        <time>2021-09-09T11:05:44.000Z</time>
      </trkpt>
      <trkpt lat="47.49802" lon="2.88628">
        <ele>131.86929</ele>
        <time>2021-09-09T11:05:53.000Z</time>
      </trkpt>
      <trkpt lat="47.49797" lon="2.88632">
        <ele>131.906727</ele>
        <time>2021-09-09T11:05:54.000Z</time>
      </trkpt>
      <trkpt lat="47.49755" lon="2.88665">
        <ele>132.187716</ele>
        <time>2021-09-09T11:06:02.000Z</time>
      </trkpt>
      <trkpt lat="47.49714" lon="2.88697">
        <ele>132.466348</ele>
        <time>2021-09-09T11:06:10.000Z</time>
      </trkpt>
      <trkpt lat="47.49673" lon="2.88729">
        <ele>132.690907</ele>
        <time>2021-09-09T11:06:18.000Z</time>
      </trkpt>
      <trkpt lat="47.49634" lon="2.8876">
        <ele>132.878219</ele>
        <time>2021-09-09T11:06:26.000Z</time>
      </trkpt>
      <trkpt lat="47.496" lon="2.88787">
        <ele>133.039906</ele>
        <time>2021-09-09T11:06:33.000Z</time>
      </trkpt>
      <trkpt lat="47.49559" lon="2.88819">
        <ele>133.235018</ele>
        <time>2021-09-09T11:06:41.000Z</time>
      </trkpt>
      <trkpt lat="47.49549" lon="2.88827">
        <ele>133.283511</ele>
        <time>2021-09-09T11:06:43.000Z</time>
      </trkpt>
      <trkpt lat="47.49539" lon="2.88835">
        <ele>133.336898</ele>
        <time>2021-09-09T11:06:45.000Z</time>
      </trkpt>
      <trkpt lat="47.49544" lon="2.88857">
        <ele>133.455252</ele>
        <time>2021-09-09T11:06:48.000Z</time>
      </trkpt>
      <trkpt lat="47.49543" lon="2.88877">
        <ele>133.556531</ele>
        <time>2021-09-09T11:06:50.000Z</time>
      </trkpt>
      <trkpt lat="47.49541" lon="2.88884">
        <ele>133.596512</ele>
        <time>2021-09-09T11:06:51.000Z</time>
      </trkpt>
      <trkpt lat="47.49534" lon="2.88895">
        <ele>133.67052</ele>
        <time>2021-09-09T11:06:53.000Z</time>
      </trkpt>
      <trkpt lat="47.49527" lon="2.88906">
        <ele>133.7454</ele>
        <time>2021-09-09T11:06:55.000Z</time>
      </trkpt>
      <trkpt lat="47.49523" lon="2.88911">
        <ele>133.7834</ele>
        <time>2021-09-09T11:06:56.000Z</time>
      </trkpt>
      <trkpt lat="47.49515" lon="2.88922">
        <ele>133.862185</ele>
        <time>2021-09-09T11:06:58.000Z</time>
      </trkpt>
      <trkpt lat="47.49511" lon="2.88927">
        <ele>133.901408</ele>
        <time>2021-09-09T11:06:59.000Z</time>
      </trkpt>
      <trkpt lat="47.49507" lon="2.88932">
        <ele>133.94063</ele>
        <time>2021-09-09T11:07:00.000Z</time>
      </trkpt>
      <trkpt lat="47.49503" lon="2.88949">
        <ele>134.030546</ele>
        <time>2021-09-09T11:07:02.000Z</time>
      </trkpt>
      <trkpt lat="47.49501" lon="2.88973">
        <ele>134.151331</ele>
        <time>2021-09-09T11:07:05.000Z</time>
      </trkpt>
      <trkpt lat="47.49501" lon="2.88978">
        <ele>134.179448</ele>
        <time>2021-09-09T11:07:07.000Z</time>
      </trkpt>
      <trkpt lat="47.49492" lon="2.88983">
        <ele>134.242865</ele>
        <time>2021-09-09T11:07:09.000Z</time>
      </trkpt>
      <trkpt lat="47.49479" lon="2.8899">
        <ele>134.350232</ele>
        <time>2021-09-09T11:07:12.000Z</time>
      </trkpt>
      <trkpt lat="47.49443" lon="2.89006">
        <ele>134.626436</ele>
        <time>2021-09-09T11:07:19.000Z</time>
      </trkpt>
      <trkpt lat="47.49396" lon="2.89021">
        <ele>135.041073</ele>
        <time>2021-09-09T11:07:28.000Z</time>
      </trkpt>
      <trkpt lat="47.49356" lon="2.89042">
        <ele>135.410549</ele>
        <time>2021-09-09T11:07:36.000Z</time>
      </trkpt>
      <trkpt lat="47.49316" lon="2.89069">
        <ele>135.798419</ele>
        <time>2021-09-09T11:07:44.000Z</time>
      </trkpt>
      <trkpt lat="47.4928" lon="2.89092">
        <ele>136.141088</ele>
        <time>2021-09-09T11:07:51.000Z</time>
      </trkpt>
      <trkpt lat="47.49275" lon="2.89096">
        <ele>136.189961</ele>
        <time>2021-09-09T11:07:52.000Z</time>
      </trkpt>
      <trkpt lat="47.49262" lon="2.89108">
        <ele>136.246424</ele>
        <time>2021-09-09T11:07:55.000Z</time>
      </trkpt>
      <trkpt lat="47.49236" lon="2.89136">
        <ele>136.31389</ele>
        <time>2021-09-09T11:08:01.000Z</time>
      </trkpt>
      <trkpt lat="47.49215" lon="2.89157">
        <ele>136.366819</ele>
        <time>2021-09-09T11:08:06.000Z</time>
      </trkpt>
      <trkpt lat="47.49193" lon="2.8918">
        <ele>136.423718</ele>
        <time>2021-09-09T11:08:11.000Z</time>
      </trkpt>
      <trkpt lat="47.49189" lon="2.89185">
        <ele>136.435129</ele>
        <time>2021-09-09T11:08:12.000Z</time>
      </trkpt>
      <trkpt lat="47.49172" lon="2.89202">
        <ele>136.478079</ele>
        <time>2021-09-09T11:08:16.000Z</time>
      </trkpt>
      <trkpt lat="47.4914" lon="2.89236">
        <ele>136.561017</ele>
        <time>2021-09-09T11:08:23.000Z</time>
      </trkpt>
      <trkpt lat="47.49135" lon="2.89241">
        <ele>136.573107</ele>
        <time>2021-09-09T11:08:24.000Z</time>
      </trkpt>
      <trkpt lat="47.49113" lon="2.89254">
        <ele>136.609189</ele>
        <time>2021-09-09T11:08:28.000Z</time>
      </trkpt>
      <trkpt lat="47.49067" lon="2.89268">
        <ele>136.647667</ele>
        <time>2021-09-09T11:08:36.000Z</time>
      </trkpt>
      <trkpt lat="47.49016" lon="2.89278">
        <ele>136.690116</ele>
        <time>2021-09-09T11:08:45.000Z</time>
      </trkpt>
      <trkpt lat="47.48977" lon="2.89282">
        <ele>136.722044</ele>
        <time>2021-09-09T11:08:52.000Z</time>
      </trkpt>
      <trkpt lat="47.4894" lon="2.89275">
        <ele>136.758491</ele>
        <time>2021-09-09T11:08:59.000Z</time>
      </trkpt>
      <trkpt lat="47.48903" lon="2.89271">
        <ele>136.82694</ele>
        <time>2021-09-09T11:09:06.000Z</time>
      </trkpt>
      <trkpt lat="47.48869" lon="2.89274">
        <ele>136.887517</ele>
        <time>2021-09-09T11:09:12.000Z</time>
      </trkpt>
      <trkpt lat="47.48826" lon="2.89287">
        <ele>136.968073</ele>
        <time>2021-09-09T11:09:20.000Z</time>
      </trkpt>
      <trkpt lat="47.48784" lon="2.8931">
        <ele>137.049292</ele>
        <time>2021-09-09T11:09:28.000Z</time>
      </trkpt>
      <trkpt lat="47.48748" lon="2.89335">
        <ele>137.012564</ele>
        <time>2021-09-09T11:09:35.000Z</time>
      </trkpt>
      <trkpt lat="47.48718" lon="2.89362">
        <ele>136.928045</ele>
        <time>2021-09-09T11:09:41.000Z</time>
      </trkpt>
      <trkpt lat="47.487" lon="2.89384">
        <ele>136.870675</ele>
        <time>2021-09-09T11:09:45.000Z</time>
      </trkpt>
      <trkpt lat="47.48691" lon="2.89395">
        <ele>136.84306</ele>
        <time>2021-09-09T11:09:47.000Z</time>
      </trkpt>
      <trkpt lat="47.48658" lon="2.89434">
        <ele>136.741855</ele>
        <time>2021-09-09T11:09:54.000Z</time>
      </trkpt>
      <trkpt lat="47.4862" lon="2.89478">
        <ele>136.650175</ele>
        <time>2021-09-09T11:10:02.000Z</time>
      </trkpt>
      <trkpt lat="47.48588" lon="2.89519">
        <ele>136.698237</ele>
        <time>2021-09-09T11:10:09.000Z</time>
      </trkpt>
      <trkpt lat="47.48578" lon="2.89527">
        <ele>136.712102</ele>
        <time>2021-09-09T11:10:11.000Z</time>
      </trkpt>
      <trkpt lat="47.48555" lon="2.8954">
        <ele>136.739411</ele>
        <time>2021-09-09T11:10:15.000Z</time>
      </trkpt>
      <trkpt lat="47.4851" lon="2.89566">
        <ele>136.794992</ele>
        <time>2021-09-09T11:10:23.000Z</time>
      </trkpt>
      <trkpt lat="47.48476" lon="2.89585">
        <ele>136.836277</ele>
        <time>2021-09-09T11:10:29.000Z</time>
      </trkpt>
      <trkpt lat="47.48459" lon="2.89595">
        <ele>136.850384</ele>
        <time>2021-09-09T11:10:32.000Z</time>
      </trkpt>
      <trkpt lat="47.48443" lon="2.89605">
        <ele>136.855734</ele>
        <time>2021-09-09T11:10:35.000Z</time>
      </trkpt>
      <trkpt lat="47.48404" lon="2.89627">
        <ele>136.868534</ele>
        <time>2021-09-09T11:10:42.000Z</time>
      </trkpt>
      <trkpt lat="47.48376" lon="2.89639">
        <ele>136.877209</ele>
        <time>2021-09-09T11:10:47.000Z</time>
      </trkpt>
      <trkpt lat="47.48363" lon="2.89641">
        <ele>136.881262</ele>
        <time>2021-09-09T11:10:50.000Z</time>
      </trkpt>
      <trkpt lat="47.48354" lon="2.89641">
        <ele>136.883875</ele>
        <time>2021-09-09T11:10:51.000Z</time>
      </trkpt>
      <trkpt lat="47.48351" lon="2.89644">
        <ele>136.885224</ele>
        <time>2021-09-09T11:10:52.000Z</time>
      </trkpt>
      <trkpt lat="47.48342" lon="2.8965">
        <ele>136.888142</ele>
        <time>2021-09-09T11:10:54.000Z</time>
      </trkpt>
      <trkpt lat="47.48315" lon="2.89653">
        <ele>136.896279</ele>
        <time>2021-09-09T11:10:59.000Z</time>
      </trkpt>
      <trkpt lat="47.48303" lon="2.89651">
        <ele>136.899945</ele>
        <time>2021-09-09T11:11:01.000Z</time>
      </trkpt>
      <trkpt lat="47.48286" lon="2.89649">
        <ele>136.904339</ele>
        <time>2021-09-09T11:11:04.000Z</time>
      </trkpt>
      <trkpt lat="47.48249" lon="2.89625">
        <ele>136.912848</ele>
        <time>2021-09-09T11:11:11.000Z</time>
      </trkpt>
      <trkpt lat="47.48244" lon="2.89622">
        <ele>136.914087</ele>
        <time>2021-09-09T11:11:12.000Z</time>
      </trkpt>
      <trkpt lat="47.48228" lon="2.89612">
        <ele>136.917646</ele>
        <time>2021-09-09T11:11:15.000Z</time>
      </trkpt>
      <trkpt lat="47.48192" lon="2.89588">
        <ele>136.925898</ele>
        <time>2021-09-09T11:11:22.000Z</time>
      </trkpt>
      <trkpt lat="47.48154" lon="2.89574">
        <ele>136.934193</ele>
        <time>2021-09-09T11:11:29.000Z</time>
      </trkpt>
      <trkpt lat="47.48128" lon="2.89566">
        <ele>136.939672</ele>
        <time>2021-09-09T11:11:34.000Z</time>
      </trkpt>
      <trkpt lat="47.48118" lon="2.89564">
        <ele>136.946274</ele>
        <time>2021-09-09T11:11:36.000Z</time>
      </trkpt>
      <trkpt lat="47.48113" lon="2.89563">
        <ele>136.951315</ele>
        <time>2021-09-09T11:11:37.000Z</time>
      </trkpt>
      <trkpt lat="47.48101" lon="2.89564">
        <ele>136.961542</ele>
        <time>2021-09-09T11:11:39.000Z</time>
      </trkpt>
      <trkpt lat="47.48091" lon="2.89568">
        <ele>136.970915</ele>
        <time>2021-09-09T11:11:41.000Z</time>
      </trkpt>
      <trkpt lat="47.48059" lon="2.89583">
        <ele>137.001076</ele>
        <time>2021-09-09T11:11:47.000Z</time>
      </trkpt>
      <trkpt lat="47.48054" lon="2.89586">
        <ele>137.006132</ele>
        <time>2021-09-09T11:11:48.000Z</time>
      </trkpt>
      <trkpt lat="47.48021" lon="2.89604">
        <ele>137.037503</ele>
        <time>2021-09-09T11:11:54.000Z</time>
      </trkpt>
      <trkpt lat="47.47981" lon="2.89625">
        <ele>137.075357</ele>
        <time>2021-09-09T11:12:01.000Z</time>
      </trkpt>
      <trkpt lat="47.47947" lon="2.89641">
        <ele>137.124624</ele>
        <time>2021-09-09T11:12:07.000Z</time>
      </trkpt>
      <trkpt lat="47.47926" lon="2.8965">
        <ele>137.200187</ele>
        <time>2021-09-09T11:12:12.000Z</time>
      </trkpt>
      <trkpt lat="47.47904" lon="2.89659">
        <ele>137.27934</ele>
        <time>2021-09-09T11:12:18.000Z</time>
      </trkpt>
      <trkpt lat="47.479" lon="2.89661">
        <ele>137.293246</ele>
        <time>2021-09-09T11:12:19.000Z</time>
      </trkpt>
      <trkpt lat="47.47892" lon="2.89664">
        <ele>137.323188</ele>
        <time>2021-09-09T11:12:21.000Z</time>
      </trkpt>
      <trkpt lat="47.47882" lon="2.89667">
        <ele>137.356326</ele>
        <time>2021-09-09T11:12:23.000Z</time>
      </trkpt>
      <trkpt lat="47.47848" lon="2.89679">
        <ele>137.47828</ele>
        <time>2021-09-09T11:12:30.000Z</time>
      </trkpt>
      <trkpt lat="47.47843" lon="2.89681">
        <ele>137.495774</ele>
        <time>2021-09-09T11:12:31.000Z</time>
      </trkpt>
      <trkpt lat="47.47818" lon="2.8969">
        <ele>137.584535</ele>
        <time>2021-09-09T11:12:36.000Z</time>
      </trkpt>
      <trkpt lat="47.47785" lon="2.89711">
        <ele>137.7112</ele>
        <time>2021-09-09T11:12:43.000Z</time>
      </trkpt>
      <trkpt lat="47.47776" lon="2.89718">
        <ele>137.728814</ele>
        <time>2021-09-09T11:12:45.000Z</time>
      </trkpt>
      <trkpt lat="47.47758" lon="2.89735">
        <ele>137.742819</ele>
        <time>2021-09-09T11:12:49.000Z</time>
      </trkpt>
      <trkpt lat="47.47726" lon="2.89767">
        <ele>137.768247</ele>
        <time>2021-09-09T11:12:56.000Z</time>
      </trkpt>
      <trkpt lat="47.47712" lon="2.89781">
        <ele>137.779641</ele>
        <time>2021-09-09T11:12:59.000Z</time>
      </trkpt>
      <trkpt lat="47.47698" lon="2.89795">
        <ele>137.790716</ele>
        <time>2021-09-09T11:13:02.000Z</time>
      </trkpt>
      <trkpt lat="47.47674" lon="2.89818">
        <ele>137.809861</ele>
        <time>2021-09-09T11:13:07.000Z</time>
      </trkpt>
      <trkpt lat="47.47664" lon="2.89827">
        <ele>137.817263</ele>
        <time>2021-09-09T11:13:09.000Z</time>
      </trkpt>
      <trkpt lat="47.47656" lon="2.89836">
        <ele>137.824105</ele>
        <time>2021-09-09T11:13:11.000Z</time>
      </trkpt>
      <trkpt lat="47.47626" lon="2.89866">
        <ele>137.848045</ele>
        <time>2021-09-09T11:13:17.000Z</time>
      </trkpt>
      <trkpt lat="47.47591" lon="2.899">
        <ele>137.876648</ele>
        <time>2021-09-09T11:13:24.000Z</time>
      </trkpt>
      <trkpt lat="47.47552" lon="2.89939">
        <ele>137.908125</ele>
        <time>2021-09-09T11:13:32.000Z</time>
      </trkpt>
      <trkpt lat="47.47547" lon="2.89943">
        <ele>137.911925</ele>
        <time>2021-09-09T11:13:33.000Z</time>
      </trkpt>
      <trkpt lat="47.47519" lon="2.89971">
        <ele>137.934449</ele>
        <time>2021-09-09T11:13:39.000Z</time>
      </trkpt>
      <trkpt lat="47.47486" lon="2.90003">
        <ele>137.961125</ele>
        <time>2021-09-09T11:13:46.000Z</time>
      </trkpt>
      <trkpt lat="47.47455" lon="2.90035">
        <ele>138.020892</ele>
        <time>2021-09-09T11:13:53.000Z</time>
      </trkpt>
      <trkpt lat="47.47414" lon="2.90074">
        <ele>138.104645</ele>
        <time>2021-09-09T11:14:02.000Z</time>
      </trkpt>
      <trkpt lat="47.47382" lon="2.90106">
        <ele>138.17117</ele>
        <time>2021-09-09T11:14:09.000Z</time>
      </trkpt>
      <trkpt lat="47.47346" lon="2.90142">
        <ele>138.245448</ele>
        <time>2021-09-09T11:14:17.000Z</time>
      </trkpt>
      <trkpt lat="47.47318" lon="2.90169">
        <ele>138.311871</ele>
        <time>2021-09-09T11:14:23.000Z</time>
      </trkpt>
      <trkpt lat="47.47285" lon="2.90202">
        <ele>138.398705</ele>
        <time>2021-09-09T11:14:30.000Z</time>
      </trkpt>
      <trkpt lat="47.47251" lon="2.90235">
        <ele>138.48615</ele>
        <time>2021-09-09T11:14:37.000Z</time>
      </trkpt>
      <trkpt lat="47.47212" lon="2.90273">
        <ele>138.589858</ele>
        <time>2021-09-09T11:14:45.000Z</time>
      </trkpt>
      <trkpt lat="47.47178" lon="2.90306">
        <ele>138.663699</ele>
        <time>2021-09-09T11:14:52.000Z</time>
      </trkpt>
      <trkpt lat="47.4714" lon="2.90343">
        <ele>138.624072</ele>
        <time>2021-09-09T11:15:00.000Z</time>
      </trkpt>
      <trkpt lat="47.47105" lon="2.90377">
        <ele>138.587722</ele>
        <time>2021-09-09T11:15:07.000Z</time>
      </trkpt>
      <trkpt lat="47.47073" lon="2.90412">
        <ele>138.552799</ele>
        <time>2021-09-09T11:15:14.000Z</time>
      </trkpt>
      <trkpt lat="47.47042" lon="2.90448">
        <ele>138.518134</ele>
        <time>2021-09-09T11:15:21.000Z</time>
      </trkpt>
      <trkpt lat="47.47004" lon="2.90493">
        <ele>138.495133</ele>
        <time>2021-09-09T11:15:29.000Z</time>
      </trkpt>
      <trkpt lat="47.46969" lon="2.90533">
        <ele>138.477706</ele>
        <time>2021-09-09T11:15:36.000Z</time>
      </trkpt>
      <trkpt lat="47.46937" lon="2.90554">
        <ele>138.463593</ele>
        <time>2021-09-09T11:15:42.000Z</time>
      </trkpt>
      <trkpt lat="47.46898" lon="2.90579">
        <ele>138.446852</ele>
        <time>2021-09-09T11:15:49.000Z</time>
      </trkpt>
      <trkpt lat="47.4685" lon="2.90611">
        <ele>138.515042</ele>
        <time>2021-09-09T11:15:58.000Z</time>
      </trkpt>
      <trkpt lat="47.46833" lon="2.90621">
        <ele>138.552807</ele>
        <time>2021-09-09T11:16:01.000Z</time>
      </trkpt>
      <trkpt lat="47.46818" lon="2.90632">
        <ele>138.588937</ele>
        <time>2021-09-09T11:16:04.000Z</time>
      </trkpt>
      <trkpt lat="47.46786" lon="2.90653">
        <ele>138.6658</ele>
        <time>2021-09-09T11:16:10.000Z</time>
      </trkpt>
      <trkpt lat="47.46751" lon="2.90664">
        <ele>138.741399</ele>
        <time>2021-09-09T11:16:16.000Z</time>
      </trkpt>
      <trkpt lat="47.46733" lon="2.90668">
        <ele>138.780172</ele>
        <time>2021-09-09T11:16:19.000Z</time>
      </trkpt>
      <trkpt lat="47.46721" lon="2.9067">
        <ele>138.806162</ele>
        <time>2021-09-09T11:16:21.000Z</time>
      </trkpt>
      <trkpt lat="47.46679" lon="2.90678">
        <ele>138.816088</ele>
        <time>2021-09-09T11:16:28.000Z</time>
      </trkpt>
      <trkpt lat="47.46639" lon="2.90686">
        <ele>138.80367</ele>
        <time>2021-09-09T11:16:35.000Z</time>
      </trkpt>
      <trkpt lat="47.4661" lon="2.90692">
        <ele>138.794938</ele>
        <time>2021-09-09T11:16:40.000Z</time>
      </trkpt>
      <trkpt lat="47.46604" lon="2.90693">
        <ele>138.793234</ele>
        <time>2021-09-09T11:16:41.000Z</time>
      </trkpt>
      <trkpt lat="47.46583" lon="2.90702">
        <ele>138.786471</ele>
        <time>2021-09-09T11:16:45.000Z</time>
      </trkpt>
      <trkpt lat="47.46578" lon="2.90706">
        <ele>138.78484</ele>
        <time>2021-09-09T11:16:46.000Z</time>
      </trkpt>
      <trkpt lat="47.46541" lon="2.90744">
        <ele>138.771492</ele>
        <time>2021-09-09T11:16:54.000Z</time>
      </trkpt>
      <trkpt lat="47.46507" lon="2.90779">
        <ele>138.763527</ele>
        <time>2021-09-09T11:17:01.000Z</time>
      </trkpt>
      <trkpt lat="47.46472" lon="2.90815">
        <ele>138.755348</ele>
        <time>2021-09-09T11:17:08.000Z</time>
      </trkpt>
      <trkpt lat="47.46447" lon="2.90841">
        <ele>138.749637</ele>
        <time>2021-09-09T11:17:13.000Z</time>
      </trkpt>
      <trkpt lat="47.46438" lon="2.90851">
        <ele>138.74736</ele>
        <time>2021-09-09T11:17:15.000Z</time>
      </trkpt>
      <trkpt lat="47.46423" lon="2.90866">
        <ele>138.743902</ele>
        <time>2021-09-09T11:17:18.000Z</time>
      </trkpt>
      <trkpt lat="47.46413" lon="2.90876">
        <ele>138.741616</ele>
        <time>2021-09-09T11:17:20.000Z</time>
      </trkpt>
      <trkpt lat="47.46397" lon="2.90891">
        <ele>138.738112</ele>
        <time>2021-09-09T11:17:23.000Z</time>
      </trkpt>
      <trkpt lat="47.46367" lon="2.90922">
        <ele>138.808888</ele>
        <time>2021-09-09T11:17:29.000Z</time>
      </trkpt>
      <trkpt lat="47.46336" lon="2.90953">
        <ele>138.887094</ele>
        <time>2021-09-09T11:17:35.000Z</time>
      </trkpt>
      <trkpt lat="47.4631" lon="2.9098">
        <ele>138.955648</ele>
        <time>2021-09-09T11:17:40.000Z</time>
      </trkpt>
      <trkpt lat="47.46294" lon="2.90996">
        <ele>138.996457</ele>
        <time>2021-09-09T11:17:43.000Z</time>
      </trkpt>
      <trkpt lat="47.46283" lon="2.91006">
        <ele>139.023097</ele>
        <time>2021-09-09T11:17:45.000Z</time>
      </trkpt>
      <trkpt lat="47.46264" lon="2.91026">
        <ele>139.073114</ele>
        <time>2021-09-09T11:17:49.000Z</time>
      </trkpt>
      <trkpt lat="47.46255" lon="2.91036">
        <ele>139.096745</ele>
        <time>2021-09-09T11:17:51.000Z</time>
      </trkpt>
      <trkpt lat="47.46227" lon="2.91066">
        <ele>139.148735</ele>
        <time>2021-09-09T11:17:57.000Z</time>
      </trkpt>
      <trkpt lat="47.46189" lon="2.91107">
        <ele>139.207136</ele>
        <time>2021-09-09T11:18:05.000Z</time>
      </trkpt>
      <trkpt lat="47.4615" lon="2.91147">
        <ele>139.265612</ele>
        <time>2021-09-09T11:18:13.000Z</time>
      </trkpt>
      <trkpt lat="47.46115" lon="2.91182">
        <ele>139.317664</ele>
        <time>2021-09-09T11:18:20.000Z</time>
      </trkpt>
      <trkpt lat="47.46084" lon="2.91213">
        <ele>139.327505</ele>
        <time>2021-09-09T11:18:26.000Z</time>
      </trkpt>
      <trkpt lat="47.46079" lon="2.91218">
        <ele>139.323039</ele>
        <time>2021-09-09T11:18:27.000Z</time>
      </trkpt>
      <trkpt lat="47.46044" lon="2.91252">
        <ele>139.291989</ele>
        <time>2021-09-09T11:18:34.000Z</time>
      </trkpt>
      <trkpt lat="47.45999" lon="2.91295">
        <ele>139.25306</ele>
        <time>2021-09-09T11:18:43.000Z</time>
      </trkpt>
      <trkpt lat="47.45966" lon="2.91319">
        <ele>139.226037</ele>
        <time>2021-09-09T11:18:49.000Z</time>
      </trkpt>
      <trkpt lat="47.45922" lon="2.91345">
        <ele>139.265568</ele>
        <time>2021-09-09T11:18:57.000Z</time>
      </trkpt>
      <trkpt lat="47.45884" lon="2.91364">
        <ele>139.357871</ele>
        <time>2021-09-09T11:19:04.000Z</time>
      </trkpt>
      <trkpt lat="47.45844" lon="2.91384">
        <ele>139.458566</ele>
        <time>2021-09-09T11:19:12.000Z</time>
      </trkpt>
      <trkpt lat="47.45809" lon="2.91401">
        <ele>139.543688</ele>
        <time>2021-09-09T11:19:19.000Z</time>
      </trkpt>
      <trkpt lat="47.45768" lon="2.91422">
        <ele>139.635469</ele>
        <time>2021-09-09T11:19:27.000Z</time>
      </trkpt>
      <trkpt lat="47.45732" lon="2.91436">
        <ele>139.670962</ele>
        <time>2021-09-09T11:19:34.000Z</time>
      </trkpt>
      <trkpt lat="47.457" lon="2.91446">
        <ele>139.701883</ele>
        <time>2021-09-09T11:19:40.000Z</time>
      </trkpt>
      <trkpt lat="47.45647" lon="2.91464">
        <ele>139.754098</ele>
        <time>2021-09-09T11:19:50.000Z</time>
      </trkpt>
      <trkpt lat="47.45641" lon="2.91466">
        <ele>139.759456</ele>
        <time>2021-09-09T11:19:51.000Z</time>
      </trkpt>
      <trkpt lat="47.45592" lon="2.91482">
        <ele>139.798864</ele>
        <time>2021-09-09T11:20:00.000Z</time>
      </trkpt>
      <trkpt lat="47.4557" lon="2.9149">
        <ele>139.795392</ele>
        <time>2021-09-09T11:20:08.000Z</time>
      </trkpt>
      <trkpt lat="47.45513" lon="2.91509">
        <ele>139.78648</ele>
        <time>2021-09-09T11:20:14.000Z</time>
      </trkpt>
      <trkpt lat="47.45502" lon="2.91512">
        <ele>139.784703</ele>
        <time>2021-09-09T11:20:16.000Z</time>
      </trkpt>
      <trkpt lat="47.45463" lon="2.91526">
        <ele>139.778478</ele>
        <time>2021-09-09T11:20:23.000Z</time>
      </trkpt>
      <trkpt lat="47.45423" lon="2.91539">
        <ele>139.772196</ele>
        <time>2021-09-09T11:20:30.000Z</time>
      </trkpt>
      <trkpt lat="47.45385" lon="2.91551">
        <ele>139.756505</ele>
        <time>2021-09-09T11:20:37.000Z</time>
      </trkpt>
      <trkpt lat="47.45335" lon="2.91568">
        <ele>139.735859</ele>
        <time>2021-09-09T11:20:46.000Z</time>
      </trkpt>
      <trkpt lat="47.45292" lon="2.91582">
        <ele>139.71782</ele>
        <time>2021-09-09T11:20:54.000Z</time>
      </trkpt>
      <trkpt lat="47.45259" lon="2.91593">
        <ele>139.704319</ele>
        <time>2021-09-09T11:21:00.000Z</time>
      </trkpt>
      <trkpt lat="47.4521" lon="2.9161">
        <ele>139.678162</ele>
        <time>2021-09-09T11:21:09.000Z</time>
      </trkpt>
      <trkpt lat="47.45165" lon="2.91625">
        <ele>139.652468</ele>
        <time>2021-09-09T11:21:17.000Z</time>
      </trkpt>
      <trkpt lat="47.45125" lon="2.91638">
        <ele>139.629842</ele>
        <time>2021-09-09T11:21:24.000Z</time>
      </trkpt>
      <trkpt lat="47.45092" lon="2.91649">
        <ele>139.610564</ele>
        <time>2021-09-09T11:21:30.000Z</time>
      </trkpt>
      <trkpt lat="47.45037" lon="2.91668">
        <ele>139.60007</ele>
        <time>2021-09-09T11:21:40.000Z</time>
      </trkpt>
      <trkpt lat="47.44999" lon="2.91681">
        <ele>139.600147</ele>
        <time>2021-09-09T11:21:47.000Z</time>
      </trkpt>
      <trkpt lat="47.44956" lon="2.91696">
        <ele>139.600234</ele>
        <time>2021-09-09T11:21:55.000Z</time>
      </trkpt>
      <trkpt lat="47.44907" lon="2.91712">
        <ele>139.600334</ele>
        <time>2021-09-09T11:22:04.000Z</time>
      </trkpt>
      <trkpt lat="47.44856" lon="2.91729">
        <ele>139.596079</ele>
        <time>2021-09-09T11:22:13.000Z</time>
      </trkpt>
      <trkpt lat="47.44816" lon="2.91743">
        <ele>139.592006</ele>
        <time>2021-09-09T11:22:20.000Z</time>
      </trkpt>
      <trkpt lat="47.44764" lon="2.9176">
        <ele>139.586708</ele>
        <time>2021-09-09T11:22:29.000Z</time>
      </trkpt>
      <trkpt lat="47.44718" lon="2.9177">
        <ele>139.585342</ele>
        <time>2021-09-09T11:22:37.000Z</time>
      </trkpt>
      <trkpt lat="47.44677" lon="2.91777">
        <ele>139.614575</ele>
        <time>2021-09-09T11:22:44.000Z</time>
      </trkpt>
      <trkpt lat="47.44636" lon="2.91783">
        <ele>139.644168</ele>
        <time>2021-09-09T11:22:51.000Z</time>
      </trkpt>
      <trkpt lat="47.44594" lon="2.9179">
        <ele>139.674256</ele>
        <time>2021-09-09T11:22:58.000Z</time>
      </trkpt>
      <trkpt lat="47.44547" lon="2.91797">
        <ele>139.707933</ele>
        <time>2021-09-09T11:23:06.000Z</time>
      </trkpt>
      <trkpt lat="47.44508" lon="2.91803">
        <ele>139.746096</ele>
        <time>2021-09-09T11:23:13.000Z</time>
      </trkpt>
      <trkpt lat="47.44469" lon="2.91809">
        <ele>139.78571</ele>
        <time>2021-09-09T11:23:20.000Z</time>
      </trkpt>
      <trkpt lat="47.44424" lon="2.91817">
        <ele>139.830447</ele>
        <time>2021-09-09T11:23:28.000Z</time>
      </trkpt>
      <trkpt lat="47.44379" lon="2.91825">
        <ele>139.876158</ele>
        <time>2021-09-09T11:23:36.000Z</time>
      </trkpt>
      <trkpt lat="47.44334" lon="2.91832">
        <ele>139.910741</ele>
        <time>2021-09-09T11:23:44.000Z</time>
      </trkpt>
      <trkpt lat="47.44282" lon="2.91841">
        <ele>139.943659</ele>
        <time>2021-09-09T11:23:53.000Z</time>
      </trkpt>
      <trkpt lat="47.44237" lon="2.91845">
        <ele>139.972081</ele>
        <time>2021-09-09T11:24:01.000Z</time>
      </trkpt>
      <trkpt lat="47.44194" lon="2.91847">
        <ele>139.999247</ele>
        <time>2021-09-09T11:24:09.000Z</time>
      </trkpt>
      <trkpt lat="47.4415" lon="2.91848">
        <ele>140.042025</ele>
        <time>2021-09-09T11:24:17.000Z</time>
      </trkpt>
      <trkpt lat="47.44112" lon="2.91848">
        <ele>140.082129</ele>
        <time>2021-09-09T11:24:24.000Z</time>
      </trkpt>
      <trkpt lat="47.44079" lon="2.91849">
        <ele>140.11714</ele>
        <time>2021-09-09T11:24:30.000Z</time>
      </trkpt>
      <trkpt lat="47.44036" lon="2.9185">
        <ele>140.163187</ele>
        <time>2021-09-09T11:24:38.000Z</time>
      </trkpt>
      <trkpt lat="47.43987" lon="2.91851">
        <ele>140.219344</ele>
        <time>2021-09-09T11:24:47.000Z</time>
      </trkpt>
      <trkpt lat="47.43937" lon="2.91852">
        <ele>140.286805</ele>
        <time>2021-09-09T11:24:56.000Z</time>
      </trkpt>
      <trkpt lat="47.43887" lon="2.91853">
        <ele>140.353592</ele>
        <time>2021-09-09T11:25:05.000Z</time>
      </trkpt>
      <trkpt lat="47.43837" lon="2.91853">
        <ele>140.419446</ele>
        <time>2021-09-09T11:25:14.000Z</time>
      </trkpt>
      <trkpt lat="47.43804" lon="2.91853">
        <ele>140.456045</ele>
        <time>2021-09-09T11:25:20.000Z</time>
      </trkpt>
      <trkpt lat="47.4375" lon="2.91854">
        <ele>140.506233</ele>
        <time>2021-09-09T11:25:29.000Z</time>
      </trkpt>
      <trkpt lat="47.43711" lon="2.91854">
        <ele>140.543121</ele>
        <time>2021-09-09T11:25:36.000Z</time>
      </trkpt>
      <trkpt lat="47.43673" lon="2.91852">
        <ele>140.579368</ele>
        <time>2021-09-09T11:25:43.000Z</time>
      </trkpt>
      <trkpt lat="47.43627" lon="2.91848">
        <ele>140.618778</ele>
        <time>2021-09-09T11:25:51.000Z</time>
      </trkpt>
      <trkpt lat="47.43578" lon="2.91842">
        <ele>140.654052</ele>
        <time>2021-09-09T11:25:59.000Z</time>
      </trkpt>
      <trkpt lat="47.43524" lon="2.91834">
        <ele>140.693558</ele>
        <time>2021-09-09T11:26:08.000Z</time>
      </trkpt>
      <trkpt lat="47.43482" lon="2.9183">
        <ele>140.724375</ele>
        <time>2021-09-09T11:26:15.000Z</time>
      </trkpt>
      <trkpt lat="47.43427" lon="2.91833">
        <ele>140.814228</ele>
        <time>2021-09-09T11:26:24.000Z</time>
      </trkpt>
      <trkpt lat="47.43373" lon="2.91835">
        <ele>140.923588</ele>
        <time>2021-09-09T11:26:33.000Z</time>
      </trkpt>
      <trkpt lat="47.43367" lon="2.91836">
        <ele>140.935517</ele>
        <time>2021-09-09T11:26:34.000Z</time>
      </trkpt>
      <trkpt lat="47.43319" lon="2.91831">
        <ele>141.032733</ele>
        <time>2021-09-09T11:26:42.000Z</time>
      </trkpt>
      <trkpt lat="47.43266" lon="2.91811">
        <ele>141.157293</ele>
        <time>2021-09-09T11:26:51.000Z</time>
      </trkpt>
      <trkpt lat="47.43232" lon="2.91799">
        <ele>141.247875</ele>
        <time>2021-09-09T11:26:57.000Z</time>
      </trkpt>
      <trkpt lat="47.43187" lon="2.91783">
        <ele>141.368609</ele>
        <time>2021-09-09T11:27:05.000Z</time>
      </trkpt>
      <trkpt lat="47.43159" lon="2.91772">
        <ele>141.443335</ele>
        <time>2021-09-09T11:27:10.000Z</time>
      </trkpt>
      <trkpt lat="47.43148" lon="2.91764">
        <ele>141.473831</ele>
        <time>2021-09-09T11:27:12.000Z</time>
      </trkpt>
      <trkpt lat="47.43109" lon="2.91727">
        <ele>141.596123</ele>
        <time>2021-09-09T11:27:20.000Z</time>
      </trkpt>
      <trkpt lat="47.43075" lon="2.91694">
        <ele>141.7049</ele>
        <time>2021-09-09T11:27:27.000Z</time>
      </trkpt>
      <trkpt lat="47.4304" lon="2.9166">
        <ele>141.816056</ele>
        <time>2021-09-09T11:27:34.000Z</time>
      </trkpt>
      <trkpt lat="47.43" lon="2.9162">
        <ele>141.943752</ele>
        <time>2021-09-09T11:27:42.000Z</time>
      </trkpt>
      <trkpt lat="47.42959" lon="2.9158">
        <ele>142.072966</ele>
        <time>2021-09-09T11:27:50.000Z</time>
      </trkpt>
      <trkpt lat="47.42919" lon="2.9154">
        <ele>142.195345</ele>
        <time>2021-09-09T11:27:58.000Z</time>
      </trkpt>
      <trkpt lat="47.42889" lon="2.91511">
        <ele>142.283972</ele>
        <time>2021-09-09T11:28:04.000Z</time>
      </trkpt>
      <trkpt lat="47.42855" lon="2.91477">
        <ele>142.388356</ele>
        <time>2021-09-09T11:28:11.000Z</time>
      </trkpt>
      <trkpt lat="47.42821" lon="2.91444">
        <ele>142.490223</ele>
        <time>2021-09-09T11:28:18.000Z</time>
      </trkpt>
      <trkpt lat="47.42782" lon="2.91405">
        <ele>142.612321</ele>
        <time>2021-09-09T11:28:27.000Z</time>
      </trkpt>
      <trkpt lat="47.42737" lon="2.91362">
        <ele>142.750912</ele>
        <time>2021-09-09T11:28:37.000Z</time>
      </trkpt>
      <trkpt lat="47.42696" lon="2.91325">
        <ele>142.875609</ele>
        <time>2021-09-09T11:28:46.000Z</time>
      </trkpt>
      <trkpt lat="47.42667" lon="2.91307">
        <ele>142.957422</ele>
        <time>2021-09-09T11:28:52.000Z</time>
      </trkpt>
      <trkpt lat="47.42627" lon="2.91282">
        <ele>142.989132</ele>
        <time>2021-09-09T11:29:00.000Z</time>
      </trkpt>
      <trkpt lat="47.42582" lon="2.91254">
        <ele>143.018619</ele>
        <time>2021-09-09T11:29:09.000Z</time>
      </trkpt>
      <trkpt lat="47.42537" lon="2.91228">
        <ele>143.04714</ele>
        <time>2021-09-09T11:29:18.000Z</time>
      </trkpt>
      <trkpt lat="47.42497" lon="2.91203">
        <ele>143.07382</ele>
        <time>2021-09-09T11:29:26.000Z</time>
      </trkpt>
      <trkpt lat="47.42454" lon="2.91177">
        <ele>143.109631</ele>
        <time>2021-09-09T11:29:34.000Z</time>
      </trkpt>
      <trkpt lat="47.42416" lon="2.91154">
        <ele>143.14143</ele>
        <time>2021-09-09T11:29:41.000Z</time>
      </trkpt>
      <trkpt lat="47.42381" lon="2.91132">
        <ele>143.171763</ele>
        <time>2021-09-09T11:29:48.000Z</time>
      </trkpt>
      <trkpt lat="47.42346" lon="2.9111">
        <ele>143.201367</ele>
        <time>2021-09-09T11:29:55.000Z</time>
      </trkpt>
      <trkpt lat="47.42311" lon="2.91088">
        <ele>143.259469</ele>
        <time>2021-09-09T11:30:02.000Z</time>
      </trkpt>
      <trkpt lat="47.42279" lon="2.91067">
        <ele>143.328424</ele>
        <time>2021-09-09T11:30:08.000Z</time>
      </trkpt>
      <trkpt lat="47.42238" lon="2.91037">
        <ele>143.421392</ele>
        <time>2021-09-09T11:30:16.000Z</time>
      </trkpt>
      <trkpt lat="47.42203" lon="2.91007">
        <ele>143.501513</ele>
        <time>2021-09-09T11:30:23.000Z</time>
      </trkpt>
      <trkpt lat="47.42165" lon="2.90967">
        <ele>143.60657</ele>
        <time>2021-09-09T11:30:32.000Z</time>
      </trkpt>
      <trkpt lat="47.42131" lon="2.90932">
        <ele>143.72511</ele>
        <time>2021-09-09T11:30:40.000Z</time>
      </trkpt>
      <trkpt lat="47.42099" lon="2.90902">
        <ele>143.835639</ele>
        <time>2021-09-09T11:30:47.000Z</time>
      </trkpt>
      <trkpt lat="47.42057" lon="2.90869">
        <ele>143.974499</ele>
        <time>2021-09-09T11:30:55.000Z</time>
      </trkpt>
      <trkpt lat="47.42019" lon="2.9084">
        <ele>144.096566</ele>
        <time>2021-09-09T11:31:02.000Z</time>
      </trkpt>
      <trkpt lat="47.41968" lon="2.90805">
        <ele>144.165675</ele>
        <time>2021-09-09T11:31:11.000Z</time>
      </trkpt>
      <trkpt lat="47.41912" lon="2.90776">
        <ele>144.23753</ele>
        <time>2021-09-09T11:31:20.000Z</time>
      </trkpt>
      <trkpt lat="47.41906" lon="2.90773">
        <ele>144.245286</ele>
        <time>2021-09-09T11:31:21.000Z</time>
      </trkpt>
      <trkpt lat="47.41876" lon="2.90758">
        <ele>144.285099</ele>
        <time>2021-09-09T11:31:26.000Z</time>
      </trkpt>
      <trkpt lat="47.41826" lon="2.90734">
        <ele>144.272713</ele>
        <time>2021-09-09T11:31:34.000Z</time>
      </trkpt>
      <trkpt lat="47.41808" lon="2.90726">
        <ele>144.24442</ele>
        <time>2021-09-09T11:31:38.000Z</time>
      </trkpt>
      <trkpt lat="47.41797" lon="2.9072">
        <ele>144.226293</ele>
        <time>2021-09-09T11:31:43.000Z</time>
      </trkpt>
      <trkpt lat="47.41789" lon="2.90711">
        <ele>144.210719</ele>
        <time>2021-09-09T11:31:46.000Z</time>
      </trkpt>
      <trkpt lat="47.41783" lon="2.90716">
        <ele>144.199377</ele>
        <time>2021-09-09T11:31:48.000Z</time>
      </trkpt>
      <trkpt lat="47.41771" lon="2.9072">
        <ele>144.181022</ele>
        <time>2021-09-09T11:31:50.000Z</time>
      </trkpt>
      <trkpt lat="47.41761" lon="2.90712">
        <ele>144.162399</ele>
        <time>2021-09-09T11:31:52.000Z</time>
      </trkpt>
      <trkpt lat="47.41743" lon="2.90709">
        <ele>144.135229</ele>
        <time>2021-09-09T11:31:55.000Z</time>
      </trkpt>
      <trkpt lat="47.41695" lon="2.90701">
        <ele>144.059641</ele>
        <time>2021-09-09T11:32:03.000Z</time>
      </trkpt>
      <trkpt lat="47.41637" lon="2.9069">
        <ele>143.918443</ele>
        <time>2021-09-09T11:32:12.000Z</time>
      </trkpt>
      <trkpt lat="47.41631" lon="2.90689">
        <ele>143.901213</ele>
        <time>2021-09-09T11:32:13.000Z</time>
      </trkpt>
      <trkpt lat="47.41586" lon="2.9068">
        <ele>143.778336</ele>
        <time>2021-09-09T11:32:20.000Z</time>
      </trkpt>
      <trkpt lat="47.41527" lon="2.90668">
        <ele>143.617701</ele>
        <time>2021-09-09T11:32:29.000Z</time>
      </trkpt>
      <trkpt lat="47.41521" lon="2.90667">
        <ele>143.600178</ele>
        <time>2021-09-09T11:32:30.000Z</time>
      </trkpt>
      <trkpt lat="47.41466" lon="2.90656">
        <ele>143.464518</ele>
        <time>2021-09-09T11:32:39.000Z</time>
      </trkpt>
      <trkpt lat="47.41411" lon="2.90646">
        <ele>143.337196</ele>
        <time>2021-09-09T11:32:48.000Z</time>
      </trkpt>
      <trkpt lat="47.41356" lon="2.90635">
        <ele>143.209166</ele>
        <time>2021-09-09T11:32:57.000Z</time>
      </trkpt>
      <trkpt lat="47.4135" lon="2.90633">
        <ele>143.194942</ele>
        <time>2021-09-09T11:32:58.000Z</time>
      </trkpt>
      <trkpt lat="47.41296" lon="2.90623">
        <ele>143.127693</ele>
        <time>2021-09-09T11:33:07.000Z</time>
      </trkpt>
      <trkpt lat="47.41254" lon="2.90614">
        <ele>143.117838</ele>
        <time>2021-09-09T11:33:14.000Z</time>
      </trkpt>
      <trkpt lat="47.41217" lon="2.90607">
        <ele>143.109184</ele>
        <time>2021-09-09T11:33:20.000Z</time>
      </trkpt>
      <trkpt lat="47.41211" lon="2.90606">
        <ele>143.107747</ele>
        <time>2021-09-09T11:33:21.000Z</time>
      </trkpt>
      <trkpt lat="47.41199" lon="2.90604">
        <ele>143.104809</ele>
        <time>2021-09-09T11:33:23.000Z</time>
      </trkpt>
      <trkpt lat="47.41186" lon="2.90609">
        <ele>143.101767</ele>
        <time>2021-09-09T11:33:25.000Z</time>
      </trkpt>
      <trkpt lat="47.41147" lon="2.90601">
        <ele>143.092653</ele>
        <time>2021-09-09T11:33:31.000Z</time>
      </trkpt>
      <trkpt lat="47.41141" lon="2.906">
        <ele>143.123795</ele>
        <time>2021-09-09T11:33:32.000Z</time>
      </trkpt>
      <trkpt lat="47.4113" lon="2.90598">
        <ele>143.199358</ele>
        <time>2021-09-09T11:33:34.000Z</time>
      </trkpt>
      <trkpt lat="47.41125" lon="2.90597">
        <ele>143.232908</ele>
        <time>2021-09-09T11:33:35.000Z</time>
      </trkpt>
      <trkpt lat="47.41118" lon="2.90596">
        <ele>143.275572</ele>
        <time>2021-09-09T11:33:37.000Z</time>
      </trkpt>
      <trkpt lat="47.41111" lon="2.90595">
        <ele>143.319406</ele>
        <time>2021-09-09T11:33:38.000Z</time>
      </trkpt>
      <trkpt lat="47.41112" lon="2.90606">
        <ele>143.364462</ele>
        <time>2021-09-09T11:33:42.000Z</time>
      </trkpt>
      <trkpt lat="47.41112" lon="2.9061">
        <ele>143.386096</ele>
        <time>2021-09-09T11:33:43.000Z</time>
      </trkpt>
      <trkpt lat="47.41112" lon="2.90631">
        <ele>143.474884</ele>
        <time>2021-09-09T11:33:46.000Z</time>
      </trkpt>
      <trkpt lat="47.41114" lon="2.90685">
        <ele>143.716869</ele>
        <time>2021-09-09T11:33:53.000Z</time>
      </trkpt>
      <trkpt lat="47.41115" lon="2.9075">
        <ele>144.00298</ele>
        <time>2021-09-09T11:34:01.000Z</time>
      </trkpt>
      <trkpt lat="47.41117" lon="2.9083">
        <ele>144.252795</ele>
        <time>2021-09-09T11:34:10.000Z</time>
      </trkpt>
      <trkpt lat="47.41118" lon="2.90891">
        <ele>144.214961</ele>
        <time>2021-09-09T11:34:16.000Z</time>
      </trkpt>
      <trkpt lat="47.4112" lon="2.90965">
        <ele>144.170008</ele>
        <time>2021-09-09T11:34:22.000Z</time>
      </trkpt>
      <trkpt lat="47.41122" lon="2.91056">
        <ele>144.11388</ele>
        <time>2021-09-09T11:34:29.000Z</time>
      </trkpt>
      <trkpt lat="47.41122" lon="2.91082">
        <ele>144.098163</ele>
        <time>2021-09-09T11:34:31.000Z</time>
      </trkpt>
      <trkpt lat="47.41124" lon="2.91167">
        <ele>144.04836</ele>
        <time>2021-09-09T11:34:38.000Z</time>
      </trkpt>
      <trkpt lat="47.41126" lon="2.91256">
        <ele>143.995979</ele>
        <time>2021-09-09T11:34:46.000Z</time>
      </trkpt>
      <trkpt lat="47.41127" lon="2.9134">
        <ele>143.947054</ele>
        <time>2021-09-09T11:34:54.000Z</time>
      </trkpt>
      <trkpt lat="47.41129" lon="2.91421">
        <ele>143.913528</ele>
        <time>2021-09-09T11:35:02.000Z</time>
      </trkpt>
      <trkpt lat="47.41131" lon="2.91504">
        <ele>143.879529</ele>
        <time>2021-09-09T11:35:10.000Z</time>
      </trkpt>
      <trkpt lat="47.41131" lon="2.91526">
        <ele>143.870854</ele>
        <time>2021-09-09T11:35:12.000Z</time>
      </trkpt>
      <trkpt lat="47.41132" lon="2.91568">
        <ele>143.853549</ele>
        <time>2021-09-09T11:35:16.000Z</time>
      </trkpt>
      <trkpt lat="47.41134" lon="2.91648">
        <ele>143.997582</ele>
        <time>2021-09-09T11:35:24.000Z</time>
      </trkpt>
      <trkpt lat="47.41135" lon="2.91709">
        <ele>144.233695</ele>
        <time>2021-09-09T11:35:31.000Z</time>
      </trkpt>
      <trkpt lat="47.41136" lon="2.91771">
        <ele>144.470922</ele>
        <time>2021-09-09T11:35:39.000Z</time>
      </trkpt>
      <trkpt lat="47.41136" lon="2.918">
        <ele>144.582812</ele>
        <time>2021-09-09T11:35:43.000Z</time>
      </trkpt>
      <trkpt lat="47.41137" lon="2.91829">
        <ele>144.697032</ele>
        <time>2021-09-09T11:35:47.000Z</time>
      </trkpt>
      <trkpt lat="47.41138" lon="2.9186">
        <ele>144.815107</ele>
        <time>2021-09-09T11:35:51.000Z</time>
      </trkpt>
      <trkpt lat="47.41138" lon="2.91883">
        <ele>144.896371</ele>
        <time>2021-09-09T11:35:54.000Z</time>
      </trkpt>
      <trkpt lat="47.41139" lon="2.91932">
        <ele>145.050391</ele>
        <time>2021-09-09T11:36:00.000Z</time>
      </trkpt>
      <trkpt lat="47.41141" lon="2.91988">
        <ele>145.227158</ele>
        <time>2021-09-09T11:36:07.000Z</time>
      </trkpt>
      <trkpt lat="47.41142" lon="2.92044">
        <ele>145.404225</ele>
        <time>2021-09-09T11:36:14.000Z</time>
      </trkpt>
      <trkpt lat="47.41142" lon="2.92068">
        <ele>145.48092</ele>
        <time>2021-09-09T11:36:17.000Z</time>
      </trkpt>
      <trkpt lat="47.41143" lon="2.92093">
        <ele>145.560152</ele>
        <time>2021-09-09T11:36:20.000Z</time>
      </trkpt>
      <trkpt lat="47.41145" lon="2.92172">
        <ele>145.701218</ele>
        <time>2021-09-09T11:36:29.000Z</time>
      </trkpt>
      <trkpt lat="47.41145" lon="2.92196">
        <ele>145.701218</ele>
        <time>2021-09-09T11:36:32.000Z</time>
      </trkpt>
      <trkpt lat="47.41145" lon="2.92202">
        <ele>145.701218</ele>
        <time>2021-09-09T11:36:33.000Z</time>
      </trkpt>
      <trkpt lat="47.41145" lon="2.92205">
        <ele>145.701218</ele>
        <time>2021-09-09T11:36:34.000Z</time>
      </trkpt>
      <trkpt lat="47.41138" lon="2.92225">
        <ele>145.701218</ele>
        <time>2021-09-09T11:36:36.000Z</time>
      </trkpt>
      <trkpt lat="47.41148" lon="2.92228">
        <ele>145.701218</ele>
        <time>2021-09-09T11:36:38.000Z</time>
      </trkpt>
      <trkpt lat="47.41149" lon="2.92228">
        <ele>145.701218</ele>
        <time>2021-09-09T11:36:39.000Z</time>
      </trkpt>
      <trkpt lat="47.41189" lon="2.92223">
        <ele>145.701218</ele>
        <time>2021-09-09T11:36:46.000Z</time>
      </trkpt>
      <trkpt lat="47.4121" lon="2.92225">
        <ele>145.701218</ele>
        <time>2021-09-09T11:36:50.000Z</time>
      </trkpt>
      <trkpt lat="47.4123" lon="2.92227">
        <ele>145.701218</ele>
        <time>2021-09-09T11:36:54.000Z</time>
      </trkpt>
      <trkpt lat="47.41236" lon="2.92225">
        <ele>145.701218</ele>
        <time>2021-09-09T11:36:58.000Z</time>
      </trkpt>
      <trkpt lat="47.41236" lon="2.92225">
        <ele>145.701218</ele>
        <time>2021-09-09T11:36:59.000Z</time>
      </trkpt>
    </trkseg>
  </trk>
</gpx>